<?xml version='1.0' encoding='UTF-8'?><gpx version="1.1" creator="JPX - https://github.com/jenetics/jpx" xmlns="http://www.topografix.com/GPX/1/1"><trk><trkseg><trkpt lat="40.8938407" lon="14.2878028"><ele>80.0</ele><time>2026-04-12T07:27:17.814Z</time></trkpt><trkpt lat="40.8939055" lon="14.2878526"><ele>80.0</ele><time>2026-04-12T07:27:25.405Z</time></trkpt><trkpt lat="40.8939736" lon="14.287826"><ele>80.0</ele><time>2026-04-12T07:27:30.374Z</time></trkpt><trkpt lat="40.894004" lon="14.2877518"><ele>80.0</ele><time>2026-04-12T07:27:33.099Z</time></trkpt><trkpt lat="40.8940373" lon="14.2876675"><ele>80.0</ele><time>2026-04-12T07:27:35.106Z</time></trkpt><trkpt lat="40.8940692" lon="14.2875602"><ele>80.0</ele><time>2026-04-12T07:27:38.1Z</time></trkpt><trkpt lat="40.8940572" lon="14.2874694"><ele>80.0</ele><time>2026-04-12T07:27:40.14Z</time></trkpt><trkpt lat="40.8940152" lon="14.287383"><ele>80.0</ele><time>2026-04-12T07:27:42.098Z</time></trkpt><trkpt lat="40.8939133" lon="14.2872533"><ele>80.0</ele><time>2026-04-12T07:27:43.033Z</time></trkpt><trkpt lat="40.8938733" lon="14.2871267"><ele>80.0</ele><time>2026-04-12T07:27:45.032Z</time></trkpt><trkpt lat="40.8938433" lon="14.2870267"><ele>80.0</ele><time>2026-04-12T07:27:47.034Z</time></trkpt><trkpt lat="40.8938" lon="14.2869217"><ele>80.0</ele><time>2026-04-12T07:27:49.034Z</time></trkpt><trkpt lat="40.893765" lon="14.2868117"><ele>80.0</ele><time>2026-04-12T07:27:52.033Z</time></trkpt><trkpt lat="40.8937383" lon="14.28673"><ele>80.0</ele><time>2026-04-12T07:27:54.036Z</time></trkpt><trkpt lat="40.8936967" lon="14.28658"><ele>80.0</ele><time>2026-04-12T07:27:57.033Z</time></trkpt><trkpt lat="40.8936633" lon="14.286485"><ele>80.0</ele><time>2026-04-12T07:27:59.035Z</time></trkpt><trkpt lat="40.8936233" lon="14.2863833"><ele>80.0</ele><time>2026-04-12T07:28:01.034Z</time></trkpt><trkpt lat="40.89358" lon="14.2862717"><ele>80.0</ele><time>2026-04-12T07:28:03.034Z</time></trkpt><trkpt lat="40.8935267" lon="14.2861717"><ele>80.16666666666667</ele><time>2026-04-12T07:28:05.032Z</time></trkpt><trkpt lat="40.8936017" lon="14.286105"><ele>80.33333333333334</ele><time>2026-04-12T07:28:10.035Z</time></trkpt><trkpt lat="40.89367" lon="14.2861083"><ele>80.5</ele><time>2026-04-12T07:28:12.033Z</time></trkpt><trkpt lat="40.8937483" lon="14.2861167"><ele>80.66666666666667</ele><time>2026-04-12T07:28:14.035Z</time></trkpt><trkpt lat="40.8938117" lon="14.2861033"><ele>80.83333333333333</ele><time>2026-04-12T07:28:15.034Z</time></trkpt><trkpt lat="40.893915" lon="14.2860767"><ele>81.0</ele><time>2026-04-12T07:28:17.032Z</time></trkpt><trkpt lat="40.8940183" lon="14.286075"><ele>81.0</ele><time>2026-04-12T07:28:19.033Z</time></trkpt><trkpt lat="40.89412" lon="14.28608"><ele>81.0</ele><time>2026-04-12T07:28:21.034Z</time></trkpt><trkpt lat="40.89421" lon="14.2860983"><ele>81.0</ele><time>2026-04-12T07:28:23.033Z</time></trkpt><trkpt lat="40.8942917" lon="14.286105"><ele>81.0</ele><time>2026-04-12T07:28:25.035Z</time></trkpt><trkpt lat="40.8943733" lon="14.2861067"><ele>81.0</ele><time>2026-04-12T07:28:27.034Z</time></trkpt><trkpt lat="40.8944717" lon="14.28613"><ele>80.8</ele><time>2026-04-12T07:28:29.033Z</time></trkpt><trkpt lat="40.8945717" lon="14.2861417"><ele>80.6</ele><time>2026-04-12T07:28:31.034Z</time></trkpt><trkpt lat="40.8946717" lon="14.2861667"><ele>80.4</ele><time>2026-04-12T07:28:33.035Z</time></trkpt><trkpt lat="40.8947633" lon="14.2861917"><ele>80.2</ele><time>2026-04-12T07:28:35.036Z</time></trkpt><trkpt lat="40.8948433" lon="14.2862167"><ele>80.0</ele><time>2026-04-12T07:28:37.034Z</time></trkpt><trkpt lat="40.8949683" lon="14.28622"><ele>80.0</ele><time>2026-04-12T07:28:39.035Z</time></trkpt><trkpt lat="40.895045" lon="14.2862217"><ele>80.0</ele><time>2026-04-12T07:28:40.035Z</time></trkpt><trkpt lat="40.8951567" lon="14.2862183"><ele>80.0</ele><time>2026-04-12T07:28:42.035Z</time></trkpt><trkpt lat="40.8952567" lon="14.2862367"><ele>80.0</ele><time>2026-04-12T07:28:44.033Z</time></trkpt><trkpt lat="40.89537" lon="14.2862533"><ele>80.0</ele><time>2026-04-12T07:28:46.035Z</time></trkpt><trkpt lat="40.8954883" lon="14.2862517"><ele>80.0</ele><time>2026-04-12T07:28:48.035Z</time></trkpt><trkpt lat="40.8956017" lon="14.286255"><ele>80.0</ele><time>2026-04-12T07:28:50.034Z</time></trkpt><trkpt lat="40.8957117" lon="14.2862633"><ele>80.0</ele><time>2026-04-12T07:28:52.035Z</time></trkpt><trkpt lat="40.895815" lon="14.2862883"><ele>80.0</ele><time>2026-04-12T07:28:54.035Z</time></trkpt><trkpt lat="40.8959183" lon="14.2863167"><ele>80.0</ele><time>2026-04-12T07:28:56.035Z</time></trkpt><trkpt lat="40.8960233" lon="14.2863333"><ele>80.0</ele><time>2026-04-12T07:28:58.033Z</time></trkpt><trkpt lat="40.8961233" lon="14.28635"><ele>80.0</ele><time>2026-04-12T07:29:00.035Z</time></trkpt><trkpt lat="40.8962183" lon="14.2863767"><ele>80.0</ele><time>2026-04-12T07:29:02.035Z</time></trkpt><trkpt lat="40.896315" lon="14.2864117"><ele>80.0</ele><time>2026-04-12T07:29:04.033Z</time></trkpt><trkpt lat="40.8964117" lon="14.2864417"><ele>80.0</ele><time>2026-04-12T07:29:06.035Z</time></trkpt><trkpt lat="40.8965083" lon="14.2864783"><ele>80.0</ele><time>2026-04-12T07:29:08.035Z</time></trkpt><trkpt lat="40.8965883" lon="14.2864867"><ele>80.0</ele><time>2026-04-12T07:29:11.035Z</time></trkpt><trkpt lat="40.8966517" lon="14.28647"><ele>80.0</ele><time>2026-04-12T07:29:13.033Z</time></trkpt><trkpt lat="40.896715" lon="14.286405"><ele>80.0</ele><time>2026-04-12T07:29:15.035Z</time></trkpt><trkpt lat="40.896775" lon="14.286325"><ele>80.0</ele><time>2026-04-12T07:29:17.035Z</time></trkpt><trkpt lat="40.8968133" lon="14.286255"><ele>80.0</ele><time>2026-04-12T07:29:19.034Z</time></trkpt><trkpt lat="40.8968767" lon="14.286195"><ele>80.33333333333334</ele><time>2026-04-12T07:29:21.035Z</time></trkpt><trkpt lat="40.8969517" lon="14.286115"><ele>80.66666666666667</ele><time>2026-04-12T07:29:23.035Z</time></trkpt><trkpt lat="40.8970083" lon="14.2860317"><ele>81.0</ele><time>2026-04-12T07:29:25.035Z</time></trkpt><trkpt lat="40.897065" lon="14.2859633"><ele>81.33333333333333</ele><time>2026-04-12T07:29:27.035Z</time></trkpt><trkpt lat="40.8971267" lon="14.2858967"><ele>81.66666666666666</ele><time>2026-04-12T07:29:29.034Z</time></trkpt><trkpt lat="40.8971967" lon="14.285805"><ele>82.0</ele><time>2026-04-12T07:29:31.035Z</time></trkpt><trkpt lat="40.897275" lon="14.285695"><ele>82.0</ele><time>2026-04-12T07:29:33.034Z</time></trkpt><trkpt lat="40.89732" lon="14.2856283"><ele>82.0</ele><time>2026-04-12T07:29:34.035Z</time></trkpt><trkpt lat="40.8973933" lon="14.2855267"><ele>82.0</ele><time>2026-04-12T07:29:36.036Z</time></trkpt><trkpt lat="40.89746" lon="14.28543"><ele>82.0</ele><time>2026-04-12T07:29:38.035Z</time></trkpt><trkpt lat="40.8975033" lon="14.2853583"><ele>82.0</ele><time>2026-04-12T07:29:39.036Z</time></trkpt><trkpt lat="40.8975733" lon="14.2852633"><ele>82.0</ele><time>2026-04-12T07:29:41.035Z</time></trkpt><trkpt lat="40.8976383" lon="14.2851667"><ele>81.6</ele><time>2026-04-12T07:29:43.036Z</time></trkpt><trkpt lat="40.897695" lon="14.2850967"><ele>81.19999999999999</ele><time>2026-04-12T07:29:44.035Z</time></trkpt><trkpt lat="40.8977533" lon="14.285005"><ele>80.8</ele><time>2026-04-12T07:29:45.035Z</time></trkpt><trkpt lat="40.8978283" lon="14.2848667"><ele>80.4</ele><time>2026-04-12T07:29:47.035Z</time></trkpt><trkpt lat="40.8978683" lon="14.2847867"><ele>80.0</ele><time>2026-04-12T07:29:48.035Z</time></trkpt><trkpt lat="40.8979583" lon="14.284695"><ele>80.0</ele><time>2026-04-12T07:29:50.036Z</time></trkpt><trkpt lat="40.8980233" lon="14.2846483"><ele>80.0</ele><time>2026-04-12T07:29:52.035Z</time></trkpt><trkpt lat="40.898065" lon="14.2845767"><ele>80.0</ele><time>2026-04-12T07:29:55.032Z</time></trkpt><trkpt lat="40.8981317" lon="14.284575"><ele>80.0</ele><time>2026-04-12T07:29:58.034Z</time></trkpt><trkpt lat="40.89821" lon="14.2846233"><ele>80.0</ele><time>2026-04-12T07:30:01.034Z</time></trkpt><trkpt lat="40.89827" lon="14.284685"><ele>80.0</ele><time>2026-04-12T07:30:03.035Z</time></trkpt><trkpt lat="40.898345" lon="14.284785"><ele>80.6</ele><time>2026-04-12T07:30:05.034Z</time></trkpt><trkpt lat="40.89843" lon="14.2848983"><ele>81.2</ele><time>2026-04-12T07:30:07.035Z</time></trkpt><trkpt lat="40.8985167" lon="14.2849967"><ele>81.80000000000001</ele><time>2026-04-12T07:30:09.034Z</time></trkpt><trkpt lat="40.89859" lon="14.2850783"><ele>82.4</ele><time>2026-04-12T07:30:11.034Z</time></trkpt><trkpt lat="40.89867" lon="14.2851617"><ele>83.0</ele><time>2026-04-12T07:30:13.035Z</time></trkpt><trkpt lat="40.8987683" lon="14.2852433"><ele>83.0</ele><time>2026-04-12T07:30:15.034Z</time></trkpt><trkpt lat="40.89886" lon="14.2853017"><ele>83.0</ele><time>2026-04-12T07:30:17.034Z</time></trkpt><trkpt lat="40.8989467" lon="14.285355"><ele>83.0</ele><time>2026-04-12T07:30:19.034Z</time></trkpt><trkpt lat="40.89901" lon="14.2854317"><ele>83.0</ele><time>2026-04-12T07:30:21.034Z</time></trkpt><trkpt lat="40.89908" lon="14.2855167"><ele>83.0</ele><time>2026-04-12T07:30:23.035Z</time></trkpt><trkpt lat="40.8991567" lon="14.285595"><ele>83.2</ele><time>2026-04-12T07:30:25.035Z</time></trkpt><trkpt lat="40.89928" lon="14.2856467"><ele>83.4</ele><time>2026-04-12T07:30:27.033Z</time></trkpt><trkpt lat="40.899345" lon="14.28565"><ele>83.60000000000001</ele><time>2026-04-12T07:30:28.034Z</time></trkpt><trkpt lat="40.8994567" lon="14.2856883"><ele>83.80000000000001</ele><time>2026-04-12T07:30:30.036Z</time></trkpt><trkpt lat="40.89954" lon="14.285745"><ele>84.0</ele><time>2026-04-12T07:30:32.036Z</time></trkpt><trkpt lat="40.89964" lon="14.285815"><ele>84.0</ele><time>2026-04-12T07:30:34.034Z</time></trkpt><trkpt lat="40.8997367" lon="14.2859"><ele>84.0</ele><time>2026-04-12T07:30:36.036Z</time></trkpt><trkpt lat="40.8998417" lon="14.2859733"><ele>84.0</ele><time>2026-04-12T07:30:38.035Z</time></trkpt><trkpt lat="40.899915" lon="14.286"><ele>84.0</ele><time>2026-04-12T07:30:39.034Z</time></trkpt><trkpt lat="40.89998" lon="14.2860167"><ele>84.0</ele><time>2026-04-12T07:30:40.034Z</time></trkpt><trkpt lat="40.9000917" lon="14.28605"><ele>84.4</ele><time>2026-04-12T07:30:42.036Z</time></trkpt><trkpt lat="40.9001883" lon="14.28607"><ele>84.80000000000001</ele><time>2026-04-12T07:30:44.035Z</time></trkpt><trkpt lat="40.9002783" lon="14.2860733"><ele>85.19999999999999</ele><time>2026-04-12T07:30:46.035Z</time></trkpt><trkpt lat="40.9003883" lon="14.2860583"><ele>85.6</ele><time>2026-04-12T07:30:48.036Z</time></trkpt><trkpt lat="40.9004683" lon="14.2860433"><ele>86.0</ele><time>2026-04-12T07:30:50.035Z</time></trkpt><trkpt lat="40.9005483" lon="14.286015"><ele>86.0</ele><time>2026-04-12T07:30:52.034Z</time></trkpt><trkpt lat="40.9006233" lon="14.2859917"><ele>86.0</ele><time>2026-04-12T07:30:54.036Z</time></trkpt><trkpt lat="40.9007017" lon="14.28598"><ele>86.0</ele><time>2026-04-12T07:30:56.035Z</time></trkpt><trkpt lat="40.9008217" lon="14.2859833"><ele>86.0</ele><time>2026-04-12T07:30:58.034Z</time></trkpt><trkpt lat="40.900885" lon="14.2859833"><ele>86.0</ele><time>2026-04-12T07:30:59.035Z</time></trkpt><trkpt lat="40.901005" lon="14.2859733"><ele>85.8</ele><time>2026-04-12T07:31:01.034Z</time></trkpt><trkpt lat="40.9010983" lon="14.28595"><ele>85.6</ele><time>2026-04-12T07:31:03.035Z</time></trkpt><trkpt lat="40.9011833" lon="14.285935"><ele>85.4</ele><time>2026-04-12T07:31:05.034Z</time></trkpt><trkpt lat="40.9013217" lon="14.2858883"><ele>85.2</ele><time>2026-04-12T07:31:07.035Z</time></trkpt><trkpt lat="40.9014067" lon="14.28586"><ele>85.0</ele><time>2026-04-12T07:31:09.035Z</time></trkpt><trkpt lat="40.9014983" lon="14.2858383"><ele>85.0</ele><time>2026-04-12T07:31:11.036Z</time></trkpt><trkpt lat="40.901635" lon="14.2858017"><ele>85.0</ele><time>2026-04-12T07:31:13.035Z</time></trkpt><trkpt lat="40.9016983" lon="14.2857883"><ele>85.0</ele><time>2026-04-12T07:31:14.035Z</time></trkpt><trkpt lat="40.9018117" lon="14.2857617"><ele>85.0</ele><time>2026-04-12T07:31:16.035Z</time></trkpt><trkpt lat="40.901925" lon="14.2857633"><ele>85.0</ele><time>2026-04-12T07:31:18.033Z</time></trkpt><trkpt lat="40.9020333" lon="14.2857383"><ele>85.16666666666666</ele><time>2026-04-12T07:31:20.034Z</time></trkpt><trkpt lat="40.9021483" lon="14.2857117"><ele>85.33333333333333</ele><time>2026-04-12T07:31:22.033Z</time></trkpt><trkpt lat="40.9022233" lon="14.2857"><ele>85.5</ele><time>2026-04-12T07:31:23.033Z</time></trkpt><trkpt lat="40.9022983" lon="14.2856867"><ele>85.66666666666667</ele><time>2026-04-12T07:31:24.035Z</time></trkpt><trkpt lat="40.9023717" lon="14.2856683"><ele>85.83333333333334</ele><time>2026-04-12T07:31:25.033Z</time></trkpt><trkpt lat="40.902445" lon="14.2856483"><ele>86.0</ele><time>2026-04-12T07:31:26.035Z</time></trkpt><trkpt lat="40.9025683" lon="14.285615"><ele>85.83333333333334</ele><time>2026-04-12T07:31:28.035Z</time></trkpt><trkpt lat="40.9026583" lon="14.28562"><ele>85.66666666666667</ele><time>2026-04-12T07:31:29.035Z</time></trkpt><trkpt lat="40.9027533" lon="14.2856183"><ele>85.5</ele><time>2026-04-12T07:31:30.036Z</time></trkpt><trkpt lat="40.9028233" lon="14.2856117"><ele>85.33333333333333</ele><time>2026-04-12T07:31:31.036Z</time></trkpt><trkpt lat="40.90289" lon="14.2856"><ele>85.16666666666666</ele><time>2026-04-12T07:31:32.035Z</time></trkpt><trkpt lat="40.9029483" lon="14.2855683"><ele>85.0</ele><time>2026-04-12T07:31:33.035Z</time></trkpt><trkpt lat="40.9030517" lon="14.2855267"><ele>84.75</ele><time>2026-04-12T07:31:35.036Z</time></trkpt><trkpt lat="40.903155" lon="14.2855"><ele>84.5</ele><time>2026-04-12T07:31:37.035Z</time></trkpt><trkpt lat="40.9032717" lon="14.2854567"><ele>84.25</ele><time>2026-04-12T07:31:39.036Z</time></trkpt><trkpt lat="40.9033867" lon="14.2854283"><ele>84.0</ele><time>2026-04-12T07:31:41.035Z</time></trkpt><trkpt lat="40.9035017" lon="14.2853883"><ele>83.2</ele><time>2026-04-12T07:31:43.035Z</time></trkpt><trkpt lat="40.9036133" lon="14.2853617"><ele>82.4</ele><time>2026-04-12T07:31:45.035Z</time></trkpt><trkpt lat="40.9037333" lon="14.2853117"><ele>81.6</ele><time>2026-04-12T07:31:47.035Z</time></trkpt><trkpt lat="40.903795" lon="14.2852867"><ele>80.8</ele><time>2026-04-12T07:31:48.035Z</time></trkpt><trkpt lat="40.903905" lon="14.2852667"><ele>80.0</ele><time>2026-04-12T07:31:50.035Z</time></trkpt><trkpt lat="40.90402" lon="14.2852317"><ele>80.0</ele><time>2026-04-12T07:31:52.035Z</time></trkpt><trkpt lat="40.9041" lon="14.2851983"><ele>80.0</ele><time>2026-04-12T07:31:53.034Z</time></trkpt><trkpt lat="40.9041717" lon="14.2851633"><ele>80.0</ele><time>2026-04-12T07:31:54.035Z</time></trkpt><trkpt lat="40.9042433" lon="14.2851417"><ele>80.0</ele><time>2026-04-12T07:31:55.036Z</time></trkpt><trkpt lat="40.9043083" lon="14.285125"><ele>80.0</ele><time>2026-04-12T07:31:56.036Z</time></trkpt><trkpt lat="40.9043717" lon="14.2851117"><ele>80.0</ele><time>2026-04-12T07:31:57.037Z</time></trkpt><trkpt lat="40.9044333" lon="14.28509"><ele>80.0</ele><time>2026-04-12T07:31:58.035Z</time></trkpt><trkpt lat="40.9045" lon="14.2850683"><ele>79.8</ele><time>2026-04-12T07:31:59.034Z</time></trkpt><trkpt lat="40.9045617" lon="14.2850483"><ele>79.6</ele><time>2026-04-12T07:32:00.037Z</time></trkpt><trkpt lat="40.9046783" lon="14.2849967"><ele>79.4</ele><time>2026-04-12T07:32:02.034Z</time></trkpt><trkpt lat="40.9047967" lon="14.2849583"><ele>79.2</ele><time>2026-04-12T07:32:04.035Z</time></trkpt><trkpt lat="40.9049167" lon="14.2849183"><ele>79.0</ele><time>2026-04-12T07:32:06.037Z</time></trkpt><trkpt lat="40.905035" lon="14.2848767"><ele>79.0</ele><time>2026-04-12T07:32:08.034Z</time></trkpt><trkpt lat="40.90515" lon="14.2848433"><ele>79.0</ele><time>2026-04-12T07:32:10.035Z</time></trkpt><trkpt lat="40.9052667" lon="14.2847983"><ele>79.0</ele><time>2026-04-12T07:32:12.036Z</time></trkpt><trkpt lat="40.905385" lon="14.284765"><ele>79.0</ele><time>2026-04-12T07:32:14.035Z</time></trkpt><trkpt lat="40.9054467" lon="14.2847467"><ele>79.0</ele><time>2026-04-12T07:32:15.035Z</time></trkpt><trkpt lat="40.9055683" lon="14.284725"><ele>79.0</ele><time>2026-04-12T07:32:17.035Z</time></trkpt><trkpt lat="40.90569" lon="14.2847017"><ele>79.0</ele><time>2026-04-12T07:32:19.034Z</time></trkpt><trkpt lat="40.90581" lon="14.2846817"><ele>79.0</ele><time>2026-04-12T07:32:21.034Z</time></trkpt><trkpt lat="40.9058733" lon="14.2846833"><ele>79.0</ele><time>2026-04-12T07:32:22.034Z</time></trkpt><trkpt lat="40.90594" lon="14.284695"><ele>79.0</ele><time>2026-04-12T07:32:23.036Z</time></trkpt><trkpt lat="40.9060667" lon="14.2847117"><ele>78.8</ele><time>2026-04-12T07:32:25.034Z</time></trkpt><trkpt lat="40.9061317" lon="14.2847217"><ele>78.60000000000001</ele><time>2026-04-12T07:32:26.034Z</time></trkpt><trkpt lat="40.90625" lon="14.2847533"><ele>78.4</ele><time>2026-04-12T07:32:28.034Z</time></trkpt><trkpt lat="40.9063633" lon="14.2847967"><ele>78.2</ele><time>2026-04-12T07:32:30.035Z</time></trkpt><trkpt lat="40.9064833" lon="14.284845"><ele>78.0</ele><time>2026-04-12T07:32:32.034Z</time></trkpt><trkpt lat="40.9065433" lon="14.2848867"><ele>78.0</ele><time>2026-04-12T07:32:33.035Z</time></trkpt><trkpt lat="40.90665" lon="14.2849617"><ele>78.0</ele><time>2026-04-12T07:32:35.035Z</time></trkpt><trkpt lat="40.9067633" lon="14.285025"><ele>78.0</ele><time>2026-04-12T07:32:37.034Z</time></trkpt><trkpt lat="40.9068717" lon="14.2851033"><ele>78.0</ele><time>2026-04-12T07:32:39.035Z</time></trkpt><trkpt lat="40.9069783" lon="14.28519"><ele>77.33333333333333</ele><time>2026-04-12T07:32:41.036Z</time></trkpt><trkpt lat="40.9070333" lon="14.2852333"><ele>76.66666666666667</ele><time>2026-04-12T07:32:42.035Z</time></trkpt><trkpt lat="40.9070917" lon="14.2852833"><ele>76.0</ele><time>2026-04-12T07:32:43.035Z</time></trkpt><trkpt lat="40.9071483" lon="14.2853283"><ele>75.33333333333334</ele><time>2026-04-12T07:32:44.035Z</time></trkpt><trkpt lat="40.9072033" lon="14.285375"><ele>74.66666666666667</ele><time>2026-04-12T07:32:45.035Z</time></trkpt><trkpt lat="40.9072617" lon="14.2854167"><ele>74.0</ele><time>2026-04-12T07:32:46.032Z</time></trkpt><trkpt lat="40.9073633" lon="14.285515"><ele>74.0</ele><time>2026-04-12T07:32:48.034Z</time></trkpt><trkpt lat="40.90742" lon="14.2855533"><ele>74.0</ele><time>2026-04-12T07:32:49.035Z</time></trkpt><trkpt lat="40.907475" lon="14.2855983"><ele>74.0</ele><time>2026-04-12T07:32:50.034Z</time></trkpt><trkpt lat="40.907535" lon="14.2856483"><ele>74.0</ele><time>2026-04-12T07:32:51.035Z</time></trkpt><trkpt lat="40.9075917" lon="14.2856933"><ele>74.0</ele><time>2026-04-12T07:32:52.035Z</time></trkpt><trkpt lat="40.907655" lon="14.2857417"><ele>74.0</ele><time>2026-04-12T07:32:53.037Z</time></trkpt><trkpt lat="40.9077167" lon="14.2857883"><ele>74.0</ele><time>2026-04-12T07:32:54.034Z</time></trkpt><trkpt lat="40.9077817" lon="14.2858417"><ele>73.16666666666667</ele><time>2026-04-12T07:32:55.035Z</time></trkpt><trkpt lat="40.9078433" lon="14.2858933"><ele>72.33333333333334</ele><time>2026-04-12T07:32:56.035Z</time></trkpt><trkpt lat="40.9079083" lon="14.2859433"><ele>71.5</ele><time>2026-04-12T07:32:57.035Z</time></trkpt><trkpt lat="40.9079717" lon="14.285995"><ele>70.66666666666667</ele><time>2026-04-12T07:32:58.035Z</time></trkpt><trkpt lat="40.90804" lon="14.2860483"><ele>69.83333333333333</ele><time>2026-04-12T07:32:59.035Z</time></trkpt><trkpt lat="40.9081067" lon="14.2861017"><ele>69.0</ele><time>2026-04-12T07:33:00.036Z</time></trkpt><trkpt lat="40.9081767" lon="14.2861583"><ele>69.0</ele><time>2026-04-12T07:33:01.034Z</time></trkpt><trkpt lat="40.90825" lon="14.2862167"><ele>69.0</ele><time>2026-04-12T07:33:02.035Z</time></trkpt><trkpt lat="40.9083217" lon="14.2862767"><ele>69.0</ele><time>2026-04-12T07:33:03.035Z</time></trkpt><trkpt lat="40.9083883" lon="14.286335"><ele>69.0</ele><time>2026-04-12T07:33:04.035Z</time></trkpt><trkpt lat="40.90846" lon="14.2863983"><ele>69.0</ele><time>2026-04-12T07:33:05.035Z</time></trkpt><trkpt lat="40.9085333" lon="14.2864567"><ele>69.0</ele><time>2026-04-12T07:33:06.034Z</time></trkpt><trkpt lat="40.908605" lon="14.28651"><ele>69.16666666666667</ele><time>2026-04-12T07:33:07.036Z</time></trkpt><trkpt lat="40.9086767" lon="14.2865683"><ele>69.33333333333333</ele><time>2026-04-12T07:33:08.035Z</time></trkpt><trkpt lat="40.90875" lon="14.2866333"><ele>69.5</ele><time>2026-04-12T07:33:09.033Z</time></trkpt><trkpt lat="40.9088217" lon="14.2866967"><ele>69.66666666666666</ele><time>2026-04-12T07:33:10.035Z</time></trkpt><trkpt lat="40.9088967" lon="14.286765"><ele>69.83333333333333</ele><time>2026-04-12T07:33:11.034Z</time></trkpt><trkpt lat="40.90897" lon="14.2868283"><ele>70.0</ele><time>2026-04-12T07:33:12.035Z</time></trkpt><trkpt lat="40.90904" lon="14.28689"><ele>70.0</ele><time>2026-04-12T07:33:13.036Z</time></trkpt><trkpt lat="40.9091133" lon="14.286955"><ele>70.0</ele><time>2026-04-12T07:33:14.035Z</time></trkpt><trkpt lat="40.9091833" lon="14.287015"><ele>70.0</ele><time>2026-04-12T07:33:15.035Z</time></trkpt><trkpt lat="40.9092567" lon="14.28708"><ele>70.0</ele><time>2026-04-12T07:33:16.034Z</time></trkpt><trkpt lat="40.90933" lon="14.2871467"><ele>70.0</ele><time>2026-04-12T07:33:17.035Z</time></trkpt><trkpt lat="40.9094033" lon="14.2872117"><ele>70.0</ele><time>2026-04-12T07:33:18.035Z</time></trkpt><trkpt lat="40.9094767" lon="14.2872717"><ele>69.66666666666666</ele><time>2026-04-12T07:33:19.037Z</time></trkpt><trkpt lat="40.9095517" lon="14.287335"><ele>69.33333333333333</ele><time>2026-04-12T07:33:20.035Z</time></trkpt><trkpt lat="40.9096267" lon="14.2873933"><ele>69.0</ele><time>2026-04-12T07:33:21.034Z</time></trkpt><trkpt lat="40.9097" lon="14.287455"><ele>68.66666666666667</ele><time>2026-04-12T07:33:22.035Z</time></trkpt><trkpt lat="40.9097733" lon="14.2875167"><ele>68.33333333333334</ele><time>2026-04-12T07:33:23.034Z</time></trkpt><trkpt lat="40.9098467" lon="14.28758"><ele>68.0</ele><time>2026-04-12T07:33:24.035Z</time></trkpt><trkpt lat="40.9099233" lon="14.2876467"><ele>68.0</ele><time>2026-04-12T07:33:25.034Z</time></trkpt><trkpt lat="40.909995" lon="14.2877133"><ele>68.0</ele><time>2026-04-12T07:33:26.036Z</time></trkpt><trkpt lat="40.91007" lon="14.2877783"><ele>68.0</ele><time>2026-04-12T07:33:27.035Z</time></trkpt><trkpt lat="40.9101467" lon="14.2878433"><ele>68.0</ele><time>2026-04-12T07:33:28.035Z</time></trkpt><trkpt lat="40.9102167" lon="14.2879133"><ele>68.0</ele><time>2026-04-12T07:33:29.033Z</time></trkpt><trkpt lat="40.9102917" lon="14.2879733"><ele>68.0</ele><time>2026-04-12T07:33:30.033Z</time></trkpt><trkpt lat="40.9103667" lon="14.2880217"><ele>67.5</ele><time>2026-04-12T07:33:31.035Z</time></trkpt><trkpt lat="40.9104517" lon="14.2881117"><ele>67.0</ele><time>2026-04-12T07:33:32.033Z</time></trkpt><trkpt lat="40.9105233" lon="14.2881617"><ele>66.5</ele><time>2026-04-12T07:33:33.034Z</time></trkpt><trkpt lat="40.9105967" lon="14.2882183"><ele>66.0</ele><time>2026-04-12T07:33:34.034Z</time></trkpt><trkpt lat="40.9106717" lon="14.2882783"><ele>65.5</ele><time>2026-04-12T07:33:35.035Z</time></trkpt><trkpt lat="40.910745" lon="14.2883383"><ele>65.0</ele><time>2026-04-12T07:33:36.035Z</time></trkpt><trkpt lat="40.9108183" lon="14.2883983"><ele>65.0</ele><time>2026-04-12T07:33:37.034Z</time></trkpt><trkpt lat="40.9108933" lon="14.2884583"><ele>65.0</ele><time>2026-04-12T07:33:38.035Z</time></trkpt><trkpt lat="40.9109667" lon="14.288515"><ele>65.0</ele><time>2026-04-12T07:33:39.033Z</time></trkpt><trkpt lat="40.9110383" lon="14.2885667"><ele>65.0</ele><time>2026-04-12T07:33:40.034Z</time></trkpt><trkpt lat="40.911115" lon="14.2886183"><ele>65.0</ele><time>2026-04-12T07:33:41.033Z</time></trkpt><trkpt lat="40.9111917" lon="14.2886717"><ele>65.0</ele><time>2026-04-12T07:33:42.035Z</time></trkpt><trkpt lat="40.911265" lon="14.2887267"><ele>65.2</ele><time>2026-04-12T07:33:43.034Z</time></trkpt><trkpt lat="40.91134" lon="14.2887917"><ele>65.4</ele><time>2026-04-12T07:33:44.034Z</time></trkpt><trkpt lat="40.911415" lon="14.28886"><ele>65.6</ele><time>2026-04-12T07:33:45.034Z</time></trkpt><trkpt lat="40.91149" lon="14.2889267"><ele>65.8</ele><time>2026-04-12T07:33:46.034Z</time></trkpt><trkpt lat="40.9115633" lon="14.2889933"><ele>66.0</ele><time>2026-04-12T07:33:47.034Z</time></trkpt><trkpt lat="40.9116383" lon="14.2890617"><ele>66.0</ele><time>2026-04-12T07:33:48.035Z</time></trkpt><trkpt lat="40.9117167" lon="14.2891267"><ele>66.0</ele><time>2026-04-12T07:33:49.035Z</time></trkpt><trkpt lat="40.9117933" lon="14.28919"><ele>66.0</ele><time>2026-04-12T07:33:50.035Z</time></trkpt><trkpt lat="40.9118733" lon="14.28926"><ele>66.0</ele><time>2026-04-12T07:33:51.036Z</time></trkpt><trkpt lat="40.91195" lon="14.2893333"><ele>66.0</ele><time>2026-04-12T07:33:52.034Z</time></trkpt><trkpt lat="40.9120267" lon="14.2894033"><ele>65.5</ele><time>2026-04-12T07:33:53.035Z</time></trkpt><trkpt lat="40.9121017" lon="14.28947"><ele>65.0</ele><time>2026-04-12T07:33:54.035Z</time></trkpt><trkpt lat="40.9121767" lon="14.2895317"><ele>64.5</ele><time>2026-04-12T07:33:55.035Z</time></trkpt><trkpt lat="40.9122517" lon="14.289595"><ele>64.0</ele><time>2026-04-12T07:33:56.034Z</time></trkpt><trkpt lat="40.9123333" lon="14.28965"><ele>63.5</ele><time>2026-04-12T07:33:57.034Z</time></trkpt><trkpt lat="40.9124083" lon="14.2897"><ele>63.0</ele><time>2026-04-12T07:33:58.033Z</time></trkpt><trkpt lat="40.9124783" lon="14.2897567"><ele>63.0</ele><time>2026-04-12T07:33:59.036Z</time></trkpt><trkpt lat="40.912545" lon="14.289815"><ele>63.0</ele><time>2026-04-12T07:34:00.034Z</time></trkpt><trkpt lat="40.9126133" lon="14.2898733"><ele>63.0</ele><time>2026-04-12T07:34:01.034Z</time></trkpt><trkpt lat="40.9126817" lon="14.2899283"><ele>63.0</ele><time>2026-04-12T07:34:02.035Z</time></trkpt><trkpt lat="40.91275" lon="14.2899867"><ele>63.0</ele><time>2026-04-12T07:34:03.035Z</time></trkpt><trkpt lat="40.9128167" lon="14.290035"><ele>63.0</ele><time>2026-04-12T07:34:04.034Z</time></trkpt><trkpt lat="40.9128833" lon="14.2900833"><ele>63.0</ele><time>2026-04-12T07:34:05.035Z</time></trkpt><trkpt lat="40.9129517" lon="14.29013"><ele>63.0</ele><time>2026-04-12T07:34:06.035Z</time></trkpt><trkpt lat="40.91302" lon="14.290175"><ele>63.0</ele><time>2026-04-12T07:34:07.034Z</time></trkpt><trkpt lat="40.91309" lon="14.2902217"><ele>63.0</ele><time>2026-04-12T07:34:08.035Z</time></trkpt><trkpt lat="40.9131583" lon="14.2902633"><ele>63.0</ele><time>2026-04-12T07:34:09.036Z</time></trkpt><trkpt lat="40.9132267" lon="14.2903"><ele>63.0</ele><time>2026-04-12T07:34:10.034Z</time></trkpt><trkpt lat="40.9132983" lon="14.2903317"><ele>63.0</ele><time>2026-04-12T07:34:11.035Z</time></trkpt><trkpt lat="40.913375" lon="14.2903667"><ele>63.0</ele><time>2026-04-12T07:34:12.035Z</time></trkpt><trkpt lat="40.91345" lon="14.2903967"><ele>63.0</ele><time>2026-04-12T07:34:13.035Z</time></trkpt><trkpt lat="40.913525" lon="14.2904267"><ele>63.0</ele><time>2026-04-12T07:34:14.034Z</time></trkpt><trkpt lat="40.9136017" lon="14.2904567"><ele>63.0</ele><time>2026-04-12T07:34:15.034Z</time></trkpt><trkpt lat="40.913675" lon="14.2904833"><ele>63.0</ele><time>2026-04-12T07:34:16.035Z</time></trkpt><trkpt lat="40.913745" lon="14.2905017"><ele>62.85714285714286</ele><time>2026-04-12T07:34:17.035Z</time></trkpt><trkpt lat="40.9138117" lon="14.2905233"><ele>62.714285714285715</ele><time>2026-04-12T07:34:18.035Z</time></trkpt><trkpt lat="40.9138817" lon="14.2905433"><ele>62.57142857142857</ele><time>2026-04-12T07:34:19.035Z</time></trkpt><trkpt lat="40.9139533" lon="14.2905567"><ele>62.42857142857143</ele><time>2026-04-12T07:34:20.033Z</time></trkpt><trkpt lat="40.9140217" lon="14.2905767"><ele>62.28571428571429</ele><time>2026-04-12T07:34:21.035Z</time></trkpt><trkpt lat="40.914085" lon="14.2905967"><ele>62.142857142857146</ele><time>2026-04-12T07:34:22.035Z</time></trkpt><trkpt lat="40.9141483" lon="14.2906133"><ele>62.0</ele><time>2026-04-12T07:34:23.034Z</time></trkpt><trkpt lat="40.9142167" lon="14.2906183"><ele>61.57142857142858</ele><time>2026-04-12T07:34:24.035Z</time></trkpt><trkpt lat="40.91429" lon="14.2906217"><ele>61.14285714285715</ele><time>2026-04-12T07:34:25.034Z</time></trkpt><trkpt lat="40.9143633" lon="14.290625"><ele>60.714285714285715</ele><time>2026-04-12T07:34:26.034Z</time></trkpt><trkpt lat="40.9144367" lon="14.29062"><ele>60.28571428571429</ele><time>2026-04-12T07:34:27.034Z</time></trkpt><trkpt lat="40.9145117" lon="14.290615"><ele>59.85714285714286</ele><time>2026-04-12T07:34:28.034Z</time></trkpt><trkpt lat="40.914585" lon="14.290615"><ele>59.42857142857143</ele><time>2026-04-12T07:34:29.034Z</time></trkpt><trkpt lat="40.914655" lon="14.29062"><ele>59.0</ele><time>2026-04-12T07:34:30.033Z</time></trkpt><trkpt lat="40.914725" lon="14.2906167"><ele>59.0</ele><time>2026-04-12T07:34:31.037Z</time></trkpt><trkpt lat="40.9147933" lon="14.2906083"><ele>59.0</ele><time>2026-04-12T07:34:32.036Z</time></trkpt><trkpt lat="40.914865" lon="14.2906033"><ele>59.0</ele><time>2026-04-12T07:34:33.035Z</time></trkpt><trkpt lat="40.9149367" lon="14.2906"><ele>59.0</ele><time>2026-04-12T07:34:34.035Z</time></trkpt><trkpt lat="40.9150083" lon="14.2905967"><ele>59.0</ele><time>2026-04-12T07:34:35.035Z</time></trkpt><trkpt lat="40.9150767" lon="14.290595"><ele>59.0</ele><time>2026-04-12T07:34:36.035Z</time></trkpt><trkpt lat="40.915145" lon="14.2905917"><ele>59.0</ele><time>2026-04-12T07:34:37.034Z</time></trkpt><trkpt lat="40.9152133" lon="14.29059"><ele>59.0</ele><time>2026-04-12T07:34:38.035Z</time></trkpt><trkpt lat="40.9152817" lon="14.2905867"><ele>59.0</ele><time>2026-04-12T07:34:39.035Z</time></trkpt><trkpt lat="40.91535" lon="14.2905833"><ele>59.0</ele><time>2026-04-12T07:34:40.035Z</time></trkpt><trkpt lat="40.9154183" lon="14.2905783"><ele>59.0</ele><time>2026-04-12T07:34:41.032Z</time></trkpt><trkpt lat="40.9154833" lon="14.2905733"><ele>59.0</ele><time>2026-04-12T07:34:42.035Z</time></trkpt><trkpt lat="40.915555" lon="14.29057"><ele>59.0</ele><time>2026-04-12T07:34:43.034Z</time></trkpt><trkpt lat="40.9156233" lon="14.290575"><ele>59.0</ele><time>2026-04-12T07:34:44.037Z</time></trkpt><trkpt lat="40.9156933" lon="14.290585"><ele>59.00000000000001</ele><time>2026-04-12T07:34:45.037Z</time></trkpt><trkpt lat="40.91577" lon="14.29059"><ele>59.0</ele><time>2026-04-12T07:34:46.036Z</time></trkpt><trkpt lat="40.9158483" lon="14.290595"><ele>59.0</ele><time>2026-04-12T07:34:47.034Z</time></trkpt><trkpt lat="40.9159217" lon="14.290605"><ele>59.0</ele><time>2026-04-12T07:34:48.035Z</time></trkpt><trkpt lat="40.9159917" lon="14.290625"><ele>59.00000000000001</ele><time>2026-04-12T07:34:49.034Z</time></trkpt><trkpt lat="40.9160683" lon="14.2906483"><ele>59.0</ele><time>2026-04-12T07:34:50.035Z</time></trkpt><trkpt lat="40.91614" lon="14.29068"><ele>58.71428571428571</ele><time>2026-04-12T07:34:51.035Z</time></trkpt><trkpt lat="40.9162117" lon="14.2907117"><ele>58.42857142857143</ele><time>2026-04-12T07:34:52.034Z</time></trkpt><trkpt lat="40.9162833" lon="14.29075"><ele>58.14285714285714</ele><time>2026-04-12T07:34:53.034Z</time></trkpt><trkpt lat="40.9163517" lon="14.2907867"><ele>57.857142857142854</ele><time>2026-04-12T07:34:54.035Z</time></trkpt><trkpt lat="40.91642" lon="14.2908233"><ele>57.57142857142857</ele><time>2026-04-12T07:34:55.034Z</time></trkpt><trkpt lat="40.9164867" lon="14.29086"><ele>57.285714285714285</ele><time>2026-04-12T07:34:56.035Z</time></trkpt><trkpt lat="40.9165517" lon="14.2908967"><ele>57.0</ele><time>2026-04-12T07:34:57.034Z</time></trkpt><trkpt lat="40.91662" lon="14.29093"><ele>57.0</ele><time>2026-04-12T07:34:58.032Z</time></trkpt><trkpt lat="40.916685" lon="14.2909667"><ele>56.99999999999999</ele><time>2026-04-12T07:34:59.034Z</time></trkpt><trkpt lat="40.9167483" lon="14.291"><ele>57.0</ele><time>2026-04-12T07:35:00.035Z</time></trkpt><trkpt lat="40.9168133" lon="14.2910383"><ele>57.0</ele><time>2026-04-12T07:35:01.034Z</time></trkpt><trkpt lat="40.9168817" lon="14.291075"><ele>56.99999999999999</ele><time>2026-04-12T07:35:02.035Z</time></trkpt><trkpt lat="40.9169467" lon="14.2911133"><ele>57.0</ele><time>2026-04-12T07:35:03.033Z</time></trkpt><trkpt lat="40.9170133" lon="14.291155"><ele>57.0</ele><time>2026-04-12T07:35:04.034Z</time></trkpt><trkpt lat="40.9170733" lon="14.2912"><ele>57.0</ele><time>2026-04-12T07:35:05.035Z</time></trkpt><trkpt lat="40.9171383" lon="14.2912433"><ele>56.99999999999999</ele><time>2026-04-12T07:35:06.034Z</time></trkpt><trkpt lat="40.9172067" lon="14.2912867"><ele>57.0</ele><time>2026-04-12T07:35:07.035Z</time></trkpt><trkpt lat="40.91727" lon="14.29133"><ele>57.0</ele><time>2026-04-12T07:35:08.033Z</time></trkpt><trkpt lat="40.9173283" lon="14.2913767"><ele>56.99999999999999</ele><time>2026-04-12T07:35:09.033Z</time></trkpt><trkpt lat="40.9173917" lon="14.2914183"><ele>57.0</ele><time>2026-04-12T07:35:10.034Z</time></trkpt><trkpt lat="40.9174517" lon="14.2914583"><ele>57.0</ele><time>2026-04-12T07:35:11.034Z</time></trkpt><trkpt lat="40.91751" lon="14.2915033"><ele>56.71428571428571</ele><time>2026-04-12T07:35:12.033Z</time></trkpt><trkpt lat="40.9175733" lon="14.2915483"><ele>56.42857142857142</ele><time>2026-04-12T07:35:13.034Z</time></trkpt><trkpt lat="40.91764" lon="14.2915917"><ele>56.14285714285714</ele><time>2026-04-12T07:35:14.034Z</time></trkpt><trkpt lat="40.9177067" lon="14.2916317"><ele>55.857142857142854</ele><time>2026-04-12T07:35:15.035Z</time></trkpt><trkpt lat="40.9177717" lon="14.2916733"><ele>55.57142857142857</ele><time>2026-04-12T07:35:16.032Z</time></trkpt><trkpt lat="40.9178433" lon="14.2917183"><ele>55.28571428571428</ele><time>2026-04-12T07:35:17.032Z</time></trkpt><trkpt lat="40.91791" lon="14.29176"><ele>55.0</ele><time>2026-04-12T07:35:18.034Z</time></trkpt><trkpt lat="40.91798" lon="14.2917967"><ele>54.99999999999999</ele><time>2026-04-12T07:35:19.034Z</time></trkpt><trkpt lat="40.9180517" lon="14.2918283"><ele>55.0</ele><time>2026-04-12T07:35:20.033Z</time></trkpt><trkpt lat="40.9181233" lon="14.2918567"><ele>55.0</ele><time>2026-04-12T07:35:21.033Z</time></trkpt><trkpt lat="40.9181933" lon="14.2918867"><ele>55.0</ele><time>2026-04-12T07:35:22.033Z</time></trkpt><trkpt lat="40.91826" lon="14.291915"><ele>55.0</ele><time>2026-04-12T07:35:23.033Z</time></trkpt><trkpt lat="40.9183317" lon="14.29194"><ele>54.99999999999999</ele><time>2026-04-12T07:35:24.033Z</time></trkpt><trkpt lat="40.918405" lon="14.29197"><ele>55.0</ele><time>2026-04-12T07:35:25.033Z</time></trkpt><trkpt lat="40.918475" lon="14.2919983"><ele>54.99999999999999</ele><time>2026-04-12T07:35:26.034Z</time></trkpt><trkpt lat="40.918545" lon="14.2920267"><ele>55.0</ele><time>2026-04-12T07:35:27.033Z</time></trkpt><trkpt lat="40.9186167" lon="14.2920567"><ele>55.0</ele><time>2026-04-12T07:35:28.033Z</time></trkpt><trkpt lat="40.9186833" lon="14.2920867"><ele>55.0</ele><time>2026-04-12T07:35:29.032Z</time></trkpt><trkpt lat="40.9187483" lon="14.2921167"><ele>55.0</ele><time>2026-04-12T07:35:30.034Z</time></trkpt><trkpt lat="40.9188117" lon="14.292145"><ele>54.99999999999999</ele><time>2026-04-12T07:35:31.033Z</time></trkpt><trkpt lat="40.9188783" lon="14.2921733"><ele>55.0</ele><time>2026-04-12T07:35:32.033Z</time></trkpt><trkpt lat="40.9189433" lon="14.2922017"><ele>54.99999999999999</ele><time>2026-04-12T07:35:33.033Z</time></trkpt><trkpt lat="40.91901" lon="14.2922283"><ele>55.0</ele><time>2026-04-12T07:35:34.034Z</time></trkpt><trkpt lat="40.9190717" lon="14.292255"><ele>55.0</ele><time>2026-04-12T07:35:35.034Z</time></trkpt><trkpt lat="40.9191933" lon="14.292295"><ele>55.0</ele><time>2026-04-12T07:35:37.033Z</time></trkpt><trkpt lat="40.91926" lon="14.29232"><ele>54.99999999999999</ele><time>2026-04-12T07:35:38.033Z</time></trkpt><trkpt lat="40.9193317" lon="14.29235"><ele>55.0</ele><time>2026-04-12T07:35:39.034Z</time></trkpt><trkpt lat="40.9194017" lon="14.2923917"><ele>54.666666666666664</ele><time>2026-04-12T07:35:40.033Z</time></trkpt><trkpt lat="40.9194667" lon="14.2924467"><ele>54.33333333333333</ele><time>2026-04-12T07:35:41.034Z</time></trkpt><trkpt lat="40.91953" lon="14.292505"><ele>54.0</ele><time>2026-04-12T07:35:42.033Z</time></trkpt><trkpt lat="40.919595" lon="14.292565"><ele>53.66666666666667</ele><time>2026-04-12T07:35:43.033Z</time></trkpt><trkpt lat="40.91966" lon="14.292625"><ele>53.333333333333336</ele><time>2026-04-12T07:35:44.036Z</time></trkpt><trkpt lat="40.9197217" lon="14.292685"><ele>53.0</ele><time>2026-04-12T07:35:45.034Z</time></trkpt><trkpt lat="40.9197817" lon="14.2927433"><ele>53.0</ele><time>2026-04-12T07:35:46.034Z</time></trkpt><trkpt lat="40.9198383" lon="14.292805"><ele>53.0</ele><time>2026-04-12T07:35:47.033Z</time></trkpt><trkpt lat="40.9198917" lon="14.2928733"><ele>53.0</ele><time>2026-04-12T07:35:48.035Z</time></trkpt><trkpt lat="40.919935" lon="14.2929483"><ele>53.0</ele><time>2026-04-12T07:35:49.033Z</time></trkpt><trkpt lat="40.919965" lon="14.293035"><ele>53.0</ele><time>2026-04-12T07:35:50.034Z</time></trkpt><trkpt lat="40.9199817" lon="14.2931283"><ele>53.0</ele><time>2026-04-12T07:35:51.034Z</time></trkpt><trkpt lat="40.9199967" lon="14.2932183"><ele>53.0</ele><time>2026-04-12T07:35:52.032Z</time></trkpt><trkpt lat="40.92003" lon="14.2932967"><ele>53.0</ele><time>2026-04-12T07:35:53.034Z</time></trkpt><trkpt lat="40.9200783" lon="14.2933567"><ele>53.0</ele><time>2026-04-12T07:35:54.034Z</time></trkpt><trkpt lat="40.9201433" lon="14.2933883"><ele>53.0</ele><time>2026-04-12T07:35:55.034Z</time></trkpt><trkpt lat="40.9202133" lon="14.2934"><ele>53.0</ele><time>2026-04-12T07:35:56.032Z</time></trkpt><trkpt lat="40.9202833" lon="14.2934033"><ele>53.0</ele><time>2026-04-12T07:35:57.033Z</time></trkpt><trkpt lat="40.9203483" lon="14.2934167"><ele>53.0</ele><time>2026-04-12T07:35:58.036Z</time></trkpt><trkpt lat="40.920415" lon="14.2934417"><ele>53.0</ele><time>2026-04-12T07:35:59.034Z</time></trkpt><trkpt lat="40.9204767" lon="14.2934817"><ele>53.0</ele><time>2026-04-12T07:36:00.036Z</time></trkpt><trkpt lat="40.9205333" lon="14.29353"><ele>53.0</ele><time>2026-04-12T07:36:01.035Z</time></trkpt><trkpt lat="40.92059" lon="14.29358"><ele>53.0</ele><time>2026-04-12T07:36:02.033Z</time></trkpt><trkpt lat="40.9206483" lon="14.2936283"><ele>53.0</ele><time>2026-04-12T07:36:03.035Z</time></trkpt><trkpt lat="40.9207067" lon="14.293675"><ele>53.0</ele><time>2026-04-12T07:36:04.032Z</time></trkpt><trkpt lat="40.920765" lon="14.2937167"><ele>53.0</ele><time>2026-04-12T07:36:05.034Z</time></trkpt><trkpt lat="40.9208267" lon="14.293755"><ele>53.0</ele><time>2026-04-12T07:36:06.033Z</time></trkpt><trkpt lat="40.9208917" lon="14.2937917"><ele>52.85714285714286</ele><time>2026-04-12T07:36:07.034Z</time></trkpt><trkpt lat="40.9209617" lon="14.2938283"><ele>52.71428571428571</ele><time>2026-04-12T07:36:08.037Z</time></trkpt><trkpt lat="40.9210267" lon="14.29386"><ele>52.57142857142857</ele><time>2026-04-12T07:36:09.033Z</time></trkpt><trkpt lat="40.9210933" lon="14.29389"><ele>52.42857142857143</ele><time>2026-04-12T07:36:10.033Z</time></trkpt><trkpt lat="40.921165" lon="14.2939183"><ele>52.28571428571429</ele><time>2026-04-12T07:36:11.033Z</time></trkpt><trkpt lat="40.9212383" lon="14.2939433"><ele>52.14285714285714</ele><time>2026-04-12T07:36:12.033Z</time></trkpt><trkpt lat="40.9213083" lon="14.2939683"><ele>52.0</ele><time>2026-04-12T07:36:13.034Z</time></trkpt><trkpt lat="40.9213783" lon="14.2939983"><ele>52.0</ele><time>2026-04-12T07:36:14.032Z</time></trkpt><trkpt lat="40.9214483" lon="14.29403"><ele>52.0</ele><time>2026-04-12T07:36:15.033Z</time></trkpt><trkpt lat="40.9215167" lon="14.2940633"><ele>52.0</ele><time>2026-04-12T07:36:16.034Z</time></trkpt><trkpt lat="40.92159" lon="14.2940933"><ele>52.0</ele><time>2026-04-12T07:36:17.033Z</time></trkpt><trkpt lat="40.9216617" lon="14.2941267"><ele>52.0</ele><time>2026-04-12T07:36:18.034Z</time></trkpt><trkpt lat="40.9217333" lon="14.29416"><ele>52.0</ele><time>2026-04-12T07:36:19.034Z</time></trkpt><trkpt lat="40.9218033" lon="14.2941917"><ele>52.0</ele><time>2026-04-12T07:36:20.035Z</time></trkpt><trkpt lat="40.9218733" lon="14.294225"><ele>51.83333333333333</ele><time>2026-04-12T07:36:21.035Z</time></trkpt><trkpt lat="40.921945" lon="14.2942567"><ele>51.666666666666664</ele><time>2026-04-12T07:36:22.033Z</time></trkpt><trkpt lat="40.92202" lon="14.2942867"><ele>51.5</ele><time>2026-04-12T07:36:23.035Z</time></trkpt><trkpt lat="40.9220933" lon="14.2943167"><ele>51.33333333333333</ele><time>2026-04-12T07:36:24.036Z</time></trkpt><trkpt lat="40.9221683" lon="14.2943467"><ele>51.166666666666664</ele><time>2026-04-12T07:36:25.034Z</time></trkpt><trkpt lat="40.9222417" lon="14.2943783"><ele>51.0</ele><time>2026-04-12T07:36:26.036Z</time></trkpt><trkpt lat="40.922315" lon="14.2944117"><ele>51.0</ele><time>2026-04-12T07:36:27.033Z</time></trkpt><trkpt lat="40.92239" lon="14.294445"><ele>51.0</ele><time>2026-04-12T07:36:28.033Z</time></trkpt><trkpt lat="40.922465" lon="14.2944783"><ele>51.0</ele><time>2026-04-12T07:36:29.034Z</time></trkpt><trkpt lat="40.9225367" lon="14.2945183"><ele>51.0</ele><time>2026-04-12T07:36:30.033Z</time></trkpt><trkpt lat="40.9226067" lon="14.2945633"><ele>51.0</ele><time>2026-04-12T07:36:31.035Z</time></trkpt><trkpt lat="40.9226717" lon="14.2946183"><ele>51.0</ele><time>2026-04-12T07:36:32.035Z</time></trkpt><trkpt lat="40.9227317" lon="14.2946867"><ele>50.833333333333336</ele><time>2026-04-12T07:36:33.034Z</time></trkpt><trkpt lat="40.9227867" lon="14.2947583"><ele>50.66666666666667</ele><time>2026-04-12T07:36:34.034Z</time></trkpt><trkpt lat="40.9228383" lon="14.2948367"><ele>50.5</ele><time>2026-04-12T07:36:35.035Z</time></trkpt><trkpt lat="40.922885" lon="14.294915"><ele>50.333333333333336</ele><time>2026-04-12T07:36:36.035Z</time></trkpt><trkpt lat="40.9229333" lon="14.294995"><ele>50.16666666666667</ele><time>2026-04-12T07:36:37.034Z</time></trkpt><trkpt lat="40.92298" lon="14.295075"><ele>50.0</ele><time>2026-04-12T07:36:38.034Z</time></trkpt><trkpt lat="40.9230267" lon="14.2951583"><ele>50.00000000000001</ele><time>2026-04-12T07:36:39.035Z</time></trkpt><trkpt lat="40.9230717" lon="14.2952383"><ele>50.0</ele><time>2026-04-12T07:36:40.033Z</time></trkpt><trkpt lat="40.9231183" lon="14.2953167"><ele>50.0</ele><time>2026-04-12T07:36:41.035Z</time></trkpt><trkpt lat="40.923165" lon="14.2953917"><ele>50.0</ele><time>2026-04-12T07:36:42.033Z</time></trkpt><trkpt lat="40.923215" lon="14.2954733"><ele>50.00000000000001</ele><time>2026-04-12T07:36:43.035Z</time></trkpt><trkpt lat="40.9232633" lon="14.2955583"><ele>50.0</ele><time>2026-04-12T07:36:44.033Z</time></trkpt><trkpt lat="40.92331" lon="14.29564"><ele>49.66666666666667</ele><time>2026-04-12T07:36:45.033Z</time></trkpt><trkpt lat="40.923355" lon="14.2957217"><ele>49.333333333333336</ele><time>2026-04-12T07:36:46.035Z</time></trkpt><trkpt lat="40.923405" lon="14.295805"><ele>49.0</ele><time>2026-04-12T07:36:47.035Z</time></trkpt><trkpt lat="40.9234517" lon="14.2958833"><ele>48.66666666666667</ele><time>2026-04-12T07:36:48.034Z</time></trkpt><trkpt lat="40.9234967" lon="14.295965"><ele>48.333333333333336</ele><time>2026-04-12T07:36:49.035Z</time></trkpt><trkpt lat="40.9235433" lon="14.296045"><ele>48.0</ele><time>2026-04-12T07:36:50.035Z</time></trkpt><trkpt lat="40.9235883" lon="14.296125"><ele>47.857142857142854</ele><time>2026-04-12T07:36:51.033Z</time></trkpt><trkpt lat="40.9236333" lon="14.2962083"><ele>47.714285714285715</ele><time>2026-04-12T07:36:52.034Z</time></trkpt><trkpt lat="40.9236767" lon="14.2962883"><ele>47.57142857142857</ele><time>2026-04-12T07:36:53.035Z</time></trkpt><trkpt lat="40.9237217" lon="14.296365"><ele>47.42857142857143</ele><time>2026-04-12T07:36:54.035Z</time></trkpt><trkpt lat="40.9237667" lon="14.2964417"><ele>47.285714285714285</ele><time>2026-04-12T07:36:55.034Z</time></trkpt><trkpt lat="40.9238133" lon="14.2965217"><ele>47.14285714285714</ele><time>2026-04-12T07:36:56.035Z</time></trkpt><trkpt lat="40.9238617" lon="14.2965967"><ele>47.0</ele><time>2026-04-12T07:36:57.035Z</time></trkpt><trkpt lat="40.9239117" lon="14.2966783"><ele>47.0</ele><time>2026-04-12T07:36:58.036Z</time></trkpt><trkpt lat="40.9239583" lon="14.2967567"><ele>47.0</ele><time>2026-04-12T07:36:59.033Z</time></trkpt><trkpt lat="40.9240083" lon="14.296835"><ele>47.0</ele><time>2026-04-12T07:37:00.035Z</time></trkpt><trkpt lat="40.9240533" lon="14.29691"><ele>47.0</ele><time>2026-04-12T07:37:01.034Z</time></trkpt><trkpt lat="40.9240967" lon="14.296985"><ele>47.0</ele><time>2026-04-12T07:37:02.035Z</time></trkpt><trkpt lat="40.9241383" lon="14.297065"><ele>47.0</ele><time>2026-04-12T07:37:03.034Z</time></trkpt><trkpt lat="40.9241817" lon="14.2971433"><ele>47.0</ele><time>2026-04-12T07:37:04.034Z</time></trkpt><trkpt lat="40.92422" lon="14.2972267"><ele>46.83333333333333</ele><time>2026-04-12T07:37:05.034Z</time></trkpt><trkpt lat="40.9242633" lon="14.2973083"><ele>46.666666666666664</ele><time>2026-04-12T07:37:06.035Z</time></trkpt><trkpt lat="40.9243067" lon="14.2973883"><ele>46.5</ele><time>2026-04-12T07:37:07.037Z</time></trkpt><trkpt lat="40.9243583" lon="14.2974733"><ele>46.333333333333336</ele><time>2026-04-12T07:37:08.034Z</time></trkpt><trkpt lat="40.92441" lon="14.2975567"><ele>46.16666666666667</ele><time>2026-04-12T07:37:09.034Z</time></trkpt><trkpt lat="40.9244567" lon="14.2976467"><ele>46.0</ele><time>2026-04-12T07:37:10.036Z</time></trkpt><trkpt lat="40.9245017" lon="14.2977367"><ele>46.0</ele><time>2026-04-12T07:37:11.035Z</time></trkpt><trkpt lat="40.9245517" lon="14.297825"><ele>46.0</ele><time>2026-04-12T07:37:12.035Z</time></trkpt><trkpt lat="40.9246017" lon="14.297905"><ele>46.0</ele><time>2026-04-12T07:37:13.035Z</time></trkpt><trkpt lat="40.924655" lon="14.2979833"><ele>46.0</ele><time>2026-04-12T07:37:14.035Z</time></trkpt><trkpt lat="40.9247083" lon="14.29806"><ele>46.0</ele><time>2026-04-12T07:37:15.035Z</time></trkpt><trkpt lat="40.924765" lon="14.2981333"><ele>46.0</ele><time>2026-04-12T07:37:16.035Z</time></trkpt><trkpt lat="40.9248317" lon="14.2982017"><ele>46.0</ele><time>2026-04-12T07:37:17.034Z</time></trkpt><trkpt lat="40.9249" lon="14.2982667"><ele>46.0</ele><time>2026-04-12T07:37:18.035Z</time></trkpt><trkpt lat="40.92497" lon="14.29833"><ele>46.0</ele><time>2026-04-12T07:37:19.035Z</time></trkpt><trkpt lat="40.92504" lon="14.2983917"><ele>46.0</ele><time>2026-04-12T07:37:20.034Z</time></trkpt><trkpt lat="40.92511" lon="14.2984433"><ele>46.0</ele><time>2026-04-12T07:37:21.034Z</time></trkpt><trkpt lat="40.92518" lon="14.2984917"><ele>46.0</ele><time>2026-04-12T07:37:22.033Z</time></trkpt><trkpt lat="40.9252533" lon="14.298535"><ele>46.16666666666667</ele><time>2026-04-12T07:37:23.034Z</time></trkpt><trkpt lat="40.925325" lon="14.298565"><ele>46.333333333333336</ele><time>2026-04-12T07:37:24.037Z</time></trkpt><trkpt lat="40.9254" lon="14.2985917"><ele>46.5</ele><time>2026-04-12T07:37:25.035Z</time></trkpt><trkpt lat="40.9254783" lon="14.29862"><ele>46.666666666666664</ele><time>2026-04-12T07:37:26.034Z</time></trkpt><trkpt lat="40.925555" lon="14.2986317"><ele>46.83333333333333</ele><time>2026-04-12T07:37:27.035Z</time></trkpt><trkpt lat="40.9256317" lon="14.2986483"><ele>47.0</ele><time>2026-04-12T07:37:28.034Z</time></trkpt><trkpt lat="40.9257133" lon="14.298665"><ele>47.0</ele><time>2026-04-12T07:37:29.034Z</time></trkpt><trkpt lat="40.9257917" lon="14.2986833"><ele>47.0</ele><time>2026-04-12T07:37:30.035Z</time></trkpt><trkpt lat="40.9258733" lon="14.2987017"><ele>47.0</ele><time>2026-04-12T07:37:31.035Z</time></trkpt><trkpt lat="40.92595" lon="14.2987117"><ele>47.0</ele><time>2026-04-12T07:37:32.034Z</time></trkpt><trkpt lat="40.9260267" lon="14.2987133"><ele>47.0</ele><time>2026-04-12T07:37:33.034Z</time></trkpt><trkpt lat="40.92611" lon="14.298715"><ele>47.0</ele><time>2026-04-12T07:37:34.034Z</time></trkpt><trkpt lat="40.9261883" lon="14.298715"><ele>46.714285714285715</ele><time>2026-04-12T07:37:35.036Z</time></trkpt><trkpt lat="40.9262617" lon="14.2987133"><ele>46.42857142857143</ele><time>2026-04-12T07:37:36.035Z</time></trkpt><trkpt lat="40.9263367" lon="14.2987117"><ele>46.14285714285714</ele><time>2026-04-12T07:37:37.035Z</time></trkpt><trkpt lat="40.9264117" lon="14.2987133"><ele>45.85714285714286</ele><time>2026-04-12T07:37:38.037Z</time></trkpt><trkpt lat="40.92649" lon="14.298715"><ele>45.57142857142858</ele><time>2026-04-12T07:37:39.035Z</time></trkpt><trkpt lat="40.9265633" lon="14.2987183"><ele>45.285714285714285</ele><time>2026-04-12T07:37:40.032Z</time></trkpt><trkpt lat="40.9266333" lon="14.2987117"><ele>45.0</ele><time>2026-04-12T07:37:41.035Z</time></trkpt><trkpt lat="40.9267083" lon="14.2987067"><ele>44.666666666666664</ele><time>2026-04-12T07:37:42.033Z</time></trkpt><trkpt lat="40.926785" lon="14.2987017"><ele>44.333333333333336</ele><time>2026-04-12T07:37:43.033Z</time></trkpt><trkpt lat="40.9268617" lon="14.2986983"><ele>44.0</ele><time>2026-04-12T07:37:44.034Z</time></trkpt><trkpt lat="40.9269383" lon="14.29869"><ele>43.66666666666667</ele><time>2026-04-12T07:37:45.035Z</time></trkpt><trkpt lat="40.92701" lon="14.2986817"><ele>43.333333333333336</ele><time>2026-04-12T07:37:46.034Z</time></trkpt><trkpt lat="40.9270733" lon="14.29867"><ele>43.0</ele><time>2026-04-12T07:37:47.035Z</time></trkpt><trkpt lat="40.92717" lon="14.2986633"><ele>43.0</ele><time>2026-04-12T07:37:49.033Z</time></trkpt><trkpt lat="40.927275" lon="14.2986833"><ele>43.0</ele><time>2026-04-12T07:37:51.033Z</time></trkpt><trkpt lat="40.92739" lon="14.2986633"><ele>43.0</ele><time>2026-04-12T07:37:53.034Z</time></trkpt><trkpt lat="40.9274517" lon="14.298645"><ele>43.0</ele><time>2026-04-12T07:37:54.035Z</time></trkpt><trkpt lat="40.9275717" lon="14.2985967"><ele>43.0</ele><time>2026-04-12T07:37:56.035Z</time></trkpt><trkpt lat="40.927635" lon="14.2985733"><ele>43.0</ele><time>2026-04-12T07:37:57.035Z</time></trkpt><trkpt lat="40.9277517" lon="14.29854"><ele>43.0</ele><time>2026-04-12T07:37:59.035Z</time></trkpt><trkpt lat="40.9278167" lon="14.2985233"><ele>43.0</ele><time>2026-04-12T07:38:00.034Z</time></trkpt><trkpt lat="40.92794" lon="14.2984983"><ele>43.0</ele><time>2026-04-12T07:38:02.035Z</time></trkpt><trkpt lat="40.9280083" lon="14.2984883"><ele>43.0</ele><time>2026-04-12T07:38:03.035Z</time></trkpt><trkpt lat="40.9280783" lon="14.298485"><ele>43.0</ele><time>2026-04-12T07:38:04.034Z</time></trkpt><trkpt lat="40.9281517" lon="14.2984883"><ele>43.00000000000001</ele><time>2026-04-12T07:38:05.035Z</time></trkpt><trkpt lat="40.9282267" lon="14.298485"><ele>43.0</ele><time>2026-04-12T07:38:06.035Z</time></trkpt><trkpt lat="40.9283017" lon="14.2984767"><ele>43.0</ele><time>2026-04-12T07:38:07.037Z</time></trkpt><trkpt lat="40.9283783" lon="14.298465"><ele>43.0</ele><time>2026-04-12T07:38:08.034Z</time></trkpt><trkpt lat="40.9284533" lon="14.2984583"><ele>43.0</ele><time>2026-04-12T07:38:09.035Z</time></trkpt><trkpt lat="40.9285267" lon="14.29845"><ele>43.00000000000001</ele><time>2026-04-12T07:38:10.034Z</time></trkpt><trkpt lat="40.928595" lon="14.2984417"><ele>43.0</ele><time>2026-04-12T07:38:11.034Z</time></trkpt><trkpt lat="40.928665" lon="14.2984333"><ele>42.833333333333336</ele><time>2026-04-12T07:38:12.034Z</time></trkpt><trkpt lat="40.9287383" lon="14.2984183"><ele>42.66666666666667</ele><time>2026-04-12T07:38:13.034Z</time></trkpt><trkpt lat="40.92881" lon="14.2984"><ele>42.5</ele><time>2026-04-12T07:38:14.035Z</time></trkpt><trkpt lat="40.9288883" lon="14.2983883"><ele>42.333333333333336</ele><time>2026-04-12T07:38:15.035Z</time></trkpt><trkpt lat="40.928965" lon="14.2983817"><ele>42.166666666666664</ele><time>2026-04-12T07:38:16.037Z</time></trkpt><trkpt lat="40.9290417" lon="14.2983733"><ele>42.0</ele><time>2026-04-12T07:38:17.034Z</time></trkpt><trkpt lat="40.9291183" lon="14.298365"><ele>42.0</ele><time>2026-04-12T07:38:18.035Z</time></trkpt><trkpt lat="40.9291967" lon="14.2983583"><ele>42.0</ele><time>2026-04-12T07:38:19.035Z</time></trkpt><trkpt lat="40.9292733" lon="14.2983483"><ele>42.0</ele><time>2026-04-12T07:38:20.035Z</time></trkpt><trkpt lat="40.9293483" lon="14.2983383"><ele>42.0</ele><time>2026-04-12T07:38:21.035Z</time></trkpt><trkpt lat="40.9294233" lon="14.2983267"><ele>42.0</ele><time>2026-04-12T07:38:22.034Z</time></trkpt><trkpt lat="40.9294967" lon="14.2983167"><ele>42.0</ele><time>2026-04-12T07:38:23.034Z</time></trkpt><trkpt lat="40.92957" lon="14.298305"><ele>42.0</ele><time>2026-04-12T07:38:24.034Z</time></trkpt><trkpt lat="40.9296483" lon="14.2982967"><ele>42.0</ele><time>2026-04-12T07:38:25.036Z</time></trkpt><trkpt lat="40.9297267" lon="14.2982983"><ele>42.0</ele><time>2026-04-12T07:38:26.035Z</time></trkpt><trkpt lat="40.929805" lon="14.2983117"><ele>42.0</ele><time>2026-04-12T07:38:27.034Z</time></trkpt><trkpt lat="40.9298817" lon="14.29834"><ele>42.0</ele><time>2026-04-12T07:38:28.034Z</time></trkpt><trkpt lat="40.9299483" lon="14.298385"><ele>42.0</ele><time>2026-04-12T07:38:29.035Z</time></trkpt><trkpt lat="40.93001" lon="14.2984467"><ele>42.0</ele><time>2026-04-12T07:38:30.035Z</time></trkpt><trkpt lat="40.9300683" lon="14.298515"><ele>42.0</ele><time>2026-04-12T07:38:31.035Z</time></trkpt><trkpt lat="40.9301233" lon="14.2985883"><ele>42.0</ele><time>2026-04-12T07:38:32.033Z</time></trkpt><trkpt lat="40.9301717" lon="14.29866"><ele>42.0</ele><time>2026-04-12T07:38:33.036Z</time></trkpt><trkpt lat="40.9302217" lon="14.2987317"><ele>42.0</ele><time>2026-04-12T07:38:34.036Z</time></trkpt><trkpt lat="40.9302733" lon="14.2988017"><ele>42.0</ele><time>2026-04-12T07:38:35.036Z</time></trkpt><trkpt lat="40.9303233" lon="14.2988717"><ele>42.0</ele><time>2026-04-12T07:38:36.033Z</time></trkpt><trkpt lat="40.9303717" lon="14.2989433"><ele>41.714285714285715</ele><time>2026-04-12T07:38:37.036Z</time></trkpt><trkpt lat="40.930425" lon="14.299015"><ele>41.42857142857143</ele><time>2026-04-12T07:38:38.036Z</time></trkpt><trkpt lat="40.930475" lon="14.299085"><ele>41.14285714285714</ele><time>2026-04-12T07:38:39.036Z</time></trkpt><trkpt lat="40.9305267" lon="14.299155"><ele>40.85714285714286</ele><time>2026-04-12T07:38:40.035Z</time></trkpt><trkpt lat="40.93058" lon="14.2992233"><ele>40.57142857142857</ele><time>2026-04-12T07:38:41.035Z</time></trkpt><trkpt lat="40.9306333" lon="14.29929"><ele>40.285714285714285</ele><time>2026-04-12T07:38:42.036Z</time></trkpt><trkpt lat="40.930685" lon="14.2993583"><ele>40.0</ele><time>2026-04-12T07:38:43.034Z</time></trkpt><trkpt lat="40.9307333" lon="14.2994267"><ele>40.0</ele><time>2026-04-12T07:38:44.036Z</time></trkpt><trkpt lat="40.93078" lon="14.2994967"><ele>40.0</ele><time>2026-04-12T07:38:45.036Z</time></trkpt><trkpt lat="40.9308283" lon="14.2995667"><ele>40.0</ele><time>2026-04-12T07:38:46.034Z</time></trkpt><trkpt lat="40.9308767" lon="14.299635"><ele>40.0</ele><time>2026-04-12T07:38:47.036Z</time></trkpt><trkpt lat="40.9309283" lon="14.2997067"><ele>40.0</ele><time>2026-04-12T07:38:48.034Z</time></trkpt><trkpt lat="40.9309817" lon="14.29978"><ele>40.0</ele><time>2026-04-12T07:38:49.032Z</time></trkpt><trkpt lat="40.93103" lon="14.299855"><ele>40.0</ele><time>2026-04-12T07:38:50.036Z</time></trkpt><trkpt lat="40.9310817" lon="14.2999267"><ele>40.0</ele><time>2026-04-12T07:38:51.035Z</time></trkpt><trkpt lat="40.9311333" lon="14.2999983"><ele>40.0</ele><time>2026-04-12T07:38:52.036Z</time></trkpt><trkpt lat="40.931185" lon="14.3000683"><ele>40.0</ele><time>2026-04-12T07:38:53.034Z</time></trkpt><trkpt lat="40.9312383" lon="14.30014"><ele>40.0</ele><time>2026-04-12T07:38:54.032Z</time></trkpt><trkpt lat="40.9312917" lon="14.3002133"><ele>40.0</ele><time>2026-04-12T07:38:55.035Z</time></trkpt><trkpt lat="40.93134" lon="14.3002867"><ele>40.0</ele><time>2026-04-12T07:38:56.035Z</time></trkpt><trkpt lat="40.9313983" lon="14.300365"><ele>40.0</ele><time>2026-04-12T07:38:57.034Z</time></trkpt><trkpt lat="40.93146" lon="14.3004467"><ele>40.0</ele><time>2026-04-12T07:38:58.034Z</time></trkpt><trkpt lat="40.93152" lon="14.3005267"><ele>40.0</ele><time>2026-04-12T07:38:59.035Z</time></trkpt><trkpt lat="40.9315733" lon="14.3006033"><ele>40.0</ele><time>2026-04-12T07:39:00.035Z</time></trkpt><trkpt lat="40.931625" lon="14.3006783"><ele>40.0</ele><time>2026-04-12T07:39:01.036Z</time></trkpt><trkpt lat="40.931675" lon="14.30076"><ele>40.0</ele><time>2026-04-12T07:39:02.034Z</time></trkpt><trkpt lat="40.9317217" lon="14.300835"><ele>40.0</ele><time>2026-04-12T07:39:03.035Z</time></trkpt><trkpt lat="40.931775" lon="14.300905"><ele>40.0</ele><time>2026-04-12T07:39:04.034Z</time></trkpt><trkpt lat="40.9318367" lon="14.3009667"><ele>40.0</ele><time>2026-04-12T07:39:05.034Z</time></trkpt><trkpt lat="40.9319017" lon="14.3010233"><ele>40.0</ele><time>2026-04-12T07:39:06.035Z</time></trkpt><trkpt lat="40.931965" lon="14.301075"><ele>40.0</ele><time>2026-04-12T07:39:07.034Z</time></trkpt><trkpt lat="40.932035" lon="14.3011167"><ele>40.0</ele><time>2026-04-12T07:39:08.035Z</time></trkpt><trkpt lat="40.932105" lon="14.30115"><ele>40.0</ele><time>2026-04-12T07:39:09.035Z</time></trkpt><trkpt lat="40.93218" lon="14.3011733"><ele>40.0</ele><time>2026-04-12T07:39:10.035Z</time></trkpt><trkpt lat="40.9322583" lon="14.3011933"><ele>40.0</ele><time>2026-04-12T07:39:11.034Z</time></trkpt><trkpt lat="40.932335" lon="14.3012017"><ele>40.0</ele><time>2026-04-12T07:39:12.035Z</time></trkpt><trkpt lat="40.9324117" lon="14.301205"><ele>40.0</ele><time>2026-04-12T07:39:13.035Z</time></trkpt><trkpt lat="40.93249" lon="14.3012083"><ele>40.0</ele><time>2026-04-12T07:39:14.035Z</time></trkpt><trkpt lat="40.932565" lon="14.3012117"><ele>39.833333333333336</ele><time>2026-04-12T07:39:15.036Z</time></trkpt><trkpt lat="40.9326383" lon="14.3012183"><ele>39.66666666666667</ele><time>2026-04-12T07:39:16.036Z</time></trkpt><trkpt lat="40.9327117" lon="14.3012267"><ele>39.5</ele><time>2026-04-12T07:39:17.033Z</time></trkpt><trkpt lat="40.93279" lon="14.3012317"><ele>39.333333333333336</ele><time>2026-04-12T07:39:18.035Z</time></trkpt><trkpt lat="40.9328683" lon="14.3012383"><ele>39.166666666666664</ele><time>2026-04-12T07:39:19.035Z</time></trkpt><trkpt lat="40.9329467" lon="14.3012417"><ele>39.0</ele><time>2026-04-12T07:39:20.035Z</time></trkpt><trkpt lat="40.9330267" lon="14.301245"><ele>39.0</ele><time>2026-04-12T07:39:21.035Z</time></trkpt><trkpt lat="40.933105" lon="14.3012517"><ele>39.0</ele><time>2026-04-12T07:39:22.034Z</time></trkpt><trkpt lat="40.9331817" lon="14.3012567"><ele>39.0</ele><time>2026-04-12T07:39:23.033Z</time></trkpt><trkpt lat="40.9332567" lon="14.30126"><ele>39.0</ele><time>2026-04-12T07:39:24.035Z</time></trkpt><trkpt lat="40.9333317" lon="14.301265"><ele>39.0</ele><time>2026-04-12T07:39:25.035Z</time></trkpt><trkpt lat="40.9334083" lon="14.3012733"><ele>39.0</ele><time>2026-04-12T07:39:26.034Z</time></trkpt><trkpt lat="40.9334833" lon="14.3012883"><ele>38.833333333333336</ele><time>2026-04-12T07:39:27.034Z</time></trkpt><trkpt lat="40.9335583" lon="14.3013167"><ele>38.666666666666664</ele><time>2026-04-12T07:39:28.033Z</time></trkpt><trkpt lat="40.93363" lon="14.30136"><ele>38.5</ele><time>2026-04-12T07:39:29.037Z</time></trkpt><trkpt lat="40.9336917" lon="14.3014117"><ele>38.33333333333333</ele><time>2026-04-12T07:39:30.033Z</time></trkpt><trkpt lat="40.93375" lon="14.30146"><ele>38.166666666666664</ele><time>2026-04-12T07:39:31.034Z</time></trkpt><trkpt lat="40.9338083" lon="14.3014933"><ele>38.0</ele><time>2026-04-12T07:39:32.034Z</time></trkpt><trkpt lat="40.9339267" lon="14.30146"><ele>38.14285714285714</ele><time>2026-04-12T07:39:34.036Z</time></trkpt><trkpt lat="40.9339783" lon="14.3014017"><ele>38.28571428571429</ele><time>2026-04-12T07:39:35.032Z</time></trkpt><trkpt lat="40.9340383" lon="14.3013433"><ele>38.42857142857143</ele><time>2026-04-12T07:39:36.035Z</time></trkpt><trkpt lat="40.9341" lon="14.301295"><ele>38.57142857142857</ele><time>2026-04-12T07:39:37.036Z</time></trkpt><trkpt lat="40.934175" lon="14.3012567"><ele>38.71428571428571</ele><time>2026-04-12T07:39:38.034Z</time></trkpt><trkpt lat="40.9342433" lon="14.301235"><ele>38.85714285714286</ele><time>2026-04-12T07:39:39.036Z</time></trkpt><trkpt lat="40.93432" lon="14.30123"><ele>39.0</ele><time>2026-04-12T07:39:40.035Z</time></trkpt><trkpt lat="40.9344" lon="14.3012317"><ele>39.0</ele><time>2026-04-12T07:39:41.034Z</time></trkpt><trkpt lat="40.9344783" lon="14.3012367"><ele>39.0</ele><time>2026-04-12T07:39:42.035Z</time></trkpt><trkpt lat="40.934555" lon="14.3012367"><ele>39.0</ele><time>2026-04-12T07:39:43.034Z</time></trkpt><trkpt lat="40.9346283" lon="14.3012433"><ele>39.0</ele><time>2026-04-12T07:39:44.035Z</time></trkpt><trkpt lat="40.9347083" lon="14.3012517"><ele>39.0</ele><time>2026-04-12T07:39:45.035Z</time></trkpt><trkpt lat="40.9347817" lon="14.3012533"><ele>39.0</ele><time>2026-04-12T07:39:46.033Z</time></trkpt><trkpt lat="40.9348567" lon="14.301255"><ele>39.0</ele><time>2026-04-12T07:39:47.035Z</time></trkpt><trkpt lat="40.93493" lon="14.3012533"><ele>39.0</ele><time>2026-04-12T07:39:48.034Z</time></trkpt><trkpt lat="40.9350067" lon="14.3012583"><ele>39.0</ele><time>2026-04-12T07:39:49.034Z</time></trkpt><trkpt lat="40.9350783" lon="14.30127"><ele>39.0</ele><time>2026-04-12T07:39:50.035Z</time></trkpt><trkpt lat="40.9351533" lon="14.30128"><ele>39.0</ele><time>2026-04-12T07:39:51.033Z</time></trkpt><trkpt lat="40.9352283" lon="14.301285"><ele>39.0</ele><time>2026-04-12T07:39:52.034Z</time></trkpt><trkpt lat="40.9353017" lon="14.3012833"><ele>39.0</ele><time>2026-04-12T07:39:53.035Z</time></trkpt><trkpt lat="40.9353733" lon="14.3012833"><ele>38.714285714285715</ele><time>2026-04-12T07:39:54.035Z</time></trkpt><trkpt lat="40.9354467" lon="14.3012817"><ele>38.42857142857142</ele><time>2026-04-12T07:39:55.035Z</time></trkpt><trkpt lat="40.9355217" lon="14.30128"><ele>38.14285714285714</ele><time>2026-04-12T07:39:56.033Z</time></trkpt><trkpt lat="40.9355983" lon="14.3012817"><ele>37.85714285714286</ele><time>2026-04-12T07:39:57.035Z</time></trkpt><trkpt lat="40.9356683" lon="14.3012717"><ele>37.57142857142857</ele><time>2026-04-12T07:39:58.033Z</time></trkpt><trkpt lat="40.9357433" lon="14.3012683"><ele>37.285714285714285</ele><time>2026-04-12T07:39:59.034Z</time></trkpt><trkpt lat="40.935815" lon="14.3012583"><ele>37.0</ele><time>2026-04-12T07:40:00.034Z</time></trkpt><trkpt lat="40.9358917" lon="14.3012467"><ele>37.0</ele><time>2026-04-12T07:40:01.033Z</time></trkpt><trkpt lat="40.9359683" lon="14.3012333"><ele>37.0</ele><time>2026-04-12T07:40:02.033Z</time></trkpt><trkpt lat="40.9360417" lon="14.301215"><ele>37.0</ele><time>2026-04-12T07:40:03.034Z</time></trkpt><trkpt lat="40.936115" lon="14.3012033"><ele>37.0</ele><time>2026-04-12T07:40:04.034Z</time></trkpt><trkpt lat="40.9361933" lon="14.3011917"><ele>37.0</ele><time>2026-04-12T07:40:05.036Z</time></trkpt><trkpt lat="40.93627" lon="14.3011783"><ele>37.0</ele><time>2026-04-12T07:40:06.035Z</time></trkpt><trkpt lat="40.9363467" lon="14.3011633"><ele>37.0</ele><time>2026-04-12T07:40:07.034Z</time></trkpt><trkpt lat="40.9364283" lon="14.30115"><ele>37.0</ele><time>2026-04-12T07:40:08.034Z</time></trkpt><trkpt lat="40.9365067" lon="14.30113"><ele>37.0</ele><time>2026-04-12T07:40:09.032Z</time></trkpt><trkpt lat="40.9365783" lon="14.3011117"><ele>37.0</ele><time>2026-04-12T07:40:10.033Z</time></trkpt><trkpt lat="40.9366517" lon="14.3010917"><ele>37.0</ele><time>2026-04-12T07:40:11.033Z</time></trkpt><trkpt lat="40.9367233" lon="14.3010733"><ele>37.0</ele><time>2026-04-12T07:40:12.034Z</time></trkpt><trkpt lat="40.936795" lon="14.301055"><ele>37.0</ele><time>2026-04-12T07:40:13.034Z</time></trkpt><trkpt lat="40.9368683" lon="14.30104"><ele>37.0</ele><time>2026-04-12T07:40:14.035Z</time></trkpt><trkpt lat="40.9369433" lon="14.3010267"><ele>37.0</ele><time>2026-04-12T07:40:15.033Z</time></trkpt><trkpt lat="40.9370183" lon="14.3010133"><ele>37.0</ele><time>2026-04-12T07:40:16.033Z</time></trkpt><trkpt lat="40.9370933" lon="14.3010017"><ele>37.0</ele><time>2026-04-12T07:40:17.034Z</time></trkpt><trkpt lat="40.9371683" lon="14.30099"><ele>37.0</ele><time>2026-04-12T07:40:18.035Z</time></trkpt><trkpt lat="40.9372417" lon="14.3009767"><ele>37.0</ele><time>2026-04-12T07:40:19.034Z</time></trkpt><trkpt lat="40.9373183" lon="14.300965"><ele>37.0</ele><time>2026-04-12T07:40:20.035Z</time></trkpt><trkpt lat="40.9373933" lon="14.30095"><ele>37.0</ele><time>2026-04-12T07:40:21.034Z</time></trkpt><trkpt lat="40.9374683" lon="14.30093"><ele>37.0</ele><time>2026-04-12T07:40:22.034Z</time></trkpt><trkpt lat="40.9375417" lon="14.3009133"><ele>37.0</ele><time>2026-04-12T07:40:23.034Z</time></trkpt><trkpt lat="40.9376133" lon="14.3008983"><ele>37.0</ele><time>2026-04-12T07:40:24.035Z</time></trkpt><trkpt lat="40.9376833" lon="14.3008833"><ele>37.0</ele><time>2026-04-12T07:40:25.034Z</time></trkpt><trkpt lat="40.9377517" lon="14.3008717"><ele>37.142857142857146</ele><time>2026-04-12T07:40:26.034Z</time></trkpt><trkpt lat="40.9378217" lon="14.3008533"><ele>37.285714285714285</ele><time>2026-04-12T07:40:27.035Z</time></trkpt><trkpt lat="40.9378917" lon="14.300835"><ele>37.42857142857143</ele><time>2026-04-12T07:40:28.034Z</time></trkpt><trkpt lat="40.93796" lon="14.300815"><ele>37.57142857142857</ele><time>2026-04-12T07:40:29.035Z</time></trkpt><trkpt lat="40.93803" lon="14.30079"><ele>37.714285714285715</ele><time>2026-04-12T07:40:30.034Z</time></trkpt><trkpt lat="40.9380983" lon="14.3007617"><ele>37.857142857142854</ele><time>2026-04-12T07:40:31.034Z</time></trkpt><trkpt lat="40.9381667" lon="14.30073"><ele>38.0</ele><time>2026-04-12T07:40:32.035Z</time></trkpt><trkpt lat="40.938235" lon="14.3006933"><ele>38.0</ele><time>2026-04-12T07:40:33.033Z</time></trkpt><trkpt lat="40.9383" lon="14.3006583"><ele>38.0</ele><time>2026-04-12T07:40:34.036Z</time></trkpt><trkpt lat="40.9383667" lon="14.30062"><ele>38.0</ele><time>2026-04-12T07:40:35.037Z</time></trkpt><trkpt lat="40.93843" lon="14.3005833"><ele>38.0</ele><time>2026-04-12T07:40:36.034Z</time></trkpt><trkpt lat="40.938495" lon="14.30054"><ele>38.0</ele><time>2026-04-12T07:40:37.036Z</time></trkpt><trkpt lat="40.9385567" lon="14.3005017"><ele>38.0</ele><time>2026-04-12T07:40:38.035Z</time></trkpt><trkpt lat="40.9386183" lon="14.300465"><ele>38.0</ele><time>2026-04-12T07:40:39.035Z</time></trkpt><trkpt lat="40.9386817" lon="14.3004267"><ele>37.857142857142854</ele><time>2026-04-12T07:40:40.034Z</time></trkpt><trkpt lat="40.9387433" lon="14.3003867"><ele>37.714285714285715</ele><time>2026-04-12T07:40:41.033Z</time></trkpt><trkpt lat="40.938805" lon="14.3003467"><ele>37.57142857142857</ele><time>2026-04-12T07:40:42.035Z</time></trkpt><trkpt lat="40.9388683" lon="14.3003067"><ele>37.42857142857143</ele><time>2026-04-12T07:40:43.034Z</time></trkpt><trkpt lat="40.9389233" lon="14.3002617"><ele>37.285714285714285</ele><time>2026-04-12T07:40:44.033Z</time></trkpt><trkpt lat="40.9389867" lon="14.30022"><ele>37.142857142857146</ele><time>2026-04-12T07:40:45.034Z</time></trkpt><trkpt lat="40.93905" lon="14.3001817"><ele>37.0</ele><time>2026-04-12T07:40:46.033Z</time></trkpt><trkpt lat="40.9391167" lon="14.30015"><ele>37.0</ele><time>2026-04-12T07:40:47.035Z</time></trkpt><trkpt lat="40.9391817" lon="14.3001133"><ele>37.0</ele><time>2026-04-12T07:40:48.035Z</time></trkpt><trkpt lat="40.9392383" lon="14.3000483"><ele>37.0</ele><time>2026-04-12T07:40:49.035Z</time></trkpt><trkpt lat="40.9393117" lon="14.3000117"><ele>37.0</ele><time>2026-04-12T07:40:50.034Z</time></trkpt><trkpt lat="40.9393767" lon="14.2999717"><ele>37.0</ele><time>2026-04-12T07:40:51.034Z</time></trkpt><trkpt lat="40.93944" lon="14.2999333"><ele>37.0</ele><time>2026-04-12T07:40:52.034Z</time></trkpt><trkpt lat="40.939505" lon="14.29989"><ele>37.0</ele><time>2026-04-12T07:40:53.034Z</time></trkpt><trkpt lat="40.9395683" lon="14.29985"><ele>36.85714285714286</ele><time>2026-04-12T07:40:54.036Z</time></trkpt><trkpt lat="40.9396317" lon="14.29981"><ele>36.714285714285715</ele><time>2026-04-12T07:40:55.035Z</time></trkpt><trkpt lat="40.939695" lon="14.2997733"><ele>36.57142857142857</ele><time>2026-04-12T07:40:56.033Z</time></trkpt><trkpt lat="40.93976" lon="14.29974"><ele>36.42857142857143</ele><time>2026-04-12T07:40:57.034Z</time></trkpt><trkpt lat="40.9398283" lon="14.2997"><ele>36.285714285714285</ele><time>2026-04-12T07:40:58.033Z</time></trkpt><trkpt lat="40.9398983" lon="14.2996633"><ele>36.142857142857146</ele><time>2026-04-12T07:40:59.033Z</time></trkpt><trkpt lat="40.939965" lon="14.29963"><ele>36.0</ele><time>2026-04-12T07:41:00.035Z</time></trkpt><trkpt lat="40.94003" lon="14.2996017"><ele>36.142857142857146</ele><time>2026-04-12T07:41:01.035Z</time></trkpt><trkpt lat="40.9400917" lon="14.299575"><ele>36.285714285714285</ele><time>2026-04-12T07:41:02.036Z</time></trkpt><trkpt lat="40.940155" lon="14.29955"><ele>36.42857142857143</ele><time>2026-04-12T07:41:03.035Z</time></trkpt><trkpt lat="40.9402217" lon="14.2995283"><ele>36.57142857142857</ele><time>2026-04-12T07:41:04.033Z</time></trkpt><trkpt lat="40.9402833" lon="14.29951"><ele>36.714285714285715</ele><time>2026-04-12T07:41:05.035Z</time></trkpt><trkpt lat="40.9403483" lon="14.2994933"><ele>36.85714285714286</ele><time>2026-04-12T07:41:06.035Z</time></trkpt><trkpt lat="40.9404183" lon="14.2994733"><ele>37.0</ele><time>2026-04-12T07:41:07.033Z</time></trkpt><trkpt lat="40.9404867" lon="14.2994567"><ele>37.0</ele><time>2026-04-12T07:41:08.034Z</time></trkpt><trkpt lat="40.9405517" lon="14.2994383"><ele>37.0</ele><time>2026-04-12T07:41:09.035Z</time></trkpt><trkpt lat="40.940615" lon="14.2994283"><ele>37.0</ele><time>2026-04-12T07:41:10.033Z</time></trkpt><trkpt lat="40.94068" lon="14.29941"><ele>37.0</ele><time>2026-04-12T07:41:11.035Z</time></trkpt><trkpt lat="40.9407467" lon="14.2993933"><ele>37.0</ele><time>2026-04-12T07:41:12.035Z</time></trkpt><trkpt lat="40.9408183" lon="14.2993733"><ele>37.0</ele><time>2026-04-12T07:41:13.033Z</time></trkpt><trkpt lat="40.94089" lon="14.299355"><ele>37.0</ele><time>2026-04-12T07:41:14.033Z</time></trkpt><trkpt lat="40.9409567" lon="14.29933"><ele>37.0</ele><time>2026-04-12T07:41:15.034Z</time></trkpt><trkpt lat="40.941025" lon="14.2993167"><ele>37.0</ele><time>2026-04-12T07:41:16.034Z</time></trkpt><trkpt lat="40.9410933" lon="14.2993033"><ele>37.0</ele><time>2026-04-12T07:41:17.034Z</time></trkpt><trkpt lat="40.9411567" lon="14.299285"><ele>37.0</ele><time>2026-04-12T07:41:18.036Z</time></trkpt><trkpt lat="40.9412217" lon="14.2992583"><ele>37.0</ele><time>2026-04-12T07:41:19.034Z</time></trkpt><trkpt lat="40.9412833" lon="14.2992367"><ele>37.0</ele><time>2026-04-12T07:41:20.033Z</time></trkpt><trkpt lat="40.9414" lon="14.29921"><ele>37.0</ele><time>2026-04-12T07:41:22.035Z</time></trkpt><trkpt lat="40.9415083" lon="14.299155"><ele>37.0</ele><time>2026-04-12T07:41:24.035Z</time></trkpt><trkpt lat="40.94162" lon="14.299115"><ele>37.0</ele><time>2026-04-12T07:41:26.034Z</time></trkpt><trkpt lat="40.9417283" lon="14.2990983"><ele>37.0</ele><time>2026-04-12T07:41:28.033Z</time></trkpt><trkpt lat="40.94185" lon="14.2990933"><ele>36.800000000000004</ele><time>2026-04-12T07:41:30.034Z</time></trkpt><trkpt lat="40.94197" lon="14.299085"><ele>36.6</ele><time>2026-04-12T07:41:32.035Z</time></trkpt><trkpt lat="40.9420817" lon="14.29906"><ele>36.400000000000006</ele><time>2026-04-12T07:41:34.034Z</time></trkpt><trkpt lat="40.94218" lon="14.2990417"><ele>36.2</ele><time>2026-04-12T07:41:36.035Z</time></trkpt><trkpt lat="40.942285" lon="14.2990467"><ele>36.0</ele><time>2026-04-12T07:41:38.035Z</time></trkpt><trkpt lat="40.9424017" lon="14.2990483"><ele>36.0</ele><time>2026-04-12T07:41:40.035Z</time></trkpt><trkpt lat="40.9425217" lon="14.29904"><ele>36.0</ele><time>2026-04-12T07:41:42.036Z</time></trkpt><trkpt lat="40.9426467" lon="14.2990317"><ele>36.0</ele><time>2026-04-12T07:41:44.034Z</time></trkpt><trkpt lat="40.94271" lon="14.2990317"><ele>36.0</ele><time>2026-04-12T07:41:45.035Z</time></trkpt><trkpt lat="40.942835" lon="14.2990167"><ele>36.0</ele><time>2026-04-12T07:41:47.034Z</time></trkpt><trkpt lat="40.9429017" lon="14.2990233"><ele>35.714285714285715</ele><time>2026-04-12T07:41:48.034Z</time></trkpt><trkpt lat="40.9429717" lon="14.2990217"><ele>35.42857142857143</ele><time>2026-04-12T07:41:49.033Z</time></trkpt><trkpt lat="40.9430417" lon="14.2990217"><ele>35.14285714285714</ele><time>2026-04-12T07:41:50.035Z</time></trkpt><trkpt lat="40.9431083" lon="14.29903"><ele>34.85714285714286</ele><time>2026-04-12T07:41:51.035Z</time></trkpt><trkpt lat="40.9431767" lon="14.299035"><ele>34.57142857142857</ele><time>2026-04-12T07:41:52.035Z</time></trkpt><trkpt lat="40.9432417" lon="14.2990433"><ele>34.285714285714285</ele><time>2026-04-12T07:41:53.035Z</time></trkpt><trkpt lat="40.9433067" lon="14.2990467"><ele>34.0</ele><time>2026-04-12T07:41:54.034Z</time></trkpt><trkpt lat="40.943375" lon="14.29905"><ele>33.71428571428571</ele><time>2026-04-12T07:41:55.034Z</time></trkpt><trkpt lat="40.9434383" lon="14.2990633"><ele>33.42857142857143</ele><time>2026-04-12T07:41:56.034Z</time></trkpt><trkpt lat="40.943505" lon="14.2990767"><ele>33.14285714285714</ele><time>2026-04-12T07:41:57.035Z</time></trkpt><trkpt lat="40.943575" lon="14.2990967"><ele>32.857142857142854</ele><time>2026-04-12T07:41:58.035Z</time></trkpt><trkpt lat="40.9436433" lon="14.2991183"><ele>32.57142857142857</ele><time>2026-04-12T07:41:59.035Z</time></trkpt><trkpt lat="40.9437117" lon="14.2991233"><ele>32.285714285714285</ele><time>2026-04-12T07:42:00.035Z</time></trkpt><trkpt lat="40.9437767" lon="14.299135"><ele>32.0</ele><time>2026-04-12T07:42:01.036Z</time></trkpt><trkpt lat="40.943845" lon="14.2991433"><ele>32.0</ele><time>2026-04-12T07:42:02.035Z</time></trkpt><trkpt lat="40.9439133" lon="14.2991483"><ele>31.999999999999996</ele><time>2026-04-12T07:42:03.034Z</time></trkpt><trkpt lat="40.9439783" lon="14.2991517"><ele>32.0</ele><time>2026-04-12T07:42:04.033Z</time></trkpt><trkpt lat="40.9440433" lon="14.2991617"><ele>32.0</ele><time>2026-04-12T07:42:05.032Z</time></trkpt><trkpt lat="40.94411" lon="14.299175"><ele>31.999999999999996</ele><time>2026-04-12T07:42:06.036Z</time></trkpt><trkpt lat="40.944175" lon="14.2991917"><ele>32.0</ele><time>2026-04-12T07:42:07.033Z</time></trkpt><trkpt lat="40.94424" lon="14.2992183"><ele>32.0</ele><time>2026-04-12T07:42:08.034Z</time></trkpt><trkpt lat="40.9443017" lon="14.2992517"><ele>32.166666666666664</ele><time>2026-04-12T07:42:09.034Z</time></trkpt><trkpt lat="40.9444233" lon="14.2992817"><ele>32.33333333333333</ele><time>2026-04-12T07:42:11.033Z</time></trkpt><trkpt lat="40.9444933" lon="14.2992683"><ele>32.5</ele><time>2026-04-12T07:42:12.035Z</time></trkpt><trkpt lat="40.9445617" lon="14.2992583"><ele>32.666666666666664</ele><time>2026-04-12T07:42:13.034Z</time></trkpt><trkpt lat="40.944635" lon="14.2992517"><ele>32.833333333333336</ele><time>2026-04-12T07:42:14.031Z</time></trkpt><trkpt lat="40.9447067" lon="14.29926"><ele>33.0</ele><time>2026-04-12T07:42:15.033Z</time></trkpt><trkpt lat="40.94478" lon="14.2992717"><ele>33.0</ele><time>2026-04-12T07:42:16.035Z</time></trkpt><trkpt lat="40.94485" lon="14.2992833"><ele>33.0</ele><time>2026-04-12T07:42:17.035Z</time></trkpt><trkpt lat="40.9449217" lon="14.2992967"><ele>33.0</ele><time>2026-04-12T07:42:18.033Z</time></trkpt><trkpt lat="40.9449883" lon="14.29931"><ele>33.0</ele><time>2026-04-12T07:42:19.033Z</time></trkpt><trkpt lat="40.9450583" lon="14.299325"><ele>33.0</ele><time>2026-04-12T07:42:20.034Z</time></trkpt><trkpt lat="40.9451267" lon="14.29934"><ele>33.0</ele><time>2026-04-12T07:42:21.035Z</time></trkpt><trkpt lat="40.9451933" lon="14.299355"><ele>33.0</ele><time>2026-04-12T07:42:22.033Z</time></trkpt><trkpt lat="40.94526" lon="14.2993667"><ele>33.0</ele><time>2026-04-12T07:42:23.034Z</time></trkpt><trkpt lat="40.9453333" lon="14.29938"><ele>33.0</ele><time>2026-04-12T07:42:24.034Z</time></trkpt><trkpt lat="40.9454033" lon="14.2993983"><ele>33.0</ele><time>2026-04-12T07:42:25.034Z</time></trkpt><trkpt lat="40.9454767" lon="14.2994183"><ele>33.0</ele><time>2026-04-12T07:42:26.035Z</time></trkpt><trkpt lat="40.9455483" lon="14.2994333"><ele>33.0</ele><time>2026-04-12T07:42:27.035Z</time></trkpt><trkpt lat="40.9456217" lon="14.29945"><ele>33.0</ele><time>2026-04-12T07:42:28.034Z</time></trkpt><trkpt lat="40.9456967" lon="14.2994667"><ele>33.0</ele><time>2026-04-12T07:42:29.034Z</time></trkpt><trkpt lat="40.9457683" lon="14.299485"><ele>33.0</ele><time>2026-04-12T07:42:30.035Z</time></trkpt><trkpt lat="40.94584" lon="14.2995033"><ele>33.0</ele><time>2026-04-12T07:42:31.034Z</time></trkpt><trkpt lat="40.9459133" lon="14.29952"><ele>33.0</ele><time>2026-04-12T07:42:32.035Z</time></trkpt><trkpt lat="40.9459833" lon="14.299535"><ele>33.0</ele><time>2026-04-12T07:42:33.033Z</time></trkpt><trkpt lat="40.9460533" lon="14.29955"><ele>33.0</ele><time>2026-04-12T07:42:34.034Z</time></trkpt><trkpt lat="40.9461233" lon="14.2995617"><ele>33.0</ele><time>2026-04-12T07:42:35.034Z</time></trkpt><trkpt lat="40.9461917" lon="14.2995717"><ele>33.0</ele><time>2026-04-12T07:42:36.035Z</time></trkpt><trkpt lat="40.9462567" lon="14.299585"><ele>32.8</ele><time>2026-04-12T07:42:37.033Z</time></trkpt><trkpt lat="40.946325" lon="14.2995983"><ele>32.599999999999994</ele><time>2026-04-12T07:42:38.035Z</time></trkpt><trkpt lat="40.9463867" lon="14.29963"><ele>32.400000000000006</ele><time>2026-04-12T07:42:39.034Z</time></trkpt><trkpt lat="40.9464767" lon="14.29974"><ele>32.2</ele><time>2026-04-12T07:42:41.033Z</time></trkpt><trkpt lat="40.9465417" lon="14.2998617"><ele>32.0</ele><time>2026-04-12T07:42:43.033Z</time></trkpt><trkpt lat="40.9465967" lon="14.300005"><ele>32.0</ele><time>2026-04-12T07:42:45.036Z</time></trkpt><trkpt lat="40.9466233" lon="14.3000833"><ele>31.999999999999996</ele><time>2026-04-12T07:42:46.035Z</time></trkpt><trkpt lat="40.9466467" lon="14.3001633"><ele>32.0</ele><time>2026-04-12T07:42:47.035Z</time></trkpt><trkpt lat="40.9466683" lon="14.300245"><ele>32.0</ele><time>2026-04-12T07:42:48.035Z</time></trkpt><trkpt lat="40.946695" lon="14.3003283"><ele>31.999999999999996</ele><time>2026-04-12T07:42:49.034Z</time></trkpt><trkpt lat="40.9467233" lon="14.30041"><ele>32.0</ele><time>2026-04-12T07:42:50.034Z</time></trkpt><trkpt lat="40.94675" lon="14.30049"><ele>32.0</ele><time>2026-04-12T07:42:51.035Z</time></trkpt><trkpt lat="40.9467817" lon="14.3005717"><ele>31.857142857142854</ele><time>2026-04-12T07:42:52.033Z</time></trkpt><trkpt lat="40.9468133" lon="14.3006517"><ele>31.71428571428571</ele><time>2026-04-12T07:42:53.036Z</time></trkpt><trkpt lat="40.9468433" lon="14.3007417"><ele>31.57142857142857</ele><time>2026-04-12T07:42:54.036Z</time></trkpt><trkpt lat="40.94687" lon="14.3008267"><ele>31.42857142857143</ele><time>2026-04-12T07:42:55.035Z</time></trkpt><trkpt lat="40.9468983" lon="14.30091"><ele>31.28571428571429</ele><time>2026-04-12T07:42:56.034Z</time></trkpt><trkpt lat="40.9469317" lon="14.300995"><ele>31.142857142857146</ele><time>2026-04-12T07:42:57.034Z</time></trkpt><trkpt lat="40.9469633" lon="14.3010767"><ele>31.0</ele><time>2026-04-12T07:42:58.033Z</time></trkpt><trkpt lat="40.946995" lon="14.30116"><ele>31.0</ele><time>2026-04-12T07:42:59.035Z</time></trkpt><trkpt lat="40.9470267" lon="14.301245"><ele>31.000000000000004</ele><time>2026-04-12T07:43:00.035Z</time></trkpt><trkpt lat="40.9470583" lon="14.3013317"><ele>31.0</ele><time>2026-04-12T07:43:01.035Z</time></trkpt><trkpt lat="40.9470917" lon="14.301415"><ele>31.0</ele><time>2026-04-12T07:43:02.033Z</time></trkpt><trkpt lat="40.947125" lon="14.3015017"><ele>31.000000000000004</ele><time>2026-04-12T07:43:03.035Z</time></trkpt><trkpt lat="40.94716" lon="14.3015833"><ele>31.0</ele><time>2026-04-12T07:43:04.032Z</time></trkpt><trkpt lat="40.947195" lon="14.3016667"><ele>31.0</ele><time>2026-04-12T07:43:05.035Z</time></trkpt><trkpt lat="40.9472267" lon="14.30175"><ele>31.333333333333336</ele><time>2026-04-12T07:43:06.034Z</time></trkpt><trkpt lat="40.94726" lon="14.30183"><ele>31.666666666666668</ele><time>2026-04-12T07:43:07.034Z</time></trkpt><trkpt lat="40.9472933" lon="14.3019067"><ele>32.0</ele><time>2026-04-12T07:43:08.035Z</time></trkpt><trkpt lat="40.9473317" lon="14.3019783"><ele>32.333333333333336</ele><time>2026-04-12T07:43:09.035Z</time></trkpt><trkpt lat="40.9473717" lon="14.302045"><ele>32.666666666666664</ele><time>2026-04-12T07:43:10.033Z</time></trkpt><trkpt lat="40.9474117" lon="14.3021133"><ele>33.0</ele><time>2026-04-12T07:43:11.034Z</time></trkpt><trkpt lat="40.9475017" lon="14.3022167"><ele>32.833333333333336</ele><time>2026-04-12T07:43:13.035Z</time></trkpt><trkpt lat="40.9476317" lon="14.3022383"><ele>32.666666666666664</ele><time>2026-04-12T07:43:15.033Z</time></trkpt><trkpt lat="40.9477117" lon="14.30224"><ele>32.5</ele><time>2026-04-12T07:43:16.034Z</time></trkpt><trkpt lat="40.947785" lon="14.3022517"><ele>32.33333333333333</ele><time>2026-04-12T07:43:17.034Z</time></trkpt><trkpt lat="40.9478567" lon="14.302265"><ele>32.166666666666664</ele><time>2026-04-12T07:43:18.034Z</time></trkpt><trkpt lat="40.9479233" lon="14.30228"><ele>32.0</ele><time>2026-04-12T07:43:19.037Z</time></trkpt><trkpt lat="40.9479917" lon="14.3022967"><ele>32.0</ele><time>2026-04-12T07:43:20.034Z</time></trkpt><trkpt lat="40.948065" lon="14.302305"><ele>31.999999999999996</ele><time>2026-04-12T07:43:21.034Z</time></trkpt><trkpt lat="40.948135" lon="14.302315"><ele>32.0</ele><time>2026-04-12T07:43:22.033Z</time></trkpt><trkpt lat="40.9482067" lon="14.3023217"><ele>32.0</ele><time>2026-04-12T07:43:23.034Z</time></trkpt><trkpt lat="40.9482733" lon="14.3023317"><ele>31.999999999999996</ele><time>2026-04-12T07:43:24.034Z</time></trkpt><trkpt lat="40.9483417" lon="14.3023467"><ele>32.0</ele><time>2026-04-12T07:43:25.034Z</time></trkpt><trkpt lat="40.9484083" lon="14.30236"><ele>32.0</ele><time>2026-04-12T07:43:26.035Z</time></trkpt><trkpt lat="40.9484733" lon="14.3023717"><ele>31.833333333333332</ele><time>2026-04-12T07:43:27.033Z</time></trkpt><trkpt lat="40.94854" lon="14.302385"><ele>31.666666666666664</ele><time>2026-04-12T07:43:28.034Z</time></trkpt><trkpt lat="40.948665" lon="14.3024083"><ele>31.5</ele><time>2026-04-12T07:43:30.035Z</time></trkpt><trkpt lat="40.9487283" lon="14.3024183"><ele>31.333333333333336</ele><time>2026-04-12T07:43:31.034Z</time></trkpt><trkpt lat="40.948845" lon="14.3024333"><ele>31.166666666666668</ele><time>2026-04-12T07:43:33.033Z</time></trkpt><trkpt lat="40.9489067" lon="14.3024517"><ele>31.0</ele><time>2026-04-12T07:43:34.033Z</time></trkpt><trkpt lat="40.9489683" lon="14.3024833"><ele>31.0</ele><time>2026-04-12T07:43:35.034Z</time></trkpt><trkpt lat="40.9490883" lon="14.3025383"><ele>31.0</ele><time>2026-04-12T07:43:37.032Z</time></trkpt><trkpt lat="40.949215" lon="14.3025617"><ele>31.0</ele><time>2026-04-12T07:43:39.034Z</time></trkpt><trkpt lat="40.9493383" lon="14.3025883"><ele>31.0</ele><time>2026-04-12T07:43:41.034Z</time></trkpt><trkpt lat="40.9494017" lon="14.3026033"><ele>31.0</ele><time>2026-04-12T07:43:42.032Z</time></trkpt><trkpt lat="40.9495133" lon="14.302625"><ele>31.5</ele><time>2026-04-12T07:43:44.034Z</time></trkpt><trkpt lat="40.94963" lon="14.3026433"><ele>32.0</ele><time>2026-04-12T07:43:46.033Z</time></trkpt><trkpt lat="40.9497517" lon="14.302665"><ele>32.5</ele><time>2026-04-12T07:43:48.035Z</time></trkpt><trkpt lat="40.9498667" lon="14.3026833"><ele>33.0</ele><time>2026-04-12T07:43:50.035Z</time></trkpt><trkpt lat="40.949975" lon="14.3027067"><ele>32.75</ele><time>2026-04-12T07:43:52.034Z</time></trkpt><trkpt lat="40.950085" lon="14.3027467"><ele>32.5</ele><time>2026-04-12T07:43:54.035Z</time></trkpt><trkpt lat="40.9502067" lon="14.3027733"><ele>32.25</ele><time>2026-04-12T07:43:56.035Z</time></trkpt><trkpt lat="40.9503217" lon="14.3028"><ele>32.0</ele><time>2026-04-12T07:43:58.034Z</time></trkpt><trkpt lat="40.95044" lon="14.3028133"><ele>31.999999999999996</ele><time>2026-04-12T07:44:00.036Z</time></trkpt><trkpt lat="40.95056" lon="14.3028417"><ele>32.0</ele><time>2026-04-12T07:44:02.036Z</time></trkpt><trkpt lat="40.9506767" lon="14.30288"><ele>32.0</ele><time>2026-04-12T07:44:04.033Z</time></trkpt><trkpt lat="40.95074" lon="14.3029"><ele>32.0</ele><time>2026-04-12T07:44:05.035Z</time></trkpt><trkpt lat="40.9508033" lon="14.3029183"><ele>31.999999999999996</ele><time>2026-04-12T07:44:06.035Z</time></trkpt><trkpt lat="40.9508667" lon="14.3029367"><ele>32.0</ele><time>2026-04-12T07:44:07.036Z</time></trkpt><trkpt lat="40.9509917" lon="14.302975"><ele>31.6</ele><time>2026-04-12T07:44:09.035Z</time></trkpt><trkpt lat="40.95106" lon="14.30299"><ele>31.200000000000003</ele><time>2026-04-12T07:44:10.035Z</time></trkpt><trkpt lat="40.951125" lon="14.303005"><ele>30.8</ele><time>2026-04-12T07:44:11.034Z</time></trkpt><trkpt lat="40.9512467" lon="14.3030333"><ele>30.4</ele><time>2026-04-12T07:44:13.033Z</time></trkpt><trkpt lat="40.951365" lon="14.30306"><ele>30.0</ele><time>2026-04-12T07:44:15.034Z</time></trkpt><trkpt lat="40.95148" lon="14.303095"><ele>30.0</ele><time>2026-04-12T07:44:17.034Z</time></trkpt><trkpt lat="40.9515983" lon="14.3031217"><ele>30.0</ele><time>2026-04-12T07:44:19.034Z</time></trkpt><trkpt lat="40.95171" lon="14.3031567"><ele>30.0</ele><time>2026-04-12T07:44:21.035Z</time></trkpt><trkpt lat="40.9518217" lon="14.3031917"><ele>30.0</ele><time>2026-04-12T07:44:23.036Z</time></trkpt><trkpt lat="40.9519417" lon="14.3032317"><ele>30.0</ele><time>2026-04-12T07:44:25.033Z</time></trkpt><trkpt lat="40.95206" lon="14.3032817"><ele>30.0</ele><time>2026-04-12T07:44:27.035Z</time></trkpt><trkpt lat="40.9521767" lon="14.3033317"><ele>30.0</ele><time>2026-04-12T07:44:29.034Z</time></trkpt><trkpt lat="40.9522417" lon="14.3033567"><ele>30.0</ele><time>2026-04-12T07:44:30.034Z</time></trkpt><trkpt lat="40.9523033" lon="14.30338"><ele>30.0</ele><time>2026-04-12T07:44:31.032Z</time></trkpt><trkpt lat="40.9523683" lon="14.3034033"><ele>30.0</ele><time>2026-04-12T07:44:32.034Z</time></trkpt><trkpt lat="40.9524333" lon="14.3034267"><ele>30.0</ele><time>2026-04-12T07:44:33.035Z</time></trkpt><trkpt lat="40.9524967" lon="14.3034433"><ele>30.0</ele><time>2026-04-12T07:44:34.035Z</time></trkpt><trkpt lat="40.95256" lon="14.3034567"><ele>30.0</ele><time>2026-04-12T07:44:35.035Z</time></trkpt><trkpt lat="40.9526817" lon="14.3035067"><ele>30.0</ele><time>2026-04-12T07:44:37.033Z</time></trkpt><trkpt lat="40.9527467" lon="14.303525"><ele>30.0</ele><time>2026-04-12T07:44:38.035Z</time></trkpt><trkpt lat="40.9528133" lon="14.3035367"><ele>30.0</ele><time>2026-04-12T07:44:39.034Z</time></trkpt><trkpt lat="40.952885" lon="14.3035517"><ele>29.714285714285715</ele><time>2026-04-12T07:44:40.033Z</time></trkpt><trkpt lat="40.9529583" lon="14.3035667"><ele>29.428571428571427</ele><time>2026-04-12T07:44:41.035Z</time></trkpt><trkpt lat="40.9530267" lon="14.303595"><ele>29.142857142857142</ele><time>2026-04-12T07:44:42.033Z</time></trkpt><trkpt lat="40.953095" lon="14.3036283"><ele>28.857142857142858</ele><time>2026-04-12T07:44:43.035Z</time></trkpt><trkpt lat="40.95316" lon="14.30365"><ele>28.57142857142857</ele><time>2026-04-12T07:44:44.035Z</time></trkpt><trkpt lat="40.953225" lon="14.3036683"><ele>28.285714285714285</ele><time>2026-04-12T07:44:45.034Z</time></trkpt><trkpt lat="40.9532917" lon="14.3036817"><ele>28.0</ele><time>2026-04-12T07:44:46.034Z</time></trkpt><trkpt lat="40.9533567" lon="14.30369"><ele>28.42857142857143</ele><time>2026-04-12T07:44:47.035Z</time></trkpt><trkpt lat="40.9534233" lon="14.3036983"><ele>28.857142857142858</ele><time>2026-04-12T07:44:48.035Z</time></trkpt><trkpt lat="40.9534967" lon="14.3037067"><ele>29.285714285714285</ele><time>2026-04-12T07:44:49.035Z</time></trkpt><trkpt lat="40.9535667" lon="14.3037233"><ele>29.714285714285715</ele><time>2026-04-12T07:44:50.035Z</time></trkpt><trkpt lat="40.95363" lon="14.3037467"><ele>30.142857142857146</ele><time>2026-04-12T07:44:51.035Z</time></trkpt><trkpt lat="40.953695" lon="14.3037817"><ele>30.571428571428573</ele><time>2026-04-12T07:44:52.033Z</time></trkpt><trkpt lat="40.9537567" lon="14.3038117"><ele>31.0</ele><time>2026-04-12T07:44:53.035Z</time></trkpt><trkpt lat="40.9538283" lon="14.3038417"><ele>31.0</ele><time>2026-04-12T07:44:54.036Z</time></trkpt><trkpt lat="40.9538917" lon="14.3038683"><ele>31.000000000000004</ele><time>2026-04-12T07:44:55.035Z</time></trkpt><trkpt lat="40.953955" lon="14.3039"><ele>31.0</ele><time>2026-04-12T07:44:56.035Z</time></trkpt><trkpt lat="40.9540217" lon="14.3039333"><ele>31.0</ele><time>2026-04-12T07:44:57.033Z</time></trkpt><trkpt lat="40.9540867" lon="14.3039583"><ele>31.000000000000004</ele><time>2026-04-12T07:44:58.034Z</time></trkpt><trkpt lat="40.95415" lon="14.3039817"><ele>31.0</ele><time>2026-04-12T07:44:59.035Z</time></trkpt><trkpt lat="40.9542117" lon="14.304005"><ele>31.0</ele><time>2026-04-12T07:45:00.034Z</time></trkpt><trkpt lat="40.954275" lon="14.3040233"><ele>30.4</ele><time>2026-04-12T07:45:01.035Z</time></trkpt><trkpt lat="40.9543417" lon="14.3040317"><ele>29.8</ele><time>2026-04-12T07:45:02.035Z</time></trkpt><trkpt lat="40.95446" lon="14.3040533"><ele>29.199999999999996</ele><time>2026-04-12T07:45:04.035Z</time></trkpt><trkpt lat="40.9545833" lon="14.30408"><ele>28.599999999999998</ele><time>2026-04-12T07:45:06.035Z</time></trkpt><trkpt lat="40.954705" lon="14.3041167"><ele>28.0</ele><time>2026-04-12T07:45:08.034Z</time></trkpt><trkpt lat="40.95477" lon="14.3041383"><ele>28.000000000000004</ele><time>2026-04-12T07:45:09.034Z</time></trkpt><trkpt lat="40.9548967" lon="14.30418"><ele>28.0</ele><time>2026-04-12T07:45:11.035Z</time></trkpt><trkpt lat="40.9549617" lon="14.3042"><ele>28.0</ele><time>2026-04-12T07:45:12.035Z</time></trkpt><trkpt lat="40.9550233" lon="14.304225"><ele>28.0</ele><time>2026-04-12T07:45:13.036Z</time></trkpt><trkpt lat="40.9550867" lon="14.30425"><ele>28.000000000000004</ele><time>2026-04-12T07:45:14.035Z</time></trkpt><trkpt lat="40.95515" lon="14.3042817"><ele>28.0</ele><time>2026-04-12T07:45:15.034Z</time></trkpt><trkpt lat="40.955215" lon="14.30431"><ele>28.000000000000004</ele><time>2026-04-12T07:45:16.034Z</time></trkpt><trkpt lat="40.9552783" lon="14.3043383"><ele>28.0</ele><time>2026-04-12T07:45:17.035Z</time></trkpt><trkpt lat="40.9554" lon="14.3044067"><ele>28.0</ele><time>2026-04-12T07:45:19.034Z</time></trkpt><trkpt lat="40.95546" lon="14.3044367"><ele>28.0</ele><time>2026-04-12T07:45:20.035Z</time></trkpt><trkpt lat="40.9555233" lon="14.304465"><ele>28.000000000000004</ele><time>2026-04-12T07:45:21.034Z</time></trkpt><trkpt lat="40.9555933" lon="14.3044883"><ele>28.0</ele><time>2026-04-12T07:45:22.034Z</time></trkpt><trkpt lat="40.955665" lon="14.3045083"><ele>28.0</ele><time>2026-04-12T07:45:23.034Z</time></trkpt><trkpt lat="40.9557333" lon="14.3045283"><ele>28.0</ele><time>2026-04-12T07:45:24.035Z</time></trkpt><trkpt lat="40.9558" lon="14.3045467"><ele>28.0</ele><time>2026-04-12T07:45:25.035Z</time></trkpt><trkpt lat="40.9558617" lon="14.30457"><ele>28.0</ele><time>2026-04-12T07:45:26.034Z</time></trkpt><trkpt lat="40.9559283" lon="14.30459"><ele>28.0</ele><time>2026-04-12T07:45:27.034Z</time></trkpt><trkpt lat="40.955995" lon="14.3046117"><ele>28.0</ele><time>2026-04-12T07:45:28.034Z</time></trkpt><trkpt lat="40.9560583" lon="14.304635"><ele>28.0</ele><time>2026-04-12T07:45:29.035Z</time></trkpt><trkpt lat="40.9561233" lon="14.30466"><ele>28.166666666666668</ele><time>2026-04-12T07:45:30.034Z</time></trkpt><trkpt lat="40.956185" lon="14.3046867"><ele>28.333333333333336</ele><time>2026-04-12T07:45:31.035Z</time></trkpt><trkpt lat="40.9562517" lon="14.30471"><ele>28.5</ele><time>2026-04-12T07:45:32.034Z</time></trkpt><trkpt lat="40.9563283" lon="14.3047317"><ele>28.666666666666664</ele><time>2026-04-12T07:45:33.035Z</time></trkpt><trkpt lat="40.9563933" lon="14.3047467"><ele>28.833333333333332</ele><time>2026-04-12T07:45:34.035Z</time></trkpt><trkpt lat="40.9564633" lon="14.30476"><ele>29.0</ele><time>2026-04-12T07:45:35.034Z</time></trkpt><trkpt lat="40.9565817" lon="14.3047817"><ele>29.0</ele><time>2026-04-12T07:45:37.034Z</time></trkpt><trkpt lat="40.956645" lon="14.304805"><ele>29.0</ele><time>2026-04-12T07:45:38.035Z</time></trkpt><trkpt lat="40.956755" lon="14.304875"><ele>29.0</ele><time>2026-04-12T07:45:40.035Z</time></trkpt><trkpt lat="40.9568567" lon="14.30496"><ele>29.0</ele><time>2026-04-12T07:45:42.035Z</time></trkpt><trkpt lat="40.9569617" lon="14.305055"><ele>29.0</ele><time>2026-04-12T07:45:44.034Z</time></trkpt><trkpt lat="40.9570267" lon="14.3050983"><ele>29.0</ele><time>2026-04-12T07:45:45.033Z</time></trkpt><trkpt lat="40.9570817" lon="14.3051467"><ele>29.0</ele><time>2026-04-12T07:45:46.035Z</time></trkpt><trkpt lat="40.95714" lon="14.305195"><ele>29.0</ele><time>2026-04-12T07:45:47.035Z</time></trkpt><trkpt lat="40.95725" lon="14.3052733"><ele>29.0</ele><time>2026-04-12T07:45:49.036Z</time></trkpt><trkpt lat="40.9573567" lon="14.3053583"><ele>29.0</ele><time>2026-04-12T07:45:51.034Z</time></trkpt><trkpt lat="40.9574583" lon="14.3054517"><ele>29.0</ele><time>2026-04-12T07:45:53.035Z</time></trkpt><trkpt lat="40.957565" lon="14.3055417"><ele>29.0</ele><time>2026-04-12T07:45:55.034Z</time></trkpt><trkpt lat="40.9576783" lon="14.3056333"><ele>29.0</ele><time>2026-04-12T07:45:57.035Z</time></trkpt><trkpt lat="40.9577367" lon="14.3056867"><ele>29.0</ele><time>2026-04-12T07:45:58.033Z</time></trkpt><trkpt lat="40.9578383" lon="14.30579"><ele>29.0</ele><time>2026-04-12T07:46:00.035Z</time></trkpt><trkpt lat="40.95793" lon="14.3058883"><ele>29.0</ele><time>2026-04-12T07:46:02.035Z</time></trkpt><trkpt lat="40.958015" lon="14.3059783"><ele>29.0</ele><time>2026-04-12T07:46:04.033Z</time></trkpt><trkpt lat="40.95809" lon="14.306045"><ele>29.0</ele><time>2026-04-12T07:46:06.035Z</time></trkpt><trkpt lat="40.958145" lon="14.3061"><ele>29.0</ele><time>2026-04-12T07:46:08.033Z</time></trkpt><trkpt lat="40.9582067" lon="14.3061867"><ele>29.0</ele><time>2026-04-12T07:46:10.034Z</time></trkpt><trkpt lat="40.9582333" lon="14.3062667"><ele>29.0</ele><time>2026-04-12T07:46:11.034Z</time></trkpt><trkpt lat="40.9582983" lon="14.30636"><ele>29.0</ele><time>2026-04-12T07:46:13.034Z</time></trkpt><trkpt lat="40.958375" lon="14.3064417"><ele>29.0</ele><time>2026-04-12T07:46:15.035Z</time></trkpt><trkpt lat="40.9584817" lon="14.3065217"><ele>29.0</ele><time>2026-04-12T07:46:17.035Z</time></trkpt><trkpt lat="40.9585433" lon="14.3065567"><ele>28.799999999999997</ele><time>2026-04-12T07:46:18.034Z</time></trkpt><trkpt lat="40.9586067" lon="14.3065867"><ele>28.599999999999998</ele><time>2026-04-12T07:46:19.035Z</time></trkpt><trkpt lat="40.9586683" lon="14.30662"><ele>28.4</ele><time>2026-04-12T07:46:20.034Z</time></trkpt><trkpt lat="40.9587833" lon="14.3066767"><ele>28.2</ele><time>2026-04-12T07:46:22.032Z</time></trkpt><trkpt lat="40.9589017" lon="14.306725"><ele>28.0</ele><time>2026-04-12T07:46:24.034Z</time></trkpt><trkpt lat="40.9590183" lon="14.3067667"><ele>28.0</ele><time>2026-04-12T07:46:26.033Z</time></trkpt><trkpt lat="40.9591283" lon="14.3067933"><ele>27.999999999999996</ele><time>2026-04-12T07:46:28.033Z</time></trkpt><trkpt lat="40.9592467" lon="14.30682"><ele>27.999999999999996</ele><time>2026-04-12T07:46:30.034Z</time></trkpt><trkpt lat="40.95931" lon="14.3068317"><ele>28.0</ele><time>2026-04-12T07:46:31.034Z</time></trkpt><trkpt lat="40.959425" lon="14.306865"><ele>28.0</ele><time>2026-04-12T07:46:33.033Z</time></trkpt><trkpt lat="40.9595317" lon="14.3068983"><ele>27.2</ele><time>2026-04-12T07:46:35.034Z</time></trkpt><trkpt lat="40.9596267" lon="14.30692"><ele>26.4</ele><time>2026-04-12T07:46:37.035Z</time></trkpt><trkpt lat="40.9597117" lon="14.3069283"><ele>25.599999999999998</ele><time>2026-04-12T07:46:39.035Z</time></trkpt><trkpt lat="40.9598033" lon="14.3069333"><ele>24.799999999999997</ele><time>2026-04-12T07:46:41.034Z</time></trkpt><trkpt lat="40.9599" lon="14.3069567"><ele>24.0</ele><time>2026-04-12T07:46:43.035Z</time></trkpt><trkpt lat="40.96" lon="14.30698"><ele>24.4</ele><time>2026-04-12T07:46:45.035Z</time></trkpt><trkpt lat="40.9600983" lon="14.3070017"><ele>24.799999999999997</ele><time>2026-04-12T07:46:47.033Z</time></trkpt><trkpt lat="40.9601933" lon="14.3070217"><ele>25.200000000000003</ele><time>2026-04-12T07:46:49.034Z</time></trkpt><trkpt lat="40.9602983" lon="14.3070633"><ele>25.6</ele><time>2026-04-12T07:46:51.034Z</time></trkpt><trkpt lat="40.9604" lon="14.3070883"><ele>26.0</ele><time>2026-04-12T07:46:53.033Z</time></trkpt><trkpt lat="40.9604933" lon="14.30713"><ele>25.999999999999996</ele><time>2026-04-12T07:46:55.035Z</time></trkpt><trkpt lat="40.9605683" lon="14.307185"><ele>26.0</ele><time>2026-04-12T07:46:57.034Z</time></trkpt><trkpt lat="40.960635" lon="14.3072367"><ele>26.0</ele><time>2026-04-12T07:46:59.034Z</time></trkpt><trkpt lat="40.9607167" lon="14.3072717"><ele>26.0</ele><time>2026-04-12T07:47:01.035Z</time></trkpt><trkpt lat="40.9607967" lon="14.3072667"><ele>25.999999999999996</ele><time>2026-04-12T07:47:03.037Z</time></trkpt><trkpt lat="40.9608867" lon="14.307265"><ele>26.0</ele><time>2026-04-12T07:47:05.033Z</time></trkpt><trkpt lat="40.9609817" lon="14.3072817"><ele>26.200000000000003</ele><time>2026-04-12T07:47:07.034Z</time></trkpt><trkpt lat="40.961075" lon="14.3073"><ele>26.400000000000002</ele><time>2026-04-12T07:47:09.034Z</time></trkpt><trkpt lat="40.9611667" lon="14.3073167"><ele>26.6</ele><time>2026-04-12T07:47:11.036Z</time></trkpt><trkpt lat="40.96127" lon="14.3073333"><ele>26.8</ele><time>2026-04-12T07:47:13.035Z</time></trkpt><trkpt lat="40.9613733" lon="14.3073467"><ele>27.0</ele><time>2026-04-12T07:47:15.034Z</time></trkpt><trkpt lat="40.96148" lon="14.3073583"><ele>27.0</ele><time>2026-04-12T07:47:17.034Z</time></trkpt><trkpt lat="40.9615817" lon="14.3073767"><ele>27.000000000000004</ele><time>2026-04-12T07:47:19.035Z</time></trkpt><trkpt lat="40.9616783" lon="14.307385"><ele>27.000000000000004</ele><time>2026-04-12T07:47:21.034Z</time></trkpt><trkpt lat="40.96178" lon="14.3073867"><ele>27.0</ele><time>2026-04-12T07:47:23.033Z</time></trkpt><trkpt lat="40.9618883" lon="14.3073883"><ele>27.0</ele><time>2026-04-12T07:47:25.035Z</time></trkpt><trkpt lat="40.9619983" lon="14.30738"><ele>27.0</ele><time>2026-04-12T07:47:27.034Z</time></trkpt><trkpt lat="40.962105" lon="14.30738"><ele>27.000000000000004</ele><time>2026-04-12T07:47:29.035Z</time></trkpt><trkpt lat="40.9622133" lon="14.30737"><ele>27.000000000000004</ele><time>2026-04-12T07:47:31.035Z</time></trkpt><trkpt lat="40.9623183" lon="14.3073633"><ele>27.0</ele><time>2026-04-12T07:47:34.033Z</time></trkpt><trkpt lat="40.9624333" lon="14.3073583"><ele>27.0</ele><time>2026-04-12T07:47:35.034Z</time></trkpt><trkpt lat="40.962545" lon="14.3073583"><ele>26.75</ele><time>2026-04-12T07:47:37.035Z</time></trkpt><trkpt lat="40.9626533" lon="14.3073433"><ele>26.5</ele><time>2026-04-12T07:47:39.035Z</time></trkpt><trkpt lat="40.9627667" lon="14.3073217"><ele>26.25</ele><time>2026-04-12T07:47:41.035Z</time></trkpt><trkpt lat="40.9628817" lon="14.3073133"><ele>26.0</ele><time>2026-04-12T07:47:43.036Z</time></trkpt><trkpt lat="40.9629933" lon="14.3073017"><ele>26.0</ele><time>2026-04-12T07:47:45.036Z</time></trkpt><trkpt lat="40.9631083" lon="14.3072917"><ele>26.0</ele><time>2026-04-12T07:47:47.035Z</time></trkpt><trkpt lat="40.9632183" lon="14.307275"><ele>26.0</ele><time>2026-04-12T07:47:49.033Z</time></trkpt><trkpt lat="40.9633267" lon="14.3072567"><ele>26.0</ele><time>2026-04-12T07:47:51.033Z</time></trkpt><trkpt lat="40.9634417" lon="14.3072433"><ele>25.25</ele><time>2026-04-12T07:47:53.035Z</time></trkpt><trkpt lat="40.96355" lon="14.3072333"><ele>24.5</ele><time>2026-04-12T07:47:55.034Z</time></trkpt><trkpt lat="40.9636683" lon="14.30722"><ele>23.75</ele><time>2026-04-12T07:47:57.034Z</time></trkpt><trkpt lat="40.9637833" lon="14.3072067"><ele>23.0</ele><time>2026-04-12T07:47:59.034Z</time></trkpt><trkpt lat="40.9638917" lon="14.3071933"><ele>23.0</ele><time>2026-04-12T07:48:01.036Z</time></trkpt><trkpt lat="40.9639967" lon="14.30719"><ele>23.0</ele><time>2026-04-12T07:48:03.036Z</time></trkpt><trkpt lat="40.9641067" lon="14.3071967"><ele>23.0</ele><time>2026-04-12T07:48:05.036Z</time></trkpt><trkpt lat="40.9642167" lon="14.3071883"><ele>23.0</ele><time>2026-04-12T07:48:07.035Z</time></trkpt><trkpt lat="40.9643267" lon="14.307175"><ele>23.0</ele><time>2026-04-12T07:48:09.036Z</time></trkpt><trkpt lat="40.96444" lon="14.3071683"><ele>23.5</ele><time>2026-04-12T07:48:11.036Z</time></trkpt><trkpt lat="40.964555" lon="14.3071517"><ele>24.0</ele><time>2026-04-12T07:48:13.035Z</time></trkpt><trkpt lat="40.9646683" lon="14.3071317"><ele>24.5</ele><time>2026-04-12T07:48:15.035Z</time></trkpt><trkpt lat="40.9647817" lon="14.307105"><ele>25.0</ele><time>2026-04-12T07:48:17.035Z</time></trkpt><trkpt lat="40.9648917" lon="14.3070817"><ele>25.0</ele><time>2026-04-12T07:48:19.035Z</time></trkpt><trkpt lat="40.9650033" lon="14.3070567"><ele>25.0</ele><time>2026-04-12T07:48:21.036Z</time></trkpt><trkpt lat="40.965105" lon="14.3070283"><ele>25.0</ele><time>2026-04-12T07:48:23.037Z</time></trkpt><trkpt lat="40.9652183" lon="14.30701"><ele>25.0</ele><time>2026-04-12T07:48:25.037Z</time></trkpt><trkpt lat="40.9652833" lon="14.307"><ele>25.0</ele><time>2026-04-12T07:48:26.036Z</time></trkpt><trkpt lat="40.9653483" lon="14.3069883"><ele>25.000000000000004</ele><time>2026-04-12T07:48:27.037Z</time></trkpt><trkpt lat="40.965415" lon="14.3069733"><ele>25.0</ele><time>2026-04-12T07:48:28.036Z</time></trkpt><trkpt lat="40.9654817" lon="14.3069583"><ele>25.0</ele><time>2026-04-12T07:48:29.038Z</time></trkpt><trkpt lat="40.96555" lon="14.3069383"><ele>25.0</ele><time>2026-04-12T07:48:30.038Z</time></trkpt><trkpt lat="40.9656667" lon="14.3069283"><ele>25.000000000000004</ele><time>2026-04-12T07:48:32.036Z</time></trkpt><trkpt lat="40.9657733" lon="14.3069367"><ele>25.0</ele><time>2026-04-12T07:48:34.037Z</time></trkpt><trkpt lat="40.9658767" lon="14.3069533"><ele>25.0</ele><time>2026-04-12T07:48:36.037Z</time></trkpt><trkpt lat="40.96598" lon="14.30698"><ele>25.0</ele><time>2026-04-12T07:48:38.035Z</time></trkpt><trkpt lat="40.96608" lon="14.307015"><ele>25.0</ele><time>2026-04-12T07:48:40.036Z</time></trkpt><trkpt lat="40.96618" lon="14.307055"><ele>25.0</ele><time>2026-04-12T07:48:42.035Z</time></trkpt><trkpt lat="40.966275" lon="14.3070983"><ele>25.0</ele><time>2026-04-12T07:48:44.036Z</time></trkpt><trkpt lat="40.9663667" lon="14.3071467"><ele>25.0</ele><time>2026-04-12T07:48:46.035Z</time></trkpt><trkpt lat="40.96646" lon="14.307195"><ele>25.0</ele><time>2026-04-12T07:48:48.036Z</time></trkpt><trkpt lat="40.9665583" lon="14.3072483"><ele>25.0</ele><time>2026-04-12T07:48:50.036Z</time></trkpt><trkpt lat="40.9666583" lon="14.3073017"><ele>25.0</ele><time>2026-04-12T07:48:52.034Z</time></trkpt><trkpt lat="40.966755" lon="14.307365"><ele>25.0</ele><time>2026-04-12T07:48:54.035Z</time></trkpt><trkpt lat="40.96685" lon="14.3074117"><ele>24.8</ele><time>2026-04-12T07:48:56.036Z</time></trkpt><trkpt lat="40.9669467" lon="14.30746"><ele>24.6</ele><time>2026-04-12T07:48:58.036Z</time></trkpt><trkpt lat="40.967045" lon="14.3075083"><ele>24.4</ele><time>2026-04-12T07:49:00.036Z</time></trkpt><trkpt lat="40.9671383" lon="14.3075517"><ele>24.2</ele><time>2026-04-12T07:49:02.037Z</time></trkpt><trkpt lat="40.9672317" lon="14.307595"><ele>24.0</ele><time>2026-04-12T07:49:04.037Z</time></trkpt><trkpt lat="40.9673133" lon="14.3076333"><ele>24.0</ele><time>2026-04-12T07:49:06.036Z</time></trkpt><trkpt lat="40.967405" lon="14.3076783"><ele>24.0</ele><time>2026-04-12T07:49:08.035Z</time></trkpt><trkpt lat="40.96751" lon="14.307735"><ele>24.0</ele><time>2026-04-12T07:49:10.037Z</time></trkpt><trkpt lat="40.9676033" lon="14.30778"><ele>24.0</ele><time>2026-04-12T07:49:12.036Z</time></trkpt><trkpt lat="40.9677033" lon="14.3078233"><ele>24.0</ele><time>2026-04-12T07:49:14.036Z</time></trkpt><trkpt lat="40.967805" lon="14.3078667"><ele>24.4</ele><time>2026-04-12T07:49:16.036Z</time></trkpt><trkpt lat="40.9679117" lon="14.3079067"><ele>24.799999999999997</ele><time>2026-04-12T07:49:18.037Z</time></trkpt><trkpt lat="40.968015" lon="14.307955"><ele>25.200000000000003</ele><time>2026-04-12T07:49:20.036Z</time></trkpt><trkpt lat="40.96812" lon="14.3080017"><ele>25.6</ele><time>2026-04-12T07:49:22.036Z</time></trkpt><trkpt lat="40.9682217" lon="14.3080383"><ele>26.0</ele><time>2026-04-12T07:49:24.035Z</time></trkpt><trkpt lat="40.9683367" lon="14.3080867"><ele>25.833333333333332</ele><time>2026-04-12T07:49:26.037Z</time></trkpt><trkpt lat="40.96845" lon="14.3081233"><ele>25.666666666666664</ele><time>2026-04-12T07:49:28.034Z</time></trkpt><trkpt lat="40.9685133" lon="14.30815"><ele>25.5</ele><time>2026-04-12T07:49:29.038Z</time></trkpt><trkpt lat="40.9685783" lon="14.3081717"><ele>25.333333333333336</ele><time>2026-04-12T07:49:30.036Z</time></trkpt><trkpt lat="40.9686467" lon="14.3081883"><ele>25.166666666666668</ele><time>2026-04-12T07:49:31.037Z</time></trkpt><trkpt lat="40.968715" lon="14.3082033"><ele>25.0</ele><time>2026-04-12T07:49:32.036Z</time></trkpt><trkpt lat="40.9687833" lon="14.308215"><ele>25.000000000000004</ele><time>2026-04-12T07:49:33.036Z</time></trkpt><trkpt lat="40.96885" lon="14.3082267"><ele>25.0</ele><time>2026-04-12T07:49:34.037Z</time></trkpt><trkpt lat="40.9689167" lon="14.3082367"><ele>25.0</ele><time>2026-04-12T07:49:35.038Z</time></trkpt><trkpt lat="40.968985" lon="14.308245"><ele>25.0</ele><time>2026-04-12T07:49:36.037Z</time></trkpt><trkpt lat="40.9690517" lon="14.308255"><ele>25.0</ele><time>2026-04-12T07:49:37.037Z</time></trkpt><trkpt lat="40.9691183" lon="14.308265"><ele>25.000000000000004</ele><time>2026-04-12T07:49:38.037Z</time></trkpt><trkpt lat="40.9691867" lon="14.30827"><ele>25.0</ele><time>2026-04-12T07:49:39.037Z</time></trkpt><trkpt lat="40.96931" lon="14.3082733"><ele>24.857142857142858</ele><time>2026-04-12T07:49:41.037Z</time></trkpt><trkpt lat="40.969375" lon="14.3082767"><ele>24.714285714285715</ele><time>2026-04-12T07:49:42.037Z</time></trkpt><trkpt lat="40.9694383" lon="14.3082867"><ele>24.57142857142857</ele><time>2026-04-12T07:49:43.037Z</time></trkpt><trkpt lat="40.9695033" lon="14.3082967"><ele>24.42857142857143</ele><time>2026-04-12T07:49:44.037Z</time></trkpt><trkpt lat="40.9695717" lon="14.3083"><ele>24.285714285714285</ele><time>2026-04-12T07:49:45.037Z</time></trkpt><trkpt lat="40.9696383" lon="14.3083033"><ele>24.142857142857142</ele><time>2026-04-12T07:49:46.034Z</time></trkpt><trkpt lat="40.9697033" lon="14.3083083"><ele>24.0</ele><time>2026-04-12T07:49:47.035Z</time></trkpt><trkpt lat="40.9697667" lon="14.308315"><ele>23.999999999999996</ele><time>2026-04-12T07:49:48.035Z</time></trkpt><trkpt lat="40.9698333" lon="14.3083267"><ele>24.0</ele><time>2026-04-12T07:49:49.035Z</time></trkpt><trkpt lat="40.9699017" lon="14.3083383"><ele>24.0</ele><time>2026-04-12T07:49:50.035Z</time></trkpt><trkpt lat="40.9699667" lon="14.3083417"><ele>24.0</ele><time>2026-04-12T07:49:51.036Z</time></trkpt><trkpt lat="40.9700367" lon="14.3083483"><ele>24.0</ele><time>2026-04-12T07:49:52.036Z</time></trkpt><trkpt lat="40.9701083" lon="14.3083567"><ele>23.999999999999996</ele><time>2026-04-12T07:49:53.036Z</time></trkpt><trkpt lat="40.9701783" lon="14.30836"><ele>24.0</ele><time>2026-04-12T07:49:54.035Z</time></trkpt><trkpt lat="40.970245" lon="14.3083667"><ele>23.833333333333332</ele><time>2026-04-12T07:49:55.035Z</time></trkpt><trkpt lat="40.97031" lon="14.3083733"><ele>23.666666666666668</ele><time>2026-04-12T07:49:56.036Z</time></trkpt><trkpt lat="40.9703733" lon="14.3083817"><ele>23.5</ele><time>2026-04-12T07:49:57.034Z</time></trkpt><trkpt lat="40.97044" lon="14.3083933"><ele>23.333333333333336</ele><time>2026-04-12T07:49:58.033Z</time></trkpt><trkpt lat="40.9705067" lon="14.3084117"><ele>23.166666666666668</ele><time>2026-04-12T07:49:59.036Z</time></trkpt><trkpt lat="40.970635" lon="14.3084533"><ele>23.0</ele><time>2026-04-12T07:50:01.035Z</time></trkpt><trkpt lat="40.970695" lon="14.308485"><ele>23.0</ele><time>2026-04-12T07:50:02.035Z</time></trkpt><trkpt lat="40.970765" lon="14.3085167"><ele>23.0</ele><time>2026-04-12T07:50:03.035Z</time></trkpt><trkpt lat="40.9708333" lon="14.3085483"><ele>23.0</ele><time>2026-04-12T07:50:04.034Z</time></trkpt><trkpt lat="40.9709017" lon="14.30858"><ele>23.0</ele><time>2026-04-12T07:50:05.036Z</time></trkpt><trkpt lat="40.97096" lon="14.3086217"><ele>23.0</ele><time>2026-04-12T07:50:06.034Z</time></trkpt><trkpt lat="40.9710217" lon="14.3086617"><ele>23.0</ele><time>2026-04-12T07:50:07.036Z</time></trkpt><trkpt lat="40.9710833" lon="14.3087033"><ele>23.0</ele><time>2026-04-12T07:50:08.037Z</time></trkpt><trkpt lat="40.9711433" lon="14.3087433"><ele>23.142857142857142</ele><time>2026-04-12T07:50:09.034Z</time></trkpt><trkpt lat="40.971205" lon="14.3087833"><ele>23.285714285714285</ele><time>2026-04-12T07:50:10.035Z</time></trkpt><trkpt lat="40.97127" lon="14.3088217"><ele>23.428571428571427</ele><time>2026-04-12T07:50:11.036Z</time></trkpt><trkpt lat="40.9713333" lon="14.30886"><ele>23.57142857142857</ele><time>2026-04-12T07:50:12.035Z</time></trkpt><trkpt lat="40.9714" lon="14.3089033"><ele>23.714285714285715</ele><time>2026-04-12T07:50:13.033Z</time></trkpt><trkpt lat="40.971465" lon="14.3089467"><ele>23.857142857142854</ele><time>2026-04-12T07:50:14.036Z</time></trkpt><trkpt lat="40.9715283" lon="14.3089867"><ele>24.0</ele><time>2026-04-12T07:50:15.036Z</time></trkpt><trkpt lat="40.9715967" lon="14.3090267"><ele>24.142857142857142</ele><time>2026-04-12T07:50:16.033Z</time></trkpt><trkpt lat="40.9716633" lon="14.309065"><ele>24.285714285714285</ele><time>2026-04-12T07:50:17.036Z</time></trkpt><trkpt lat="40.97173" lon="14.3091033"><ele>24.42857142857143</ele><time>2026-04-12T07:50:18.037Z</time></trkpt><trkpt lat="40.9717967" lon="14.3091417"><ele>24.57142857142857</ele><time>2026-04-12T07:50:19.034Z</time></trkpt><trkpt lat="40.971865" lon="14.30918"><ele>24.714285714285715</ele><time>2026-04-12T07:50:20.036Z</time></trkpt><trkpt lat="40.9719333" lon="14.309215"><ele>24.857142857142858</ele><time>2026-04-12T07:50:21.037Z</time></trkpt><trkpt lat="40.9720033" lon="14.309245"><ele>25.0</ele><time>2026-04-12T07:50:22.034Z</time></trkpt><trkpt lat="40.97207" lon="14.3092783"><ele>24.714285714285715</ele><time>2026-04-12T07:50:23.034Z</time></trkpt><trkpt lat="40.9721417" lon="14.30931"><ele>24.42857142857143</ele><time>2026-04-12T07:50:24.037Z</time></trkpt><trkpt lat="40.97221" lon="14.3093433"><ele>24.142857142857146</ele><time>2026-04-12T07:50:25.033Z</time></trkpt><trkpt lat="40.9722783" lon="14.30937"><ele>23.857142857142858</ele><time>2026-04-12T07:50:26.035Z</time></trkpt><trkpt lat="40.97235" lon="14.3093917"><ele>23.57142857142857</ele><time>2026-04-12T07:50:27.035Z</time></trkpt><trkpt lat="40.9724217" lon="14.3094183"><ele>23.28571428571429</ele><time>2026-04-12T07:50:28.034Z</time></trkpt><trkpt lat="40.9724967" lon="14.309445"><ele>23.0</ele><time>2026-04-12T07:50:29.035Z</time></trkpt><trkpt lat="40.9725733" lon="14.30947"><ele>22.857142857142858</ele><time>2026-04-12T07:50:30.035Z</time></trkpt><trkpt lat="40.9726483" lon="14.30949"><ele>22.71428571428571</ele><time>2026-04-12T07:50:31.036Z</time></trkpt><trkpt lat="40.9727167" lon="14.3095183"><ele>22.57142857142857</ele><time>2026-04-12T07:50:32.037Z</time></trkpt><trkpt lat="40.9727867" lon="14.3095467"><ele>22.42857142857143</ele><time>2026-04-12T07:50:33.036Z</time></trkpt><trkpt lat="40.972855" lon="14.309575"><ele>22.285714285714285</ele><time>2026-04-12T07:50:34.034Z</time></trkpt><trkpt lat="40.9729267" lon="14.3096017"><ele>22.142857142857142</ele><time>2026-04-12T07:50:35.035Z</time></trkpt><trkpt lat="40.9729967" lon="14.3096333"><ele>22.0</ele><time>2026-04-12T07:50:36.037Z</time></trkpt><trkpt lat="40.9730667" lon="14.3096633"><ele>22.0</ele><time>2026-04-12T07:50:37.035Z</time></trkpt><trkpt lat="40.9731367" lon="14.3096933"><ele>22.0</ele><time>2026-04-12T07:50:38.035Z</time></trkpt><trkpt lat="40.9732033" lon="14.30972"><ele>22.0</ele><time>2026-04-12T07:50:39.036Z</time></trkpt><trkpt lat="40.973275" lon="14.3097433"><ele>22.0</ele><time>2026-04-12T07:50:40.035Z</time></trkpt><trkpt lat="40.9733467" lon="14.3097683"><ele>22.0</ele><time>2026-04-12T07:50:41.036Z</time></trkpt><trkpt lat="40.9734117" lon="14.3097933"><ele>22.0</ele><time>2026-04-12T07:50:42.036Z</time></trkpt><trkpt lat="40.9734767" lon="14.3098183"><ele>22.0</ele><time>2026-04-12T07:50:43.036Z</time></trkpt><trkpt lat="40.9735533" lon="14.309835"><ele>22.0</ele><time>2026-04-12T07:50:44.035Z</time></trkpt><trkpt lat="40.973625" lon="14.3098467"><ele>22.0</ele><time>2026-04-12T07:50:45.036Z</time></trkpt><trkpt lat="40.9737017" lon="14.309865"><ele>22.0</ele><time>2026-04-12T07:50:46.034Z</time></trkpt><trkpt lat="40.9737817" lon="14.309885"><ele>22.0</ele><time>2026-04-12T07:50:47.037Z</time></trkpt><trkpt lat="40.9738567" lon="14.3099"><ele>22.0</ele><time>2026-04-12T07:50:48.036Z</time></trkpt><trkpt lat="40.9739283" lon="14.3099017"><ele>22.0</ele><time>2026-04-12T07:50:49.036Z</time></trkpt><trkpt lat="40.9739967" lon="14.3099033"><ele>22.0</ele><time>2026-04-12T07:50:50.036Z</time></trkpt><trkpt lat="40.9740717" lon="14.3098983"><ele>22.0</ele><time>2026-04-12T07:50:51.035Z</time></trkpt><trkpt lat="40.9741467" lon="14.3098933"><ele>22.0</ele><time>2026-04-12T07:50:52.035Z</time></trkpt><trkpt lat="40.9742183" lon="14.30989"><ele>22.0</ele><time>2026-04-12T07:50:53.037Z</time></trkpt><trkpt lat="40.9742933" lon="14.3098883"><ele>22.0</ele><time>2026-04-12T07:50:54.037Z</time></trkpt><trkpt lat="40.97437" lon="14.3098817"><ele>22.0</ele><time>2026-04-12T07:50:55.035Z</time></trkpt><trkpt lat="40.9744433" lon="14.3098783"><ele>22.0</ele><time>2026-04-12T07:50:56.034Z</time></trkpt><trkpt lat="40.9745167" lon="14.3098733"><ele>22.0</ele><time>2026-04-12T07:50:57.035Z</time></trkpt><trkpt lat="40.97459" lon="14.3098717"><ele>22.0</ele><time>2026-04-12T07:50:58.035Z</time></trkpt><trkpt lat="40.9746617" lon="14.3098683"><ele>22.0</ele><time>2026-04-12T07:50:59.036Z</time></trkpt><trkpt lat="40.9747317" lon="14.3098683"><ele>22.0</ele><time>2026-04-12T07:51:00.035Z</time></trkpt><trkpt lat="40.9748017" lon="14.3098683"><ele>22.0</ele><time>2026-04-12T07:51:01.036Z</time></trkpt><trkpt lat="40.9748717" lon="14.30987"><ele>22.0</ele><time>2026-04-12T07:51:02.036Z</time></trkpt><trkpt lat="40.9749433" lon="14.3098683"><ele>22.0</ele><time>2026-04-12T07:51:03.036Z</time></trkpt><trkpt lat="40.975015" lon="14.3098667"><ele>22.0</ele><time>2026-04-12T07:51:04.036Z</time></trkpt><trkpt lat="40.975085" lon="14.3098667"><ele>22.0</ele><time>2026-04-12T07:51:05.034Z</time></trkpt><trkpt lat="40.9751533" lon="14.3098633"><ele>22.0</ele><time>2026-04-12T07:51:06.036Z</time></trkpt><trkpt lat="40.975225" lon="14.3098517"><ele>22.0</ele><time>2026-04-12T07:51:07.036Z</time></trkpt><trkpt lat="40.9752967" lon="14.30984"><ele>22.0</ele><time>2026-04-12T07:51:08.034Z</time></trkpt><trkpt lat="40.9753667" lon="14.3098283"><ele>22.0</ele><time>2026-04-12T07:51:09.036Z</time></trkpt><trkpt lat="40.9754383" lon="14.3098183"><ele>22.0</ele><time>2026-04-12T07:51:10.036Z</time></trkpt><trkpt lat="40.9755083" lon="14.309805"><ele>22.0</ele><time>2026-04-12T07:51:11.036Z</time></trkpt><trkpt lat="40.9755817" lon="14.309785"><ele>22.0</ele><time>2026-04-12T07:51:12.036Z</time></trkpt><trkpt lat="40.9756483" lon="14.3097633"><ele>22.0</ele><time>2026-04-12T07:51:13.035Z</time></trkpt><trkpt lat="40.975715" lon="14.3097383"><ele>22.0</ele><time>2026-04-12T07:51:14.035Z</time></trkpt><trkpt lat="40.97578" lon="14.30971"><ele>22.0</ele><time>2026-04-12T07:51:15.036Z</time></trkpt><trkpt lat="40.975845" lon="14.30968"><ele>22.0</ele><time>2026-04-12T07:51:16.037Z</time></trkpt><trkpt lat="40.9759117" lon="14.309645"><ele>22.0</ele><time>2026-04-12T07:51:17.036Z</time></trkpt><trkpt lat="40.9759817" lon="14.30961"><ele>22.0</ele><time>2026-04-12T07:51:18.035Z</time></trkpt><trkpt lat="40.9760483" lon="14.30958"><ele>22.0</ele><time>2026-04-12T07:51:19.034Z</time></trkpt><trkpt lat="40.9761183" lon="14.3095483"><ele>22.0</ele><time>2026-04-12T07:51:20.036Z</time></trkpt><trkpt lat="40.9761883" lon="14.3095167"><ele>22.0</ele><time>2026-04-12T07:51:21.036Z</time></trkpt><trkpt lat="40.9762533" lon="14.3094833"><ele>22.0</ele><time>2026-04-12T07:51:22.035Z</time></trkpt><trkpt lat="40.97632" lon="14.3094467"><ele>22.0</ele><time>2026-04-12T07:51:23.035Z</time></trkpt><trkpt lat="40.9763883" lon="14.3094117"><ele>22.0</ele><time>2026-04-12T07:51:24.033Z</time></trkpt><trkpt lat="40.976455" lon="14.3093733"><ele>22.0</ele><time>2026-04-12T07:51:25.036Z</time></trkpt><trkpt lat="40.9765167" lon="14.30934"><ele>22.0</ele><time>2026-04-12T07:51:26.036Z</time></trkpt><trkpt lat="40.9765817" lon="14.3093033"><ele>22.0</ele><time>2026-04-12T07:51:27.036Z</time></trkpt><trkpt lat="40.9766467" lon="14.309265"><ele>22.0</ele><time>2026-04-12T07:51:28.034Z</time></trkpt><trkpt lat="40.976715" lon="14.3092233"><ele>22.0</ele><time>2026-04-12T07:51:29.036Z</time></trkpt><trkpt lat="40.9767883" lon="14.30918"><ele>22.0</ele><time>2026-04-12T07:51:30.036Z</time></trkpt><trkpt lat="40.9768583" lon="14.3091433"><ele>22.0</ele><time>2026-04-12T07:51:31.036Z</time></trkpt><trkpt lat="40.97693" lon="14.3091083"><ele>22.0</ele><time>2026-04-12T07:51:32.036Z</time></trkpt><trkpt lat="40.9770017" lon="14.3090767"><ele>21.666666666666664</ele><time>2026-04-12T07:51:33.034Z</time></trkpt><trkpt lat="40.9770783" lon="14.30905"><ele>21.333333333333332</ele><time>2026-04-12T07:51:34.035Z</time></trkpt><trkpt lat="40.97715" lon="14.3090383"><ele>21.0</ele><time>2026-04-12T07:51:35.036Z</time></trkpt><trkpt lat="40.9772233" lon="14.3090383"><ele>20.666666666666668</ele><time>2026-04-12T07:51:36.037Z</time></trkpt><trkpt lat="40.9772983" lon="14.30905"><ele>20.333333333333336</ele><time>2026-04-12T07:51:37.036Z</time></trkpt><trkpt lat="40.97737" lon="14.3090717"><ele>20.0</ele><time>2026-04-12T07:51:38.037Z</time></trkpt><trkpt lat="40.9774417" lon="14.3091083"><ele>20.0</ele><time>2026-04-12T07:51:39.036Z</time></trkpt><trkpt lat="40.9775083" lon="14.3091567"><ele>20.0</ele><time>2026-04-12T07:51:40.036Z</time></trkpt><trkpt lat="40.9775733" lon="14.3092133"><ele>20.0</ele><time>2026-04-12T07:51:41.036Z</time></trkpt><trkpt lat="40.977635" lon="14.3092733"><ele>20.0</ele><time>2026-04-12T07:51:42.036Z</time></trkpt><trkpt lat="40.97769" lon="14.30934"><ele>20.0</ele><time>2026-04-12T07:51:43.036Z</time></trkpt><trkpt lat="40.9777433" lon="14.3094083"><ele>20.0</ele><time>2026-04-12T07:51:44.035Z</time></trkpt><trkpt lat="40.977795" lon="14.3094783"><ele>20.0</ele><time>2026-04-12T07:51:45.036Z</time></trkpt><trkpt lat="40.9778433" lon="14.3095467"><ele>20.0</ele><time>2026-04-12T07:51:46.036Z</time></trkpt><trkpt lat="40.9778983" lon="14.3096117"><ele>20.0</ele><time>2026-04-12T07:51:47.035Z</time></trkpt><trkpt lat="40.977955" lon="14.3096767"><ele>20.0</ele><time>2026-04-12T07:51:48.036Z</time></trkpt><trkpt lat="40.97801" lon="14.309745"><ele>20.0</ele><time>2026-04-12T07:51:49.036Z</time></trkpt><trkpt lat="40.9780633" lon="14.3098083"><ele>20.0</ele><time>2026-04-12T07:51:50.034Z</time></trkpt><trkpt lat="40.97812" lon="14.3098717"><ele>20.0</ele><time>2026-04-12T07:51:51.035Z</time></trkpt><trkpt lat="40.9781717" lon="14.3099333"><ele>20.0</ele><time>2026-04-12T07:51:52.035Z</time></trkpt><trkpt lat="40.9782283" lon="14.3099967"><ele>20.0</ele><time>2026-04-12T07:51:53.036Z</time></trkpt><trkpt lat="40.9782867" lon="14.3100567"><ele>20.0</ele><time>2026-04-12T07:51:54.036Z</time></trkpt><trkpt lat="40.978345" lon="14.3101167"><ele>20.0</ele><time>2026-04-12T07:51:55.039Z</time></trkpt><trkpt lat="40.978405" lon="14.3101733"><ele>20.0</ele><time>2026-04-12T07:51:56.037Z</time></trkpt><trkpt lat="40.97847" lon="14.3102333"><ele>20.0</ele><time>2026-04-12T07:51:57.037Z</time></trkpt><trkpt lat="40.9785333" lon="14.31029"><ele>20.0</ele><time>2026-04-12T07:51:58.036Z</time></trkpt><trkpt lat="40.9786" lon="14.3103517"><ele>20.0</ele><time>2026-04-12T07:51:59.037Z</time></trkpt><trkpt lat="40.978655" lon="14.31041"><ele>20.0</ele><time>2026-04-12T07:52:00.036Z</time></trkpt><trkpt lat="40.9787183" lon="14.3104733"><ele>20.0</ele><time>2026-04-12T07:52:01.036Z</time></trkpt><trkpt lat="40.9787783" lon="14.3105333"><ele>20.0</ele><time>2026-04-12T07:52:02.038Z</time></trkpt><trkpt lat="40.9788383" lon="14.3105967"><ele>20.0</ele><time>2026-04-12T07:52:03.036Z</time></trkpt><trkpt lat="40.9789017" lon="14.3106583"><ele>20.166666666666668</ele><time>2026-04-12T07:52:04.036Z</time></trkpt><trkpt lat="40.978965" lon="14.3107183"><ele>20.333333333333336</ele><time>2026-04-12T07:52:05.034Z</time></trkpt><trkpt lat="40.9790283" lon="14.3107767"><ele>20.5</ele><time>2026-04-12T07:52:06.037Z</time></trkpt><trkpt lat="40.9790917" lon="14.310835"><ele>20.666666666666668</ele><time>2026-04-12T07:52:07.036Z</time></trkpt><trkpt lat="40.979155" lon="14.31089"><ele>20.833333333333332</ele><time>2026-04-12T07:52:08.036Z</time></trkpt><trkpt lat="40.97922" lon="14.3109433"><ele>21.0</ele><time>2026-04-12T07:52:09.037Z</time></trkpt><trkpt lat="40.9792833" lon="14.3109983"><ele>21.0</ele><time>2026-04-12T07:52:10.037Z</time></trkpt><trkpt lat="40.9793483" lon="14.311055"><ele>21.0</ele><time>2026-04-12T07:52:11.037Z</time></trkpt><trkpt lat="40.9794083" lon="14.311115"><ele>21.0</ele><time>2026-04-12T07:52:12.036Z</time></trkpt><trkpt lat="40.9794667" lon="14.311165"><ele>21.0</ele><time>2026-04-12T07:52:13.035Z</time></trkpt><trkpt lat="40.979525" lon="14.3112167"><ele>21.0</ele><time>2026-04-12T07:52:14.035Z</time></trkpt><trkpt lat="40.9795833" lon="14.3112633"><ele>21.0</ele><time>2026-04-12T07:52:15.035Z</time></trkpt><trkpt lat="40.9796433" lon="14.311315"><ele>21.0</ele><time>2026-04-12T07:52:16.036Z</time></trkpt><trkpt lat="40.979705" lon="14.311365"><ele>21.0</ele><time>2026-04-12T07:52:17.036Z</time></trkpt><trkpt lat="40.9797667" lon="14.3114183"><ele>21.0</ele><time>2026-04-12T07:52:18.034Z</time></trkpt><trkpt lat="40.97983" lon="14.31147"><ele>21.0</ele><time>2026-04-12T07:52:19.035Z</time></trkpt><trkpt lat="40.979895" lon="14.3115217"><ele>21.0</ele><time>2026-04-12T07:52:20.035Z</time></trkpt><trkpt lat="40.97996" lon="14.3115733"><ele>21.0</ele><time>2026-04-12T07:52:21.036Z</time></trkpt><trkpt lat="40.9800267" lon="14.3116233"><ele>21.0</ele><time>2026-04-12T07:52:22.035Z</time></trkpt><trkpt lat="40.980095" lon="14.311675"><ele>21.333333333333332</ele><time>2026-04-12T07:52:23.035Z</time></trkpt><trkpt lat="40.980165" lon="14.3117233"><ele>21.666666666666668</ele><time>2026-04-12T07:52:24.036Z</time></trkpt><trkpt lat="40.980235" lon="14.3117733"><ele>22.0</ele><time>2026-04-12T07:52:25.033Z</time></trkpt><trkpt lat="40.9803067" lon="14.3118183"><ele>22.333333333333336</ele><time>2026-04-12T07:52:26.036Z</time></trkpt><trkpt lat="40.9803733" lon="14.311865"><ele>22.666666666666668</ele><time>2026-04-12T07:52:27.035Z</time></trkpt><trkpt lat="40.9804433" lon="14.3119117"><ele>23.0</ele><time>2026-04-12T07:52:28.033Z</time></trkpt><trkpt lat="40.980515" lon="14.3119567"><ele>23.0</ele><time>2026-04-12T07:52:29.034Z</time></trkpt><trkpt lat="40.98059" lon="14.312"><ele>23.0</ele><time>2026-04-12T07:52:30.035Z</time></trkpt><trkpt lat="40.9806583" lon="14.3120417"><ele>23.0</ele><time>2026-04-12T07:52:31.035Z</time></trkpt><trkpt lat="40.98073" lon="14.3120817"><ele>23.0</ele><time>2026-04-12T07:52:32.036Z</time></trkpt><trkpt lat="40.9808" lon="14.31212"><ele>23.0</ele><time>2026-04-12T07:52:33.036Z</time></trkpt><trkpt lat="40.98087" lon="14.3121583"><ele>23.0</ele><time>2026-04-12T07:52:34.033Z</time></trkpt><trkpt lat="40.9809417" lon="14.3122"><ele>22.666666666666668</ele><time>2026-04-12T07:52:35.034Z</time></trkpt><trkpt lat="40.98101" lon="14.3122383"><ele>22.333333333333336</ele><time>2026-04-12T07:52:36.035Z</time></trkpt><trkpt lat="40.9810783" lon="14.3122767"><ele>22.0</ele><time>2026-04-12T07:52:37.034Z</time></trkpt><trkpt lat="40.9811467" lon="14.3123167"><ele>21.666666666666668</ele><time>2026-04-12T07:52:38.037Z</time></trkpt><trkpt lat="40.9812183" lon="14.31235"><ele>21.333333333333332</ele><time>2026-04-12T07:52:39.035Z</time></trkpt><trkpt lat="40.9812933" lon="14.3123783"><ele>21.0</ele><time>2026-04-12T07:52:40.034Z</time></trkpt><trkpt lat="40.9813683" lon="14.3124083"><ele>21.0</ele><time>2026-04-12T07:52:41.037Z</time></trkpt><trkpt lat="40.9814433" lon="14.31244"><ele>21.0</ele><time>2026-04-12T07:52:42.035Z</time></trkpt><trkpt lat="40.98152" lon="14.3124683"><ele>21.0</ele><time>2026-04-12T07:52:43.036Z</time></trkpt><trkpt lat="40.981595" lon="14.3124867"><ele>21.0</ele><time>2026-04-12T07:52:44.035Z</time></trkpt><trkpt lat="40.98167" lon="14.3125017"><ele>21.0</ele><time>2026-04-12T07:52:45.036Z</time></trkpt><trkpt lat="40.981745" lon="14.3125117"><ele>21.0</ele><time>2026-04-12T07:52:46.035Z</time></trkpt><trkpt lat="40.9818233" lon="14.3125167"><ele>20.833333333333332</ele><time>2026-04-12T07:52:47.034Z</time></trkpt><trkpt lat="40.9819033" lon="14.3125167"><ele>20.666666666666668</ele><time>2026-04-12T07:52:48.036Z</time></trkpt><trkpt lat="40.9819817" lon="14.3125167"><ele>20.5</ele><time>2026-04-12T07:52:49.036Z</time></trkpt><trkpt lat="40.9820617" lon="14.3125167"><ele>20.333333333333336</ele><time>2026-04-12T07:52:50.035Z</time></trkpt><trkpt lat="40.9821417" lon="14.3125183"><ele>20.166666666666668</ele><time>2026-04-12T07:52:51.035Z</time></trkpt><trkpt lat="40.98222" lon="14.3125167"><ele>20.0</ele><time>2026-04-12T07:52:52.035Z</time></trkpt><trkpt lat="40.9822983" lon="14.3125133"><ele>20.0</ele><time>2026-04-12T07:52:53.034Z</time></trkpt><trkpt lat="40.9823767" lon="14.3125067"><ele>20.0</ele><time>2026-04-12T07:52:54.035Z</time></trkpt><trkpt lat="40.982455" lon="14.3125033"><ele>20.0</ele><time>2026-04-12T07:52:55.034Z</time></trkpt><trkpt lat="40.982535" lon="14.3125033"><ele>20.0</ele><time>2026-04-12T07:52:56.035Z</time></trkpt><trkpt lat="40.9826133" lon="14.3125067"><ele>20.0</ele><time>2026-04-12T07:52:57.036Z</time></trkpt><trkpt lat="40.9826917" lon="14.3125067"><ele>20.0</ele><time>2026-04-12T07:52:58.035Z</time></trkpt><trkpt lat="40.98277" lon="14.3125067"><ele>20.0</ele><time>2026-04-12T07:52:59.036Z</time></trkpt><trkpt lat="40.9828467" lon="14.3125067"><ele>20.0</ele><time>2026-04-12T07:53:00.035Z</time></trkpt><trkpt lat="40.9829233" lon="14.3125033"><ele>20.0</ele><time>2026-04-12T07:53:01.037Z</time></trkpt><trkpt lat="40.9830017" lon="14.3125017"><ele>20.0</ele><time>2026-04-12T07:53:02.038Z</time></trkpt><trkpt lat="40.9830783" lon="14.3124983"><ele>20.0</ele><time>2026-04-12T07:53:03.035Z</time></trkpt><trkpt lat="40.9831533" lon="14.31249"><ele>20.0</ele><time>2026-04-12T07:53:04.036Z</time></trkpt><trkpt lat="40.983225" lon="14.3124817"><ele>20.0</ele><time>2026-04-12T07:53:05.036Z</time></trkpt><trkpt lat="40.9832967" lon="14.3124633"><ele>20.0</ele><time>2026-04-12T07:53:06.037Z</time></trkpt><trkpt lat="40.9833683" lon="14.3124383"><ele>20.0</ele><time>2026-04-12T07:53:07.038Z</time></trkpt><trkpt lat="40.9834367" lon="14.31241"><ele>20.0</ele><time>2026-04-12T07:53:08.038Z</time></trkpt><trkpt lat="40.9835033" lon="14.312375"><ele>20.0</ele><time>2026-04-12T07:53:09.037Z</time></trkpt><trkpt lat="40.9835733" lon="14.31234"><ele>20.0</ele><time>2026-04-12T07:53:10.037Z</time></trkpt><trkpt lat="40.9836417" lon="14.3123017"><ele>20.0</ele><time>2026-04-12T07:53:11.036Z</time></trkpt><trkpt lat="40.9837083" lon="14.312265"><ele>20.0</ele><time>2026-04-12T07:53:12.038Z</time></trkpt><trkpt lat="40.9837733" lon="14.31223"><ele>20.0</ele><time>2026-04-12T07:53:13.037Z</time></trkpt><trkpt lat="40.9838417" lon="14.3121917"><ele>20.0</ele><time>2026-04-12T07:53:14.036Z</time></trkpt><trkpt lat="40.9839117" lon="14.31216"><ele>20.0</ele><time>2026-04-12T07:53:15.036Z</time></trkpt><trkpt lat="40.98398" lon="14.3121267"><ele>20.0</ele><time>2026-04-12T07:53:16.037Z</time></trkpt><trkpt lat="40.9840483" lon="14.3120917"><ele>20.0</ele><time>2026-04-12T07:53:17.034Z</time></trkpt><trkpt lat="40.98412" lon="14.312055"><ele>20.0</ele><time>2026-04-12T07:53:18.035Z</time></trkpt><trkpt lat="40.98419" lon="14.3120217"><ele>20.166666666666668</ele><time>2026-04-12T07:53:19.035Z</time></trkpt><trkpt lat="40.9842633" lon="14.3119867"><ele>20.333333333333336</ele><time>2026-04-12T07:53:20.035Z</time></trkpt><trkpt lat="40.984335" lon="14.31195"><ele>20.5</ele><time>2026-04-12T07:53:21.034Z</time></trkpt><trkpt lat="40.9844067" lon="14.3119117"><ele>20.666666666666668</ele><time>2026-04-12T07:53:22.034Z</time></trkpt><trkpt lat="40.9844767" lon="14.311875"><ele>20.833333333333332</ele><time>2026-04-12T07:53:23.036Z</time></trkpt><trkpt lat="40.9845467" lon="14.31184"><ele>21.0</ele><time>2026-04-12T07:53:24.035Z</time></trkpt><trkpt lat="40.9846133" lon="14.3118067"><ele>21.0</ele><time>2026-04-12T07:53:25.037Z</time></trkpt><trkpt lat="40.9846817" lon="14.3117733"><ele>21.0</ele><time>2026-04-12T07:53:26.036Z</time></trkpt><trkpt lat="40.9847483" lon="14.3117383"><ele>21.0</ele><time>2026-04-12T07:53:27.037Z</time></trkpt><trkpt lat="40.9848183" lon="14.3117083"><ele>21.0</ele><time>2026-04-12T07:53:28.036Z</time></trkpt><trkpt lat="40.9848867" lon="14.3116767"><ele>21.0</ele><time>2026-04-12T07:53:29.037Z</time></trkpt><trkpt lat="40.9849567" lon="14.311645"><ele>21.0</ele><time>2026-04-12T07:53:30.033Z</time></trkpt><trkpt lat="40.9850283" lon="14.3116183"><ele>21.0</ele><time>2026-04-12T07:53:31.037Z</time></trkpt><trkpt lat="40.985105" lon="14.311595"><ele>20.857142857142858</ele><time>2026-04-12T07:53:32.034Z</time></trkpt><trkpt lat="40.98518" lon="14.3115717"><ele>20.714285714285715</ele><time>2026-04-12T07:53:33.035Z</time></trkpt><trkpt lat="40.985255" lon="14.3115567"><ele>20.57142857142857</ele><time>2026-04-12T07:53:34.035Z</time></trkpt><trkpt lat="40.98533" lon="14.3115517"><ele>20.42857142857143</ele><time>2026-04-12T07:53:35.035Z</time></trkpt><trkpt lat="40.9854067" lon="14.3115567"><ele>20.285714285714285</ele><time>2026-04-12T07:53:36.036Z</time></trkpt><trkpt lat="40.98548" lon="14.3115633"><ele>20.142857142857142</ele><time>2026-04-12T07:53:37.032Z</time></trkpt><trkpt lat="40.98555" lon="14.3115767"><ele>20.0</ele><time>2026-04-12T07:53:38.036Z</time></trkpt><trkpt lat="40.9856233" lon="14.31159"><ele>20.0</ele><time>2026-04-12T07:53:39.035Z</time></trkpt><trkpt lat="40.98569" lon="14.3116"><ele>20.0</ele><time>2026-04-12T07:53:40.035Z</time></trkpt><trkpt lat="40.9857583" lon="14.3116133"><ele>20.0</ele><time>2026-04-12T07:53:41.034Z</time></trkpt><trkpt lat="40.98583" lon="14.3116267"><ele>20.0</ele><time>2026-04-12T07:53:42.036Z</time></trkpt><trkpt lat="40.9859017" lon="14.3116383"><ele>20.0</ele><time>2026-04-12T07:53:43.035Z</time></trkpt><trkpt lat="40.9859717" lon="14.3116483"><ele>20.0</ele><time>2026-04-12T07:53:44.033Z</time></trkpt><trkpt lat="40.9860417" lon="14.31166"><ele>20.0</ele><time>2026-04-12T07:53:45.035Z</time></trkpt><trkpt lat="40.9861167" lon="14.3116683"><ele>20.0</ele><time>2026-04-12T07:53:46.033Z</time></trkpt><trkpt lat="40.9861917" lon="14.3116817"><ele>20.0</ele><time>2026-04-12T07:53:47.034Z</time></trkpt><trkpt lat="40.986265" lon="14.3116933"><ele>20.0</ele><time>2026-04-12T07:53:48.035Z</time></trkpt><trkpt lat="40.98634" lon="14.311705"><ele>20.0</ele><time>2026-04-12T07:53:49.035Z</time></trkpt><trkpt lat="40.9864133" lon="14.3117167"><ele>20.0</ele><time>2026-04-12T07:53:50.034Z</time></trkpt><trkpt lat="40.986485" lon="14.31173"><ele>20.0</ele><time>2026-04-12T07:53:51.034Z</time></trkpt><trkpt lat="40.9865583" lon="14.3117417"><ele>20.0</ele><time>2026-04-12T07:53:52.033Z</time></trkpt><trkpt lat="40.9866317" lon="14.3117533"><ele>20.0</ele><time>2026-04-12T07:53:53.036Z</time></trkpt><trkpt lat="40.986705" lon="14.311765"><ele>20.0</ele><time>2026-04-12T07:53:54.034Z</time></trkpt><trkpt lat="40.9867733" lon="14.31178"><ele>20.0</ele><time>2026-04-12T07:53:55.035Z</time></trkpt><trkpt lat="40.9868467" lon="14.3117983"><ele>20.0</ele><time>2026-04-12T07:53:56.036Z</time></trkpt><trkpt lat="40.9869217" lon="14.3118217"><ele>20.0</ele><time>2026-04-12T07:53:57.033Z</time></trkpt><trkpt lat="40.9869967" lon="14.3118483"><ele>20.0</ele><time>2026-04-12T07:53:58.033Z</time></trkpt><trkpt lat="40.9870717" lon="14.3118883"><ele>20.0</ele><time>2026-04-12T07:53:59.036Z</time></trkpt><trkpt lat="40.98714" lon="14.311935"><ele>20.0</ele><time>2026-04-12T07:54:00.035Z</time></trkpt><trkpt lat="40.9872033" lon="14.31199"><ele>20.0</ele><time>2026-04-12T07:54:01.036Z</time></trkpt><trkpt lat="40.9872683" lon="14.3120533"><ele>20.0</ele><time>2026-04-12T07:54:02.035Z</time></trkpt><trkpt lat="40.9873317" lon="14.31212"><ele>20.0</ele><time>2026-04-12T07:54:03.035Z</time></trkpt><trkpt lat="40.9873917" lon="14.3121833"><ele>20.0</ele><time>2026-04-12T07:54:04.034Z</time></trkpt><trkpt lat="40.9874517" lon="14.3122467"><ele>19.857142857142858</ele><time>2026-04-12T07:54:05.035Z</time></trkpt><trkpt lat="40.9875117" lon="14.3123083"><ele>19.714285714285715</ele><time>2026-04-12T07:54:06.036Z</time></trkpt><trkpt lat="40.98757" lon="14.3123683"><ele>19.57142857142857</ele><time>2026-04-12T07:54:07.036Z</time></trkpt><trkpt lat="40.9876283" lon="14.31243"><ele>19.42857142857143</ele><time>2026-04-12T07:54:08.034Z</time></trkpt><trkpt lat="40.987685" lon="14.31249"><ele>19.28571428571429</ele><time>2026-04-12T07:54:09.035Z</time></trkpt><trkpt lat="40.9877417" lon="14.3125517"><ele>19.142857142857142</ele><time>2026-04-12T07:54:10.034Z</time></trkpt><trkpt lat="40.9878" lon="14.3126133"><ele>19.0</ele><time>2026-04-12T07:54:11.034Z</time></trkpt><trkpt lat="40.98786" lon="14.3126783"><ele>19.0</ele><time>2026-04-12T07:54:12.036Z</time></trkpt><trkpt lat="40.9879217" lon="14.3127367"><ele>19.0</ele><time>2026-04-12T07:54:13.034Z</time></trkpt><trkpt lat="40.9879817" lon="14.3127967"><ele>19.0</ele><time>2026-04-12T07:54:14.037Z</time></trkpt><trkpt lat="40.9880417" lon="14.3128583"><ele>19.0</ele><time>2026-04-12T07:54:15.036Z</time></trkpt><trkpt lat="40.988105" lon="14.3129167"><ele>19.0</ele><time>2026-04-12T07:54:16.036Z</time></trkpt><trkpt lat="40.9881667" lon="14.3129767"><ele>19.0</ele><time>2026-04-12T07:54:17.035Z</time></trkpt><trkpt lat="40.9882217" lon="14.3130333"><ele>19.333333333333332</ele><time>2026-04-12T07:54:18.035Z</time></trkpt><trkpt lat="40.98828" lon="14.3130917"><ele>19.666666666666664</ele><time>2026-04-12T07:54:19.035Z</time></trkpt><trkpt lat="40.988345" lon="14.313155"><ele>20.0</ele><time>2026-04-12T07:54:20.037Z</time></trkpt><trkpt lat="40.988405" lon="14.3132167"><ele>20.333333333333332</ele><time>2026-04-12T07:54:21.036Z</time></trkpt><trkpt lat="40.9884667" lon="14.313275"><ele>20.666666666666668</ele><time>2026-04-12T07:54:22.036Z</time></trkpt><trkpt lat="40.9885267" lon="14.31333"><ele>21.0</ele><time>2026-04-12T07:54:23.036Z</time></trkpt><trkpt lat="40.9885867" lon="14.3133833"><ele>21.0</ele><time>2026-04-12T07:54:24.036Z</time></trkpt><trkpt lat="40.98865" lon="14.313445"><ele>21.0</ele><time>2026-04-12T07:54:25.035Z</time></trkpt><trkpt lat="40.9887117" lon="14.31351"><ele>21.0</ele><time>2026-04-12T07:54:26.037Z</time></trkpt><trkpt lat="40.9887717" lon="14.3135733"><ele>21.0</ele><time>2026-04-12T07:54:27.036Z</time></trkpt><trkpt lat="40.9888317" lon="14.31364"><ele>21.0</ele><time>2026-04-12T07:54:28.034Z</time></trkpt><trkpt lat="40.9888917" lon="14.3137067"><ele>21.0</ele><time>2026-04-12T07:54:29.035Z</time></trkpt><trkpt lat="40.9889517" lon="14.3137667"><ele>21.0</ele><time>2026-04-12T07:54:30.036Z</time></trkpt><trkpt lat="40.98901" lon="14.313825"><ele>21.0</ele><time>2026-04-12T07:54:31.034Z</time></trkpt><trkpt lat="40.9890667" lon="14.3138867"><ele>21.0</ele><time>2026-04-12T07:54:32.036Z</time></trkpt><trkpt lat="40.9891217" lon="14.313945"><ele>21.0</ele><time>2026-04-12T07:54:33.035Z</time></trkpt><trkpt lat="40.9891767" lon="14.3140017"><ele>21.0</ele><time>2026-04-12T07:54:34.033Z</time></trkpt><trkpt lat="40.9892333" lon="14.31406"><ele>21.0</ele><time>2026-04-12T07:54:35.035Z</time></trkpt><trkpt lat="40.9892883" lon="14.314115"><ele>21.0</ele><time>2026-04-12T07:54:36.035Z</time></trkpt><trkpt lat="40.989345" lon="14.3141717"><ele>21.0</ele><time>2026-04-12T07:54:37.034Z</time></trkpt><trkpt lat="40.9894" lon="14.3142267"><ele>21.0</ele><time>2026-04-12T07:54:38.034Z</time></trkpt><trkpt lat="40.989455" lon="14.314285"><ele>21.0</ele><time>2026-04-12T07:54:39.035Z</time></trkpt><trkpt lat="40.9895083" lon="14.3143383"><ele>21.0</ele><time>2026-04-12T07:54:40.035Z</time></trkpt><trkpt lat="40.9895633" lon="14.3143967"><ele>21.0</ele><time>2026-04-12T07:54:41.035Z</time></trkpt><trkpt lat="40.98962" lon="14.314455"><ele>21.0</ele><time>2026-04-12T07:54:42.036Z</time></trkpt><trkpt lat="40.9896767" lon="14.31451"><ele>21.0</ele><time>2026-04-12T07:54:43.036Z</time></trkpt><trkpt lat="40.9897317" lon="14.3145617"><ele>21.0</ele><time>2026-04-12T07:54:44.036Z</time></trkpt><trkpt lat="40.9897867" lon="14.31462"><ele>21.0</ele><time>2026-04-12T07:54:45.037Z</time></trkpt><trkpt lat="40.9898417" lon="14.3146783"><ele>21.0</ele><time>2026-04-12T07:54:46.037Z</time></trkpt><trkpt lat="40.9899" lon="14.3147417"><ele>21.0</ele><time>2026-04-12T07:54:47.035Z</time></trkpt><trkpt lat="40.98996" lon="14.314805"><ele>21.0</ele><time>2026-04-12T07:54:48.036Z</time></trkpt><trkpt lat="40.99002" lon="14.3148667"><ele>21.0</ele><time>2026-04-12T07:54:49.034Z</time></trkpt><trkpt lat="40.9900783" lon="14.3149317"><ele>21.0</ele><time>2026-04-12T07:54:50.037Z</time></trkpt><trkpt lat="40.9901417" lon="14.314995"><ele>20.833333333333332</ele><time>2026-04-12T07:54:51.037Z</time></trkpt><trkpt lat="40.9902033" lon="14.3150567"><ele>20.666666666666668</ele><time>2026-04-12T07:54:52.035Z</time></trkpt><trkpt lat="40.99027" lon="14.3151183"><ele>20.5</ele><time>2026-04-12T07:54:53.036Z</time></trkpt><trkpt lat="40.9903367" lon="14.31518"><ele>20.333333333333336</ele><time>2026-04-12T07:54:54.037Z</time></trkpt><trkpt lat="40.9903983" lon="14.315245"><ele>20.166666666666668</ele><time>2026-04-12T07:54:55.035Z</time></trkpt><trkpt lat="40.99046" lon="14.3153083"><ele>20.0</ele><time>2026-04-12T07:54:56.034Z</time></trkpt><trkpt lat="40.9905183" lon="14.3153667"><ele>20.0</ele><time>2026-04-12T07:54:57.036Z</time></trkpt><trkpt lat="40.9905683" lon="14.3154217"><ele>20.0</ele><time>2026-04-12T07:54:58.033Z</time></trkpt><trkpt lat="40.9906233" lon="14.31548"><ele>20.0</ele><time>2026-04-12T07:54:59.035Z</time></trkpt><trkpt lat="40.9906767" lon="14.3155467"><ele>20.0</ele><time>2026-04-12T07:55:00.037Z</time></trkpt><trkpt lat="40.9907267" lon="14.3156067"><ele>20.0</ele><time>2026-04-12T07:55:01.036Z</time></trkpt><trkpt lat="40.990775" lon="14.31567"><ele>20.0</ele><time>2026-04-12T07:55:02.036Z</time></trkpt><trkpt lat="40.9908267" lon="14.31573"><ele>20.0</ele><time>2026-04-12T07:55:03.036Z</time></trkpt><trkpt lat="40.99088" lon="14.31579"><ele>19.857142857142858</ele><time>2026-04-12T07:55:04.035Z</time></trkpt><trkpt lat="40.990935" lon="14.3158483"><ele>19.714285714285715</ele><time>2026-04-12T07:55:05.036Z</time></trkpt><trkpt lat="40.99099" lon="14.315905"><ele>19.57142857142857</ele><time>2026-04-12T07:55:06.035Z</time></trkpt><trkpt lat="40.9910433" lon="14.3159633"><ele>19.42857142857143</ele><time>2026-04-12T07:55:07.036Z</time></trkpt><trkpt lat="40.9910983" lon="14.3160233"><ele>19.28571428571429</ele><time>2026-04-12T07:55:08.037Z</time></trkpt><trkpt lat="40.991155" lon="14.316085"><ele>19.142857142857142</ele><time>2026-04-12T07:55:09.037Z</time></trkpt><trkpt lat="40.9912083" lon="14.3161417"><ele>19.0</ele><time>2026-04-12T07:55:10.033Z</time></trkpt><trkpt lat="40.9912633" lon="14.3161967"><ele>19.0</ele><time>2026-04-12T07:55:11.034Z</time></trkpt><trkpt lat="40.9913167" lon="14.3162533"><ele>19.0</ele><time>2026-04-12T07:55:12.037Z</time></trkpt><trkpt lat="40.9913667" lon="14.3163117"><ele>19.0</ele><time>2026-04-12T07:55:13.032Z</time></trkpt><trkpt lat="40.9914233" lon="14.3163683"><ele>19.0</ele><time>2026-04-12T07:55:14.036Z</time></trkpt><trkpt lat="40.9914783" lon="14.316425"><ele>19.0</ele><time>2026-04-12T07:55:15.034Z</time></trkpt><trkpt lat="40.9915333" lon="14.3164817"><ele>19.0</ele><time>2026-04-12T07:55:16.034Z</time></trkpt><trkpt lat="40.9915917" lon="14.3165383"><ele>19.0</ele><time>2026-04-12T07:55:17.037Z</time></trkpt><trkpt lat="40.99165" lon="14.3165967"><ele>19.142857142857142</ele><time>2026-04-12T07:55:18.033Z</time></trkpt><trkpt lat="40.9917083" lon="14.316655"><ele>19.28571428571429</ele><time>2026-04-12T07:55:19.035Z</time></trkpt><trkpt lat="40.9917683" lon="14.3167133"><ele>19.42857142857143</ele><time>2026-04-12T07:55:20.034Z</time></trkpt><trkpt lat="40.9918283" lon="14.3167667"><ele>19.57142857142857</ele><time>2026-04-12T07:55:21.037Z</time></trkpt><trkpt lat="40.99189" lon="14.3168233"><ele>19.714285714285715</ele><time>2026-04-12T07:55:22.037Z</time></trkpt><trkpt lat="40.9919483" lon="14.3168817"><ele>19.857142857142858</ele><time>2026-04-12T07:55:23.035Z</time></trkpt><trkpt lat="40.9920083" lon="14.3169383"><ele>20.0</ele><time>2026-04-12T07:55:24.034Z</time></trkpt><trkpt lat="40.992065" lon="14.316995"><ele>20.0</ele><time>2026-04-12T07:55:25.033Z</time></trkpt><trkpt lat="40.9921183" lon="14.3170533"><ele>20.0</ele><time>2026-04-12T07:55:26.035Z</time></trkpt><trkpt lat="40.9921783" lon="14.3171067"><ele>20.0</ele><time>2026-04-12T07:55:27.036Z</time></trkpt><trkpt lat="40.9922383" lon="14.3171567"><ele>20.0</ele><time>2026-04-12T07:55:28.033Z</time></trkpt><trkpt lat="40.9922983" lon="14.31721"><ele>20.0</ele><time>2026-04-12T07:55:29.036Z</time></trkpt><trkpt lat="40.9923533" lon="14.317265"><ele>20.0</ele><time>2026-04-12T07:55:30.036Z</time></trkpt><trkpt lat="40.99241" lon="14.31732"><ele>20.0</ele><time>2026-04-12T07:55:31.036Z</time></trkpt><trkpt lat="40.992465" lon="14.3173733"><ele>19.857142857142858</ele><time>2026-04-12T07:55:32.036Z</time></trkpt><trkpt lat="40.9925217" lon="14.3174267"><ele>19.714285714285715</ele><time>2026-04-12T07:55:33.034Z</time></trkpt><trkpt lat="40.9925783" lon="14.3174767"><ele>19.57142857142857</ele><time>2026-04-12T07:55:34.036Z</time></trkpt><trkpt lat="40.9926383" lon="14.3175233"><ele>19.42857142857143</ele><time>2026-04-12T07:55:35.035Z</time></trkpt><trkpt lat="40.9927017" lon="14.3175717"><ele>19.28571428571429</ele><time>2026-04-12T07:55:36.037Z</time></trkpt><trkpt lat="40.9927633" lon="14.31761"><ele>19.142857142857142</ele><time>2026-04-12T07:55:37.036Z</time></trkpt><trkpt lat="40.9928267" lon="14.317645"><ele>19.0</ele><time>2026-04-12T07:55:38.035Z</time></trkpt><trkpt lat="40.9928917" lon="14.3176783"><ele>19.0</ele><time>2026-04-12T07:55:39.037Z</time></trkpt><trkpt lat="40.9929617" lon="14.3177017"><ele>19.0</ele><time>2026-04-12T07:55:40.035Z</time></trkpt><trkpt lat="40.9930317" lon="14.31772"><ele>19.0</ele><time>2026-04-12T07:55:41.034Z</time></trkpt><trkpt lat="40.993105" lon="14.31774"><ele>19.0</ele><time>2026-04-12T07:55:42.037Z</time></trkpt><trkpt lat="40.9931767" lon="14.317755"><ele>19.0</ele><time>2026-04-12T07:55:43.037Z</time></trkpt><trkpt lat="40.9932517" lon="14.3177667"><ele>19.0</ele><time>2026-04-12T07:55:44.036Z</time></trkpt><trkpt lat="40.9933267" lon="14.3177817"><ele>19.0</ele><time>2026-04-12T07:55:45.036Z</time></trkpt><trkpt lat="40.9934017" lon="14.317795"><ele>19.0</ele><time>2026-04-12T07:55:46.033Z</time></trkpt><trkpt lat="40.9934767" lon="14.317805"><ele>19.0</ele><time>2026-04-12T07:55:47.036Z</time></trkpt><trkpt lat="40.9935517" lon="14.3178133"><ele>19.0</ele><time>2026-04-12T07:55:48.036Z</time></trkpt><trkpt lat="40.9936267" lon="14.31782"><ele>19.0</ele><time>2026-04-12T07:55:49.035Z</time></trkpt><trkpt lat="40.9937017" lon="14.3178267"><ele>19.0</ele><time>2026-04-12T07:55:50.037Z</time></trkpt><trkpt lat="40.9937767" lon="14.3178367"><ele>19.0</ele><time>2026-04-12T07:55:51.037Z</time></trkpt><trkpt lat="40.993855" lon="14.3178433"><ele>19.0</ele><time>2026-04-12T07:55:52.034Z</time></trkpt><trkpt lat="40.9939317" lon="14.3178483"><ele>19.0</ele><time>2026-04-12T07:55:53.035Z</time></trkpt><trkpt lat="40.9940117" lon="14.3178567"><ele>19.0</ele><time>2026-04-12T07:55:54.036Z</time></trkpt><trkpt lat="40.9940883" lon="14.3178667"><ele>19.0</ele><time>2026-04-12T07:55:55.035Z</time></trkpt><trkpt lat="40.9941633" lon="14.3178767"><ele>19.0</ele><time>2026-04-12T07:55:56.035Z</time></trkpt><trkpt lat="40.9942383" lon="14.317885"><ele>19.0</ele><time>2026-04-12T07:55:57.035Z</time></trkpt><trkpt lat="40.9943133" lon="14.3178933"><ele>19.0</ele><time>2026-04-12T07:55:58.034Z</time></trkpt><trkpt lat="40.994385" lon="14.3179017"><ele>19.0</ele><time>2026-04-12T07:55:59.035Z</time></trkpt><trkpt lat="40.9944567" lon="14.31791"><ele>19.0</ele><time>2026-04-12T07:56:00.034Z</time></trkpt><trkpt lat="40.9945283" lon="14.317915"><ele>19.0</ele><time>2026-04-12T07:56:01.037Z</time></trkpt><trkpt lat="40.9946017" lon="14.31792"><ele>19.0</ele><time>2026-04-12T07:56:02.037Z</time></trkpt><trkpt lat="40.9946733" lon="14.317925"><ele>19.0</ele><time>2026-04-12T07:56:03.037Z</time></trkpt><trkpt lat="40.9947467" lon="14.3179333"><ele>19.0</ele><time>2026-04-12T07:56:04.034Z</time></trkpt><trkpt lat="40.9948217" lon="14.3179383"><ele>19.0</ele><time>2026-04-12T07:56:05.037Z</time></trkpt><trkpt lat="40.994895" lon="14.317945"><ele>19.0</ele><time>2026-04-12T07:56:06.036Z</time></trkpt><trkpt lat="40.994965" lon="14.31795"><ele>19.0</ele><time>2026-04-12T07:56:07.034Z</time></trkpt><trkpt lat="40.9950383" lon="14.317955"><ele>19.0</ele><time>2026-04-12T07:56:08.038Z</time></trkpt><trkpt lat="40.9951117" lon="14.3179667"><ele>19.0</ele><time>2026-04-12T07:56:09.035Z</time></trkpt><trkpt lat="40.9951883" lon="14.3179783"><ele>19.0</ele><time>2026-04-12T07:56:10.034Z</time></trkpt><trkpt lat="40.995265" lon="14.31799"><ele>19.0</ele><time>2026-04-12T07:56:11.033Z</time></trkpt><trkpt lat="40.9953383" lon="14.3180017"><ele>19.0</ele><time>2026-04-12T07:56:12.034Z</time></trkpt><trkpt lat="40.99541" lon="14.3180083"><ele>19.0</ele><time>2026-04-12T07:56:13.035Z</time></trkpt><trkpt lat="40.9954833" lon="14.318015"><ele>19.0</ele><time>2026-04-12T07:56:14.034Z</time></trkpt><trkpt lat="40.9955583" lon="14.318025"><ele>19.0</ele><time>2026-04-12T07:56:15.036Z</time></trkpt><trkpt lat="40.995635" lon="14.31803"><ele>19.0</ele><time>2026-04-12T07:56:16.037Z</time></trkpt><trkpt lat="40.99571" lon="14.318035"><ele>19.0</ele><time>2026-04-12T07:56:17.036Z</time></trkpt><trkpt lat="40.9957867" lon="14.3180383"><ele>19.0</ele><time>2026-04-12T07:56:18.033Z</time></trkpt><trkpt lat="40.9958633" lon="14.3180433"><ele>19.166666666666664</ele><time>2026-04-12T07:56:19.035Z</time></trkpt><trkpt lat="40.9959383" lon="14.3180517"><ele>19.333333333333332</ele><time>2026-04-12T07:56:20.036Z</time></trkpt><trkpt lat="40.9960183" lon="14.31806"><ele>19.5</ele><time>2026-04-12T07:56:21.036Z</time></trkpt><trkpt lat="40.996095" lon="14.31807"><ele>19.666666666666668</ele><time>2026-04-12T07:56:22.036Z</time></trkpt><trkpt lat="40.9961733" lon="14.3180783"><ele>19.833333333333336</ele><time>2026-04-12T07:56:23.036Z</time></trkpt><trkpt lat="40.9962483" lon="14.31809"><ele>20.0</ele><time>2026-04-12T07:56:24.037Z</time></trkpt><trkpt lat="40.9963267" lon="14.3180983"><ele>20.0</ele><time>2026-04-12T07:56:25.035Z</time></trkpt><trkpt lat="40.996405" lon="14.3181067"><ele>20.0</ele><time>2026-04-12T07:56:26.035Z</time></trkpt><trkpt lat="40.9964817" lon="14.3181167"><ele>20.0</ele><time>2026-04-12T07:56:27.034Z</time></trkpt><trkpt lat="40.9965583" lon="14.3181267"><ele>20.0</ele><time>2026-04-12T07:56:28.035Z</time></trkpt><trkpt lat="40.9966333" lon="14.3181367"><ele>20.0</ele><time>2026-04-12T07:56:29.034Z</time></trkpt><trkpt lat="40.99671" lon="14.3181467"><ele>20.0</ele><time>2026-04-12T07:56:30.033Z</time></trkpt><trkpt lat="40.9967833" lon="14.3181567"><ele>20.142857142857142</ele><time>2026-04-12T07:56:31.037Z</time></trkpt><trkpt lat="40.9968567" lon="14.318165"><ele>20.285714285714285</ele><time>2026-04-12T07:56:32.036Z</time></trkpt><trkpt lat="40.99693" lon="14.3181733"><ele>20.42857142857143</ele><time>2026-04-12T07:56:33.036Z</time></trkpt><trkpt lat="40.997" lon="14.3181817"><ele>20.57142857142857</ele><time>2026-04-12T07:56:34.035Z</time></trkpt><trkpt lat="40.997075" lon="14.3181917"><ele>20.714285714285715</ele><time>2026-04-12T07:56:35.036Z</time></trkpt><trkpt lat="40.99715" lon="14.3181983"><ele>20.857142857142858</ele><time>2026-04-12T07:56:36.035Z</time></trkpt><trkpt lat="40.997225" lon="14.3182083"><ele>21.0</ele><time>2026-04-12T07:56:37.036Z</time></trkpt><trkpt lat="40.9972967" lon="14.3182167"><ele>21.0</ele><time>2026-04-12T07:56:38.034Z</time></trkpt><trkpt lat="40.99737" lon="14.3182217"><ele>21.0</ele><time>2026-04-12T07:56:39.034Z</time></trkpt><trkpt lat="40.9974417" lon="14.3182283"><ele>21.0</ele><time>2026-04-12T07:56:40.034Z</time></trkpt><trkpt lat="40.9975167" lon="14.3182333"><ele>21.0</ele><time>2026-04-12T07:56:41.035Z</time></trkpt><trkpt lat="40.99759" lon="14.31824"><ele>21.0</ele><time>2026-04-12T07:56:42.034Z</time></trkpt><trkpt lat="40.9976633" lon="14.3182467"><ele>21.0</ele><time>2026-04-12T07:56:43.035Z</time></trkpt><trkpt lat="40.9977367" lon="14.3182567"><ele>21.0</ele><time>2026-04-12T07:56:44.036Z</time></trkpt><trkpt lat="40.9978083" lon="14.3182633"><ele>20.857142857142858</ele><time>2026-04-12T07:56:45.035Z</time></trkpt><trkpt lat="40.9978833" lon="14.31827"><ele>20.714285714285715</ele><time>2026-04-12T07:56:46.034Z</time></trkpt><trkpt lat="40.99796" lon="14.31828"><ele>20.57142857142857</ele><time>2026-04-12T07:56:47.035Z</time></trkpt><trkpt lat="40.9980333" lon="14.3182883"><ele>20.42857142857143</ele><time>2026-04-12T07:56:48.034Z</time></trkpt><trkpt lat="40.9981067" lon="14.3183"><ele>20.285714285714285</ele><time>2026-04-12T07:56:49.036Z</time></trkpt><trkpt lat="40.9981783" lon="14.3183083"><ele>20.142857142857142</ele><time>2026-04-12T07:56:50.035Z</time></trkpt><trkpt lat="40.9982517" lon="14.318315"><ele>20.0</ele><time>2026-04-12T07:56:51.034Z</time></trkpt><trkpt lat="40.998325" lon="14.31832"><ele>20.166666666666668</ele><time>2026-04-12T07:56:52.033Z</time></trkpt><trkpt lat="40.9983983" lon="14.3183233"><ele>20.333333333333336</ele><time>2026-04-12T07:56:53.035Z</time></trkpt><trkpt lat="40.9984733" lon="14.3183267"><ele>20.5</ele><time>2026-04-12T07:56:54.034Z</time></trkpt><trkpt lat="40.9985483" lon="14.3183333"><ele>20.666666666666668</ele><time>2026-04-12T07:56:55.033Z</time></trkpt><trkpt lat="40.998625" lon="14.3183417"><ele>20.833333333333332</ele><time>2026-04-12T07:56:56.035Z</time></trkpt><trkpt lat="40.9987" lon="14.31835"><ele>21.0</ele><time>2026-04-12T07:56:57.033Z</time></trkpt><trkpt lat="40.9987783" lon="14.3183583"><ele>21.0</ele><time>2026-04-12T07:56:58.036Z</time></trkpt><trkpt lat="40.9988533" lon="14.318365"><ele>21.0</ele><time>2026-04-12T07:56:59.037Z</time></trkpt><trkpt lat="40.9989267" lon="14.318375"><ele>21.0</ele><time>2026-04-12T07:57:00.034Z</time></trkpt><trkpt lat="40.9990017" lon="14.318385"><ele>21.0</ele><time>2026-04-12T07:57:01.036Z</time></trkpt><trkpt lat="40.9990783" lon="14.318395"><ele>21.0</ele><time>2026-04-12T07:57:02.036Z</time></trkpt><trkpt lat="40.9991533" lon="14.3184033"><ele>21.0</ele><time>2026-04-12T07:57:03.035Z</time></trkpt><trkpt lat="40.9992267" lon="14.3184117"><ele>21.0</ele><time>2026-04-12T07:57:04.035Z</time></trkpt><trkpt lat="40.9992983" lon="14.3184217"><ele>21.0</ele><time>2026-04-12T07:57:05.035Z</time></trkpt><trkpt lat="40.9993683" lon="14.3184333"><ele>21.0</ele><time>2026-04-12T07:57:06.036Z</time></trkpt><trkpt lat="40.9994383" lon="14.318445"><ele>21.0</ele><time>2026-04-12T07:57:07.035Z</time></trkpt><trkpt lat="40.99951" lon="14.3184517"><ele>21.0</ele><time>2026-04-12T07:57:08.034Z</time></trkpt><trkpt lat="40.99958" lon="14.3184567"><ele>21.0</ele><time>2026-04-12T07:57:09.037Z</time></trkpt><trkpt lat="40.99965" lon="14.3184567"><ele>21.0</ele><time>2026-04-12T07:57:10.037Z</time></trkpt><trkpt lat="40.99972" lon="14.31846"><ele>21.0</ele><time>2026-04-12T07:57:11.035Z</time></trkpt><trkpt lat="40.9997917" lon="14.3184683"><ele>21.0</ele><time>2026-04-12T07:57:12.036Z</time></trkpt><trkpt lat="40.9998617" lon="14.3184767"><ele>21.0</ele><time>2026-04-12T07:57:13.035Z</time></trkpt><trkpt lat="40.9999317" lon="14.3184817"><ele>21.0</ele><time>2026-04-12T07:57:14.035Z</time></trkpt><trkpt lat="41.0000017" lon="14.318485"><ele>21.0</ele><time>2026-04-12T07:57:15.038Z</time></trkpt><trkpt lat="41.0000733" lon="14.3184967"><ele>21.0</ele><time>2026-04-12T07:57:16.035Z</time></trkpt><trkpt lat="41.0001433" lon="14.3185"><ele>21.0</ele><time>2026-04-12T07:57:17.036Z</time></trkpt><trkpt lat="41.0002167" lon="14.318505"><ele>21.0</ele><time>2026-04-12T07:57:18.035Z</time></trkpt><trkpt lat="41.00029" lon="14.318515"><ele>21.0</ele><time>2026-04-12T07:57:19.035Z</time></trkpt><trkpt lat="41.00036" lon="14.318525"><ele>21.0</ele><time>2026-04-12T07:57:20.038Z</time></trkpt><trkpt lat="41.0004317" lon="14.3185317"><ele>21.0</ele><time>2026-04-12T07:57:21.035Z</time></trkpt><trkpt lat="41.0005033" lon="14.3185383"><ele>21.0</ele><time>2026-04-12T07:57:22.036Z</time></trkpt><trkpt lat="41.00057" lon="14.3185333"><ele>21.0</ele><time>2026-04-12T07:57:23.036Z</time></trkpt><trkpt lat="41.00064" lon="14.3185317"><ele>21.0</ele><time>2026-04-12T07:57:24.035Z</time></trkpt><trkpt lat="41.00071" lon="14.318535"><ele>21.0</ele><time>2026-04-12T07:57:25.035Z</time></trkpt><trkpt lat="41.0007833" lon="14.3185433"><ele>21.0</ele><time>2026-04-12T07:57:26.036Z</time></trkpt><trkpt lat="41.00086" lon="14.3185533"><ele>21.0</ele><time>2026-04-12T07:57:27.035Z</time></trkpt><trkpt lat="41.0009333" lon="14.3185617"><ele>21.0</ele><time>2026-04-12T07:57:28.035Z</time></trkpt><trkpt lat="41.0010067" lon="14.31857"><ele>21.0</ele><time>2026-04-12T07:57:29.036Z</time></trkpt><trkpt lat="41.0010767" lon="14.3185783"><ele>21.0</ele><time>2026-04-12T07:57:30.035Z</time></trkpt><trkpt lat="41.0011483" lon="14.3185917"><ele>21.0</ele><time>2026-04-12T07:57:31.035Z</time></trkpt><trkpt lat="41.00122" lon="14.3186167"><ele>21.0</ele><time>2026-04-12T07:57:32.035Z</time></trkpt><trkpt lat="41.00129" lon="14.3186517"><ele>21.0</ele><time>2026-04-12T07:57:33.035Z</time></trkpt><trkpt lat="41.0013567" lon="14.3187017"><ele>21.0</ele><time>2026-04-12T07:57:34.033Z</time></trkpt><trkpt lat="41.0014167" lon="14.3187633"><ele>21.0</ele><time>2026-04-12T07:57:35.035Z</time></trkpt><trkpt lat="41.0014717" lon="14.3188317"><ele>21.0</ele><time>2026-04-12T07:57:36.034Z</time></trkpt><trkpt lat="41.001515" lon="14.3189083"><ele>21.0</ele><time>2026-04-12T07:57:37.034Z</time></trkpt><trkpt lat="41.00156" lon="14.3189883"><ele>21.0</ele><time>2026-04-12T07:57:38.035Z</time></trkpt><trkpt lat="41.0016083" lon="14.3190617"><ele>21.0</ele><time>2026-04-12T07:57:39.033Z</time></trkpt><trkpt lat="41.001665" lon="14.3191233"><ele>21.0</ele><time>2026-04-12T07:57:40.037Z</time></trkpt><trkpt lat="41.0017317" lon="14.3191583"><ele>21.0</ele><time>2026-04-12T07:57:41.036Z</time></trkpt><trkpt lat="41.0017983" lon="14.319155"><ele>21.0</ele><time>2026-04-12T07:57:42.036Z</time></trkpt><trkpt lat="41.0018617" lon="14.3191233"><ele>21.0</ele><time>2026-04-12T07:57:43.037Z</time></trkpt><trkpt lat="41.0019217" lon="14.319075"><ele>21.0</ele><time>2026-04-12T07:57:44.038Z</time></trkpt><trkpt lat="41.001975" lon="14.3190167"><ele>21.0</ele><time>2026-04-12T07:57:45.037Z</time></trkpt><trkpt lat="41.0020283" lon="14.3189567"><ele>21.0</ele><time>2026-04-12T07:57:46.035Z</time></trkpt><trkpt lat="41.0020867" lon="14.3189067"><ele>21.0</ele><time>2026-04-12T07:57:47.036Z</time></trkpt><trkpt lat="41.0021467" lon="14.3188617"><ele>21.0</ele><time>2026-04-12T07:57:48.035Z</time></trkpt><trkpt lat="41.002205" lon="14.318825"><ele>21.0</ele><time>2026-04-12T07:57:49.035Z</time></trkpt><trkpt lat="41.0022667" lon="14.3187983"><ele>21.0</ele><time>2026-04-12T07:57:50.035Z</time></trkpt><trkpt lat="41.0023317" lon="14.31878"><ele>21.0</ele><time>2026-04-12T07:57:51.036Z</time></trkpt><trkpt lat="41.0023983" lon="14.3187717"><ele>21.0</ele><time>2026-04-12T07:57:52.033Z</time></trkpt><trkpt lat="41.0024667" lon="14.3187667"><ele>21.0</ele><time>2026-04-12T07:57:53.036Z</time></trkpt><trkpt lat="41.002535" lon="14.318765"><ele>21.0</ele><time>2026-04-12T07:57:54.036Z</time></trkpt><trkpt lat="41.0026033" lon="14.3187667"><ele>21.0</ele><time>2026-04-12T07:57:55.034Z</time></trkpt><trkpt lat="41.0026717" lon="14.3187717"><ele>21.0</ele><time>2026-04-12T07:57:56.036Z</time></trkpt><trkpt lat="41.00274" lon="14.3187783"><ele>21.0</ele><time>2026-04-12T07:57:57.034Z</time></trkpt><trkpt lat="41.00281" lon="14.31879"><ele>21.0</ele><time>2026-04-12T07:57:58.032Z</time></trkpt><trkpt lat="41.0028767" lon="14.3187983"><ele>21.142857142857142</ele><time>2026-04-12T07:57:59.036Z</time></trkpt><trkpt lat="41.002945" lon="14.3188083"><ele>21.285714285714285</ele><time>2026-04-12T07:58:00.037Z</time></trkpt><trkpt lat="41.0030133" lon="14.3188167"><ele>21.42857142857143</ele><time>2026-04-12T07:58:01.036Z</time></trkpt><trkpt lat="41.0030833" lon="14.318825"><ele>21.57142857142857</ele><time>2026-04-12T07:58:02.034Z</time></trkpt><trkpt lat="41.00315" lon="14.3188383"><ele>21.714285714285715</ele><time>2026-04-12T07:58:03.037Z</time></trkpt><trkpt lat="41.0032167" lon="14.31885"><ele>21.857142857142858</ele><time>2026-04-12T07:58:04.034Z</time></trkpt><trkpt lat="41.0032867" lon="14.3188617"><ele>22.0</ele><time>2026-04-12T07:58:05.035Z</time></trkpt><trkpt lat="41.003355" lon="14.3188767"><ele>21.571428571428573</ele><time>2026-04-12T07:58:06.035Z</time></trkpt><trkpt lat="41.003425" lon="14.3188917"><ele>21.142857142857142</ele><time>2026-04-12T07:58:07.036Z</time></trkpt><trkpt lat="41.003495" lon="14.3189033"><ele>20.714285714285715</ele><time>2026-04-12T07:58:08.035Z</time></trkpt><trkpt lat="41.0035633" lon="14.318915"><ele>20.285714285714285</ele><time>2026-04-12T07:58:09.036Z</time></trkpt><trkpt lat="41.00363" lon="14.318925"><ele>19.857142857142858</ele><time>2026-04-12T07:58:10.034Z</time></trkpt><trkpt lat="41.0036983" lon="14.3189317"><ele>19.428571428571427</ele><time>2026-04-12T07:58:11.035Z</time></trkpt><trkpt lat="41.0037683" lon="14.3189383"><ele>19.0</ele><time>2026-04-12T07:58:12.036Z</time></trkpt><trkpt lat="41.00384" lon="14.3189467"><ele>19.0</ele><time>2026-04-12T07:58:13.033Z</time></trkpt><trkpt lat="41.003915" lon="14.3189567"><ele>19.0</ele><time>2026-04-12T07:58:14.034Z</time></trkpt><trkpt lat="41.0039833" lon="14.3189683"><ele>19.0</ele><time>2026-04-12T07:58:15.033Z</time></trkpt><trkpt lat="41.0040567" lon="14.3189817"><ele>19.0</ele><time>2026-04-12T07:58:16.033Z</time></trkpt><trkpt lat="41.0041283" lon="14.318995"><ele>19.0</ele><time>2026-04-12T07:58:17.034Z</time></trkpt><trkpt lat="41.0042" lon="14.3190083"><ele>19.0</ele><time>2026-04-12T07:58:18.038Z</time></trkpt><trkpt lat="41.0042683" lon="14.319025"><ele>19.0</ele><time>2026-04-12T07:58:19.034Z</time></trkpt><trkpt lat="41.0043383" lon="14.3190433"><ele>19.57142857142857</ele><time>2026-04-12T07:58:20.035Z</time></trkpt><trkpt lat="41.0044017" lon="14.3190617"><ele>20.142857142857146</ele><time>2026-04-12T07:58:21.035Z</time></trkpt><trkpt lat="41.0044683" lon="14.3190833"><ele>20.714285714285715</ele><time>2026-04-12T07:58:22.036Z</time></trkpt><trkpt lat="41.0045383" lon="14.3191033"><ele>21.285714285714285</ele><time>2026-04-12T07:58:23.036Z</time></trkpt><trkpt lat="41.0046083" lon="14.3191217"><ele>21.857142857142854</ele><time>2026-04-12T07:58:24.036Z</time></trkpt><trkpt lat="41.0046733" lon="14.3191417"><ele>22.42857142857143</ele><time>2026-04-12T07:58:25.035Z</time></trkpt><trkpt lat="41.0047383" lon="14.3191617"><ele>23.0</ele><time>2026-04-12T07:58:26.035Z</time></trkpt><trkpt lat="41.0048033" lon="14.3191817"><ele>23.0</ele><time>2026-04-12T07:58:27.034Z</time></trkpt><trkpt lat="41.0048683" lon="14.3192067"><ele>23.0</ele><time>2026-04-12T07:58:28.034Z</time></trkpt><trkpt lat="41.0049333" lon="14.31923"><ele>23.0</ele><time>2026-04-12T07:58:29.033Z</time></trkpt><trkpt lat="41.0049983" lon="14.3192533"><ele>23.0</ele><time>2026-04-12T07:58:30.036Z</time></trkpt><trkpt lat="41.0050633" lon="14.3192767"><ele>23.0</ele><time>2026-04-12T07:58:31.036Z</time></trkpt><trkpt lat="41.0051283" lon="14.3193017"><ele>23.0</ele><time>2026-04-12T07:58:32.037Z</time></trkpt><trkpt lat="41.0051933" lon="14.3193233"><ele>23.0</ele><time>2026-04-12T07:58:33.037Z</time></trkpt><trkpt lat="41.00526" lon="14.3193517"><ele>22.857142857142858</ele><time>2026-04-12T07:58:34.036Z</time></trkpt><trkpt lat="41.005325" lon="14.3193733"><ele>22.71428571428571</ele><time>2026-04-12T07:58:35.034Z</time></trkpt><trkpt lat="41.00539" lon="14.3193967"><ele>22.57142857142857</ele><time>2026-04-12T07:58:36.035Z</time></trkpt><trkpt lat="41.00549" lon="14.3194283"><ele>22.42857142857143</ele><time>2026-04-12T07:58:38.037Z</time></trkpt><trkpt lat="41.0055583" lon="14.31946"><ele>22.285714285714285</ele><time>2026-04-12T07:58:40.033Z</time></trkpt><trkpt lat="41.0056083" lon="14.3195167"><ele>22.142857142857142</ele><time>2026-04-12T07:58:42.035Z</time></trkpt><trkpt lat="41.0056717" lon="14.3195533"><ele>22.0</ele><time>2026-04-12T07:58:44.035Z</time></trkpt><trkpt lat="41.0057417" lon="14.3195667"><ele>21.8</ele><time>2026-04-12T07:58:46.035Z</time></trkpt><trkpt lat="41.005835" lon="14.3195867"><ele>21.6</ele><time>2026-04-12T07:58:49.035Z</time></trkpt><trkpt lat="41.0059183" lon="14.3196133"><ele>21.400000000000002</ele><time>2026-04-12T07:58:51.037Z</time></trkpt><trkpt lat="41.0060133" lon="14.31964"><ele>21.200000000000003</ele><time>2026-04-12T07:58:53.035Z</time></trkpt><trkpt lat="41.0061117" lon="14.3196817"><ele>21.0</ele><time>2026-04-12T07:58:55.038Z</time></trkpt><trkpt lat="41.0062167" lon="14.3197233"><ele>21.166666666666668</ele><time>2026-04-12T07:58:57.037Z</time></trkpt><trkpt lat="41.006325" lon="14.3197567"><ele>21.333333333333332</ele><time>2026-04-12T07:58:59.036Z</time></trkpt><trkpt lat="41.0063867" lon="14.3197733"><ele>21.5</ele><time>2026-04-12T07:59:00.037Z</time></trkpt><trkpt lat="41.0064483" lon="14.3197967"><ele>21.666666666666664</ele><time>2026-04-12T07:59:01.036Z</time></trkpt><trkpt lat="41.0065633" lon="14.31983"><ele>21.833333333333332</ele><time>2026-04-12T07:59:03.037Z</time></trkpt><trkpt lat="41.0066483" lon="14.3198667"><ele>22.0</ele><time>2026-04-12T07:59:05.035Z</time></trkpt><trkpt lat="41.006735" lon="14.3198983"><ele>22.0</ele><time>2026-04-12T07:59:07.034Z</time></trkpt><trkpt lat="41.0068167" lon="14.3199367"><ele>22.0</ele><time>2026-04-12T07:59:09.035Z</time></trkpt><trkpt lat="41.0069083" lon="14.3199717"><ele>22.0</ele><time>2026-04-12T07:59:11.034Z</time></trkpt><trkpt lat="41.00699" lon="14.3199983"><ele>22.0</ele><time>2026-04-12T07:59:13.035Z</time></trkpt><trkpt lat="41.007055" lon="14.3199917"><ele>22.0</ele><time>2026-04-12T07:59:16.032Z</time></trkpt><trkpt lat="41.0071267" lon="14.3199867"><ele>22.0</ele><time>2026-04-12T07:59:19.035Z</time></trkpt><trkpt lat="41.007215" lon="14.3200367"><ele>22.0</ele><time>2026-04-12T07:59:22.033Z</time></trkpt><trkpt lat="41.007295" lon="14.32008"><ele>22.0</ele><time>2026-04-12T07:59:24.036Z</time></trkpt><trkpt lat="41.007385" lon="14.3201233"><ele>22.0</ele><time>2026-04-12T07:59:26.034Z</time></trkpt><trkpt lat="41.007485" lon="14.3201717"><ele>22.0</ele><time>2026-04-12T07:59:28.035Z</time></trkpt><trkpt lat="41.0075967" lon="14.320215"><ele>22.0</ele><time>2026-04-12T07:59:30.035Z</time></trkpt><trkpt lat="41.0076633" lon="14.32023"><ele>21.833333333333332</ele><time>2026-04-12T07:59:31.035Z</time></trkpt><trkpt lat="41.0077267" lon="14.32025"><ele>21.666666666666664</ele><time>2026-04-12T07:59:32.037Z</time></trkpt><trkpt lat="41.0077917" lon="14.32027"><ele>21.5</ele><time>2026-04-12T07:59:33.036Z</time></trkpt><trkpt lat="41.0078567" lon="14.3202883"><ele>21.333333333333332</ele><time>2026-04-12T07:59:34.036Z</time></trkpt><trkpt lat="41.007985" lon="14.3203217"><ele>21.166666666666668</ele><time>2026-04-12T07:59:36.036Z</time></trkpt><trkpt lat="41.0080467" lon="14.3203433"><ele>21.0</ele><time>2026-04-12T07:59:37.036Z</time></trkpt><trkpt lat="41.008165" lon="14.3203917"><ele>21.0</ele><time>2026-04-12T07:59:39.035Z</time></trkpt><trkpt lat="41.0082267" lon="14.3204167"><ele>21.0</ele><time>2026-04-12T07:59:40.035Z</time></trkpt><trkpt lat="41.0082867" lon="14.3204467"><ele>21.0</ele><time>2026-04-12T07:59:41.037Z</time></trkpt><trkpt lat="41.00841" lon="14.320495"><ele>21.0</ele><time>2026-04-12T07:59:43.033Z</time></trkpt><trkpt lat="41.0085317" lon="14.3205333"><ele>21.0</ele><time>2026-04-12T07:59:45.034Z</time></trkpt><trkpt lat="41.008595" lon="14.3205567"><ele>21.0</ele><time>2026-04-12T07:59:46.035Z</time></trkpt><trkpt lat="41.00866" lon="14.32058"><ele>21.142857142857142</ele><time>2026-04-12T07:59:47.036Z</time></trkpt><trkpt lat="41.0087233" lon="14.3206017"><ele>21.285714285714285</ele><time>2026-04-12T07:59:48.036Z</time></trkpt><trkpt lat="41.0087883" lon="14.3206267"><ele>21.42857142857143</ele><time>2026-04-12T07:59:49.036Z</time></trkpt><trkpt lat="41.008855" lon="14.3206517"><ele>21.57142857142857</ele><time>2026-04-12T07:59:50.034Z</time></trkpt><trkpt lat="41.00892" lon="14.3206767"><ele>21.714285714285715</ele><time>2026-04-12T07:59:51.033Z</time></trkpt><trkpt lat="41.0089833" lon="14.3206983"><ele>21.857142857142858</ele><time>2026-04-12T07:59:52.035Z</time></trkpt><trkpt lat="41.00905" lon="14.32072"><ele>22.0</ele><time>2026-04-12T07:59:53.036Z</time></trkpt><trkpt lat="41.009115" lon="14.32074"><ele>22.142857142857142</ele><time>2026-04-12T07:59:54.036Z</time></trkpt><trkpt lat="41.0091783" lon="14.3207617"><ele>22.285714285714285</ele><time>2026-04-12T07:59:55.035Z</time></trkpt><trkpt lat="41.0092467" lon="14.320785"><ele>22.42857142857143</ele><time>2026-04-12T07:59:56.036Z</time></trkpt><trkpt lat="41.0093117" lon="14.3208067"><ele>22.57142857142857</ele><time>2026-04-12T07:59:57.034Z</time></trkpt><trkpt lat="41.0093783" lon="14.3208367"><ele>22.71428571428571</ele><time>2026-04-12T07:59:58.035Z</time></trkpt><trkpt lat="41.0094433" lon="14.32086"><ele>22.857142857142858</ele><time>2026-04-12T07:59:59.036Z</time></trkpt><trkpt lat="41.0095083" lon="14.3208817"><ele>23.0</ele><time>2026-04-12T08:00:00.034Z</time></trkpt><trkpt lat="41.009575" lon="14.320905"><ele>23.0</ele><time>2026-04-12T08:00:01.034Z</time></trkpt><trkpt lat="41.0096433" lon="14.3209267"><ele>23.0</ele><time>2026-04-12T08:00:02.034Z</time></trkpt><trkpt lat="41.0097083" lon="14.32095"><ele>23.0</ele><time>2026-04-12T08:00:03.034Z</time></trkpt><trkpt lat="41.0097767" lon="14.320975"><ele>23.0</ele><time>2026-04-12T08:00:04.033Z</time></trkpt><trkpt lat="41.0098433" lon="14.3210017"><ele>23.0</ele><time>2026-04-12T08:00:05.033Z</time></trkpt><trkpt lat="41.00991" lon="14.321025"><ele>23.0</ele><time>2026-04-12T08:00:06.034Z</time></trkpt><trkpt lat="41.009975" lon="14.32105"><ele>23.0</ele><time>2026-04-12T08:00:07.034Z</time></trkpt><trkpt lat="41.0100433" lon="14.3210767"><ele>22.857142857142858</ele><time>2026-04-12T08:00:08.036Z</time></trkpt><trkpt lat="41.01011" lon="14.3211017"><ele>22.71428571428571</ele><time>2026-04-12T08:00:09.036Z</time></trkpt><trkpt lat="41.0101783" lon="14.321125"><ele>22.57142857142857</ele><time>2026-04-12T08:00:10.034Z</time></trkpt><trkpt lat="41.0102467" lon="14.3211467"><ele>22.42857142857143</ele><time>2026-04-12T08:00:11.036Z</time></trkpt><trkpt lat="41.0103133" lon="14.32117"><ele>22.285714285714285</ele><time>2026-04-12T08:00:12.034Z</time></trkpt><trkpt lat="41.01038" lon="14.3211967"><ele>22.142857142857142</ele><time>2026-04-12T08:00:13.035Z</time></trkpt><trkpt lat="41.0104417" lon="14.3212183"><ele>22.0</ele><time>2026-04-12T08:00:14.038Z</time></trkpt><trkpt lat="41.0105067" lon="14.3212417"><ele>22.0</ele><time>2026-04-12T08:00:15.036Z</time></trkpt><trkpt lat="41.01057" lon="14.3212617"><ele>22.0</ele><time>2026-04-12T08:00:16.034Z</time></trkpt><trkpt lat="41.0106317" lon="14.3212817"><ele>22.0</ele><time>2026-04-12T08:00:17.036Z</time></trkpt><trkpt lat="41.0106933" lon="14.3213083"><ele>22.0</ele><time>2026-04-12T08:00:18.036Z</time></trkpt><trkpt lat="41.0107533" lon="14.3213383"><ele>22.0</ele><time>2026-04-12T08:00:19.034Z</time></trkpt><trkpt lat="41.010865" lon="14.32141"><ele>22.0</ele><time>2026-04-12T08:00:21.036Z</time></trkpt><trkpt lat="41.0109733" lon="14.3214767"><ele>22.25</ele><time>2026-04-12T08:00:23.036Z</time></trkpt><trkpt lat="41.0110817" lon="14.3215367"><ele>22.5</ele><time>2026-04-12T08:00:25.036Z</time></trkpt><trkpt lat="41.0111867" lon="14.32161"><ele>22.75</ele><time>2026-04-12T08:00:27.036Z</time></trkpt><trkpt lat="41.011285" lon="14.32169"><ele>23.0</ele><time>2026-04-12T08:00:29.036Z</time></trkpt><trkpt lat="41.011375" lon="14.3217733"><ele>23.0</ele><time>2026-04-12T08:00:31.036Z</time></trkpt><trkpt lat="41.01146" lon="14.3218717"><ele>23.0</ele><time>2026-04-12T08:00:33.035Z</time></trkpt><trkpt lat="41.011545" lon="14.3219667"><ele>23.0</ele><time>2026-04-12T08:00:35.036Z</time></trkpt><trkpt lat="41.0116283" lon="14.3220633"><ele>23.0</ele><time>2026-04-12T08:00:37.034Z</time></trkpt><trkpt lat="41.011715" lon="14.3221567"><ele>23.0</ele><time>2026-04-12T08:00:39.034Z</time></trkpt><trkpt lat="41.0117983" lon="14.3222533"><ele>23.5</ele><time>2026-04-12T08:00:41.036Z</time></trkpt><trkpt lat="41.0118817" lon="14.3223533"><ele>24.0</ele><time>2026-04-12T08:00:43.036Z</time></trkpt><trkpt lat="41.01196" lon="14.3224433"><ele>24.5</ele><time>2026-04-12T08:00:45.036Z</time></trkpt><trkpt lat="41.012045" lon="14.322545"><ele>25.0</ele><time>2026-04-12T08:00:47.034Z</time></trkpt><trkpt lat="41.012135" lon="14.3226483"><ele>25.0</ele><time>2026-04-12T08:00:49.036Z</time></trkpt><trkpt lat="41.0122283" lon="14.3227517"><ele>25.0</ele><time>2026-04-12T08:00:51.035Z</time></trkpt><trkpt lat="41.0123167" lon="14.3228533"><ele>25.0</ele><time>2026-04-12T08:00:53.036Z</time></trkpt><trkpt lat="41.0124" lon="14.32295"><ele>25.0</ele><time>2026-04-12T08:00:55.037Z</time></trkpt><trkpt lat="41.0124867" lon="14.3230467"><ele>25.25</ele><time>2026-04-12T08:00:57.035Z</time></trkpt><trkpt lat="41.01257" lon="14.3231383"><ele>25.5</ele><time>2026-04-12T08:00:59.036Z</time></trkpt><trkpt lat="41.01266" lon="14.323235"><ele>25.75</ele><time>2026-04-12T08:01:01.034Z</time></trkpt><trkpt lat="41.01275" lon="14.32334"><ele>26.0</ele><time>2026-04-12T08:01:03.035Z</time></trkpt><trkpt lat="41.0128333" lon="14.3234383"><ele>26.0</ele><time>2026-04-12T08:01:05.035Z</time></trkpt><trkpt lat="41.0129133" lon="14.3235333"><ele>26.0</ele><time>2026-04-12T08:01:07.036Z</time></trkpt><trkpt lat="41.0129833" lon="14.3236267"><ele>26.0</ele><time>2026-04-12T08:01:09.036Z</time></trkpt><trkpt lat="41.01307" lon="14.3237133"><ele>26.0</ele><time>2026-04-12T08:01:11.035Z</time></trkpt><trkpt lat="41.0131567" lon="14.323805"><ele>26.0</ele><time>2026-04-12T08:01:13.036Z</time></trkpt><trkpt lat="41.013235" lon="14.32391"><ele>26.25</ele><time>2026-04-12T08:01:15.036Z</time></trkpt><trkpt lat="41.0133067" lon="14.3240217"><ele>26.5</ele><time>2026-04-12T08:01:17.036Z</time></trkpt><trkpt lat="41.013375" lon="14.3241467"><ele>26.75</ele><time>2026-04-12T08:01:19.034Z</time></trkpt><trkpt lat="41.013435" lon="14.3242783"><ele>27.0</ele><time>2026-04-12T08:01:21.035Z</time></trkpt><trkpt lat="41.0134817" lon="14.3244133"><ele>26.6</ele><time>2026-04-12T08:01:23.035Z</time></trkpt><trkpt lat="41.0135217" lon="14.3245533"><ele>26.200000000000003</ele><time>2026-04-12T08:01:25.037Z</time></trkpt><trkpt lat="41.013565" lon="14.3246933"><ele>25.8</ele><time>2026-04-12T08:01:27.034Z</time></trkpt><trkpt lat="41.0136117" lon="14.324825"><ele>25.4</ele><time>2026-04-12T08:01:29.035Z</time></trkpt><trkpt lat="41.0136583" lon="14.3249517"><ele>25.0</ele><time>2026-04-12T08:01:31.035Z</time></trkpt><trkpt lat="41.0136983" lon="14.325075"><ele>24.6</ele><time>2026-04-12T08:01:33.036Z</time></trkpt><trkpt lat="41.0137383" lon="14.3251967"><ele>24.2</ele><time>2026-04-12T08:01:35.035Z</time></trkpt><trkpt lat="41.0137783" lon="14.325315"><ele>23.799999999999997</ele><time>2026-04-12T08:01:37.036Z</time></trkpt><trkpt lat="41.013815" lon="14.3254317"><ele>23.4</ele><time>2026-04-12T08:01:39.033Z</time></trkpt><trkpt lat="41.01386" lon="14.32555"><ele>23.0</ele><time>2026-04-12T08:01:41.034Z</time></trkpt><trkpt lat="41.013905" lon="14.3256733"><ele>23.0</ele><time>2026-04-12T08:01:43.036Z</time></trkpt><trkpt lat="41.0139533" lon="14.3257933"><ele>23.0</ele><time>2026-04-12T08:01:45.033Z</time></trkpt><trkpt lat="41.0140033" lon="14.3259133"><ele>23.0</ele><time>2026-04-12T08:01:47.034Z</time></trkpt><trkpt lat="41.01406" lon="14.3260383"><ele>23.0</ele><time>2026-04-12T08:01:49.036Z</time></trkpt><trkpt lat="41.0141133" lon="14.326135"><ele>23.0</ele><time>2026-04-12T08:01:51.036Z</time></trkpt><trkpt lat="41.0141583" lon="14.3262333"><ele>23.0</ele><time>2026-04-12T08:01:53.036Z</time></trkpt><trkpt lat="41.014215" lon="14.3263067"><ele>23.0</ele><time>2026-04-12T08:01:55.034Z</time></trkpt><trkpt lat="41.0142767" lon="14.3263917"><ele>23.0</ele><time>2026-04-12T08:01:57.035Z</time></trkpt><trkpt lat="41.0143417" lon="14.3264767"><ele>23.0</ele><time>2026-04-12T08:01:59.034Z</time></trkpt><trkpt lat="41.0144083" lon="14.3265583"><ele>23.0</ele><time>2026-04-12T08:02:01.037Z</time></trkpt><trkpt lat="41.0144783" lon="14.32664"><ele>23.0</ele><time>2026-04-12T08:02:03.035Z</time></trkpt><trkpt lat="41.0145267" lon="14.3267133"><ele>23.0</ele><time>2026-04-12T08:02:05.036Z</time></trkpt><trkpt lat="41.0145567" lon="14.326805"><ele>23.0</ele><time>2026-04-12T08:02:08.036Z</time></trkpt><trkpt lat="41.01461" lon="14.32688"><ele>23.0</ele><time>2026-04-12T08:02:12.036Z</time></trkpt><trkpt lat="41.0147133" lon="14.3269333"><ele>23.0</ele><time>2026-04-12T08:21:20.035Z</time></trkpt><trkpt lat="41.0147817" lon="14.3269533"><ele>23.0</ele><time>2026-04-12T08:21:24.034Z</time></trkpt><trkpt lat="41.01486" lon="14.3269817"><ele>23.0</ele><time>2026-04-12T08:21:27.034Z</time></trkpt><trkpt lat="41.0149383" lon="14.3270333"><ele>23.0</ele><time>2026-04-12T08:21:30.034Z</time></trkpt><trkpt lat="41.0150233" lon="14.3270683"><ele>23.0</ele><time>2026-04-12T08:21:33.035Z</time></trkpt><trkpt lat="41.0150933" lon="14.3271183"><ele>23.0</ele><time>2026-04-12T08:21:35.034Z</time></trkpt><trkpt lat="41.0151667" lon="14.3271767"><ele>23.0</ele><time>2026-04-12T08:21:37.033Z</time></trkpt><trkpt lat="41.01524" lon="14.3272317"><ele>23.0</ele><time>2026-04-12T08:21:39.035Z</time></trkpt><trkpt lat="41.0153183" lon="14.3272917"><ele>23.0</ele><time>2026-04-12T08:21:41.034Z</time></trkpt><trkpt lat="41.0153967" lon="14.3273367"><ele>23.0</ele><time>2026-04-12T08:21:43.032Z</time></trkpt><trkpt lat="41.0154817" lon="14.3273817"><ele>23.0</ele><time>2026-04-12T08:21:45.033Z</time></trkpt><trkpt lat="41.0155683" lon="14.3274033"><ele>23.0</ele><time>2026-04-12T08:21:47.032Z</time></trkpt><trkpt lat="41.0156567" lon="14.3274133"><ele>23.0</ele><time>2026-04-12T08:21:49.033Z</time></trkpt><trkpt lat="41.0157517" lon="14.3274233"><ele>23.0</ele><time>2026-04-12T08:21:51.033Z</time></trkpt><trkpt lat="41.015845" lon="14.3274283"><ele>23.0</ele><time>2026-04-12T08:21:53.033Z</time></trkpt><trkpt lat="41.0159383" lon="14.3274367"><ele>23.0</ele><time>2026-04-12T08:21:55.034Z</time></trkpt><trkpt lat="41.0160367" lon="14.3274383"><ele>23.0</ele><time>2026-04-12T08:21:57.033Z</time></trkpt><trkpt lat="41.0161283" lon="14.3274483"><ele>23.0</ele><time>2026-04-12T08:21:59.036Z</time></trkpt><trkpt lat="41.016225" lon="14.3274583"><ele>23.0</ele><time>2026-04-12T08:22:01.034Z</time></trkpt><trkpt lat="41.0163267" lon="14.3274467"><ele>23.0</ele><time>2026-04-12T08:22:03.033Z</time></trkpt><trkpt lat="41.016425" lon="14.327435"><ele>23.0</ele><time>2026-04-12T08:22:05.035Z</time></trkpt><trkpt lat="41.016525" lon="14.3274267"><ele>23.0</ele><time>2026-04-12T08:22:07.036Z</time></trkpt><trkpt lat="41.0166217" lon="14.3274067"><ele>23.0</ele><time>2026-04-12T08:22:09.034Z</time></trkpt><trkpt lat="41.016715" lon="14.3273833"><ele>23.0</ele><time>2026-04-12T08:22:11.035Z</time></trkpt><trkpt lat="41.016815" lon="14.327375"><ele>23.0</ele><time>2026-04-12T08:22:13.034Z</time></trkpt><trkpt lat="41.0169167" lon="14.3273633"><ele>23.0</ele><time>2026-04-12T08:22:15.033Z</time></trkpt><trkpt lat="41.01701" lon="14.32735"><ele>23.0</ele><time>2026-04-12T08:22:17.035Z</time></trkpt><trkpt lat="41.0171033" lon="14.327345"><ele>23.0</ele><time>2026-04-12T08:22:19.034Z</time></trkpt><trkpt lat="41.0171967" lon="14.327335"><ele>23.0</ele><time>2026-04-12T08:22:21.033Z</time></trkpt><trkpt lat="41.0172833" lon="14.327315"><ele>23.0</ele><time>2026-04-12T08:22:23.035Z</time></trkpt><trkpt lat="41.0173533" lon="14.3272967"><ele>23.0</ele><time>2026-04-12T08:22:25.032Z</time></trkpt><trkpt lat="41.01744" lon="14.3272867"><ele>23.0</ele><time>2026-04-12T08:22:27.035Z</time></trkpt><trkpt lat="41.0175333" lon="14.327275"><ele>23.0</ele><time>2026-04-12T08:22:29.033Z</time></trkpt><trkpt lat="41.01762" lon="14.327265"><ele>23.0</ele><time>2026-04-12T08:22:31.034Z</time></trkpt><trkpt lat="41.0177117" lon="14.3272567"><ele>23.0</ele><time>2026-04-12T08:22:33.035Z</time></trkpt><trkpt lat="41.0177983" lon="14.3272417"><ele>23.0</ele><time>2026-04-12T08:22:35.034Z</time></trkpt><trkpt lat="41.0178783" lon="14.3272233"><ele>23.0</ele><time>2026-04-12T08:22:37.035Z</time></trkpt><trkpt lat="41.0179667" lon="14.3272017"><ele>23.0</ele><time>2026-04-12T08:22:39.034Z</time></trkpt><trkpt lat="41.0180483" lon="14.327185"><ele>23.0</ele><time>2026-04-12T08:22:41.034Z</time></trkpt><trkpt lat="41.0181217" lon="14.32716"><ele>23.0</ele><time>2026-04-12T08:22:43.035Z</time></trkpt><trkpt lat="41.0182083" lon="14.327145"><ele>23.0</ele><time>2026-04-12T08:22:45.033Z</time></trkpt><trkpt lat="41.0182933" lon="14.3271317"><ele>23.166666666666668</ele><time>2026-04-12T08:22:47.036Z</time></trkpt><trkpt lat="41.0183883" lon="14.3271133"><ele>23.333333333333336</ele><time>2026-04-12T08:22:49.033Z</time></trkpt><trkpt lat="41.0184683" lon="14.3271"><ele>23.5</ele><time>2026-04-12T08:22:51.034Z</time></trkpt><trkpt lat="41.0185417" lon="14.3270867"><ele>23.666666666666668</ele><time>2026-04-12T08:22:53.035Z</time></trkpt><trkpt lat="41.018635" lon="14.3270717"><ele>23.833333333333332</ele><time>2026-04-12T08:22:56.035Z</time></trkpt><trkpt lat="41.0187167" lon="14.3270583"><ele>24.0</ele><time>2026-04-12T08:22:58.037Z</time></trkpt><trkpt lat="41.0187967" lon="14.3270467"><ele>24.0</ele><time>2026-04-12T08:23:00.034Z</time></trkpt><trkpt lat="41.0188817" lon="14.3270317"><ele>24.0</ele><time>2026-04-12T08:23:02.034Z</time></trkpt><trkpt lat="41.018965" lon="14.327015"><ele>24.0</ele><time>2026-04-12T08:23:04.032Z</time></trkpt><trkpt lat="41.0190517" lon="14.326995"><ele>24.0</ele><time>2026-04-12T08:23:06.033Z</time></trkpt><trkpt lat="41.0191383" lon="14.3269683"><ele>24.0</ele><time>2026-04-12T08:23:08.035Z</time></trkpt><trkpt lat="41.0192183" lon="14.3269333"><ele>24.0</ele><time>2026-04-12T08:23:10.035Z</time></trkpt><trkpt lat="41.0192967" lon="14.3268983"><ele>24.333333333333332</ele><time>2026-04-12T08:23:12.034Z</time></trkpt><trkpt lat="41.019375" lon="14.3268583"><ele>24.666666666666664</ele><time>2026-04-12T08:23:14.035Z</time></trkpt><trkpt lat="41.0194533" lon="14.3268133"><ele>25.0</ele><time>2026-04-12T08:23:16.033Z</time></trkpt><trkpt lat="41.019535" lon="14.3267633"><ele>25.333333333333332</ele><time>2026-04-12T08:23:18.035Z</time></trkpt><trkpt lat="41.0196183" lon="14.3267217"><ele>25.666666666666664</ele><time>2026-04-12T08:23:20.034Z</time></trkpt><trkpt lat="41.0196917" lon="14.326685"><ele>26.0</ele><time>2026-04-12T08:23:22.034Z</time></trkpt><trkpt lat="41.0197667" lon="14.3266367"><ele>25.999999999999996</ele><time>2026-04-12T08:23:24.034Z</time></trkpt><trkpt lat="41.0198333" lon="14.3265783"><ele>26.0</ele><time>2026-04-12T08:23:26.035Z</time></trkpt><trkpt lat="41.01989" lon="14.3265417"><ele>26.0</ele><time>2026-04-12T08:23:28.034Z</time></trkpt><trkpt lat="41.0199683" lon="14.326475"><ele>26.0</ele><time>2026-04-12T08:23:31.036Z</time></trkpt><trkpt lat="41.020015" lon="14.326395"><ele>25.999999999999996</ele><time>2026-04-12T08:23:33.034Z</time></trkpt><trkpt lat="41.020065" lon="14.3262983"><ele>26.0</ele><time>2026-04-12T08:23:35.033Z</time></trkpt><trkpt lat="41.0201233" lon="14.3261917"><ele>26.200000000000003</ele><time>2026-04-12T08:23:37.032Z</time></trkpt><trkpt lat="41.02018" lon="14.3260783"><ele>26.400000000000002</ele><time>2026-04-12T08:23:39.032Z</time></trkpt><trkpt lat="41.02025" lon="14.3259783"><ele>26.6</ele><time>2026-04-12T08:23:41.034Z</time></trkpt><trkpt lat="41.0203167" lon="14.32587"><ele>26.8</ele><time>2026-04-12T08:23:43.035Z</time></trkpt><trkpt lat="41.020375" lon="14.325745"><ele>27.0</ele><time>2026-04-12T08:23:45.035Z</time></trkpt><trkpt lat="41.0204083" lon="14.325605"><ele>26.6</ele><time>2026-04-12T08:23:47.034Z</time></trkpt><trkpt lat="41.02041" lon="14.3254617"><ele>26.200000000000003</ele><time>2026-04-12T08:23:49.034Z</time></trkpt><trkpt lat="41.0203717" lon="14.3253017"><ele>25.8</ele><time>2026-04-12T08:23:51.034Z</time></trkpt><trkpt lat="41.0203017" lon="14.3251667"><ele>25.4</ele><time>2026-04-12T08:23:53.034Z</time></trkpt><trkpt lat="41.0202517" lon="14.325115"><ele>25.0</ele><time>2026-04-12T08:23:54.035Z</time></trkpt><trkpt lat="41.0201467" lon="14.3250383"><ele>25.0</ele><time>2026-04-12T08:23:56.035Z</time></trkpt><trkpt lat="41.02003" lon="14.3250017"><ele>25.0</ele><time>2026-04-12T08:23:58.034Z</time></trkpt><trkpt lat="41.0199117" lon="14.3249833"><ele>25.0</ele><time>2026-04-12T08:24:00.034Z</time></trkpt><trkpt lat="41.0197933" lon="14.3249783"><ele>25.0</ele><time>2026-04-12T08:24:02.032Z</time></trkpt><trkpt lat="41.019675" lon="14.3249833"><ele>24.6</ele><time>2026-04-12T08:24:04.033Z</time></trkpt><trkpt lat="41.0195567" lon="14.324985"><ele>24.2</ele><time>2026-04-12T08:24:06.035Z</time></trkpt><trkpt lat="41.0194333" lon="14.3249883"><ele>23.799999999999997</ele><time>2026-04-12T08:24:08.035Z</time></trkpt><trkpt lat="41.0193667" lon="14.3249917"><ele>23.4</ele><time>2026-04-12T08:24:09.034Z</time></trkpt><trkpt lat="41.019245" lon="14.3249917"><ele>23.0</ele><time>2026-04-12T08:24:11.033Z</time></trkpt><trkpt lat="41.0191817" lon="14.32499"><ele>23.2</ele><time>2026-04-12T08:24:12.034Z</time></trkpt><trkpt lat="41.0190633" lon="14.324995"><ele>23.4</ele><time>2026-04-12T08:24:14.035Z</time></trkpt><trkpt lat="41.0189417" lon="14.3250017"><ele>23.599999999999998</ele><time>2026-04-12T08:24:16.035Z</time></trkpt><trkpt lat="41.0188183" lon="14.3249983"><ele>23.799999999999997</ele><time>2026-04-12T08:24:18.035Z</time></trkpt><trkpt lat="41.018755" lon="14.3249983"><ele>24.0</ele><time>2026-04-12T08:24:19.033Z</time></trkpt><trkpt lat="41.0186367" lon="14.3250033"><ele>24.0</ele><time>2026-04-12T08:24:21.032Z</time></trkpt><trkpt lat="41.0185733" lon="14.3250067"><ele>24.0</ele><time>2026-04-12T08:24:22.035Z</time></trkpt><trkpt lat="41.01845" lon="14.3250067"><ele>24.0</ele><time>2026-04-12T08:24:24.035Z</time></trkpt><trkpt lat="41.018385" lon="14.325"><ele>24.0</ele><time>2026-04-12T08:24:25.035Z</time></trkpt><trkpt lat="41.01832" lon="14.3249983"><ele>24.0</ele><time>2026-04-12T08:24:26.033Z</time></trkpt><trkpt lat="41.0182517" lon="14.3249933"><ele>24.0</ele><time>2026-04-12T08:24:27.035Z</time></trkpt><trkpt lat="41.018185" lon="14.32499"><ele>23.75</ele><time>2026-04-12T08:24:28.035Z</time></trkpt><trkpt lat="41.0180617" lon="14.3249883"><ele>23.5</ele><time>2026-04-12T08:24:30.034Z</time></trkpt><trkpt lat="41.0179417" lon="14.32499"><ele>23.25</ele><time>2026-04-12T08:24:32.035Z</time></trkpt><trkpt lat="41.0178167" lon="14.3249933"><ele>23.0</ele><time>2026-04-12T08:24:34.034Z</time></trkpt><trkpt lat="41.017695" lon="14.32499"><ele>23.0</ele><time>2026-04-12T08:24:36.035Z</time></trkpt><trkpt lat="41.01757" lon="14.3249867"><ele>23.0</ele><time>2026-04-12T08:24:38.035Z</time></trkpt><trkpt lat="41.0175067" lon="14.3249883"><ele>23.0</ele><time>2026-04-12T08:24:39.034Z</time></trkpt><trkpt lat="41.0174383" lon="14.3249883"><ele>23.0</ele><time>2026-04-12T08:24:40.034Z</time></trkpt><trkpt lat="41.0173733" lon="14.32499"><ele>23.0</ele><time>2026-04-12T08:24:41.033Z</time></trkpt><trkpt lat="41.0173033" lon="14.3249917"><ele>23.0</ele><time>2026-04-12T08:24:42.035Z</time></trkpt><trkpt lat="41.0172383" lon="14.3249967"><ele>23.599999999999998</ele><time>2026-04-12T08:24:43.033Z</time></trkpt><trkpt lat="41.01711" lon="14.3250067"><ele>24.2</ele><time>2026-04-12T08:24:45.035Z</time></trkpt><trkpt lat="41.01698" lon="14.3249967"><ele>24.8</ele><time>2026-04-12T08:24:47.035Z</time></trkpt><trkpt lat="41.0169167" lon="14.3249933"><ele>25.4</ele><time>2026-04-12T08:24:48.033Z</time></trkpt><trkpt lat="41.01685" lon="14.3249933"><ele>26.0</ele><time>2026-04-12T08:24:49.034Z</time></trkpt><trkpt lat="41.016725" lon="14.3249933"><ele>25.999999999999996</ele><time>2026-04-12T08:24:51.034Z</time></trkpt><trkpt lat="41.0166617" lon="14.324995"><ele>26.0</ele><time>2026-04-12T08:24:52.034Z</time></trkpt><trkpt lat="41.0165367" lon="14.3249867"><ele>26.0</ele><time>2026-04-12T08:24:54.034Z</time></trkpt><trkpt lat="41.016415" lon="14.3249867"><ele>26.0</ele><time>2026-04-12T08:24:56.034Z</time></trkpt><trkpt lat="41.0163467" lon="14.3249883"><ele>25.999999999999996</ele><time>2026-04-12T08:24:57.033Z</time></trkpt><trkpt lat="41.01628" lon="14.3249917"><ele>26.0</ele><time>2026-04-12T08:24:58.033Z</time></trkpt><trkpt lat="41.016215" lon="14.3249933"><ele>25.71428571428571</ele><time>2026-04-12T08:24:59.035Z</time></trkpt><trkpt lat="41.01615" lon="14.3249933"><ele>25.42857142857143</ele><time>2026-04-12T08:25:00.032Z</time></trkpt><trkpt lat="41.0160833" lon="14.3249967"><ele>25.142857142857142</ele><time>2026-04-12T08:25:01.035Z</time></trkpt><trkpt lat="41.01602" lon="14.3250017"><ele>24.857142857142854</ele><time>2026-04-12T08:25:02.033Z</time></trkpt><trkpt lat="41.0159533" lon="14.325005"><ele>24.57142857142857</ele><time>2026-04-12T08:25:03.035Z</time></trkpt><trkpt lat="41.01589" lon="14.3250033"><ele>24.285714285714285</ele><time>2026-04-12T08:25:04.034Z</time></trkpt><trkpt lat="41.0157683" lon="14.325005"><ele>24.0</ele><time>2026-04-12T08:25:06.035Z</time></trkpt><trkpt lat="41.0156483" lon="14.3250017"><ele>24.0</ele><time>2026-04-12T08:25:08.035Z</time></trkpt><trkpt lat="41.015585" lon="14.3249983"><ele>24.0</ele><time>2026-04-12T08:25:09.035Z</time></trkpt><trkpt lat="41.0155217" lon="14.3249917"><ele>24.0</ele><time>2026-04-12T08:25:10.034Z</time></trkpt><trkpt lat="41.0154033" lon="14.3249667"><ele>24.0</ele><time>2026-04-12T08:25:12.034Z</time></trkpt><trkpt lat="41.01528" lon="14.32494"><ele>24.0</ele><time>2026-04-12T08:25:14.036Z</time></trkpt><trkpt lat="41.0152167" lon="14.3249267"><ele>24.0</ele><time>2026-04-12T08:25:15.035Z</time></trkpt><trkpt lat="41.0151533" lon="14.3249117"><ele>24.0</ele><time>2026-04-12T08:25:16.035Z</time></trkpt><trkpt lat="41.0150317" lon="14.3248833"><ele>24.0</ele><time>2026-04-12T08:25:18.034Z</time></trkpt><trkpt lat="41.01497" lon="14.324865"><ele>24.0</ele><time>2026-04-12T08:25:19.034Z</time></trkpt><trkpt lat="41.0148533" lon="14.3248283"><ele>24.0</ele><time>2026-04-12T08:25:21.034Z</time></trkpt><trkpt lat="41.0147417" lon="14.3247967"><ele>24.0</ele><time>2026-04-12T08:25:23.034Z</time></trkpt><trkpt lat="41.0146367" lon="14.32475"><ele>24.2</ele><time>2026-04-12T08:25:25.035Z</time></trkpt><trkpt lat="41.01453" lon="14.324695"><ele>24.4</ele><time>2026-04-12T08:25:27.033Z</time></trkpt><trkpt lat="41.01443" lon="14.3246417"><ele>24.6</ele><time>2026-04-12T08:25:29.034Z</time></trkpt><trkpt lat="41.014325" lon="14.3246217"><ele>24.8</ele><time>2026-04-12T08:25:31.033Z</time></trkpt><trkpt lat="41.0142483" lon="14.3245067"><ele>25.0</ele><time>2026-04-12T08:25:33.034Z</time></trkpt><trkpt lat="41.0141983" lon="14.32445"><ele>25.0</ele><time>2026-04-12T08:25:34.032Z</time></trkpt><trkpt lat="41.0141017" lon="14.324365"><ele>25.0</ele><time>2026-04-12T08:25:36.035Z</time></trkpt><trkpt lat="41.014045" lon="14.3243217"><ele>25.0</ele><time>2026-04-12T08:25:37.035Z</time></trkpt><trkpt lat="41.0139333" lon="14.3242383"><ele>25.0</ele><time>2026-04-12T08:25:39.034Z</time></trkpt><trkpt lat="41.0138217" lon="14.3241617"><ele>25.0</ele><time>2026-04-12T08:25:41.034Z</time></trkpt><trkpt lat="41.013765" lon="14.3241233"><ele>25.0</ele><time>2026-04-12T08:25:42.034Z</time></trkpt><trkpt lat="41.01366" lon="14.324045"><ele>25.0</ele><time>2026-04-12T08:25:44.035Z</time></trkpt><trkpt lat="41.0135583" lon="14.323965"><ele>25.0</ele><time>2026-04-12T08:25:46.032Z</time></trkpt><trkpt lat="41.0134683" lon="14.323885"><ele>25.0</ele><time>2026-04-12T08:25:48.034Z</time></trkpt><trkpt lat="41.0133933" lon="14.323815"><ele>25.0</ele><time>2026-04-12T08:25:50.034Z</time></trkpt><trkpt lat="41.0133167" lon="14.3237467"><ele>25.2</ele><time>2026-04-12T08:25:52.035Z</time></trkpt><trkpt lat="41.013235" lon="14.3236983"><ele>25.4</ele><time>2026-04-12T08:25:54.034Z</time></trkpt><trkpt lat="41.0131517" lon="14.3236417"><ele>25.6</ele><time>2026-04-12T08:25:56.034Z</time></trkpt><trkpt lat="41.0130733" lon="14.32356"><ele>25.8</ele><time>2026-04-12T08:25:58.034Z</time></trkpt><trkpt lat="41.0129833" lon="14.3234717"><ele>26.0</ele><time>2026-04-12T08:26:00.033Z</time></trkpt><trkpt lat="41.0129017" lon="14.323385"><ele>26.0</ele><time>2026-04-12T08:26:02.035Z</time></trkpt><trkpt lat="41.0128333" lon="14.323305"><ele>26.0</ele><time>2026-04-12T08:26:04.035Z</time></trkpt><trkpt lat="41.0127567" lon="14.323215"><ele>26.0</ele><time>2026-04-12T08:26:06.036Z</time></trkpt><trkpt lat="41.01268" lon="14.3231217"><ele>26.0</ele><time>2026-04-12T08:26:08.035Z</time></trkpt><trkpt lat="41.0126067" lon="14.3230433"><ele>26.0</ele><time>2026-04-12T08:26:10.032Z</time></trkpt><trkpt lat="41.0125367" lon="14.3229617"><ele>25.833333333333332</ele><time>2026-04-12T08:26:12.034Z</time></trkpt><trkpt lat="41.0124783" lon="14.32289"><ele>25.666666666666664</ele><time>2026-04-12T08:26:14.034Z</time></trkpt><trkpt lat="41.0124233" lon="14.3228233"><ele>25.5</ele><time>2026-04-12T08:26:16.033Z</time></trkpt><trkpt lat="41.012365" lon="14.3227517"><ele>25.333333333333336</ele><time>2026-04-12T08:26:18.035Z</time></trkpt><trkpt lat="41.0123033" lon="14.3226767"><ele>25.166666666666668</ele><time>2026-04-12T08:26:20.037Z</time></trkpt><trkpt lat="41.0122367" lon="14.3225967"><ele>25.0</ele><time>2026-04-12T08:26:22.034Z</time></trkpt><trkpt lat="41.0121633" lon="14.3225183"><ele>25.0</ele><time>2026-04-12T08:26:24.034Z</time></trkpt><trkpt lat="41.0120833" lon="14.3224333"><ele>25.0</ele><time>2026-04-12T08:26:26.035Z</time></trkpt><trkpt lat="41.0120117" lon="14.3223533"><ele>25.0</ele><time>2026-04-12T08:26:28.033Z</time></trkpt><trkpt lat="41.0119333" lon="14.3222767"><ele>25.0</ele><time>2026-04-12T08:26:30.033Z</time></trkpt><trkpt lat="41.0118583" lon="14.3222017"><ele>25.0</ele><time>2026-04-12T08:26:32.034Z</time></trkpt><trkpt lat="41.01179" lon="14.3221183"><ele>24.666666666666668</ele><time>2026-04-12T08:26:34.033Z</time></trkpt><trkpt lat="41.01174" lon="14.3220433"><ele>24.333333333333336</ele><time>2026-04-12T08:26:36.034Z</time></trkpt><trkpt lat="41.0116817" lon="14.3219467"><ele>24.0</ele><time>2026-04-12T08:26:39.033Z</time></trkpt><trkpt lat="41.0116183" lon="14.3218817"><ele>23.666666666666668</ele><time>2026-04-12T08:26:41.034Z</time></trkpt><trkpt lat="41.01154" lon="14.3218167"><ele>23.333333333333336</ele><time>2026-04-12T08:26:43.034Z</time></trkpt><trkpt lat="41.0114567" lon="14.3217283"><ele>23.0</ele><time>2026-04-12T08:26:45.035Z</time></trkpt><trkpt lat="41.011385" lon="14.3216367"><ele>23.0</ele><time>2026-04-12T08:26:47.033Z</time></trkpt><trkpt lat="41.0113" lon="14.321545"><ele>23.0</ele><time>2026-04-12T08:26:49.033Z</time></trkpt><trkpt lat="41.011215" lon="14.3214283"><ele>23.0</ele><time>2026-04-12T08:26:51.034Z</time></trkpt><trkpt lat="41.0111333" lon="14.321315"><ele>23.0</ele><time>2026-04-12T08:26:53.034Z</time></trkpt><trkpt lat="41.011045" lon="14.3212217"><ele>22.799999999999997</ele><time>2026-04-12T08:26:55.035Z</time></trkpt><trkpt lat="41.0109533" lon="14.3211267"><ele>22.6</ele><time>2026-04-12T08:26:57.034Z</time></trkpt><trkpt lat="41.01087" lon="14.32104"><ele>22.4</ele><time>2026-04-12T08:26:59.035Z</time></trkpt><trkpt lat="41.010795" lon="14.3209717"><ele>22.200000000000003</ele><time>2026-04-12T08:27:01.034Z</time></trkpt><trkpt lat="41.0107517" lon="14.3209067"><ele>22.0</ele><time>2026-04-12T08:27:03.032Z</time></trkpt><trkpt lat="41.0106917" lon="14.3208067"><ele>22.0</ele><time>2026-04-12T08:27:06.035Z</time></trkpt><trkpt lat="41.0106283" lon="14.3207317"><ele>22.0</ele><time>2026-04-12T08:27:08.033Z</time></trkpt><trkpt lat="41.010565" lon="14.3206517"><ele>22.0</ele><time>2026-04-12T08:27:10.035Z</time></trkpt><trkpt lat="41.0104983" lon="14.32059"><ele>22.0</ele><time>2026-04-12T08:27:12.034Z</time></trkpt><trkpt lat="41.0104267" lon="14.3205467"><ele>22.0</ele><time>2026-04-12T08:27:16.035Z</time></trkpt><trkpt lat="41.0103833" lon="14.3204767"><ele>22.0</ele><time>2026-04-12T08:27:22.033Z</time></trkpt><trkpt lat="41.0103267" lon="14.3204017"><ele>22.166666666666664</ele><time>2026-04-12T08:27:26.035Z</time></trkpt><trkpt lat="41.0102517" lon="14.3203833"><ele>22.333333333333332</ele><time>2026-04-12T08:27:28.034Z</time></trkpt><trkpt lat="41.0101683" lon="14.320365"><ele>22.5</ele><time>2026-04-12T08:27:30.034Z</time></trkpt><trkpt lat="41.0100817" lon="14.3203367"><ele>22.666666666666668</ele><time>2026-04-12T08:27:32.035Z</time></trkpt><trkpt lat="41.0099817" lon="14.320305"><ele>22.833333333333336</ele><time>2026-04-12T08:27:34.034Z</time></trkpt><trkpt lat="41.0099033" lon="14.3202667"><ele>23.0</ele><time>2026-04-12T08:27:36.033Z</time></trkpt><trkpt lat="41.0098217" lon="14.3202267"><ele>22.4</ele><time>2026-04-12T08:27:38.036Z</time></trkpt><trkpt lat="41.0097267" lon="14.3201883"><ele>21.799999999999997</ele><time>2026-04-12T08:27:40.032Z</time></trkpt><trkpt lat="41.0096383" lon="14.320145"><ele>21.2</ele><time>2026-04-12T08:27:42.035Z</time></trkpt><trkpt lat="41.0095417" lon="14.3201067"><ele>20.6</ele><time>2026-04-12T08:27:44.035Z</time></trkpt><trkpt lat="41.00945" lon="14.3200717"><ele>20.0</ele><time>2026-04-12T08:27:46.035Z</time></trkpt><trkpt lat="41.0093617" lon="14.3200383"><ele>20.0</ele><time>2026-04-12T08:27:48.034Z</time></trkpt><trkpt lat="41.0092833" lon="14.3199917"><ele>20.0</ele><time>2026-04-12T08:27:50.034Z</time></trkpt><trkpt lat="41.009205" lon="14.3199583"><ele>20.0</ele><time>2026-04-12T08:27:52.033Z</time></trkpt><trkpt lat="41.00913" lon="14.3199217"><ele>20.0</ele><time>2026-04-12T08:27:54.035Z</time></trkpt><trkpt lat="41.0090217" lon="14.31989"><ele>20.0</ele><time>2026-04-12T08:27:56.034Z</time></trkpt><trkpt lat="41.0089167" lon="14.3198617"><ele>20.0</ele><time>2026-04-12T08:27:58.033Z</time></trkpt><trkpt lat="41.0088033" lon="14.3198333"><ele>20.0</ele><time>2026-04-12T08:28:00.035Z</time></trkpt><trkpt lat="41.0086967" lon="14.3197983"><ele>20.0</ele><time>2026-04-12T08:28:02.035Z</time></trkpt><trkpt lat="41.0085967" lon="14.3197717"><ele>20.0</ele><time>2026-04-12T08:28:04.033Z</time></trkpt><trkpt lat="41.0085" lon="14.3197417"><ele>20.0</ele><time>2026-04-12T08:28:06.036Z</time></trkpt><trkpt lat="41.0084167" lon="14.3197133"><ele>20.0</ele><time>2026-04-12T08:28:08.035Z</time></trkpt><trkpt lat="41.0083317" lon="14.3196883"><ele>20.0</ele><time>2026-04-12T08:28:10.034Z</time></trkpt><trkpt lat="41.0082333" lon="14.3196583"><ele>20.0</ele><time>2026-04-12T08:28:12.034Z</time></trkpt><trkpt lat="41.008125" lon="14.3196167"><ele>20.0</ele><time>2026-04-12T08:28:14.034Z</time></trkpt><trkpt lat="41.0080167" lon="14.3195783"><ele>20.0</ele><time>2026-04-12T08:28:16.034Z</time></trkpt><trkpt lat="41.0079133" lon="14.319545"><ele>20.0</ele><time>2026-04-12T08:28:18.034Z</time></trkpt><trkpt lat="41.0078067" lon="14.319505"><ele>20.0</ele><time>2026-04-12T08:28:20.035Z</time></trkpt><trkpt lat="41.0077033" lon="14.31946"><ele>20.0</ele><time>2026-04-12T08:28:22.034Z</time></trkpt><trkpt lat="41.0075933" lon="14.3194217"><ele>20.0</ele><time>2026-04-12T08:28:24.035Z</time></trkpt><trkpt lat="41.0074933" lon="14.319385"><ele>20.0</ele><time>2026-04-12T08:28:26.035Z</time></trkpt><trkpt lat="41.0074267" lon="14.3193783"><ele>20.5</ele><time>2026-04-12T08:28:27.034Z</time></trkpt><trkpt lat="41.00731" lon="14.3193517"><ele>21.0</ele><time>2026-04-12T08:28:29.035Z</time></trkpt><trkpt lat="41.0071933" lon="14.3193167"><ele>21.5</ele><time>2026-04-12T08:28:31.034Z</time></trkpt><trkpt lat="41.007075" lon="14.31928"><ele>22.0</ele><time>2026-04-12T08:28:33.034Z</time></trkpt><trkpt lat="41.00697" lon="14.31923"><ele>22.0</ele><time>2026-04-12T08:28:35.032Z</time></trkpt><trkpt lat="41.0068617" lon="14.3191733"><ele>22.0</ele><time>2026-04-12T08:28:37.033Z</time></trkpt><trkpt lat="41.0067367" lon="14.31912"><ele>22.0</ele><time>2026-04-12T08:28:39.035Z</time></trkpt><trkpt lat="41.0066717" lon="14.3191017"><ele>22.0</ele><time>2026-04-12T08:28:40.034Z</time></trkpt><trkpt lat="41.0065617" lon="14.3190767"><ele>22.0</ele><time>2026-04-12T08:28:42.035Z</time></trkpt><trkpt lat="41.0064567" lon="14.3190383"><ele>21.8</ele><time>2026-04-12T08:28:44.034Z</time></trkpt><trkpt lat="41.0063533" lon="14.3189867"><ele>21.6</ele><time>2026-04-12T08:28:46.034Z</time></trkpt><trkpt lat="41.00626" lon="14.3189083"><ele>21.400000000000002</ele><time>2026-04-12T08:28:48.035Z</time></trkpt><trkpt lat="41.0061733" lon="14.3188083"><ele>21.200000000000003</ele><time>2026-04-12T08:28:50.034Z</time></trkpt><trkpt lat="41.0061167" lon="14.318695"><ele>21.0</ele><time>2026-04-12T08:28:52.033Z</time></trkpt><trkpt lat="41.0060567" lon="14.318585"><ele>21.0</ele><time>2026-04-12T08:28:54.032Z</time></trkpt><trkpt lat="41.0059733" lon="14.3184933"><ele>21.0</ele><time>2026-04-12T08:28:56.035Z</time></trkpt><trkpt lat="41.00588" lon="14.3184433"><ele>21.0</ele><time>2026-04-12T08:28:58.034Z</time></trkpt><trkpt lat="41.0057767" lon="14.3184667"><ele>21.0</ele><time>2026-04-12T08:29:00.035Z</time></trkpt><trkpt lat="41.0056767" lon="14.3185333"><ele>21.0</ele><time>2026-04-12T08:29:02.035Z</time></trkpt><trkpt lat="41.0055867" lon="14.31861"><ele>20.833333333333332</ele><time>2026-04-12T08:29:04.034Z</time></trkpt><trkpt lat="41.0055167" lon="14.3187117"><ele>20.666666666666668</ele><time>2026-04-12T08:29:06.033Z</time></trkpt><trkpt lat="41.00546" lon="14.3188133"><ele>20.5</ele><time>2026-04-12T08:29:08.033Z</time></trkpt><trkpt lat="41.0054283" lon="14.31889"><ele>20.333333333333336</ele><time>2026-04-12T08:29:18.035Z</time></trkpt><trkpt lat="41.0053517" lon="14.3189583"><ele>20.166666666666668</ele><time>2026-04-12T08:29:21.035Z</time></trkpt><trkpt lat="41.005285" lon="14.3190117"><ele>20.0</ele><time>2026-04-12T08:29:23.034Z</time></trkpt><trkpt lat="41.0052067" lon="14.3190583"><ele>20.4</ele><time>2026-04-12T08:29:25.033Z</time></trkpt><trkpt lat="41.005115" lon="14.3190883"><ele>20.8</ele><time>2026-04-12T08:29:27.034Z</time></trkpt><trkpt lat="41.005015" lon="14.3190967"><ele>21.200000000000003</ele><time>2026-04-12T08:29:29.034Z</time></trkpt><trkpt lat="41.0049133" lon="14.31909"><ele>21.6</ele><time>2026-04-12T08:29:31.035Z</time></trkpt><trkpt lat="41.004815" lon="14.31907"><ele>22.0</ele><time>2026-04-12T08:29:33.035Z</time></trkpt><trkpt lat="41.0047183" lon="14.3190367"><ele>22.200000000000003</ele><time>2026-04-12T08:29:35.034Z</time></trkpt><trkpt lat="41.004615" lon="14.3190117"><ele>22.4</ele><time>2026-04-12T08:29:37.034Z</time></trkpt><trkpt lat="41.0045083" lon="14.3189783"><ele>22.6</ele><time>2026-04-12T08:29:39.035Z</time></trkpt><trkpt lat="41.004405" lon="14.3189417"><ele>22.799999999999997</ele><time>2026-04-12T08:29:41.035Z</time></trkpt><trkpt lat="41.004305" lon="14.3189117"><ele>23.0</ele><time>2026-04-12T08:29:43.035Z</time></trkpt><trkpt lat="41.004195" lon="14.3188867"><ele>22.0</ele><time>2026-04-12T08:29:45.035Z</time></trkpt><trkpt lat="41.0040867" lon="14.3188683"><ele>21.0</ele><time>2026-04-12T08:29:47.035Z</time></trkpt><trkpt lat="41.003975" lon="14.3188517"><ele>20.0</ele><time>2026-04-12T08:29:49.035Z</time></trkpt><trkpt lat="41.0038617" lon="14.3188283"><ele>19.0</ele><time>2026-04-12T08:29:51.035Z</time></trkpt><trkpt lat="41.00375" lon="14.3188033"><ele>19.0</ele><time>2026-04-12T08:29:53.034Z</time></trkpt><trkpt lat="41.003635" lon="14.3187817"><ele>19.0</ele><time>2026-04-12T08:29:55.035Z</time></trkpt><trkpt lat="41.0035217" lon="14.318755"><ele>19.0</ele><time>2026-04-12T08:29:57.035Z</time></trkpt><trkpt lat="41.0034033" lon="14.318735"><ele>19.0</ele><time>2026-04-12T08:29:59.032Z</time></trkpt><trkpt lat="41.00329" lon="14.3187233"><ele>19.75</ele><time>2026-04-12T08:30:01.035Z</time></trkpt><trkpt lat="41.003175" lon="14.31871"><ele>20.5</ele><time>2026-04-12T08:30:03.035Z</time></trkpt><trkpt lat="41.00306" lon="14.3186983"><ele>21.25</ele><time>2026-04-12T08:30:05.035Z</time></trkpt><trkpt lat="41.0029467" lon="14.3186883"><ele>22.0</ele><time>2026-04-12T08:30:07.035Z</time></trkpt><trkpt lat="41.0028283" lon="14.3186783"><ele>22.0</ele><time>2026-04-12T08:30:09.033Z</time></trkpt><trkpt lat="41.0027083" lon="14.3186633"><ele>22.0</ele><time>2026-04-12T08:30:11.034Z</time></trkpt><trkpt lat="41.00259" lon="14.3186517"><ele>22.0</ele><time>2026-04-12T08:30:13.034Z</time></trkpt><trkpt lat="41.0024683" lon="14.3186467"><ele>22.0</ele><time>2026-04-12T08:30:15.035Z</time></trkpt><trkpt lat="41.0023517" lon="14.318655"><ele>21.75</ele><time>2026-04-12T08:30:17.035Z</time></trkpt><trkpt lat="41.0022367" lon="14.3186817"><ele>21.5</ele><time>2026-04-12T08:30:19.035Z</time></trkpt><trkpt lat="41.0021267" lon="14.3187317"><ele>21.25</ele><time>2026-04-12T08:30:21.035Z</time></trkpt><trkpt lat="41.0020133" lon="14.3187683"><ele>21.0</ele><time>2026-04-12T08:30:23.034Z</time></trkpt><trkpt lat="41.0018917" lon="14.3187367"><ele>21.0</ele><time>2026-04-12T08:30:25.034Z</time></trkpt><trkpt lat="41.0017833" lon="14.31869"><ele>21.0</ele><time>2026-04-12T08:30:27.036Z</time></trkpt><trkpt lat="41.0016667" lon="14.3186767"><ele>21.0</ele><time>2026-04-12T08:30:29.033Z</time></trkpt><trkpt lat="41.001545" lon="14.318695"><ele>21.0</ele><time>2026-04-12T08:30:31.035Z</time></trkpt><trkpt lat="41.0014233" lon="14.31867"><ele>21.0</ele><time>2026-04-12T08:30:33.035Z</time></trkpt><trkpt lat="41.0013667" lon="14.3186317"><ele>21.0</ele><time>2026-04-12T08:30:34.035Z</time></trkpt><trkpt lat="41.00131" lon="14.3185867"><ele>21.0</ele><time>2026-04-12T08:30:35.035Z</time></trkpt><trkpt lat="41.0012533" lon="14.31855"><ele>21.0</ele><time>2026-04-12T08:30:36.036Z</time></trkpt><trkpt lat="41.0011417" lon="14.318505"><ele>21.0</ele><time>2026-04-12T08:30:38.034Z</time></trkpt><trkpt lat="41.001025" lon="14.31849"><ele>21.0</ele><time>2026-04-12T08:30:40.032Z</time></trkpt><trkpt lat="41.0009083" lon="14.31848"><ele>21.0</ele><time>2026-04-12T08:30:42.035Z</time></trkpt><trkpt lat="41.0007917" lon="14.3184633"><ele>21.0</ele><time>2026-04-12T08:30:44.036Z</time></trkpt><trkpt lat="41.0006767" lon="14.31844"><ele>21.0</ele><time>2026-04-12T08:30:46.035Z</time></trkpt><trkpt lat="41.0005583" lon="14.3184233"><ele>21.0</ele><time>2026-04-12T08:30:48.034Z</time></trkpt><trkpt lat="41.0004433" lon="14.3184083"><ele>21.0</ele><time>2026-04-12T08:30:50.036Z</time></trkpt><trkpt lat="41.0003217" lon="14.3183967"><ele>21.0</ele><time>2026-04-12T08:30:52.033Z</time></trkpt><trkpt lat="41.0001917" lon="14.3183833"><ele>21.0</ele><time>2026-04-12T08:30:54.035Z</time></trkpt><trkpt lat="41.0001267" lon="14.318375"><ele>21.0</ele><time>2026-04-12T08:30:55.035Z</time></trkpt><trkpt lat="41.0000617" lon="14.318365"><ele>21.0</ele><time>2026-04-12T08:30:56.034Z</time></trkpt><trkpt lat="40.9999933" lon="14.3183567"><ele>21.0</ele><time>2026-04-12T08:30:57.035Z</time></trkpt><trkpt lat="40.99993" lon="14.3183517"><ele>21.0</ele><time>2026-04-12T08:30:58.035Z</time></trkpt><trkpt lat="40.999865" lon="14.3183467"><ele>21.0</ele><time>2026-04-12T08:30:59.035Z</time></trkpt><trkpt lat="40.9998017" lon="14.3183383"><ele>21.0</ele><time>2026-04-12T08:31:00.035Z</time></trkpt><trkpt lat="40.9997367" lon="14.3183283"><ele>21.0</ele><time>2026-04-12T08:31:01.034Z</time></trkpt><trkpt lat="40.99967" lon="14.3183217"><ele>21.0</ele><time>2026-04-12T08:31:02.035Z</time></trkpt><trkpt lat="40.999605" lon="14.3183183"><ele>21.0</ele><time>2026-04-12T08:31:03.034Z</time></trkpt><trkpt lat="40.9994817" lon="14.3183083"><ele>21.0</ele><time>2026-04-12T08:31:05.033Z</time></trkpt><trkpt lat="40.9994183" lon="14.3183017"><ele>21.0</ele><time>2026-04-12T08:31:06.035Z</time></trkpt><trkpt lat="40.999355" lon="14.3183"><ele>21.0</ele><time>2026-04-12T08:31:07.035Z</time></trkpt><trkpt lat="40.99929" lon="14.318295"><ele>21.0</ele><time>2026-04-12T08:31:08.034Z</time></trkpt><trkpt lat="40.999225" lon="14.3182917"><ele>21.0</ele><time>2026-04-12T08:31:09.034Z</time></trkpt><trkpt lat="40.9991583" lon="14.3182883"><ele>21.0</ele><time>2026-04-12T08:31:10.032Z</time></trkpt><trkpt lat="40.999095" lon="14.3182833"><ele>21.0</ele><time>2026-04-12T08:31:11.035Z</time></trkpt><trkpt lat="40.99903" lon="14.3182767"><ele>21.0</ele><time>2026-04-12T08:31:12.035Z</time></trkpt><trkpt lat="40.9989617" lon="14.3182667"><ele>21.0</ele><time>2026-04-12T08:31:13.035Z</time></trkpt><trkpt lat="40.998895" lon="14.3182533"><ele>21.0</ele><time>2026-04-12T08:31:14.035Z</time></trkpt><trkpt lat="40.9988217" lon="14.3182517"><ele>21.0</ele><time>2026-04-12T08:31:15.034Z</time></trkpt><trkpt lat="40.9987583" lon="14.3182483"><ele>21.0</ele><time>2026-04-12T08:31:16.034Z</time></trkpt><trkpt lat="40.99869" lon="14.3182383"><ele>21.0</ele><time>2026-04-12T08:31:17.035Z</time></trkpt><trkpt lat="40.998565" lon="14.3182183"><ele>21.0</ele><time>2026-04-12T08:31:19.035Z</time></trkpt><trkpt lat="40.9984367" lon="14.3182033"><ele>21.0</ele><time>2026-04-12T08:31:21.035Z</time></trkpt><trkpt lat="40.9983733" lon="14.318195"><ele>21.0</ele><time>2026-04-12T08:31:22.034Z</time></trkpt><trkpt lat="40.99831" lon="14.3181883"><ele>21.0</ele><time>2026-04-12T08:31:23.035Z</time></trkpt><trkpt lat="40.9982467" lon="14.3181833"><ele>21.0</ele><time>2026-04-12T08:31:24.035Z</time></trkpt><trkpt lat="40.99818" lon="14.3181783"><ele>21.0</ele><time>2026-04-12T08:31:25.035Z</time></trkpt><trkpt lat="40.9981117" lon="14.3181717"><ele>20.857142857142858</ele><time>2026-04-12T08:31:26.035Z</time></trkpt><trkpt lat="40.998045" lon="14.3181667"><ele>20.714285714285715</ele><time>2026-04-12T08:31:27.035Z</time></trkpt><trkpt lat="40.99798" lon="14.31816"><ele>20.57142857142857</ele><time>2026-04-12T08:31:28.034Z</time></trkpt><trkpt lat="40.9979167" lon="14.3181533"><ele>20.42857142857143</ele><time>2026-04-12T08:31:29.034Z</time></trkpt><trkpt lat="40.99785" lon="14.3181433"><ele>20.285714285714285</ele><time>2026-04-12T08:31:30.035Z</time></trkpt><trkpt lat="40.9977833" lon="14.3181367"><ele>20.142857142857142</ele><time>2026-04-12T08:31:31.035Z</time></trkpt><trkpt lat="40.9977183" lon="14.31813"><ele>20.0</ele><time>2026-04-12T08:31:32.036Z</time></trkpt><trkpt lat="40.9976533" lon="14.3181233"><ele>20.0</ele><time>2026-04-12T08:31:33.035Z</time></trkpt><trkpt lat="40.9975883" lon="14.3181167"><ele>20.0</ele><time>2026-04-12T08:31:34.034Z</time></trkpt><trkpt lat="40.9975233" lon="14.31811"><ele>20.0</ele><time>2026-04-12T08:31:35.034Z</time></trkpt><trkpt lat="40.99746" lon="14.3181033"><ele>20.0</ele><time>2026-04-12T08:31:36.034Z</time></trkpt><trkpt lat="40.9973933" lon="14.3180933"><ele>20.0</ele><time>2026-04-12T08:31:37.035Z</time></trkpt><trkpt lat="40.99733" lon="14.3180867"><ele>20.0</ele><time>2026-04-12T08:31:38.035Z</time></trkpt><trkpt lat="40.9972067" lon="14.31808"><ele>20.0</ele><time>2026-04-12T08:31:40.034Z</time></trkpt><trkpt lat="40.9971433" lon="14.318075"><ele>20.0</ele><time>2026-04-12T08:31:41.035Z</time></trkpt><trkpt lat="40.9970217" lon="14.3180683"><ele>20.0</ele><time>2026-04-12T08:31:43.035Z</time></trkpt><trkpt lat="40.9968983" lon="14.3180583"><ele>20.0</ele><time>2026-04-12T08:31:45.034Z</time></trkpt><trkpt lat="40.9968333" lon="14.3180533"><ele>20.0</ele><time>2026-04-12T08:31:46.035Z</time></trkpt><trkpt lat="40.9967683" lon="14.3180467"><ele>20.0</ele><time>2026-04-12T08:31:47.035Z</time></trkpt><trkpt lat="40.9966983" lon="14.31804"><ele>20.0</ele><time>2026-04-12T08:31:48.034Z</time></trkpt><trkpt lat="40.9966283" lon="14.3180317"><ele>20.0</ele><time>2026-04-12T08:31:49.032Z</time></trkpt><trkpt lat="40.9965583" lon="14.3180233"><ele>20.0</ele><time>2026-04-12T08:31:50.037Z</time></trkpt><trkpt lat="40.9964867" lon="14.3180133"><ele>20.0</ele><time>2026-04-12T08:31:51.034Z</time></trkpt><trkpt lat="40.99642" lon="14.3180083"><ele>20.0</ele><time>2026-04-12T08:31:52.035Z</time></trkpt><trkpt lat="40.9963567" lon="14.3180017"><ele>20.0</ele><time>2026-04-12T08:31:53.035Z</time></trkpt><trkpt lat="40.9962933" lon="14.317995"><ele>20.0</ele><time>2026-04-12T08:31:54.034Z</time></trkpt><trkpt lat="40.9962283" lon="14.317985"><ele>20.0</ele><time>2026-04-12T08:31:55.034Z</time></trkpt><trkpt lat="40.99616" lon="14.3179733"><ele>20.0</ele><time>2026-04-12T08:31:56.034Z</time></trkpt><trkpt lat="40.9960383" lon="14.317945"><ele>20.0</ele><time>2026-04-12T08:31:58.035Z</time></trkpt><trkpt lat="40.995915" lon="14.31791"><ele>20.0</ele><time>2026-04-12T08:32:00.036Z</time></trkpt><trkpt lat="40.99579" lon="14.3179017"><ele>20.0</ele><time>2026-04-12T08:32:02.035Z</time></trkpt><trkpt lat="40.995725" lon="14.3178983"><ele>20.0</ele><time>2026-04-12T08:32:03.034Z</time></trkpt><trkpt lat="40.99566" lon="14.3178933"><ele>19.833333333333336</ele><time>2026-04-12T08:32:04.035Z</time></trkpt><trkpt lat="40.9955967" lon="14.3178883"><ele>19.666666666666668</ele><time>2026-04-12T08:32:05.033Z</time></trkpt><trkpt lat="40.9955317" lon="14.3178817"><ele>19.5</ele><time>2026-04-12T08:32:06.037Z</time></trkpt><trkpt lat="40.9954667" lon="14.317875"><ele>19.333333333333332</ele><time>2026-04-12T08:32:07.033Z</time></trkpt><trkpt lat="40.995335" lon="14.31786"><ele>19.166666666666664</ele><time>2026-04-12T08:32:09.033Z</time></trkpt><trkpt lat="40.99527" lon="14.3178533"><ele>19.0</ele><time>2026-04-12T08:32:10.033Z</time></trkpt><trkpt lat="40.9952017" lon="14.3178433"><ele>19.0</ele><time>2026-04-12T08:32:11.034Z</time></trkpt><trkpt lat="40.9951317" lon="14.317835"><ele>19.0</ele><time>2026-04-12T08:32:12.035Z</time></trkpt><trkpt lat="40.9950667" lon="14.3178283"><ele>19.0</ele><time>2026-04-12T08:32:13.035Z</time></trkpt><trkpt lat="40.9950017" lon="14.317825"><ele>19.0</ele><time>2026-04-12T08:32:14.035Z</time></trkpt><trkpt lat="40.9949333" lon="14.31782"><ele>19.0</ele><time>2026-04-12T08:32:15.033Z</time></trkpt><trkpt lat="40.99481" lon="14.317815"><ele>19.0</ele><time>2026-04-12T08:32:17.035Z</time></trkpt><trkpt lat="40.99469" lon="14.3178083"><ele>19.0</ele><time>2026-04-12T08:32:19.034Z</time></trkpt><trkpt lat="40.994625" lon="14.3178033"><ele>19.0</ele><time>2026-04-12T08:32:20.036Z</time></trkpt><trkpt lat="40.9945567" lon="14.3177967"><ele>19.0</ele><time>2026-04-12T08:32:21.033Z</time></trkpt><trkpt lat="40.99449" lon="14.3177883"><ele>19.0</ele><time>2026-04-12T08:32:22.034Z</time></trkpt><trkpt lat="40.994425" lon="14.31778"><ele>19.0</ele><time>2026-04-12T08:32:23.035Z</time></trkpt><trkpt lat="40.99436" lon="14.317775"><ele>19.0</ele><time>2026-04-12T08:32:24.037Z</time></trkpt><trkpt lat="40.9942933" lon="14.3177717"><ele>19.0</ele><time>2026-04-12T08:32:25.033Z</time></trkpt><trkpt lat="40.99423" lon="14.31777"><ele>19.0</ele><time>2026-04-12T08:32:26.035Z</time></trkpt><trkpt lat="40.994165" lon="14.3177617"><ele>19.0</ele><time>2026-04-12T08:32:27.034Z</time></trkpt><trkpt lat="40.9941" lon="14.317755"><ele>19.0</ele><time>2026-04-12T08:32:28.035Z</time></trkpt><trkpt lat="40.9940333" lon="14.3177467"><ele>19.0</ele><time>2026-04-12T08:32:29.034Z</time></trkpt><trkpt lat="40.9939667" lon="14.31774"><ele>19.0</ele><time>2026-04-12T08:32:30.034Z</time></trkpt><trkpt lat="40.9938983" lon="14.3177367"><ele>19.0</ele><time>2026-04-12T08:32:31.034Z</time></trkpt><trkpt lat="40.9938333" lon="14.3177317"><ele>19.0</ele><time>2026-04-12T08:32:32.035Z</time></trkpt><trkpt lat="40.9937683" lon="14.317725"><ele>19.0</ele><time>2026-04-12T08:32:33.034Z</time></trkpt><trkpt lat="40.9936417" lon="14.317715"><ele>19.0</ele><time>2026-04-12T08:32:35.035Z</time></trkpt><trkpt lat="40.9935783" lon="14.3177067"><ele>19.0</ele><time>2026-04-12T08:32:36.034Z</time></trkpt><trkpt lat="40.993455" lon="14.31769"><ele>19.0</ele><time>2026-04-12T08:32:38.034Z</time></trkpt><trkpt lat="40.9933917" lon="14.31768"><ele>19.0</ele><time>2026-04-12T08:32:39.034Z</time></trkpt><trkpt lat="40.9933267" lon="14.31767"><ele>19.0</ele><time>2026-04-12T08:32:40.034Z</time></trkpt><trkpt lat="40.99326" lon="14.3176583"><ele>19.0</ele><time>2026-04-12T08:32:41.033Z</time></trkpt><trkpt lat="40.993135" lon="14.3176283"><ele>19.0</ele><time>2026-04-12T08:32:43.035Z</time></trkpt><trkpt lat="40.9930733" lon="14.3176117"><ele>19.0</ele><time>2026-04-12T08:32:44.035Z</time></trkpt><trkpt lat="40.9930117" lon="14.31759"><ele>19.0</ele><time>2026-04-12T08:32:45.033Z</time></trkpt><trkpt lat="40.99295" lon="14.3175633"><ele>19.0</ele><time>2026-04-12T08:32:46.037Z</time></trkpt><trkpt lat="40.9928883" lon="14.3175317"><ele>19.0</ele><time>2026-04-12T08:32:47.036Z</time></trkpt><trkpt lat="40.9928267" lon="14.3175"><ele>19.0</ele><time>2026-04-12T08:32:48.037Z</time></trkpt><trkpt lat="40.9927633" lon="14.3174633"><ele>19.0</ele><time>2026-04-12T08:32:49.035Z</time></trkpt><trkpt lat="40.9927033" lon="14.317425"><ele>19.0</ele><time>2026-04-12T08:32:50.035Z</time></trkpt><trkpt lat="40.992645" lon="14.3173833"><ele>19.0</ele><time>2026-04-12T08:32:51.033Z</time></trkpt><trkpt lat="40.9925883" lon="14.3173417"><ele>19.0</ele><time>2026-04-12T08:32:52.035Z</time></trkpt><trkpt lat="40.9924833" lon="14.317255"><ele>19.0</ele><time>2026-04-12T08:32:54.035Z</time></trkpt><trkpt lat="40.9923833" lon="14.3171683"><ele>19.25</ele><time>2026-04-12T08:32:56.035Z</time></trkpt><trkpt lat="40.9922833" lon="14.317075"><ele>19.5</ele><time>2026-04-12T08:32:58.033Z</time></trkpt><trkpt lat="40.99219" lon="14.3169767"><ele>19.75</ele><time>2026-04-12T08:33:00.035Z</time></trkpt><trkpt lat="40.9920933" lon="14.3168783"><ele>20.0</ele><time>2026-04-12T08:33:02.034Z</time></trkpt><trkpt lat="40.9919933" lon="14.316775"><ele>20.0</ele><time>2026-04-12T08:33:04.037Z</time></trkpt><trkpt lat="40.9919417" lon="14.316725"><ele>20.0</ele><time>2026-04-12T08:33:05.035Z</time></trkpt><trkpt lat="40.9918383" lon="14.3166267"><ele>20.0</ele><time>2026-04-12T08:33:07.032Z</time></trkpt><trkpt lat="40.9917833" lon="14.3165767"><ele>20.0</ele><time>2026-04-12T08:33:08.035Z</time></trkpt><trkpt lat="40.9917283" lon="14.3165267"><ele>20.0</ele><time>2026-04-12T08:33:09.035Z</time></trkpt><trkpt lat="40.9916317" lon="14.316425"><ele>20.0</ele><time>2026-04-12T08:33:11.035Z</time></trkpt><trkpt lat="40.9915333" lon="14.31633"><ele>19.75</ele><time>2026-04-12T08:33:13.037Z</time></trkpt><trkpt lat="40.9914433" lon="14.31624"><ele>19.5</ele><time>2026-04-12T08:33:15.036Z</time></trkpt><trkpt lat="40.9913517" lon="14.31615"><ele>19.25</ele><time>2026-04-12T08:33:17.037Z</time></trkpt><trkpt lat="40.991255" lon="14.3160567"><ele>19.0</ele><time>2026-04-12T08:33:19.035Z</time></trkpt><trkpt lat="40.9911583" lon="14.31596"><ele>19.0</ele><time>2026-04-12T08:33:21.034Z</time></trkpt><trkpt lat="40.991065" lon="14.3158617"><ele>19.0</ele><time>2026-04-12T08:33:23.036Z</time></trkpt><trkpt lat="40.99097" lon="14.31576"><ele>19.0</ele><time>2026-04-12T08:33:25.035Z</time></trkpt><trkpt lat="40.9908767" lon="14.3156567"><ele>19.0</ele><time>2026-04-12T08:33:27.036Z</time></trkpt><trkpt lat="40.9908283" lon="14.3156033"><ele>19.0</ele><time>2026-04-12T08:33:28.034Z</time></trkpt><trkpt lat="40.9907333" lon="14.3154883"><ele>19.142857142857142</ele><time>2026-04-12T08:33:30.035Z</time></trkpt><trkpt lat="40.9906833" lon="14.3154283"><ele>19.28571428571429</ele><time>2026-04-12T08:33:31.035Z</time></trkpt><trkpt lat="40.9906317" lon="14.3153733"><ele>19.42857142857143</ele><time>2026-04-12T08:33:32.034Z</time></trkpt><trkpt lat="40.990575" lon="14.31531"><ele>19.57142857142857</ele><time>2026-04-12T08:33:33.034Z</time></trkpt><trkpt lat="40.990515" lon="14.3152467"><ele>19.714285714285715</ele><time>2026-04-12T08:33:34.036Z</time></trkpt><trkpt lat="40.9904567" lon="14.3151917"><ele>19.857142857142858</ele><time>2026-04-12T08:33:35.035Z</time></trkpt><trkpt lat="40.9903983" lon="14.3151383"><ele>20.0</ele><time>2026-04-12T08:33:36.035Z</time></trkpt><trkpt lat="40.9903417" lon="14.315085"><ele>20.0</ele><time>2026-04-12T08:33:37.033Z</time></trkpt><trkpt lat="40.9902833" lon="14.3150283"><ele>20.0</ele><time>2026-04-12T08:33:38.034Z</time></trkpt><trkpt lat="40.9902217" lon="14.3149667"><ele>20.0</ele><time>2026-04-12T08:33:39.033Z</time></trkpt><trkpt lat="40.9901633" lon="14.3149183"><ele>20.0</ele><time>2026-04-12T08:33:40.033Z</time></trkpt><trkpt lat="40.99011" lon="14.314855"><ele>20.0</ele><time>2026-04-12T08:33:41.036Z</time></trkpt><trkpt lat="40.9900567" lon="14.314795"><ele>20.0</ele><time>2026-04-12T08:33:42.037Z</time></trkpt><trkpt lat="40.9900033" lon="14.314735"><ele>20.0</ele><time>2026-04-12T08:33:43.035Z</time></trkpt><trkpt lat="40.9899533" lon="14.3146783"><ele>20.166666666666668</ele><time>2026-04-12T08:33:44.037Z</time></trkpt><trkpt lat="40.9899033" lon="14.314625"><ele>20.333333333333336</ele><time>2026-04-12T08:33:45.035Z</time></trkpt><trkpt lat="40.98981" lon="14.3145267"><ele>20.5</ele><time>2026-04-12T08:33:47.035Z</time></trkpt><trkpt lat="40.9897167" lon="14.3144267"><ele>20.666666666666668</ele><time>2026-04-12T08:33:49.035Z</time></trkpt><trkpt lat="40.9896683" lon="14.3143733"><ele>20.833333333333332</ele><time>2026-04-12T08:33:50.035Z</time></trkpt><trkpt lat="40.9896183" lon="14.3143167"><ele>21.0</ele><time>2026-04-12T08:33:51.035Z</time></trkpt><trkpt lat="40.9895667" lon="14.3142633"><ele>21.0</ele><time>2026-04-12T08:33:52.035Z</time></trkpt><trkpt lat="40.9894667" lon="14.3141567"><ele>21.0</ele><time>2026-04-12T08:33:54.035Z</time></trkpt><trkpt lat="40.9894117" lon="14.3141017"><ele>21.0</ele><time>2026-04-12T08:33:55.037Z</time></trkpt><trkpt lat="40.989355" lon="14.3140467"><ele>21.0</ele><time>2026-04-12T08:33:56.035Z</time></trkpt><trkpt lat="40.9893017" lon="14.3139917"><ele>21.0</ele><time>2026-04-12T08:33:57.033Z</time></trkpt><trkpt lat="40.9892483" lon="14.3139367"><ele>21.0</ele><time>2026-04-12T08:33:58.035Z</time></trkpt><trkpt lat="40.989195" lon="14.31388"><ele>21.0</ele><time>2026-04-12T08:33:59.035Z</time></trkpt><trkpt lat="40.98914" lon="14.3138233"><ele>21.0</ele><time>2026-04-12T08:34:00.038Z</time></trkpt><trkpt lat="40.9890833" lon="14.3137683"><ele>21.0</ele><time>2026-04-12T08:34:01.036Z</time></trkpt><trkpt lat="40.9890283" lon="14.3137133"><ele>21.0</ele><time>2026-04-12T08:34:02.037Z</time></trkpt><trkpt lat="40.9889733" lon="14.3136617"><ele>21.0</ele><time>2026-04-12T08:34:03.037Z</time></trkpt><trkpt lat="40.9888783" lon="14.31356"><ele>21.0</ele><time>2026-04-12T08:34:05.035Z</time></trkpt><trkpt lat="40.9887817" lon="14.3134517"><ele>21.0</ele><time>2026-04-12T08:34:07.036Z</time></trkpt><trkpt lat="40.9887283" lon="14.3133983"><ele>21.0</ele><time>2026-04-12T08:34:08.036Z</time></trkpt><trkpt lat="40.9886783" lon="14.313345"><ele>21.0</ele><time>2026-04-12T08:34:09.034Z</time></trkpt><trkpt lat="40.988625" lon="14.3132933"><ele>21.0</ele><time>2026-04-12T08:34:10.036Z</time></trkpt><trkpt lat="40.9885733" lon="14.3132433"><ele>21.0</ele><time>2026-04-12T08:34:11.036Z</time></trkpt><trkpt lat="40.98852" lon="14.3131917"><ele>21.0</ele><time>2026-04-12T08:34:12.033Z</time></trkpt><trkpt lat="40.9884233" lon="14.313085"><ele>20.857142857142858</ele><time>2026-04-12T08:34:14.037Z</time></trkpt><trkpt lat="40.9883733" lon="14.3130317"><ele>20.714285714285715</ele><time>2026-04-12T08:34:15.033Z</time></trkpt><trkpt lat="40.9883217" lon="14.3129817"><ele>20.57142857142857</ele><time>2026-04-12T08:34:16.035Z</time></trkpt><trkpt lat="40.9882667" lon="14.3129283"><ele>20.42857142857143</ele><time>2026-04-12T08:34:17.035Z</time></trkpt><trkpt lat="40.9882117" lon="14.3128767"><ele>20.285714285714285</ele><time>2026-04-12T08:34:18.036Z</time></trkpt><trkpt lat="40.9881567" lon="14.312825"><ele>20.142857142857142</ele><time>2026-04-12T08:34:19.035Z</time></trkpt><trkpt lat="40.9881033" lon="14.3127733"><ele>20.0</ele><time>2026-04-12T08:34:20.035Z</time></trkpt><trkpt lat="40.9880483" lon="14.31272"><ele>19.857142857142858</ele><time>2026-04-12T08:34:21.034Z</time></trkpt><trkpt lat="40.987995" lon="14.3126667"><ele>19.714285714285715</ele><time>2026-04-12T08:34:22.035Z</time></trkpt><trkpt lat="40.98794" lon="14.312615"><ele>19.57142857142857</ele><time>2026-04-12T08:34:23.036Z</time></trkpt><trkpt lat="40.9878833" lon="14.3125617"><ele>19.42857142857143</ele><time>2026-04-12T08:34:24.035Z</time></trkpt><trkpt lat="40.9878267" lon="14.3125117"><ele>19.28571428571429</ele><time>2026-04-12T08:34:25.035Z</time></trkpt><trkpt lat="40.98777" lon="14.31246"><ele>19.142857142857142</ele><time>2026-04-12T08:34:26.037Z</time></trkpt><trkpt lat="40.9877117" lon="14.312405"><ele>19.0</ele><time>2026-04-12T08:34:27.035Z</time></trkpt><trkpt lat="40.9876567" lon="14.3123517"><ele>19.0</ele><time>2026-04-12T08:34:28.037Z</time></trkpt><trkpt lat="40.9876" lon="14.3122983"><ele>19.0</ele><time>2026-04-12T08:34:29.034Z</time></trkpt><trkpt lat="40.9875483" lon="14.3122433"><ele>19.0</ele><time>2026-04-12T08:34:30.035Z</time></trkpt><trkpt lat="40.9874933" lon="14.31219"><ele>19.0</ele><time>2026-04-12T08:34:31.035Z</time></trkpt><trkpt lat="40.98744" lon="14.3121383"><ele>19.0</ele><time>2026-04-12T08:34:32.035Z</time></trkpt><trkpt lat="40.987385" lon="14.3120833"><ele>19.0</ele><time>2026-04-12T08:34:33.035Z</time></trkpt><trkpt lat="40.9873317" lon="14.3120317"><ele>19.0</ele><time>2026-04-12T08:34:34.033Z</time></trkpt><trkpt lat="40.98728" lon="14.31198"><ele>19.2</ele><time>2026-04-12T08:34:35.032Z</time></trkpt><trkpt lat="40.9872283" lon="14.3119283"><ele>19.4</ele><time>2026-04-12T08:34:36.035Z</time></trkpt><trkpt lat="40.987125" lon="14.3118367"><ele>19.6</ele><time>2026-04-12T08:34:38.037Z</time></trkpt><trkpt lat="40.9870133" lon="14.3117633"><ele>19.8</ele><time>2026-04-12T08:34:40.034Z</time></trkpt><trkpt lat="40.9868967" lon="14.3117117"><ele>20.0</ele><time>2026-04-12T08:34:42.037Z</time></trkpt><trkpt lat="40.986775" lon="14.3116867"><ele>20.0</ele><time>2026-04-12T08:34:44.036Z</time></trkpt><trkpt lat="40.9867117" lon="14.3116733"><ele>20.0</ele><time>2026-04-12T08:34:45.035Z</time></trkpt><trkpt lat="40.9866483" lon="14.3116633"><ele>20.0</ele><time>2026-04-12T08:34:46.036Z</time></trkpt><trkpt lat="40.98652" lon="14.3116433"><ele>20.0</ele><time>2026-04-12T08:34:48.035Z</time></trkpt><trkpt lat="40.9864533" lon="14.31163"><ele>20.0</ele><time>2026-04-12T08:34:49.035Z</time></trkpt><trkpt lat="40.9863883" lon="14.3116183"><ele>20.0</ele><time>2026-04-12T08:34:50.034Z</time></trkpt><trkpt lat="40.98632" lon="14.3116067"><ele>20.0</ele><time>2026-04-12T08:34:51.034Z</time></trkpt><trkpt lat="40.986255" lon="14.3115967"><ele>20.0</ele><time>2026-04-12T08:34:52.032Z</time></trkpt><trkpt lat="40.9861883" lon="14.311585"><ele>20.0</ele><time>2026-04-12T08:34:53.034Z</time></trkpt><trkpt lat="40.9861233" lon="14.3115733"><ele>20.0</ele><time>2026-04-12T08:34:54.035Z</time></trkpt><trkpt lat="40.9860567" lon="14.3115633"><ele>20.0</ele><time>2026-04-12T08:34:55.034Z</time></trkpt><trkpt lat="40.9859917" lon="14.3115517"><ele>20.0</ele><time>2026-04-12T08:34:56.035Z</time></trkpt><trkpt lat="40.9859283" lon="14.3115433"><ele>20.0</ele><time>2026-04-12T08:34:57.034Z</time></trkpt><trkpt lat="40.9858633" lon="14.3115317"><ele>20.0</ele><time>2026-04-12T08:34:58.035Z</time></trkpt><trkpt lat="40.9857983" lon="14.31152"><ele>20.0</ele><time>2026-04-12T08:34:59.035Z</time></trkpt><trkpt lat="40.985735" lon="14.3115083"><ele>20.0</ele><time>2026-04-12T08:35:00.035Z</time></trkpt><trkpt lat="40.9856717" lon="14.3114933"><ele>20.0</ele><time>2026-04-12T08:35:01.035Z</time></trkpt><trkpt lat="40.9856067" lon="14.3114783"><ele>20.0</ele><time>2026-04-12T08:35:02.037Z</time></trkpt><trkpt lat="40.9855417" lon="14.3114683"><ele>20.0</ele><time>2026-04-12T08:35:03.033Z</time></trkpt><trkpt lat="40.98542" lon="14.3114583"><ele>20.0</ele><time>2026-04-12T08:35:05.035Z</time></trkpt><trkpt lat="40.9852983" lon="14.3114567"><ele>20.0</ele><time>2026-04-12T08:35:07.033Z</time></trkpt><trkpt lat="40.9851733" lon="14.3114683"><ele>20.0</ele><time>2026-04-12T08:35:09.035Z</time></trkpt><trkpt lat="40.9850517" lon="14.3115017"><ele>20.0</ele><time>2026-04-12T08:35:11.035Z</time></trkpt><trkpt lat="40.9849333" lon="14.3115533"><ele>20.0</ele><time>2026-04-12T08:35:13.035Z</time></trkpt><trkpt lat="40.9848133" lon="14.3116067"><ele>20.142857142857142</ele><time>2026-04-12T08:35:15.035Z</time></trkpt><trkpt lat="40.9847467" lon="14.31164"><ele>20.285714285714285</ele><time>2026-04-12T08:35:16.033Z</time></trkpt><trkpt lat="40.984675" lon="14.3116733"><ele>20.42857142857143</ele><time>2026-04-12T08:35:17.034Z</time></trkpt><trkpt lat="40.9846067" lon="14.3117067"><ele>20.57142857142857</ele><time>2026-04-12T08:35:18.035Z</time></trkpt><trkpt lat="40.9845433" lon="14.3117383"><ele>20.714285714285715</ele><time>2026-04-12T08:35:19.035Z</time></trkpt><trkpt lat="40.9844833" lon="14.31177"><ele>20.857142857142858</ele><time>2026-04-12T08:35:20.035Z</time></trkpt><trkpt lat="40.98442" lon="14.3118033"><ele>21.0</ele><time>2026-04-12T08:35:21.036Z</time></trkpt><trkpt lat="40.9843517" lon="14.3118367"><ele>21.0</ele><time>2026-04-12T08:35:22.034Z</time></trkpt><trkpt lat="40.9842867" lon="14.3118683"><ele>21.0</ele><time>2026-04-12T08:35:23.035Z</time></trkpt><trkpt lat="40.98422" lon="14.3119"><ele>21.0</ele><time>2026-04-12T08:35:24.036Z</time></trkpt><trkpt lat="40.9841583" lon="14.31193"><ele>21.0</ele><time>2026-04-12T08:35:25.035Z</time></trkpt><trkpt lat="40.984095" lon="14.31196"><ele>21.0</ele><time>2026-04-12T08:35:26.036Z</time></trkpt><trkpt lat="40.984035" lon="14.3119933"><ele>21.0</ele><time>2026-04-12T08:35:27.034Z</time></trkpt><trkpt lat="40.9839733" lon="14.3120233"><ele>21.0</ele><time>2026-04-12T08:35:28.034Z</time></trkpt><trkpt lat="40.98391" lon="14.3120517"><ele>20.833333333333332</ele><time>2026-04-12T08:35:29.035Z</time></trkpt><trkpt lat="40.9838483" lon="14.31208"><ele>20.666666666666668</ele><time>2026-04-12T08:35:30.036Z</time></trkpt><trkpt lat="40.9837867" lon="14.31211"><ele>20.5</ele><time>2026-04-12T08:35:31.034Z</time></trkpt><trkpt lat="40.9837217" lon="14.3121417"><ele>20.333333333333336</ele><time>2026-04-12T08:35:32.036Z</time></trkpt><trkpt lat="40.9836617" lon="14.3121733"><ele>20.166666666666668</ele><time>2026-04-12T08:35:33.036Z</time></trkpt><trkpt lat="40.9835467" lon="14.3122383"><ele>20.0</ele><time>2026-04-12T08:35:35.035Z</time></trkpt><trkpt lat="40.9834883" lon="14.31227"><ele>20.0</ele><time>2026-04-12T08:35:36.035Z</time></trkpt><trkpt lat="40.98343" lon="14.3123017"><ele>20.0</ele><time>2026-04-12T08:35:37.033Z</time></trkpt><trkpt lat="40.9833683" lon="14.3123267"><ele>20.0</ele><time>2026-04-12T08:35:38.036Z</time></trkpt><trkpt lat="40.983305" lon="14.3123483"><ele>20.0</ele><time>2026-04-12T08:35:39.035Z</time></trkpt><trkpt lat="40.9832433" lon="14.3123717"><ele>20.0</ele><time>2026-04-12T08:35:40.035Z</time></trkpt><trkpt lat="40.98318" lon="14.3123933"><ele>20.0</ele><time>2026-04-12T08:35:41.035Z</time></trkpt><trkpt lat="40.9831133" lon="14.3124133"><ele>20.0</ele><time>2026-04-12T08:35:42.036Z</time></trkpt><trkpt lat="40.9830483" lon="14.3124233"><ele>20.0</ele><time>2026-04-12T08:35:43.035Z</time></trkpt><trkpt lat="40.98298" lon="14.3124267"><ele>20.0</ele><time>2026-04-12T08:35:44.036Z</time></trkpt><trkpt lat="40.9829167" lon="14.3124267"><ele>20.0</ele><time>2026-04-12T08:35:45.034Z</time></trkpt><trkpt lat="40.98285" lon="14.3124267"><ele>20.0</ele><time>2026-04-12T08:35:46.035Z</time></trkpt><trkpt lat="40.9827833" lon="14.3124283"><ele>20.0</ele><time>2026-04-12T08:35:47.034Z</time></trkpt><trkpt lat="40.9827183" lon="14.3124283"><ele>20.0</ele><time>2026-04-12T08:35:48.035Z</time></trkpt><trkpt lat="40.982655" lon="14.31243"><ele>20.0</ele><time>2026-04-12T08:35:49.035Z</time></trkpt><trkpt lat="40.9825917" lon="14.3124283"><ele>20.0</ele><time>2026-04-12T08:35:50.036Z</time></trkpt><trkpt lat="40.9825267" lon="14.31243"><ele>20.0</ele><time>2026-04-12T08:35:51.036Z</time></trkpt><trkpt lat="40.98246" lon="14.3124317"><ele>20.0</ele><time>2026-04-12T08:35:52.034Z</time></trkpt><trkpt lat="40.9823933" lon="14.312435"><ele>20.0</ele><time>2026-04-12T08:35:53.035Z</time></trkpt><trkpt lat="40.9823283" lon="14.3124383"><ele>20.0</ele><time>2026-04-12T08:35:54.036Z</time></trkpt><trkpt lat="40.9822617" lon="14.3124417"><ele>20.0</ele><time>2026-04-12T08:35:55.035Z</time></trkpt><trkpt lat="40.9821967" lon="14.3124417"><ele>20.0</ele><time>2026-04-12T08:35:56.035Z</time></trkpt><trkpt lat="40.9821333" lon="14.3124433"><ele>20.0</ele><time>2026-04-12T08:35:57.033Z</time></trkpt><trkpt lat="40.9820683" lon="14.3124483"><ele>20.0</ele><time>2026-04-12T08:35:58.032Z</time></trkpt><trkpt lat="40.9820033" lon="14.31245"><ele>20.0</ele><time>2026-04-12T08:35:59.034Z</time></trkpt><trkpt lat="40.9819383" lon="14.3124467"><ele>20.0</ele><time>2026-04-12T08:36:00.036Z</time></trkpt><trkpt lat="40.9818733" lon="14.3124433"><ele>20.0</ele><time>2026-04-12T08:36:01.033Z</time></trkpt><trkpt lat="40.981805" lon="14.3124383"><ele>20.0</ele><time>2026-04-12T08:36:02.035Z</time></trkpt><trkpt lat="40.9817383" lon="14.3124317"><ele>20.0</ele><time>2026-04-12T08:36:03.033Z</time></trkpt><trkpt lat="40.981675" lon="14.3124267"><ele>20.142857142857142</ele><time>2026-04-12T08:36:04.037Z</time></trkpt><trkpt lat="40.98161" lon="14.3124183"><ele>20.285714285714285</ele><time>2026-04-12T08:36:05.034Z</time></trkpt><trkpt lat="40.981545" lon="14.312405"><ele>20.42857142857143</ele><time>2026-04-12T08:36:06.035Z</time></trkpt><trkpt lat="40.98148" lon="14.3123867"><ele>20.57142857142857</ele><time>2026-04-12T08:36:07.035Z</time></trkpt><trkpt lat="40.9814167" lon="14.3123633"><ele>20.714285714285715</ele><time>2026-04-12T08:36:08.036Z</time></trkpt><trkpt lat="40.9813517" lon="14.3123367"><ele>20.857142857142858</ele><time>2026-04-12T08:36:09.035Z</time></trkpt><trkpt lat="40.98129" lon="14.31231"><ele>21.0</ele><time>2026-04-12T08:36:10.035Z</time></trkpt><trkpt lat="40.9812267" lon="14.31228"><ele>21.0</ele><time>2026-04-12T08:36:11.035Z</time></trkpt><trkpt lat="40.981165" lon="14.31225"><ele>21.0</ele><time>2026-04-12T08:36:12.035Z</time></trkpt><trkpt lat="40.9811017" lon="14.3122167"><ele>21.0</ele><time>2026-04-12T08:36:13.035Z</time></trkpt><trkpt lat="40.9810383" lon="14.3121817"><ele>21.0</ele><time>2026-04-12T08:36:14.035Z</time></trkpt><trkpt lat="40.9809733" lon="14.3121467"><ele>21.0</ele><time>2026-04-12T08:36:15.035Z</time></trkpt><trkpt lat="40.98091" lon="14.31211"><ele>21.0</ele><time>2026-04-12T08:36:16.035Z</time></trkpt><trkpt lat="40.980845" lon="14.3120733"><ele>21.0</ele><time>2026-04-12T08:36:17.036Z</time></trkpt><trkpt lat="40.9807817" lon="14.3120383"><ele>21.285714285714285</ele><time>2026-04-12T08:36:18.035Z</time></trkpt><trkpt lat="40.98072" lon="14.3120017"><ele>21.57142857142857</ele><time>2026-04-12T08:36:19.034Z</time></trkpt><trkpt lat="40.9806567" lon="14.3119667"><ele>21.857142857142858</ele><time>2026-04-12T08:36:20.036Z</time></trkpt><trkpt lat="40.980595" lon="14.3119317"><ele>22.142857142857142</ele><time>2026-04-12T08:36:21.034Z</time></trkpt><trkpt lat="40.9805367" lon="14.3118983"><ele>22.428571428571427</ele><time>2026-04-12T08:36:22.033Z</time></trkpt><trkpt lat="40.9804783" lon="14.3118633"><ele>22.714285714285715</ele><time>2026-04-12T08:36:23.034Z</time></trkpt><trkpt lat="40.98042" lon="14.3118283"><ele>23.0</ele><time>2026-04-12T08:36:24.035Z</time></trkpt><trkpt lat="40.9803083" lon="14.311755"><ele>23.0</ele><time>2026-04-12T08:36:26.034Z</time></trkpt><trkpt lat="40.98025" lon="14.3117117"><ele>23.0</ele><time>2026-04-12T08:36:27.033Z</time></trkpt><trkpt lat="40.98019" lon="14.31167"><ele>23.0</ele><time>2026-04-12T08:36:28.034Z</time></trkpt><trkpt lat="40.9801333" lon="14.3116333"><ele>23.0</ele><time>2026-04-12T08:36:29.035Z</time></trkpt><trkpt lat="40.9800783" lon="14.3115917"><ele>23.0</ele><time>2026-04-12T08:36:30.035Z</time></trkpt><trkpt lat="40.98002" lon="14.311545"><ele>23.0</ele><time>2026-04-12T08:36:31.033Z</time></trkpt><trkpt lat="40.9799617" lon="14.3115"><ele>23.0</ele><time>2026-04-12T08:36:32.035Z</time></trkpt><trkpt lat="40.979905" lon="14.3114533"><ele>22.666666666666668</ele><time>2026-04-12T08:36:33.035Z</time></trkpt><trkpt lat="40.9798483" lon="14.311405"><ele>22.333333333333336</ele><time>2026-04-12T08:36:34.033Z</time></trkpt><trkpt lat="40.9797933" lon="14.3113633"><ele>22.0</ele><time>2026-04-12T08:36:35.034Z</time></trkpt><trkpt lat="40.9797383" lon="14.3113183"><ele>21.666666666666668</ele><time>2026-04-12T08:36:36.035Z</time></trkpt><trkpt lat="40.9796867" lon="14.31127"><ele>21.333333333333332</ele><time>2026-04-12T08:36:37.034Z</time></trkpt><trkpt lat="40.97958" lon="14.3111817"><ele>21.0</ele><time>2026-04-12T08:36:39.033Z</time></trkpt><trkpt lat="40.9794717" lon="14.3110967"><ele>21.0</ele><time>2026-04-12T08:36:41.035Z</time></trkpt><trkpt lat="40.979365" lon="14.3110067"><ele>21.0</ele><time>2026-04-12T08:36:43.034Z</time></trkpt><trkpt lat="40.9793067" lon="14.310955"><ele>21.0</ele><time>2026-04-12T08:36:44.034Z</time></trkpt><trkpt lat="40.9792533" lon="14.310905"><ele>21.0</ele><time>2026-04-12T08:36:45.035Z</time></trkpt><trkpt lat="40.9791983" lon="14.3108517"><ele>21.0</ele><time>2026-04-12T08:36:46.033Z</time></trkpt><trkpt lat="40.9791433" lon="14.3108"><ele>21.0</ele><time>2026-04-12T08:36:47.034Z</time></trkpt><trkpt lat="40.9790883" lon="14.31075"><ele>21.0</ele><time>2026-04-12T08:36:48.035Z</time></trkpt><trkpt lat="40.9790333" lon="14.3107"><ele>21.0</ele><time>2026-04-12T08:36:49.034Z</time></trkpt><trkpt lat="40.97898" lon="14.3106517"><ele>21.0</ele><time>2026-04-12T08:36:50.036Z</time></trkpt><trkpt lat="40.978875" lon="14.3105617"><ele>21.0</ele><time>2026-04-12T08:36:52.033Z</time></trkpt><trkpt lat="40.9788217" lon="14.3105133"><ele>21.0</ele><time>2026-04-12T08:36:53.034Z</time></trkpt><trkpt lat="40.97877" lon="14.3104633"><ele>21.0</ele><time>2026-04-12T08:36:54.035Z</time></trkpt><trkpt lat="40.9787183" lon="14.3104067"><ele>20.833333333333332</ele><time>2026-04-12T08:36:55.033Z</time></trkpt><trkpt lat="40.978665" lon="14.3103567"><ele>20.666666666666668</ele><time>2026-04-12T08:36:56.035Z</time></trkpt><trkpt lat="40.9785667" lon="14.3102567"><ele>20.5</ele><time>2026-04-12T08:36:58.036Z</time></trkpt><trkpt lat="40.978465" lon="14.3101517"><ele>20.333333333333336</ele><time>2026-04-12T08:37:00.034Z</time></trkpt><trkpt lat="40.9784133" lon="14.3101"><ele>20.166666666666668</ele><time>2026-04-12T08:37:01.034Z</time></trkpt><trkpt lat="40.9783633" lon="14.310045"><ele>20.0</ele><time>2026-04-12T08:37:02.035Z</time></trkpt><trkpt lat="40.978275" lon="14.30995"><ele>20.0</ele><time>2026-04-12T08:37:04.032Z</time></trkpt><trkpt lat="40.9781883" lon="14.3098533"><ele>20.0</ele><time>2026-04-12T08:37:06.034Z</time></trkpt><trkpt lat="40.9781067" lon="14.3097533"><ele>20.0</ele><time>2026-04-12T08:37:08.034Z</time></trkpt><trkpt lat="40.97802" lon="14.3096533"><ele>20.0</ele><time>2026-04-12T08:37:10.034Z</time></trkpt><trkpt lat="40.97793" lon="14.3095483"><ele>20.5</ele><time>2026-04-12T08:37:12.034Z</time></trkpt><trkpt lat="40.9778467" lon="14.309445"><ele>21.0</ele><time>2026-04-12T08:37:14.036Z</time></trkpt><trkpt lat="40.9777633" lon="14.3093383"><ele>21.5</ele><time>2026-04-12T08:37:16.034Z</time></trkpt><trkpt lat="40.9776817" lon="14.309235"><ele>22.0</ele><time>2026-04-12T08:37:18.035Z</time></trkpt><trkpt lat="40.9775967" lon="14.30914"><ele>21.5</ele><time>2026-04-12T08:37:20.034Z</time></trkpt><trkpt lat="40.9775" lon="14.3090567"><ele>21.0</ele><time>2026-04-12T08:37:22.034Z</time></trkpt><trkpt lat="40.9773983" lon="14.3089867"><ele>20.5</ele><time>2026-04-12T08:37:24.035Z</time></trkpt><trkpt lat="40.977285" lon="14.3089367"><ele>20.0</ele><time>2026-04-12T08:37:26.034Z</time></trkpt><trkpt lat="40.9771633" lon="14.30892"><ele>20.0</ele><time>2026-04-12T08:37:28.033Z</time></trkpt><trkpt lat="40.977045" lon="14.3089333"><ele>20.0</ele><time>2026-04-12T08:37:30.035Z</time></trkpt><trkpt lat="40.9769317" lon="14.30897"><ele>20.0</ele><time>2026-04-12T08:37:32.034Z</time></trkpt><trkpt lat="40.9768217" lon="14.30902"><ele>20.0</ele><time>2026-04-12T08:37:34.033Z</time></trkpt><trkpt lat="40.9767083" lon="14.3090733"><ele>20.333333333333336</ele><time>2026-04-12T08:37:36.035Z</time></trkpt><trkpt lat="40.9766483" lon="14.3091033"><ele>20.666666666666668</ele><time>2026-04-12T08:37:37.035Z</time></trkpt><trkpt lat="40.97659" lon="14.309135"><ele>21.0</ele><time>2026-04-12T08:37:38.036Z</time></trkpt><trkpt lat="40.97653" lon="14.3091667"><ele>21.333333333333332</ele><time>2026-04-12T08:37:39.035Z</time></trkpt><trkpt lat="40.9764167" lon="14.3092333"><ele>21.666666666666664</ele><time>2026-04-12T08:37:41.034Z</time></trkpt><trkpt lat="40.9763583" lon="14.309265"><ele>22.0</ele><time>2026-04-12T08:37:42.033Z</time></trkpt><trkpt lat="40.976245" lon="14.30933"><ele>22.0</ele><time>2026-04-12T08:37:44.035Z</time></trkpt><trkpt lat="40.9761383" lon="14.3094"><ele>22.0</ele><time>2026-04-12T08:37:46.035Z</time></trkpt><trkpt lat="40.9760283" lon="14.3094667"><ele>22.0</ele><time>2026-04-12T08:37:48.035Z</time></trkpt><trkpt lat="40.9759167" lon="14.3095333"><ele>22.0</ele><time>2026-04-12T08:37:50.035Z</time></trkpt><trkpt lat="40.9758567" lon="14.309565"><ele>22.0</ele><time>2026-04-12T08:37:51.036Z</time></trkpt><trkpt lat="40.9757983" lon="14.3095967"><ele>22.0</ele><time>2026-04-12T08:37:52.034Z</time></trkpt><trkpt lat="40.9756833" lon="14.3096533"><ele>22.0</ele><time>2026-04-12T08:37:54.035Z</time></trkpt><trkpt lat="40.9755683" lon="14.3097"><ele>22.0</ele><time>2026-04-12T08:37:56.035Z</time></trkpt><trkpt lat="40.9754467" lon="14.3097317"><ele>22.0</ele><time>2026-04-12T08:37:58.035Z</time></trkpt><trkpt lat="40.9753833" lon="14.309745"><ele>22.0</ele><time>2026-04-12T08:37:59.035Z</time></trkpt><trkpt lat="40.9753183" lon="14.309755"><ele>22.0</ele><time>2026-04-12T08:38:00.035Z</time></trkpt><trkpt lat="40.9752517" lon="14.3097633"><ele>22.0</ele><time>2026-04-12T08:38:01.035Z</time></trkpt><trkpt lat="40.9751883" lon="14.30977"><ele>22.0</ele><time>2026-04-12T08:38:02.035Z</time></trkpt><trkpt lat="40.9751217" lon="14.3097733"><ele>22.0</ele><time>2026-04-12T08:38:03.033Z</time></trkpt><trkpt lat="40.9750567" lon="14.3097733"><ele>22.0</ele><time>2026-04-12T08:38:04.034Z</time></trkpt><trkpt lat="40.9749317" lon="14.309775"><ele>22.0</ele><time>2026-04-12T08:38:06.035Z</time></trkpt><trkpt lat="40.9748067" lon="14.3097767"><ele>22.0</ele><time>2026-04-12T08:38:08.034Z</time></trkpt><trkpt lat="40.97474" lon="14.30978"><ele>22.0</ele><time>2026-04-12T08:38:09.033Z</time></trkpt><trkpt lat="40.9746717" lon="14.3097817"><ele>22.0</ele><time>2026-04-12T08:38:10.033Z</time></trkpt><trkpt lat="40.9746067" lon="14.3097817"><ele>22.0</ele><time>2026-04-12T08:38:11.034Z</time></trkpt><trkpt lat="40.9745383" lon="14.3097833"><ele>22.0</ele><time>2026-04-12T08:38:12.035Z</time></trkpt><trkpt lat="40.9744717" lon="14.309785"><ele>22.0</ele><time>2026-04-12T08:38:13.036Z</time></trkpt><trkpt lat="40.974345" lon="14.3097867"><ele>22.0</ele><time>2026-04-12T08:38:15.033Z</time></trkpt><trkpt lat="40.9742217" lon="14.3097817"><ele>22.0</ele><time>2026-04-12T08:38:17.037Z</time></trkpt><trkpt lat="40.974105" lon="14.3097917"><ele>22.0</ele><time>2026-04-12T08:38:19.036Z</time></trkpt><trkpt lat="40.97398" lon="14.3098"><ele>22.0</ele><time>2026-04-12T08:38:21.035Z</time></trkpt><trkpt lat="40.9739133" lon="14.3098"><ele>22.0</ele><time>2026-04-12T08:38:22.035Z</time></trkpt><trkpt lat="40.97385" lon="14.3097983"><ele>22.0</ele><time>2026-04-12T08:38:23.035Z</time></trkpt><trkpt lat="40.9737833" lon="14.3097933"><ele>22.0</ele><time>2026-04-12T08:38:24.036Z</time></trkpt><trkpt lat="40.9736617" lon="14.3097833"><ele>22.0</ele><time>2026-04-12T08:38:26.035Z</time></trkpt><trkpt lat="40.9735967" lon="14.3097717"><ele>22.0</ele><time>2026-04-12T08:38:27.035Z</time></trkpt><trkpt lat="40.97353" lon="14.3097567"><ele>22.0</ele><time>2026-04-12T08:38:28.035Z</time></trkpt><trkpt lat="40.9734667" lon="14.30974"><ele>22.0</ele><time>2026-04-12T08:38:29.034Z</time></trkpt><trkpt lat="40.9733533" lon="14.3097033"><ele>22.0</ele><time>2026-04-12T08:38:31.034Z</time></trkpt><trkpt lat="40.9732933" lon="14.309675"><ele>22.0</ele><time>2026-04-12T08:38:32.034Z</time></trkpt><trkpt lat="40.9731867" lon="14.3096283"><ele>22.0</ele><time>2026-04-12T08:38:34.035Z</time></trkpt><trkpt lat="40.9730767" lon="14.3095733"><ele>22.0</ele><time>2026-04-12T08:38:36.035Z</time></trkpt><trkpt lat="40.973015" lon="14.3095517"><ele>22.0</ele><time>2026-04-12T08:38:37.032Z</time></trkpt><trkpt lat="40.9729517" lon="14.30953"><ele>22.0</ele><time>2026-04-12T08:38:38.033Z</time></trkpt><trkpt lat="40.97289" lon="14.3095083"><ele>22.0</ele><time>2026-04-12T08:38:39.033Z</time></trkpt><trkpt lat="40.972825" lon="14.3094883"><ele>22.0</ele><time>2026-04-12T08:38:40.033Z</time></trkpt><trkpt lat="40.9727617" lon="14.3094717"><ele>22.0</ele><time>2026-04-12T08:38:41.033Z</time></trkpt><trkpt lat="40.9726983" lon="14.309455"><ele>22.0</ele><time>2026-04-12T08:38:42.036Z</time></trkpt><trkpt lat="40.972635" lon="14.3094367"><ele>22.0</ele><time>2026-04-12T08:38:43.033Z</time></trkpt><trkpt lat="40.9725717" lon="14.309415"><ele>22.0</ele><time>2026-04-12T08:38:44.035Z</time></trkpt><trkpt lat="40.9725083" lon="14.3093917"><ele>22.0</ele><time>2026-04-12T08:38:45.034Z</time></trkpt><trkpt lat="40.97239" lon="14.3093383"><ele>22.200000000000003</ele><time>2026-04-12T08:38:47.034Z</time></trkpt><trkpt lat="40.9723283" lon="14.3093083"><ele>22.4</ele><time>2026-04-12T08:38:48.035Z</time></trkpt><trkpt lat="40.9722667" lon="14.3092783"><ele>22.6</ele><time>2026-04-12T08:38:49.033Z</time></trkpt><trkpt lat="40.972145" lon="14.3092267"><ele>22.799999999999997</ele><time>2026-04-12T08:38:51.032Z</time></trkpt><trkpt lat="40.972025" lon="14.30918"><ele>23.0</ele><time>2026-04-12T08:38:53.035Z</time></trkpt><trkpt lat="40.97191" lon="14.3091233"><ele>23.0</ele><time>2026-04-12T08:38:55.034Z</time></trkpt><trkpt lat="40.97181" lon="14.309065"><ele>23.0</ele><time>2026-04-12T08:38:57.032Z</time></trkpt><trkpt lat="40.9717067" lon="14.3090017"><ele>23.0</ele><time>2026-04-12T08:38:59.035Z</time></trkpt><trkpt lat="40.9715983" lon="14.3089483"><ele>23.0</ele><time>2026-04-12T08:39:01.036Z</time></trkpt><trkpt lat="40.971495" lon="14.30888"><ele>23.2</ele><time>2026-04-12T08:39:03.037Z</time></trkpt><trkpt lat="40.971395" lon="14.30881"><ele>23.4</ele><time>2026-04-12T08:39:05.035Z</time></trkpt><trkpt lat="40.971295" lon="14.3087483"><ele>23.599999999999998</ele><time>2026-04-12T08:39:07.036Z</time></trkpt><trkpt lat="40.9711983" lon="14.30869"><ele>23.799999999999997</ele><time>2026-04-12T08:39:09.037Z</time></trkpt><trkpt lat="40.9711033" lon="14.3086333"><ele>24.0</ele><time>2026-04-12T08:39:11.037Z</time></trkpt><trkpt lat="40.971" lon="14.3085717"><ele>24.0</ele><time>2026-04-12T08:39:13.035Z</time></trkpt><trkpt lat="40.9708917" lon="14.3085133"><ele>24.0</ele><time>2026-04-12T08:39:15.034Z</time></trkpt><trkpt lat="40.97079" lon="14.3084617"><ele>24.0</ele><time>2026-04-12T08:39:17.034Z</time></trkpt><trkpt lat="40.97069" lon="14.3084117"><ele>24.0</ele><time>2026-04-12T08:39:19.036Z</time></trkpt><trkpt lat="40.970585" lon="14.3083683"><ele>24.0</ele><time>2026-04-12T08:39:21.035Z</time></trkpt><trkpt lat="40.9704733" lon="14.308335"><ele>24.0</ele><time>2026-04-12T08:39:23.034Z</time></trkpt><trkpt lat="40.9703533" lon="14.3083117"><ele>24.0</ele><time>2026-04-12T08:39:25.034Z</time></trkpt><trkpt lat="40.9702317" lon="14.3082967"><ele>24.0</ele><time>2026-04-12T08:39:27.036Z</time></trkpt><trkpt lat="40.9701683" lon="14.3082883"><ele>24.0</ele><time>2026-04-12T08:39:28.034Z</time></trkpt><trkpt lat="40.970045" lon="14.308275"><ele>24.0</ele><time>2026-04-12T08:39:30.035Z</time></trkpt><trkpt lat="40.9699217" lon="14.3082667"><ele>23.999999999999996</ele><time>2026-04-12T08:39:32.035Z</time></trkpt><trkpt lat="40.969855" lon="14.3082567"><ele>24.0</ele><time>2026-04-12T08:39:33.034Z</time></trkpt><trkpt lat="40.9697883" lon="14.3082483"><ele>24.0</ele><time>2026-04-12T08:39:34.034Z</time></trkpt><trkpt lat="40.9697233" lon="14.3082383"><ele>24.0</ele><time>2026-04-12T08:39:35.035Z</time></trkpt><trkpt lat="40.96966" lon="14.3082333"><ele>24.0</ele><time>2026-04-12T08:39:36.035Z</time></trkpt><trkpt lat="40.9695967" lon="14.3082233"><ele>23.999999999999996</ele><time>2026-04-12T08:39:37.036Z</time></trkpt><trkpt lat="40.969475" lon="14.3082117"><ele>24.0</ele><time>2026-04-12T08:39:39.032Z</time></trkpt><trkpt lat="40.9693567" lon="14.3082033"><ele>24.0</ele><time>2026-04-12T08:39:41.035Z</time></trkpt><trkpt lat="40.9692433" lon="14.308195"><ele>24.0</ele><time>2026-04-12T08:39:43.034Z</time></trkpt><trkpt lat="40.96913" lon="14.30818"><ele>24.0</ele><time>2026-04-12T08:39:45.035Z</time></trkpt><trkpt lat="40.9690167" lon="14.308165"><ele>24.0</ele><time>2026-04-12T08:39:47.035Z</time></trkpt><trkpt lat="40.9689133" lon="14.3081483"><ele>24.0</ele><time>2026-04-12T08:39:49.034Z</time></trkpt><trkpt lat="40.9688017" lon="14.3081317"><ele>24.25</ele><time>2026-04-12T08:39:51.035Z</time></trkpt><trkpt lat="40.9686883" lon="14.3081133"><ele>24.5</ele><time>2026-04-12T08:39:53.035Z</time></trkpt><trkpt lat="40.9685717" lon="14.3080867"><ele>24.75</ele><time>2026-04-12T08:39:55.035Z</time></trkpt><trkpt lat="40.9684583" lon="14.3080517"><ele>25.0</ele><time>2026-04-12T08:39:57.035Z</time></trkpt><trkpt lat="40.9683533" lon="14.308015"><ele>25.2</ele><time>2026-04-12T08:39:59.035Z</time></trkpt><trkpt lat="40.968245" lon="14.307975"><ele>25.4</ele><time>2026-04-12T08:40:01.035Z</time></trkpt><trkpt lat="40.9681433" lon="14.3079317"><ele>25.6</ele><time>2026-04-12T08:40:03.035Z</time></trkpt><trkpt lat="40.9680383" lon="14.30788"><ele>25.8</ele><time>2026-04-12T08:40:05.032Z</time></trkpt><trkpt lat="40.967935" lon="14.3078267"><ele>26.0</ele><time>2026-04-12T08:40:07.033Z</time></trkpt><trkpt lat="40.967835" lon="14.3077767"><ele>26.0</ele><time>2026-04-12T08:40:09.033Z</time></trkpt><trkpt lat="40.9677433" lon="14.30774"><ele>26.0</ele><time>2026-04-12T08:40:11.035Z</time></trkpt><trkpt lat="40.9676533" lon="14.3076917"><ele>26.0</ele><time>2026-04-12T08:40:13.036Z</time></trkpt><trkpt lat="40.96756" lon="14.3076467"><ele>26.0</ele><time>2026-04-12T08:40:15.035Z</time></trkpt><trkpt lat="40.9674617" lon="14.3076083"><ele>26.0</ele><time>2026-04-12T08:40:17.034Z</time></trkpt><trkpt lat="40.9673667" lon="14.3075717"><ele>25.6</ele><time>2026-04-12T08:40:19.034Z</time></trkpt><trkpt lat="40.967265" lon="14.3075233"><ele>25.200000000000003</ele><time>2026-04-12T08:40:21.033Z</time></trkpt><trkpt lat="40.9671633" lon="14.307475"><ele>24.799999999999997</ele><time>2026-04-12T08:40:23.034Z</time></trkpt><trkpt lat="40.967055" lon="14.3074317"><ele>24.4</ele><time>2026-04-12T08:40:25.034Z</time></trkpt><trkpt lat="40.96695" lon="14.3073783"><ele>24.0</ele><time>2026-04-12T08:40:27.034Z</time></trkpt><trkpt lat="40.9668383" lon="14.307325"><ele>24.0</ele><time>2026-04-12T08:40:29.033Z</time></trkpt><trkpt lat="40.9667783" lon="14.3072967"><ele>24.0</ele><time>2026-04-12T08:40:30.034Z</time></trkpt><trkpt lat="40.966665" lon="14.3072433"><ele>24.0</ele><time>2026-04-12T08:40:32.033Z</time></trkpt><trkpt lat="40.9665583" lon="14.3071783"><ele>24.0</ele><time>2026-04-12T08:40:34.032Z</time></trkpt><trkpt lat="40.9664467" lon="14.307115"><ele>24.0</ele><time>2026-04-12T08:40:36.036Z</time></trkpt><trkpt lat="40.9663333" lon="14.3070483"><ele>24.25</ele><time>2026-04-12T08:40:38.034Z</time></trkpt><trkpt lat="40.966225" lon="14.306985"><ele>24.5</ele><time>2026-04-12T08:40:40.032Z</time></trkpt><trkpt lat="40.9661133" lon="14.3069267"><ele>24.75</ele><time>2026-04-12T08:40:42.035Z</time></trkpt><trkpt lat="40.966005" lon="14.3068783"><ele>25.0</ele><time>2026-04-12T08:40:44.037Z</time></trkpt><trkpt lat="40.9658933" lon="14.3068367"><ele>25.0</ele><time>2026-04-12T08:40:46.034Z</time></trkpt><trkpt lat="40.965785" lon="14.3068183"><ele>25.0</ele><time>2026-04-12T08:40:48.033Z</time></trkpt><trkpt lat="40.9656833" lon="14.3068167"><ele>25.0</ele><time>2026-04-12T08:40:50.034Z</time></trkpt><trkpt lat="40.9655767" lon="14.3068317"><ele>25.0</ele><time>2026-04-12T08:40:52.033Z</time></trkpt><trkpt lat="40.9655133" lon="14.3068417"><ele>25.0</ele><time>2026-04-12T08:40:53.033Z</time></trkpt><trkpt lat="40.965405" lon="14.3068683"><ele>25.0</ele><time>2026-04-12T08:40:55.032Z</time></trkpt><trkpt lat="40.9652967" lon="14.306905"><ele>25.0</ele><time>2026-04-12T08:40:57.033Z</time></trkpt><trkpt lat="40.965185" lon="14.3069367"><ele>25.0</ele><time>2026-04-12T08:40:59.033Z</time></trkpt><trkpt lat="40.9650717" lon="14.3069633"><ele>25.0</ele><time>2026-04-12T08:41:01.033Z</time></trkpt><trkpt lat="40.9649583" lon="14.3069967"><ele>25.0</ele><time>2026-04-12T08:41:03.034Z</time></trkpt><trkpt lat="40.9648483" lon="14.3070217"><ele>25.0</ele><time>2026-04-12T08:41:05.033Z</time></trkpt><trkpt lat="40.964785" lon="14.3070333"><ele>25.0</ele><time>2026-04-12T08:41:06.034Z</time></trkpt><trkpt lat="40.9646633" lon="14.3070567"><ele>25.0</ele><time>2026-04-12T08:41:08.033Z</time></trkpt><trkpt lat="40.9645433" lon="14.3070733"><ele>25.0</ele><time>2026-04-12T08:41:10.033Z</time></trkpt><trkpt lat="40.9644267" lon="14.3070867"><ele>25.000000000000004</ele><time>2026-04-12T08:41:12.033Z</time></trkpt><trkpt lat="40.96431" lon="14.307105"><ele>25.0</ele><time>2026-04-12T08:41:14.033Z</time></trkpt><trkpt lat="40.9642467" lon="14.30711"><ele>25.0</ele><time>2026-04-12T08:41:15.033Z</time></trkpt><trkpt lat="40.9641233" lon="14.30712"><ele>25.0</ele><time>2026-04-12T08:41:17.034Z</time></trkpt><trkpt lat="40.96406" lon="14.3071217"><ele>25.000000000000004</ele><time>2026-04-12T08:41:18.034Z</time></trkpt><trkpt lat="40.9639967" lon="14.3071217"><ele>25.0</ele><time>2026-04-12T08:41:19.034Z</time></trkpt><trkpt lat="40.9639333" lon="14.307125"><ele>24.6</ele><time>2026-04-12T08:41:20.034Z</time></trkpt><trkpt lat="40.96387" lon="14.307135"><ele>24.2</ele><time>2026-04-12T08:41:21.033Z</time></trkpt><trkpt lat="40.9637467" lon="14.307145"><ele>23.799999999999997</ele><time>2026-04-12T08:41:23.034Z</time></trkpt><trkpt lat="40.9636833" lon="14.307145"><ele>23.4</ele><time>2026-04-12T08:41:24.034Z</time></trkpt><trkpt lat="40.963565" lon="14.3071517"><ele>23.0</ele><time>2026-04-12T08:41:26.035Z</time></trkpt><trkpt lat="40.9634383" lon="14.307165"><ele>23.4</ele><time>2026-04-12T08:41:28.032Z</time></trkpt><trkpt lat="40.9633133" lon="14.3071783"><ele>23.799999999999997</ele><time>2026-04-12T08:41:30.033Z</time></trkpt><trkpt lat="40.9631917" lon="14.3072"><ele>24.2</ele><time>2026-04-12T08:41:32.034Z</time></trkpt><trkpt lat="40.963075" lon="14.3072233"><ele>24.6</ele><time>2026-04-12T08:41:34.034Z</time></trkpt><trkpt lat="40.96301" lon="14.3072333"><ele>25.0</ele><time>2026-04-12T08:41:35.034Z</time></trkpt><trkpt lat="40.9629467" lon="14.3072417"><ele>25.25</ele><time>2026-04-12T08:41:36.035Z</time></trkpt><trkpt lat="40.962825" lon="14.3072467"><ele>25.5</ele><time>2026-04-12T08:41:38.034Z</time></trkpt><trkpt lat="40.9627067" lon="14.307255"><ele>25.75</ele><time>2026-04-12T08:41:40.034Z</time></trkpt><trkpt lat="40.9625867" lon="14.307255"><ele>26.0</ele><time>2026-04-12T08:41:42.034Z</time></trkpt><trkpt lat="40.9624767" lon="14.3072583"><ele>26.200000000000003</ele><time>2026-04-12T08:41:44.034Z</time></trkpt><trkpt lat="40.9623567" lon="14.3072717"><ele>26.400000000000002</ele><time>2026-04-12T08:41:46.034Z</time></trkpt><trkpt lat="40.9622933" lon="14.3072783"><ele>26.6</ele><time>2026-04-12T08:41:47.033Z</time></trkpt><trkpt lat="40.96217" lon="14.30728"><ele>26.8</ele><time>2026-04-12T08:41:49.034Z</time></trkpt><trkpt lat="40.96205" lon="14.3072833"><ele>27.0</ele><time>2026-04-12T08:41:51.032Z</time></trkpt><trkpt lat="40.9619867" lon="14.307285"><ele>27.0</ele><time>2026-04-12T08:41:52.034Z</time></trkpt><trkpt lat="40.961865" lon="14.3072817"><ele>27.0</ele><time>2026-04-12T08:41:54.034Z</time></trkpt><trkpt lat="40.96174" lon="14.3072767"><ele>27.0</ele><time>2026-04-12T08:41:56.033Z</time></trkpt><trkpt lat="40.9616217" lon="14.3072733"><ele>27.0</ele><time>2026-04-12T08:41:58.034Z</time></trkpt><trkpt lat="40.9615" lon="14.3072767"><ele>27.0</ele><time>2026-04-12T08:42:00.033Z</time></trkpt><trkpt lat="40.961435" lon="14.30728"><ele>27.000000000000004</ele><time>2026-04-12T08:42:01.034Z</time></trkpt><trkpt lat="40.96137" lon="14.3072783"><ele>27.000000000000004</ele><time>2026-04-12T08:42:02.034Z</time></trkpt><trkpt lat="40.9612533" lon="14.3072583"><ele>27.0</ele><time>2026-04-12T08:42:04.031Z</time></trkpt><trkpt lat="40.9611433" lon="14.3072433"><ele>27.0</ele><time>2026-04-12T08:42:06.033Z</time></trkpt><trkpt lat="40.961045" lon="14.30723"><ele>27.0</ele><time>2026-04-12T08:42:08.034Z</time></trkpt><trkpt lat="40.9609583" lon="14.3072117"><ele>27.0</ele><time>2026-04-12T08:42:10.031Z</time></trkpt><trkpt lat="40.96087" lon="14.3071983"><ele>27.0</ele><time>2026-04-12T08:42:12.034Z</time></trkpt><trkpt lat="40.960795" lon="14.3071733"><ele>27.0</ele><time>2026-04-12T08:42:14.034Z</time></trkpt><trkpt lat="40.9607217" lon="14.3071283"><ele>27.0</ele><time>2026-04-12T08:42:16.033Z</time></trkpt><trkpt lat="40.9606467" lon="14.3071117"><ele>27.0</ele><time>2026-04-12T08:42:18.033Z</time></trkpt><trkpt lat="40.960565" lon="14.30711"><ele>26.8</ele><time>2026-04-12T08:42:20.034Z</time></trkpt><trkpt lat="40.96047" lon="14.3070867"><ele>26.6</ele><time>2026-04-12T08:42:22.034Z</time></trkpt><trkpt lat="40.9603717" lon="14.3070617"><ele>26.400000000000002</ele><time>2026-04-12T08:42:24.032Z</time></trkpt><trkpt lat="40.9602767" lon="14.3070317"><ele>26.200000000000003</ele><time>2026-04-12T08:42:26.033Z</time></trkpt><trkpt lat="40.9601783" lon="14.3070167"><ele>26.0</ele><time>2026-04-12T08:42:28.034Z</time></trkpt><trkpt lat="40.9600767" lon="14.307"><ele>25.6</ele><time>2026-04-12T08:42:30.033Z</time></trkpt><trkpt lat="40.9599633" lon="14.306975"><ele>25.200000000000003</ele><time>2026-04-12T08:42:32.033Z</time></trkpt><trkpt lat="40.9598483" lon="14.3069483"><ele>24.799999999999997</ele><time>2026-04-12T08:42:34.032Z</time></trkpt><trkpt lat="40.9597417" lon="14.3069167"><ele>24.4</ele><time>2026-04-12T08:42:36.033Z</time></trkpt><trkpt lat="40.959645" lon="14.306885"><ele>24.0</ele><time>2026-04-12T08:42:38.034Z</time></trkpt><trkpt lat="40.95954" lon="14.30686"><ele>24.0</ele><time>2026-04-12T08:42:40.034Z</time></trkpt><trkpt lat="40.9594217" lon="14.306825"><ele>24.0</ele><time>2026-04-12T08:42:42.034Z</time></trkpt><trkpt lat="40.9593033" lon="14.3068033"><ele>24.0</ele><time>2026-04-12T08:42:44.035Z</time></trkpt><trkpt lat="40.9591933" lon="14.306765"><ele>24.0</ele><time>2026-04-12T08:42:46.033Z</time></trkpt><trkpt lat="40.9590733" lon="14.3067233"><ele>24.799999999999997</ele><time>2026-04-12T08:42:48.034Z</time></trkpt><trkpt lat="40.9590083" lon="14.306715"><ele>25.599999999999998</ele><time>2026-04-12T08:42:49.034Z</time></trkpt><trkpt lat="40.95889" lon="14.3066817"><ele>26.4</ele><time>2026-04-12T08:42:51.032Z</time></trkpt><trkpt lat="40.958775" lon="14.30665"><ele>27.2</ele><time>2026-04-12T08:42:53.033Z</time></trkpt><trkpt lat="40.9586733" lon="14.3065967"><ele>28.0</ele><time>2026-04-12T08:42:55.033Z</time></trkpt><trkpt lat="40.9585833" lon="14.306535"><ele>28.0</ele><time>2026-04-12T08:42:57.033Z</time></trkpt><trkpt lat="40.9584883" lon="14.306485"><ele>27.999999999999996</ele><time>2026-04-12T08:42:59.033Z</time></trkpt><trkpt lat="40.9583867" lon="14.3064317"><ele>27.999999999999996</ele><time>2026-04-12T08:43:01.034Z</time></trkpt><trkpt lat="40.9583" lon="14.306365"><ele>28.0</ele><time>2026-04-12T08:43:03.034Z</time></trkpt><trkpt lat="40.9582217" lon="14.3062817"><ele>28.0</ele><time>2026-04-12T08:43:05.033Z</time></trkpt><trkpt lat="40.9581467" lon="14.3062017"><ele>28.2</ele><time>2026-04-12T08:43:07.033Z</time></trkpt><trkpt lat="40.9580633" lon="14.3061083"><ele>28.4</ele><time>2026-04-12T08:43:09.034Z</time></trkpt><trkpt lat="40.957985" lon="14.3060283"><ele>28.599999999999998</ele><time>2026-04-12T08:43:11.033Z</time></trkpt><trkpt lat="40.9579" lon="14.305955"><ele>28.799999999999997</ele><time>2026-04-12T08:43:13.034Z</time></trkpt><trkpt lat="40.9578167" lon="14.3058783"><ele>29.0</ele><time>2026-04-12T08:43:15.032Z</time></trkpt><trkpt lat="40.957725" lon="14.305785"><ele>29.0</ele><time>2026-04-12T08:43:17.034Z</time></trkpt><trkpt lat="40.9576283" lon="14.3057117"><ele>29.0</ele><time>2026-04-12T08:43:19.033Z</time></trkpt><trkpt lat="40.95755" lon="14.3056167"><ele>29.0</ele><time>2026-04-12T08:43:21.034Z</time></trkpt><trkpt lat="40.9574933" lon="14.30555"><ele>29.0</ele><time>2026-04-12T08:43:23.034Z</time></trkpt><trkpt lat="40.9574133" lon="14.3055183"><ele>29.0</ele><time>2026-04-12T08:43:32.035Z</time></trkpt><trkpt lat="40.9573483" lon="14.3054367"><ele>29.0</ele><time>2026-04-12T08:43:35.034Z</time></trkpt><trkpt lat="40.957285" lon="14.3053817"><ele>29.0</ele><time>2026-04-12T08:43:37.033Z</time></trkpt><trkpt lat="40.9572117" lon="14.3053117"><ele>29.0</ele><time>2026-04-12T08:43:39.032Z</time></trkpt><trkpt lat="40.95712" lon="14.30523"><ele>29.0</ele><time>2026-04-12T08:43:41.031Z</time></trkpt><trkpt lat="40.9570417" lon="14.30517"><ele>29.0</ele><time>2026-04-12T08:43:43.032Z</time></trkpt><trkpt lat="40.956945" lon="14.3051183"><ele>28.999999999999996</ele><time>2026-04-12T08:43:45.032Z</time></trkpt><trkpt lat="40.9568567" lon="14.30504"><ele>29.0</ele><time>2026-04-12T08:43:47.033Z</time></trkpt><trkpt lat="40.9567833" lon="14.3049817"><ele>29.0</ele><time>2026-04-12T08:43:49.032Z</time></trkpt><trkpt lat="40.95672" lon="14.304895"><ele>29.0</ele><time>2026-04-12T08:43:51.032Z</time></trkpt><trkpt lat="40.956655" lon="14.30485"><ele>28.999999999999996</ele><time>2026-04-12T08:43:53.032Z</time></trkpt><trkpt lat="40.9565783" lon="14.30483"><ele>29.0</ele><time>2026-04-12T08:43:55.032Z</time></trkpt><trkpt lat="40.9564933" lon="14.3048183"><ele>29.0</ele><time>2026-04-12T08:43:57.033Z</time></trkpt><trkpt lat="40.95639" lon="14.30479"><ele>29.0</ele><time>2026-04-12T08:43:59.033Z</time></trkpt><trkpt lat="40.9563" lon="14.3047533"><ele>29.0</ele><time>2026-04-12T08:44:01.033Z</time></trkpt><trkpt lat="40.95623" lon="14.3046783"><ele>29.0</ele><time>2026-04-12T08:44:03.032Z</time></trkpt><trkpt lat="40.9561583" lon="14.3046183"><ele>29.0</ele><time>2026-04-12T08:44:05.033Z</time></trkpt><trkpt lat="40.95607" lon="14.304585"><ele>28.999999999999996</ele><time>2026-04-12T08:44:07.032Z</time></trkpt><trkpt lat="40.9559817" lon="14.3045467"><ele>29.0</ele><time>2026-04-12T08:44:09.033Z</time></trkpt><trkpt lat="40.95589" lon="14.30451"><ele>29.0</ele><time>2026-04-12T08:44:11.032Z</time></trkpt><trkpt lat="40.9558133" lon="14.304475"><ele>29.0</ele><time>2026-04-12T08:44:13.032Z</time></trkpt><trkpt lat="40.9557317" lon="14.3044433"><ele>28.999999999999996</ele><time>2026-04-12T08:44:15.031Z</time></trkpt><trkpt lat="40.9556417" lon="14.304405"><ele>29.0</ele><time>2026-04-12T08:44:17.033Z</time></trkpt><trkpt lat="40.955555" lon="14.3043733"><ele>28.799999999999997</ele><time>2026-04-12T08:44:19.032Z</time></trkpt><trkpt lat="40.95546" lon="14.3043383"><ele>28.599999999999998</ele><time>2026-04-12T08:44:21.033Z</time></trkpt><trkpt lat="40.9553667" lon="14.3042983"><ele>28.4</ele><time>2026-04-12T08:44:23.032Z</time></trkpt><trkpt lat="40.95527" lon="14.3042733"><ele>28.2</ele><time>2026-04-12T08:44:25.032Z</time></trkpt><trkpt lat="40.9551517" lon="14.3042417"><ele>28.0</ele><time>2026-04-12T08:44:27.032Z</time></trkpt><trkpt lat="40.9550467" lon="14.3042117"><ele>28.000000000000004</ele><time>2026-04-12T08:44:29.033Z</time></trkpt><trkpt lat="40.9549483" lon="14.3041817"><ele>28.0</ele><time>2026-04-12T08:44:31.033Z</time></trkpt><trkpt lat="40.9548717" lon="14.3041383"><ele>28.0</ele><time>2026-04-12T08:44:33.033Z</time></trkpt><trkpt lat="40.9548017" lon="14.3041017"><ele>28.0</ele><time>2026-04-12T08:44:35.035Z</time></trkpt><trkpt lat="40.95472" lon="14.3040667"><ele>28.000000000000004</ele><time>2026-04-12T08:44:37.033Z</time></trkpt><trkpt lat="40.954625" lon="14.3040183"><ele>28.0</ele><time>2026-04-12T08:44:39.033Z</time></trkpt><trkpt lat="40.954535" lon="14.3039883"><ele>28.0</ele><time>2026-04-12T08:44:41.034Z</time></trkpt><trkpt lat="40.9543867" lon="14.3039933"><ele>28.0</ele><time>2026-04-12T08:44:43.034Z</time></trkpt><trkpt lat="40.9542867" lon="14.30396"><ele>28.0</ele><time>2026-04-12T08:44:45.034Z</time></trkpt><trkpt lat="40.95418" lon="14.30395"><ele>28.0</ele><time>2026-04-12T08:44:47.035Z</time></trkpt><trkpt lat="40.954075" lon="14.3039367"><ele>28.599999999999998</ele><time>2026-04-12T08:44:49.034Z</time></trkpt><trkpt lat="40.9539917" lon="14.3039"><ele>29.199999999999996</ele><time>2026-04-12T08:44:51.033Z</time></trkpt><trkpt lat="40.9539133" lon="14.3038483"><ele>29.8</ele><time>2026-04-12T08:44:53.034Z</time></trkpt><trkpt lat="40.95383" lon="14.303785"><ele>30.4</ele><time>2026-04-12T08:44:55.035Z</time></trkpt><trkpt lat="40.95374" lon="14.3037333"><ele>31.0</ele><time>2026-04-12T08:44:57.035Z</time></trkpt><trkpt lat="40.9536383" lon="14.3036817"><ele>31.0</ele><time>2026-04-12T08:44:59.033Z</time></trkpt><trkpt lat="40.9535417" lon="14.30364"><ele>31.0</ele><time>2026-04-12T08:45:01.035Z</time></trkpt><trkpt lat="40.9534617" lon="14.303605"><ele>31.0</ele><time>2026-04-12T08:45:03.032Z</time></trkpt><trkpt lat="40.9533683" lon="14.3035817"><ele>31.0</ele><time>2026-04-12T08:45:05.033Z</time></trkpt><trkpt lat="40.9532633" lon="14.3035767"><ele>31.0</ele><time>2026-04-12T08:45:07.034Z</time></trkpt><trkpt lat="40.9531783" lon="14.3035633"><ele>30.4</ele><time>2026-04-12T08:45:09.032Z</time></trkpt><trkpt lat="40.953085" lon="14.3035483"><ele>29.8</ele><time>2026-04-12T08:45:11.033Z</time></trkpt><trkpt lat="40.952995" lon="14.30351"><ele>29.199999999999996</ele><time>2026-04-12T08:45:13.033Z</time></trkpt><trkpt lat="40.9529017" lon="14.3034717"><ele>28.599999999999998</ele><time>2026-04-12T08:45:15.032Z</time></trkpt><trkpt lat="40.9528083" lon="14.30344"><ele>28.0</ele><time>2026-04-12T08:45:17.034Z</time></trkpt><trkpt lat="40.95272" lon="14.30342"><ele>28.0</ele><time>2026-04-12T08:45:19.034Z</time></trkpt><trkpt lat="40.95264" lon="14.303395"><ele>27.999999999999996</ele><time>2026-04-12T08:45:21.034Z</time></trkpt><trkpt lat="40.95254" lon="14.303365"><ele>27.999999999999996</ele><time>2026-04-12T08:45:23.034Z</time></trkpt><trkpt lat="40.9524317" lon="14.3033283"><ele>28.0</ele><time>2026-04-12T08:45:25.034Z</time></trkpt><trkpt lat="40.9523333" lon="14.3032917"><ele>28.0</ele><time>2026-04-12T08:45:27.032Z</time></trkpt><trkpt lat="40.9522433" lon="14.3032633"><ele>28.4</ele><time>2026-04-12T08:45:29.033Z</time></trkpt><trkpt lat="40.9521333" lon="14.3032483"><ele>28.799999999999997</ele><time>2026-04-12T08:45:31.034Z</time></trkpt><trkpt lat="40.952025" lon="14.3032283"><ele>29.2</ele><time>2026-04-12T08:45:33.033Z</time></trkpt><trkpt lat="40.95192" lon="14.3031867"><ele>29.6</ele><time>2026-04-12T08:45:35.034Z</time></trkpt><trkpt lat="40.9518167" lon="14.30315"><ele>30.0</ele><time>2026-04-12T08:45:37.034Z</time></trkpt><trkpt lat="40.9517117" lon="14.3031233"><ele>30.0</ele><time>2026-04-12T08:45:39.034Z</time></trkpt><trkpt lat="40.9516117" lon="14.30309"><ele>30.0</ele><time>2026-04-12T08:45:41.034Z</time></trkpt><trkpt lat="40.951515" lon="14.3030533"><ele>30.0</ele><time>2026-04-12T08:45:43.032Z</time></trkpt><trkpt lat="40.95141" lon="14.3030283"><ele>30.0</ele><time>2026-04-12T08:45:45.033Z</time></trkpt><trkpt lat="40.9513433" lon="14.3030083"><ele>30.0</ele><time>2026-04-12T08:45:46.034Z</time></trkpt><trkpt lat="40.9512733" lon="14.30299"><ele>29.8</ele><time>2026-04-12T08:45:47.034Z</time></trkpt><trkpt lat="40.95121" lon="14.302975"><ele>29.6</ele><time>2026-04-12T08:45:48.033Z</time></trkpt><trkpt lat="40.95109" lon="14.3029533"><ele>29.4</ele><time>2026-04-12T08:45:50.038Z</time></trkpt><trkpt lat="40.951025" lon="14.30294"><ele>29.2</ele><time>2026-04-12T08:45:51.031Z</time></trkpt><trkpt lat="40.9509167" lon="14.302935"><ele>29.0</ele><time>2026-04-12T08:45:53.031Z</time></trkpt><trkpt lat="40.9508167" lon="14.3029233"><ele>29.6</ele><time>2026-04-12T08:45:55.034Z</time></trkpt><trkpt lat="40.9507233" lon="14.3028967"><ele>30.2</ele><time>2026-04-12T08:45:57.031Z</time></trkpt><trkpt lat="40.9506233" lon="14.30289"><ele>30.800000000000004</ele><time>2026-04-12T08:45:59.032Z</time></trkpt><trkpt lat="40.95054" lon="14.3028617"><ele>31.400000000000002</ele><time>2026-04-12T08:46:01.031Z</time></trkpt><trkpt lat="40.9504467" lon="14.3028017"><ele>32.0</ele><time>2026-04-12T08:46:03.032Z</time></trkpt><trkpt lat="40.9503733" lon="14.3027783"><ele>32.0</ele><time>2026-04-12T08:46:04.031Z</time></trkpt><trkpt lat="40.9502733" lon="14.3027517"><ele>32.0</ele><time>2026-04-12T08:46:06.032Z</time></trkpt><trkpt lat="40.9501617" lon="14.302705"><ele>32.0</ele><time>2026-04-12T08:46:08.032Z</time></trkpt><trkpt lat="40.9500433" lon="14.3026567"><ele>32.0</ele><time>2026-04-12T08:46:10.03Z</time></trkpt><trkpt lat="40.94998" lon="14.3026417"><ele>32.0</ele><time>2026-04-12T08:46:11.031Z</time></trkpt><trkpt lat="40.9498683" lon="14.3026117"><ele>32.25</ele><time>2026-04-12T08:46:13.031Z</time></trkpt><trkpt lat="40.949755" lon="14.3025883"><ele>32.5</ele><time>2026-04-12T08:46:15.031Z</time></trkpt><trkpt lat="40.949645" lon="14.3025583"><ele>32.75</ele><time>2026-04-12T08:46:17.03Z</time></trkpt><trkpt lat="40.9495367" lon="14.302535"><ele>33.0</ele><time>2026-04-12T08:46:19.029Z</time></trkpt><trkpt lat="40.9494217" lon="14.3025217"><ele>33.0</ele><time>2026-04-12T08:46:21.03Z</time></trkpt><trkpt lat="40.949315" lon="14.3025067"><ele>33.0</ele><time>2026-04-12T08:46:23.031Z</time></trkpt><trkpt lat="40.9492117" lon="14.30249"><ele>33.0</ele><time>2026-04-12T08:46:25.031Z</time></trkpt><trkpt lat="40.9491067" lon="14.3024567"><ele>33.0</ele><time>2026-04-12T08:46:27.031Z</time></trkpt><trkpt lat="40.9490067" lon="14.3024167"><ele>33.0</ele><time>2026-04-12T08:46:29.032Z</time></trkpt><trkpt lat="40.9488933" lon="14.3023933"><ele>32.8</ele><time>2026-04-12T08:46:31.031Z</time></trkpt><trkpt lat="40.94878" lon="14.3023733"><ele>32.599999999999994</ele><time>2026-04-12T08:46:33.031Z</time></trkpt><trkpt lat="40.9486717" lon="14.3023517"><ele>32.400000000000006</ele><time>2026-04-12T08:46:35.031Z</time></trkpt><trkpt lat="40.94856" lon="14.3023317"><ele>32.2</ele><time>2026-04-12T08:46:37.031Z</time></trkpt><trkpt lat="40.948455" lon="14.3023083"><ele>32.0</ele><time>2026-04-12T08:46:39.031Z</time></trkpt><trkpt lat="40.94835" lon="14.3022767"><ele>32.0</ele><time>2026-04-12T08:46:41.031Z</time></trkpt><trkpt lat="40.9482433" lon="14.3022483"><ele>32.0</ele><time>2026-04-12T08:46:43.031Z</time></trkpt><trkpt lat="40.9481383" lon="14.3022133"><ele>32.0</ele><time>2026-04-12T08:46:45.03Z</time></trkpt><trkpt lat="40.9480333" lon="14.302185"><ele>32.0</ele><time>2026-04-12T08:46:47.03Z</time></trkpt><trkpt lat="40.947925" lon="14.3021583"><ele>32.0</ele><time>2026-04-12T08:46:49.031Z</time></trkpt><trkpt lat="40.9478233" lon="14.30213"><ele>32.0</ele><time>2026-04-12T08:46:51.03Z</time></trkpt><trkpt lat="40.9477217" lon="14.30211"><ele>32.0</ele><time>2026-04-12T08:46:53.032Z</time></trkpt><trkpt lat="40.9476333" lon="14.3020833"><ele>32.0</ele><time>2026-04-12T08:46:55.031Z</time></trkpt><trkpt lat="40.9475383" lon="14.3020417"><ele>32.0</ele><time>2026-04-12T08:46:57.032Z</time></trkpt><trkpt lat="40.94745" lon="14.3019767"><ele>32.0</ele><time>2026-04-12T08:46:59.032Z</time></trkpt><trkpt lat="40.94737" lon="14.301905"><ele>32.2</ele><time>2026-04-12T08:47:01.031Z</time></trkpt><trkpt lat="40.9473017" lon="14.301805"><ele>32.400000000000006</ele><time>2026-04-12T08:47:03.032Z</time></trkpt><trkpt lat="40.9472483" lon="14.3016917"><ele>32.599999999999994</ele><time>2026-04-12T08:47:05.032Z</time></trkpt><trkpt lat="40.9472033" lon="14.3015767"><ele>32.8</ele><time>2026-04-12T08:47:07.032Z</time></trkpt><trkpt lat="40.947165" lon="14.3014467"><ele>33.0</ele><time>2026-04-12T08:47:09.032Z</time></trkpt><trkpt lat="40.9471217" lon="14.3013217"><ele>32.6</ele><time>2026-04-12T08:47:11.032Z</time></trkpt><trkpt lat="40.9470833" lon="14.3011967"><ele>32.199999999999996</ele><time>2026-04-12T08:47:13.032Z</time></trkpt><trkpt lat="40.94704" lon="14.3010833"><ele>31.8</ele><time>2026-04-12T08:47:15.035Z</time></trkpt><trkpt lat="40.9469883" lon="14.3009683"><ele>31.4</ele><time>2026-04-12T08:47:17.032Z</time></trkpt><trkpt lat="40.946945" lon="14.300835"><ele>31.0</ele><time>2026-04-12T08:47:19.034Z</time></trkpt><trkpt lat="40.94691" lon="14.3007133"><ele>31.0</ele><time>2026-04-12T08:47:21.032Z</time></trkpt><trkpt lat="40.946875" lon="14.3006083"><ele>31.0</ele><time>2026-04-12T08:47:23.032Z</time></trkpt><trkpt lat="40.9468217" lon="14.3004883"><ele>31.0</ele><time>2026-04-12T08:47:25.033Z</time></trkpt><trkpt lat="40.9467783" lon="14.3003483"><ele>31.0</ele><time>2026-04-12T08:47:27.031Z</time></trkpt><trkpt lat="40.9467367" lon="14.3002133"><ele>31.0</ele><time>2026-04-12T08:47:29.031Z</time></trkpt><trkpt lat="40.946685" lon="14.30009"><ele>31.200000000000003</ele><time>2026-04-12T08:47:31.031Z</time></trkpt><trkpt lat="40.9466383" lon="14.299965"><ele>31.400000000000002</ele><time>2026-04-12T08:47:33.031Z</time></trkpt><trkpt lat="40.9465883" lon="14.299845"><ele>31.6</ele><time>2026-04-12T08:47:35.031Z</time></trkpt><trkpt lat="40.9465467" lon="14.29973"><ele>31.8</ele><time>2026-04-12T08:47:37.031Z</time></trkpt><trkpt lat="40.946495" lon="14.2996267"><ele>32.0</ele><time>2026-04-12T08:47:39.032Z</time></trkpt><trkpt lat="40.94644" lon="14.299525"><ele>32.0</ele><time>2026-04-12T08:47:41.031Z</time></trkpt><trkpt lat="40.946375" lon="14.2994533"><ele>32.0</ele><time>2026-04-12T08:47:43.032Z</time></trkpt><trkpt lat="40.94629" lon="14.2994333"><ele>32.0</ele><time>2026-04-12T08:47:45.031Z</time></trkpt><trkpt lat="40.9461983" lon="14.2994483"><ele>32.0</ele><time>2026-04-12T08:47:47.031Z</time></trkpt><trkpt lat="40.946095" lon="14.2994633"><ele>32.0</ele><time>2026-04-12T08:47:49.031Z</time></trkpt><trkpt lat="40.946" lon="14.2994433"><ele>32.0</ele><time>2026-04-12T08:47:51.031Z</time></trkpt><trkpt lat="40.9458983" lon="14.2994333"><ele>32.0</ele><time>2026-04-12T08:47:53.032Z</time></trkpt><trkpt lat="40.9457883" lon="14.2994167"><ele>32.0</ele><time>2026-04-12T08:47:55.031Z</time></trkpt><trkpt lat="40.9456783" lon="14.2993983"><ele>32.0</ele><time>2026-04-12T08:47:57.03Z</time></trkpt><trkpt lat="40.9455683" lon="14.29937"><ele>32.0</ele><time>2026-04-12T08:47:59.031Z</time></trkpt><trkpt lat="40.9454583" lon="14.2993433"><ele>32.2</ele><time>2026-04-12T08:48:01.031Z</time></trkpt><trkpt lat="40.9453583" lon="14.2993233"><ele>32.400000000000006</ele><time>2026-04-12T08:48:03.032Z</time></trkpt><trkpt lat="40.9452567" lon="14.2993"><ele>32.599999999999994</ele><time>2026-04-12T08:48:05.032Z</time></trkpt><trkpt lat="40.9451583" lon="14.2992683"><ele>32.8</ele><time>2026-04-12T08:48:07.032Z</time></trkpt><trkpt lat="40.94506" lon="14.2992367"><ele>33.0</ele><time>2026-04-12T08:48:09.032Z</time></trkpt><trkpt lat="40.9449533" lon="14.29922"><ele>33.0</ele><time>2026-04-12T08:48:11.032Z</time></trkpt><trkpt lat="40.9448483" lon="14.299205"><ele>33.0</ele><time>2026-04-12T08:48:13.031Z</time></trkpt><trkpt lat="40.9447467" lon="14.299185"><ele>33.0</ele><time>2026-04-12T08:48:15.031Z</time></trkpt><trkpt lat="40.944645" lon="14.2991717"><ele>33.0</ele><time>2026-04-12T08:48:17.031Z</time></trkpt><trkpt lat="40.9445367" lon="14.2991583"><ele>33.0</ele><time>2026-04-12T08:48:19.029Z</time></trkpt><trkpt lat="40.9444333" lon="14.2991317"><ele>33.0</ele><time>2026-04-12T08:48:21.031Z</time></trkpt><trkpt lat="40.94433" lon="14.2991033"><ele>33.0</ele><time>2026-04-12T08:48:23.031Z</time></trkpt><trkpt lat="40.9442233" lon="14.2991083"><ele>33.0</ele><time>2026-04-12T08:48:25.031Z</time></trkpt><trkpt lat="40.944115" lon="14.2991"><ele>33.0</ele><time>2026-04-12T08:48:27.031Z</time></trkpt><trkpt lat="40.9440083" lon="14.2990817"><ele>33.0</ele><time>2026-04-12T08:48:29.031Z</time></trkpt><trkpt lat="40.9439067" lon="14.2990633"><ele>32.8</ele><time>2026-04-12T08:48:31.031Z</time></trkpt><trkpt lat="40.943805" lon="14.299045"><ele>32.599999999999994</ele><time>2026-04-12T08:48:33.031Z</time></trkpt><trkpt lat="40.9437" lon="14.299025"><ele>32.400000000000006</ele><time>2026-04-12T08:48:35.031Z</time></trkpt><trkpt lat="40.9435933" lon="14.2990083"><ele>32.2</ele><time>2026-04-12T08:48:37.031Z</time></trkpt><trkpt lat="40.943485" lon="14.2989933"><ele>32.0</ele><time>2026-04-12T08:48:39.031Z</time></trkpt><trkpt lat="40.9433767" lon="14.2989883"><ele>32.5</ele><time>2026-04-12T08:48:41.031Z</time></trkpt><trkpt lat="40.9432633" lon="14.298985"><ele>33.0</ele><time>2026-04-12T08:48:43.031Z</time></trkpt><trkpt lat="40.9431433" lon="14.2989933"><ele>33.5</ele><time>2026-04-12T08:48:45.031Z</time></trkpt><trkpt lat="40.9430317" lon="14.2989917"><ele>34.0</ele><time>2026-04-12T08:48:47.03Z</time></trkpt><trkpt lat="40.9429233" lon="14.2989817"><ele>34.0</ele><time>2026-04-12T08:48:49.031Z</time></trkpt><trkpt lat="40.9428133" lon="14.298975"><ele>34.0</ele><time>2026-04-12T08:48:51.031Z</time></trkpt><trkpt lat="40.9427117" lon="14.2989733"><ele>34.0</ele><time>2026-04-12T08:48:53.031Z</time></trkpt><trkpt lat="40.9426167" lon="14.2989817"><ele>34.0</ele><time>2026-04-12T08:48:55.032Z</time></trkpt><trkpt lat="40.9425133" lon="14.2989967"><ele>34.0</ele><time>2026-04-12T08:48:57.032Z</time></trkpt><trkpt lat="40.9424117" lon="14.299005"><ele>34.4</ele><time>2026-04-12T08:48:59.032Z</time></trkpt><trkpt lat="40.9423017" lon="14.29902"><ele>34.8</ele><time>2026-04-12T08:49:01.032Z</time></trkpt><trkpt lat="40.9421933" lon="14.2990317"><ele>35.2</ele><time>2026-04-12T08:49:03.031Z</time></trkpt><trkpt lat="40.9420867" lon="14.2990317"><ele>35.6</ele><time>2026-04-12T08:49:05.031Z</time></trkpt><trkpt lat="40.9419867" lon="14.29903"><ele>36.0</ele><time>2026-04-12T08:49:07.03Z</time></trkpt><trkpt lat="40.9418883" lon="14.299025"><ele>36.0</ele><time>2026-04-12T08:49:09.031Z</time></trkpt><trkpt lat="40.94179" lon="14.2990333"><ele>36.0</ele><time>2026-04-12T08:49:11.03Z</time></trkpt><trkpt lat="40.9416917" lon="14.2990483"><ele>36.0</ele><time>2026-04-12T08:49:13.031Z</time></trkpt><trkpt lat="40.9415983" lon="14.2990633"><ele>36.0</ele><time>2026-04-12T08:49:15.031Z</time></trkpt><trkpt lat="40.9415" lon="14.29908"><ele>36.0</ele><time>2026-04-12T08:49:17.031Z</time></trkpt><trkpt lat="40.9414067" lon="14.2990983"><ele>36.166666666666664</ele><time>2026-04-12T08:49:19.031Z</time></trkpt><trkpt lat="40.9413167" lon="14.2991317"><ele>36.333333333333336</ele><time>2026-04-12T08:49:21.031Z</time></trkpt><trkpt lat="40.9412417" lon="14.29916"><ele>36.5</ele><time>2026-04-12T08:49:23.031Z</time></trkpt><trkpt lat="40.9411617" lon="14.2991817"><ele>36.66666666666667</ele><time>2026-04-12T08:49:25.031Z</time></trkpt><trkpt lat="40.9410717" lon="14.2992217"><ele>36.833333333333336</ele><time>2026-04-12T08:49:27.031Z</time></trkpt><trkpt lat="40.9409883" lon="14.299255"><ele>37.0</ele><time>2026-04-12T08:49:29.032Z</time></trkpt><trkpt lat="40.9409033" lon="14.2992983"><ele>37.0</ele><time>2026-04-12T08:49:31.031Z</time></trkpt><trkpt lat="40.940815" lon="14.299335"><ele>37.0</ele><time>2026-04-12T08:49:33.031Z</time></trkpt><trkpt lat="40.9407367" lon="14.2993667"><ele>37.0</ele><time>2026-04-12T08:49:35.031Z</time></trkpt><trkpt lat="40.9406583" lon="14.2993867"><ele>37.0</ele><time>2026-04-12T08:49:37.032Z</time></trkpt><trkpt lat="40.9405767" lon="14.29941"><ele>37.0</ele><time>2026-04-12T08:49:39.032Z</time></trkpt><trkpt lat="40.9404883" lon="14.2994283"><ele>37.0</ele><time>2026-04-12T08:49:41.032Z</time></trkpt><trkpt lat="40.9404017" lon="14.29945"><ele>37.0</ele><time>2026-04-12T08:49:43.032Z</time></trkpt><trkpt lat="40.94031" lon="14.2994717"><ele>37.0</ele><time>2026-04-12T08:49:45.03Z</time></trkpt><trkpt lat="40.94022" lon="14.2995"><ele>37.0</ele><time>2026-04-12T08:49:47.03Z</time></trkpt><trkpt lat="40.9401283" lon="14.299525"><ele>37.0</ele><time>2026-04-12T08:49:49.031Z</time></trkpt><trkpt lat="40.9400383" lon="14.29956"><ele>37.0</ele><time>2026-04-12T08:49:51.031Z</time></trkpt><trkpt lat="40.9399433" lon="14.2995833"><ele>36.800000000000004</ele><time>2026-04-12T08:49:53.032Z</time></trkpt><trkpt lat="40.9398483" lon="14.2996183"><ele>36.6</ele><time>2026-04-12T08:49:55.032Z</time></trkpt><trkpt lat="40.9397533" lon="14.2996683"><ele>36.400000000000006</ele><time>2026-04-12T08:49:57.031Z</time></trkpt><trkpt lat="40.939665" lon="14.2997233"><ele>36.2</ele><time>2026-04-12T08:49:59.031Z</time></trkpt><trkpt lat="40.93957" lon="14.299785"><ele>36.0</ele><time>2026-04-12T08:50:01.031Z</time></trkpt><trkpt lat="40.93949" lon="14.299845"><ele>36.0</ele><time>2026-04-12T08:50:03.031Z</time></trkpt><trkpt lat="40.9394033" lon="14.2998983"><ele>36.0</ele><time>2026-04-12T08:50:05.03Z</time></trkpt><trkpt lat="40.93932" lon="14.2999583"><ele>36.0</ele><time>2026-04-12T08:50:07.031Z</time></trkpt><trkpt lat="40.9392317" lon="14.300015"><ele>36.0</ele><time>2026-04-12T08:50:09.031Z</time></trkpt><trkpt lat="40.93914" lon="14.300075"><ele>36.0</ele><time>2026-04-12T08:50:11.031Z</time></trkpt><trkpt lat="40.939045" lon="14.30013"><ele>36.2</ele><time>2026-04-12T08:50:13.031Z</time></trkpt><trkpt lat="40.9389533" lon="14.30018"><ele>36.400000000000006</ele><time>2026-04-12T08:50:15.031Z</time></trkpt><trkpt lat="40.93887" lon="14.3002233"><ele>36.6</ele><time>2026-04-12T08:50:17.031Z</time></trkpt><trkpt lat="40.938785" lon="14.3002733"><ele>36.800000000000004</ele><time>2026-04-12T08:50:19.03Z</time></trkpt><trkpt lat="40.9386933" lon="14.3003233"><ele>37.0</ele><time>2026-04-12T08:50:21.032Z</time></trkpt><trkpt lat="40.9386017" lon="14.3003733"><ele>37.0</ele><time>2026-04-12T08:50:23.031Z</time></trkpt><trkpt lat="40.93852" lon="14.3004333"><ele>37.0</ele><time>2026-04-12T08:50:25.032Z</time></trkpt><trkpt lat="40.938435" lon="14.3005"><ele>37.0</ele><time>2026-04-12T08:50:27.032Z</time></trkpt><trkpt lat="40.9383517" lon="14.3005633"><ele>37.0</ele><time>2026-04-12T08:50:29.032Z</time></trkpt><trkpt lat="40.9382667" lon="14.300615"><ele>37.0</ele><time>2026-04-12T08:50:31.03Z</time></trkpt><trkpt lat="40.9381767" lon="14.3006617"><ele>37.2</ele><time>2026-04-12T08:50:33.031Z</time></trkpt><trkpt lat="40.9380867" lon="14.3006983"><ele>37.400000000000006</ele><time>2026-04-12T08:50:35.031Z</time></trkpt><trkpt lat="40.9379883" lon="14.30073"><ele>37.599999999999994</ele><time>2026-04-12T08:50:37.031Z</time></trkpt><trkpt lat="40.9378983" lon="14.3007583"><ele>37.8</ele><time>2026-04-12T08:50:39.03Z</time></trkpt><trkpt lat="40.93781" lon="14.3007867"><ele>38.0</ele><time>2026-04-12T08:50:41.03Z</time></trkpt><trkpt lat="40.93772" lon="14.3008067"><ele>38.0</ele><time>2026-04-12T08:50:43.031Z</time></trkpt><trkpt lat="40.9376267" lon="14.30082"><ele>38.0</ele><time>2026-04-12T08:50:45.031Z</time></trkpt><trkpt lat="40.9375333" lon="14.3008417"><ele>38.0</ele><time>2026-04-12T08:50:47.031Z</time></trkpt><trkpt lat="40.9374317" lon="14.3008617"><ele>38.0</ele><time>2026-04-12T08:50:49.031Z</time></trkpt><trkpt lat="40.9373317" lon="14.3008817"><ele>38.0</ele><time>2026-04-12T08:50:51.032Z</time></trkpt><trkpt lat="40.937225" lon="14.3009083"><ele>37.8</ele><time>2026-04-12T08:50:53.031Z</time></trkpt><trkpt lat="40.937125" lon="14.3009167"><ele>37.599999999999994</ele><time>2026-04-12T08:50:55.031Z</time></trkpt><trkpt lat="40.937025" lon="14.300935"><ele>37.400000000000006</ele><time>2026-04-12T08:50:57.031Z</time></trkpt><trkpt lat="40.936925" lon="14.3009583"><ele>37.2</ele><time>2026-04-12T08:50:59.03Z</time></trkpt><trkpt lat="40.93683" lon="14.3009783"><ele>37.0</ele><time>2026-04-12T08:51:01.031Z</time></trkpt><trkpt lat="40.93673" lon="14.301"><ele>37.0</ele><time>2026-04-12T08:51:03.032Z</time></trkpt><trkpt lat="40.9366233" lon="14.3010133"><ele>37.0</ele><time>2026-04-12T08:51:05.031Z</time></trkpt><trkpt lat="40.9365167" lon="14.3010333"><ele>37.0</ele><time>2026-04-12T08:51:07.034Z</time></trkpt><trkpt lat="40.9364183" lon="14.3010617"><ele>37.0</ele><time>2026-04-12T08:51:09.033Z</time></trkpt><trkpt lat="40.9363183" lon="14.301085"><ele>37.0</ele><time>2026-04-12T08:51:11.033Z</time></trkpt><trkpt lat="40.93622" lon="14.3011133"><ele>37.0</ele><time>2026-04-12T08:51:13.033Z</time></trkpt><trkpt lat="40.9361183" lon="14.30113"><ele>37.0</ele><time>2026-04-12T08:51:15.035Z</time></trkpt><trkpt lat="40.93602" lon="14.30115"><ele>37.0</ele><time>2026-04-12T08:51:17.032Z</time></trkpt><trkpt lat="40.93592" lon="14.3011717"><ele>37.0</ele><time>2026-04-12T08:51:19.033Z</time></trkpt><trkpt lat="40.93582" lon="14.301185"><ele>37.0</ele><time>2026-04-12T08:51:21.032Z</time></trkpt><trkpt lat="40.935715" lon="14.301195"><ele>37.0</ele><time>2026-04-12T08:51:23.032Z</time></trkpt><trkpt lat="40.9356117" lon="14.3012167"><ele>37.0</ele><time>2026-04-12T08:51:25.033Z</time></trkpt><trkpt lat="40.9355067" lon="14.30123"><ele>37.0</ele><time>2026-04-12T08:51:27.032Z</time></trkpt><trkpt lat="40.935405" lon="14.3012333"><ele>37.0</ele><time>2026-04-12T08:51:29.032Z</time></trkpt><trkpt lat="40.9353033" lon="14.301235"><ele>37.0</ele><time>2026-04-12T08:51:31.032Z</time></trkpt><trkpt lat="40.9352017" lon="14.30124"><ele>37.0</ele><time>2026-04-12T08:51:33.032Z</time></trkpt><trkpt lat="40.9351" lon="14.3012267"><ele>37.0</ele><time>2026-04-12T08:51:35.033Z</time></trkpt><trkpt lat="40.9350033" lon="14.30121"><ele>37.0</ele><time>2026-04-12T08:51:37.032Z</time></trkpt><trkpt lat="40.934905" lon="14.3012"><ele>37.0</ele><time>2026-04-12T08:51:39.033Z</time></trkpt><trkpt lat="40.9348083" lon="14.3011917"><ele>37.0</ele><time>2026-04-12T08:51:41.032Z</time></trkpt><trkpt lat="40.934715" lon="14.30117"><ele>37.4</ele><time>2026-04-12T08:51:43.031Z</time></trkpt><trkpt lat="40.9346233" lon="14.3011533"><ele>37.800000000000004</ele><time>2026-04-12T08:51:45.032Z</time></trkpt><trkpt lat="40.9345217" lon="14.3011483"><ele>38.2</ele><time>2026-04-12T08:51:47.032Z</time></trkpt><trkpt lat="40.9344167" lon="14.3011467"><ele>38.6</ele><time>2026-04-12T08:51:49.032Z</time></trkpt><trkpt lat="40.934315" lon="14.3011533"><ele>39.0</ele><time>2026-04-12T08:51:51.033Z</time></trkpt><trkpt lat="40.93422" lon="14.3011567"><ele>39.4</ele><time>2026-04-12T08:51:53.032Z</time></trkpt><trkpt lat="40.9341117" lon="14.3011567"><ele>39.8</ele><time>2026-04-12T08:51:55.034Z</time></trkpt><trkpt lat="40.9339933" lon="14.3011583"><ele>40.199999999999996</ele><time>2026-04-12T08:51:57.033Z</time></trkpt><trkpt lat="40.933885" lon="14.301165"><ele>40.599999999999994</ele><time>2026-04-12T08:51:59.032Z</time></trkpt><trkpt lat="40.933775" lon="14.3011517"><ele>41.0</ele><time>2026-04-12T08:52:01.033Z</time></trkpt><trkpt lat="40.9336717" lon="14.3011467"><ele>41.0</ele><time>2026-04-12T08:52:03.032Z</time></trkpt><trkpt lat="40.9335667" lon="14.3011483"><ele>41.0</ele><time>2026-04-12T08:52:05.032Z</time></trkpt><trkpt lat="40.9334633" lon="14.3011317"><ele>41.0</ele><time>2026-04-12T08:52:07.032Z</time></trkpt><trkpt lat="40.9333567" lon="14.3011233"><ele>41.0</ele><time>2026-04-12T08:52:09.032Z</time></trkpt><trkpt lat="40.93325" lon="14.301115"><ele>41.0</ele><time>2026-04-12T08:52:11.033Z</time></trkpt><trkpt lat="40.93314" lon="14.3011083"><ele>40.599999999999994</ele><time>2026-04-12T08:52:13.033Z</time></trkpt><trkpt lat="40.9330333" lon="14.3011067"><ele>40.199999999999996</ele><time>2026-04-12T08:52:15.034Z</time></trkpt><trkpt lat="40.9329267" lon="14.30111"><ele>39.8</ele><time>2026-04-12T08:52:17.033Z</time></trkpt><trkpt lat="40.9328183" lon="14.30111"><ele>39.4</ele><time>2026-04-12T08:52:19.033Z</time></trkpt><trkpt lat="40.9327117" lon="14.3011083"><ele>39.0</ele><time>2026-04-12T08:52:21.033Z</time></trkpt><trkpt lat="40.932605" lon="14.30111"><ele>39.2</ele><time>2026-04-12T08:52:23.033Z</time></trkpt><trkpt lat="40.9325" lon="14.3011117"><ele>39.4</ele><time>2026-04-12T08:52:25.033Z</time></trkpt><trkpt lat="40.9323933" lon="14.30111"><ele>39.6</ele><time>2026-04-12T08:52:27.033Z</time></trkpt><trkpt lat="40.932285" lon="14.3011017"><ele>39.8</ele><time>2026-04-12T08:52:29.033Z</time></trkpt><trkpt lat="40.9321733" lon="14.301085"><ele>40.0</ele><time>2026-04-12T08:52:31.034Z</time></trkpt><trkpt lat="40.9320583" lon="14.3010517"><ele>40.0</ele><time>2026-04-12T08:52:33.033Z</time></trkpt><trkpt lat="40.9319583" lon="14.3010017"><ele>40.0</ele><time>2026-04-12T08:52:35.032Z</time></trkpt><trkpt lat="40.9318683" lon="14.30093"><ele>40.0</ele><time>2026-04-12T08:52:37.033Z</time></trkpt><trkpt lat="40.9317833" lon="14.3008417"><ele>40.0</ele><time>2026-04-12T08:52:39.034Z</time></trkpt><trkpt lat="40.9317033" lon="14.30074"><ele>40.0</ele><time>2026-04-12T08:52:41.034Z</time></trkpt><trkpt lat="40.9316283" lon="14.30063"><ele>40.0</ele><time>2026-04-12T08:52:43.033Z</time></trkpt><trkpt lat="40.931555" lon="14.30052"><ele>40.0</ele><time>2026-04-12T08:52:45.034Z</time></trkpt><trkpt lat="40.931485" lon="14.3004033"><ele>40.0</ele><time>2026-04-12T08:52:47.034Z</time></trkpt><trkpt lat="40.9314133" lon="14.3002967"><ele>40.0</ele><time>2026-04-12T08:52:49.032Z</time></trkpt><trkpt lat="40.931345" lon="14.3001867"><ele>40.0</ele><time>2026-04-12T08:52:51.034Z</time></trkpt><trkpt lat="40.9312733" lon="14.3000733"><ele>40.0</ele><time>2026-04-12T08:52:53.033Z</time></trkpt><trkpt lat="40.9311983" lon="14.2999617"><ele>40.0</ele><time>2026-04-12T08:52:55.033Z</time></trkpt><trkpt lat="40.9311233" lon="14.2998533"><ele>40.0</ele><time>2026-04-12T08:52:57.033Z</time></trkpt><trkpt lat="40.9310467" lon="14.29975"><ele>40.0</ele><time>2026-04-12T08:52:59.034Z</time></trkpt><trkpt lat="40.9309783" lon="14.2996417"><ele>40.0</ele><time>2026-04-12T08:53:01.032Z</time></trkpt><trkpt lat="40.9309067" lon="14.29954"><ele>40.0</ele><time>2026-04-12T08:53:03.033Z</time></trkpt><trkpt lat="40.9308317" lon="14.29944"><ele>40.0</ele><time>2026-04-12T08:53:05.032Z</time></trkpt><trkpt lat="40.9307533" lon="14.2993417"><ele>40.0</ele><time>2026-04-12T08:53:07.034Z</time></trkpt><trkpt lat="40.9306833" lon="14.2992317"><ele>40.0</ele><time>2026-04-12T08:53:09.032Z</time></trkpt><trkpt lat="40.9306133" lon="14.2991267"><ele>40.0</ele><time>2026-04-12T08:53:11.033Z</time></trkpt><trkpt lat="40.9305433" lon="14.299025"><ele>40.0</ele><time>2026-04-12T08:53:13.033Z</time></trkpt><trkpt lat="40.9304667" lon="14.2989267"><ele>40.0</ele><time>2026-04-12T08:53:15.033Z</time></trkpt><trkpt lat="40.93039" lon="14.2988233"><ele>40.0</ele><time>2026-04-12T08:53:17.034Z</time></trkpt><trkpt lat="40.93032" lon="14.2987133"><ele>40.0</ele><time>2026-04-12T08:53:19.032Z</time></trkpt><trkpt lat="40.9302667" lon="14.29859"><ele>40.0</ele><time>2026-04-12T08:53:21.031Z</time></trkpt><trkpt lat="40.9302167" lon="14.2984717"><ele>40.333333333333336</ele><time>2026-04-12T08:53:23.035Z</time></trkpt><trkpt lat="40.9301733" lon="14.298355"><ele>40.66666666666667</ele><time>2026-04-12T08:53:25.033Z</time></trkpt><trkpt lat="40.9301317" lon="14.2982383"><ele>41.0</ele><time>2026-04-12T08:53:27.034Z</time></trkpt><trkpt lat="40.9300783" lon="14.2981433"><ele>41.333333333333336</ele><time>2026-04-12T08:53:29.034Z</time></trkpt><trkpt lat="40.9300017" lon="14.2981283"><ele>41.666666666666664</ele><time>2026-04-12T08:53:31.034Z</time></trkpt><trkpt lat="40.92992" lon="14.2981633"><ele>42.0</ele><time>2026-04-12T08:53:33.034Z</time></trkpt><trkpt lat="40.9298417" lon="14.2981917"><ele>42.0</ele><time>2026-04-12T08:53:35.033Z</time></trkpt><trkpt lat="40.92975" lon="14.2981883"><ele>42.0</ele><time>2026-04-12T08:53:37.034Z</time></trkpt><trkpt lat="40.9296533" lon="14.2981917"><ele>42.0</ele><time>2026-04-12T08:53:39.034Z</time></trkpt><trkpt lat="40.929555" lon="14.2982067"><ele>42.0</ele><time>2026-04-12T08:53:41.033Z</time></trkpt><trkpt lat="40.929465" lon="14.29822"><ele>42.0</ele><time>2026-04-12T08:53:43.034Z</time></trkpt><trkpt lat="40.9294017" lon="14.298225"><ele>42.0</ele><time>2026-04-12T08:53:45.033Z</time></trkpt><trkpt lat="40.9293067" lon="14.29825"><ele>42.0</ele><time>2026-04-12T08:53:48.032Z</time></trkpt><trkpt lat="40.9292183" lon="14.29826"><ele>42.0</ele><time>2026-04-12T08:53:50.033Z</time></trkpt><trkpt lat="40.9291217" lon="14.2982617"><ele>42.0</ele><time>2026-04-12T08:53:52.033Z</time></trkpt><trkpt lat="40.92903" lon="14.2982733"><ele>42.0</ele><time>2026-04-12T08:53:54.034Z</time></trkpt><trkpt lat="40.9289283" lon="14.298285"><ele>42.0</ele><time>2026-04-12T08:53:56.035Z</time></trkpt><trkpt lat="40.9288317" lon="14.298305"><ele>42.0</ele><time>2026-04-12T08:53:58.033Z</time></trkpt><trkpt lat="40.9287417" lon="14.2983267"><ele>42.0</ele><time>2026-04-12T08:54:00.034Z</time></trkpt><trkpt lat="40.92865" lon="14.2983467"><ele>42.0</ele><time>2026-04-12T08:54:02.034Z</time></trkpt><trkpt lat="40.9285633" lon="14.2983533"><ele>42.0</ele><time>2026-04-12T08:54:04.033Z</time></trkpt><trkpt lat="40.9284717" lon="14.2983533"><ele>42.0</ele><time>2026-04-12T08:54:06.033Z</time></trkpt><trkpt lat="40.9283767" lon="14.2983733"><ele>42.2</ele><time>2026-04-12T08:54:08.033Z</time></trkpt><trkpt lat="40.9282783" lon="14.2983867"><ele>42.400000000000006</ele><time>2026-04-12T08:54:10.032Z</time></trkpt><trkpt lat="40.9281817" lon="14.2983917"><ele>42.599999999999994</ele><time>2026-04-12T08:54:12.032Z</time></trkpt><trkpt lat="40.9280883" lon="14.2984017"><ele>42.8</ele><time>2026-04-12T08:54:14.033Z</time></trkpt><trkpt lat="40.9279917" lon="14.2984217"><ele>43.0</ele><time>2026-04-12T08:54:16.031Z</time></trkpt><trkpt lat="40.9278933" lon="14.2984417"><ele>43.0</ele><time>2026-04-12T08:54:18.032Z</time></trkpt><trkpt lat="40.9277933" lon="14.2984667"><ele>43.0</ele><time>2026-04-12T08:54:20.032Z</time></trkpt><trkpt lat="40.927695" lon="14.298485"><ele>43.0</ele><time>2026-04-12T08:54:22.032Z</time></trkpt><trkpt lat="40.9275983" lon="14.2985"><ele>43.0</ele><time>2026-04-12T08:54:24.033Z</time></trkpt><trkpt lat="40.9275083" lon="14.29851"><ele>43.0</ele><time>2026-04-12T08:54:26.033Z</time></trkpt><trkpt lat="40.927435" lon="14.2985283"><ele>43.0</ele><time>2026-04-12T08:54:28.033Z</time></trkpt><trkpt lat="40.92736" lon="14.2985367"><ele>43.0</ele><time>2026-04-12T08:54:30.033Z</time></trkpt><trkpt lat="40.92728" lon="14.298485"><ele>43.0</ele><time>2026-04-12T08:54:33.033Z</time></trkpt><trkpt lat="40.9272117" lon="14.298475"><ele>43.0</ele><time>2026-04-12T08:54:35.033Z</time></trkpt><trkpt lat="40.9271417" lon="14.2985017"><ele>43.0</ele><time>2026-04-12T08:54:37.033Z</time></trkpt><trkpt lat="40.9270633" lon="14.2985283"><ele>43.0</ele><time>2026-04-12T08:54:39.033Z</time></trkpt><trkpt lat="40.9269783" lon="14.2985417"><ele>43.0</ele><time>2026-04-12T08:54:41.033Z</time></trkpt><trkpt lat="40.9268833" lon="14.2985433"><ele>43.0</ele><time>2026-04-12T08:54:43.032Z</time></trkpt><trkpt lat="40.9267933" lon="14.2985333"><ele>43.0</ele><time>2026-04-12T08:54:45.033Z</time></trkpt><trkpt lat="40.9267" lon="14.2985383"><ele>43.0</ele><time>2026-04-12T08:54:47.033Z</time></trkpt><trkpt lat="40.9266067" lon="14.2985517"><ele>43.0</ele><time>2026-04-12T08:54:49.034Z</time></trkpt><trkpt lat="40.9265117" lon="14.2985567"><ele>43.4</ele><time>2026-04-12T08:54:51.032Z</time></trkpt><trkpt lat="40.9264183" lon="14.2985633"><ele>43.8</ele><time>2026-04-12T08:54:53.033Z</time></trkpt><trkpt lat="40.926325" lon="14.2985733"><ele>44.2</ele><time>2026-04-12T08:54:55.033Z</time></trkpt><trkpt lat="40.926235" lon="14.2985767"><ele>44.6</ele><time>2026-04-12T08:54:57.032Z</time></trkpt><trkpt lat="40.926135" lon="14.2985733"><ele>45.0</ele><time>2026-04-12T08:54:59.033Z</time></trkpt><trkpt lat="40.9260367" lon="14.2985817"><ele>45.0</ele><time>2026-04-12T08:55:01.033Z</time></trkpt><trkpt lat="40.92594" lon="14.29858"><ele>45.0</ele><time>2026-04-12T08:55:03.034Z</time></trkpt><trkpt lat="40.9258483" lon="14.2985683"><ele>45.0</ele><time>2026-04-12T08:55:05.033Z</time></trkpt><trkpt lat="40.9257467" lon="14.2985633"><ele>45.0</ele><time>2026-04-12T08:55:07.034Z</time></trkpt><trkpt lat="40.9256433" lon="14.2985483"><ele>45.0</ele><time>2026-04-12T08:55:09.034Z</time></trkpt><trkpt lat="40.9255483" lon="14.2985267"><ele>45.4</ele><time>2026-04-12T08:55:11.033Z</time></trkpt><trkpt lat="40.925455" lon="14.2985083"><ele>45.8</ele><time>2026-04-12T08:55:13.034Z</time></trkpt><trkpt lat="40.9253633" lon="14.29846"><ele>46.2</ele><time>2026-04-12T08:55:15.032Z</time></trkpt><trkpt lat="40.9252717" lon="14.298405"><ele>46.6</ele><time>2026-04-12T08:55:17.033Z</time></trkpt><trkpt lat="40.9251833" lon="14.2983433"><ele>47.0</ele><time>2026-04-12T08:55:19.031Z</time></trkpt><trkpt lat="40.9250917" lon="14.2982817"><ele>46.8</ele><time>2026-04-12T08:55:21.031Z</time></trkpt><trkpt lat="40.925" lon="14.298225"><ele>46.6</ele><time>2026-04-12T08:55:23.032Z</time></trkpt><trkpt lat="40.9249133" lon="14.2981667"><ele>46.4</ele><time>2026-04-12T08:55:25.033Z</time></trkpt><trkpt lat="40.924835" lon="14.2980917"><ele>46.199999999999996</ele><time>2026-04-12T08:55:27.032Z</time></trkpt><trkpt lat="40.9247583" lon="14.2980083"><ele>46.0</ele><time>2026-04-12T08:55:29.03Z</time></trkpt><trkpt lat="40.9246867" lon="14.297915"><ele>46.0</ele><time>2026-04-12T08:55:31.031Z</time></trkpt><trkpt lat="40.92462" lon="14.29781"><ele>46.0</ele><time>2026-04-12T08:55:33.031Z</time></trkpt><trkpt lat="40.92456" lon="14.2977083"><ele>46.0</ele><time>2026-04-12T08:55:35.032Z</time></trkpt><trkpt lat="40.9245017" lon="14.2976067"><ele>46.0</ele><time>2026-04-12T08:55:37.031Z</time></trkpt><trkpt lat="40.92444" lon="14.29751"><ele>46.0</ele><time>2026-04-12T08:55:39.031Z</time></trkpt><trkpt lat="40.9243783" lon="14.297405"><ele>46.0</ele><time>2026-04-12T08:55:41.031Z</time></trkpt><trkpt lat="40.92432" lon="14.2973083"><ele>46.0</ele><time>2026-04-12T08:55:43.031Z</time></trkpt><trkpt lat="40.9242767" lon="14.2972067"><ele>46.0</ele><time>2026-04-12T08:55:45.031Z</time></trkpt><trkpt lat="40.9242283" lon="14.297105"><ele>46.0</ele><time>2026-04-12T08:55:47.031Z</time></trkpt><trkpt lat="40.9241717" lon="14.29702"><ele>46.0</ele><time>2026-04-12T08:55:49.031Z</time></trkpt><trkpt lat="40.9241283" lon="14.2969483"><ele>46.0</ele><time>2026-04-12T08:55:51.035Z</time></trkpt><trkpt lat="40.92409" lon="14.2968633"><ele>46.16666666666667</ele><time>2026-04-12T08:55:53.031Z</time></trkpt><trkpt lat="40.9240467" lon="14.2967867"><ele>46.333333333333336</ele><time>2026-04-12T08:55:55.033Z</time></trkpt><trkpt lat="40.9239867" lon="14.29672"><ele>46.5</ele><time>2026-04-12T08:55:57.031Z</time></trkpt><trkpt lat="40.9239333" lon="14.29664"><ele>46.666666666666664</ele><time>2026-04-12T08:55:59.031Z</time></trkpt><trkpt lat="40.9238733" lon="14.2965617"><ele>46.83333333333333</ele><time>2026-04-12T08:56:01.031Z</time></trkpt><trkpt lat="40.923825" lon="14.2964667"><ele>47.0</ele><time>2026-04-12T08:56:03.031Z</time></trkpt><trkpt lat="40.92378" lon="14.2963717"><ele>47.0</ele><time>2026-04-12T08:56:05.031Z</time></trkpt><trkpt lat="40.923735" lon="14.2962767"><ele>47.0</ele><time>2026-04-12T08:56:07.031Z</time></trkpt><trkpt lat="40.9236817" lon="14.2961883"><ele>47.0</ele><time>2026-04-12T08:56:09.031Z</time></trkpt><trkpt lat="40.9236333" lon="14.296095"><ele>47.0</ele><time>2026-04-12T08:56:11.031Z</time></trkpt><trkpt lat="40.923575" lon="14.296005"><ele>47.0</ele><time>2026-04-12T08:56:13.031Z</time></trkpt><trkpt lat="40.9235217" lon="14.295905"><ele>47.0</ele><time>2026-04-12T08:56:15.031Z</time></trkpt><trkpt lat="40.9234683" lon="14.295805"><ele>47.0</ele><time>2026-04-12T08:56:17.03Z</time></trkpt><trkpt lat="40.9234167" lon="14.2957067"><ele>47.0</ele><time>2026-04-12T08:56:19.031Z</time></trkpt><trkpt lat="40.9233617" lon="14.2956033"><ele>47.0</ele><time>2026-04-12T08:56:21.031Z</time></trkpt><trkpt lat="40.9233033" lon="14.295505"><ele>47.0</ele><time>2026-04-12T08:56:23.03Z</time></trkpt><trkpt lat="40.9232367" lon="14.295405"><ele>47.0</ele><time>2026-04-12T08:56:25.03Z</time></trkpt><trkpt lat="40.9231783" lon="14.295305"><ele>47.6</ele><time>2026-04-12T08:56:27.03Z</time></trkpt><trkpt lat="40.9231317" lon="14.2952017"><ele>48.2</ele><time>2026-04-12T08:56:29.032Z</time></trkpt><trkpt lat="40.9230833" lon="14.2951067"><ele>48.8</ele><time>2026-04-12T08:56:31.032Z</time></trkpt><trkpt lat="40.9230233" lon="14.29501"><ele>49.4</ele><time>2026-04-12T08:56:33.032Z</time></trkpt><trkpt lat="40.922965" lon="14.2949133"><ele>50.0</ele><time>2026-04-12T08:56:35.031Z</time></trkpt><trkpt lat="40.9229033" lon="14.2948233"><ele>50.2</ele><time>2026-04-12T08:56:37.031Z</time></trkpt><trkpt lat="40.9228417" lon="14.2947217"><ele>50.4</ele><time>2026-04-12T08:56:39.031Z</time></trkpt><trkpt lat="40.9227767" lon="14.2946233"><ele>50.599999999999994</ele><time>2026-04-12T08:56:41.03Z</time></trkpt><trkpt lat="40.9227067" lon="14.294545"><ele>50.8</ele><time>2026-04-12T08:56:43.031Z</time></trkpt><trkpt lat="40.92263" lon="14.2944783"><ele>51.0</ele><time>2026-04-12T08:56:45.03Z</time></trkpt><trkpt lat="40.9225417" lon="14.2944217"><ele>51.0</ele><time>2026-04-12T08:56:47.031Z</time></trkpt><trkpt lat="40.9224467" lon="14.29437"><ele>51.0</ele><time>2026-04-12T08:56:49.03Z</time></trkpt><trkpt lat="40.9223583" lon="14.2943267"><ele>51.0</ele><time>2026-04-12T08:56:51.031Z</time></trkpt><trkpt lat="40.9222667" lon="14.29429"><ele>51.0</ele><time>2026-04-12T08:56:53.031Z</time></trkpt><trkpt lat="40.9221683" lon="14.29425"><ele>51.0</ele><time>2026-04-12T08:56:55.031Z</time></trkpt><trkpt lat="40.92208" lon="14.2942017"><ele>51.0</ele><time>2026-04-12T08:56:57.031Z</time></trkpt><trkpt lat="40.92199" lon="14.2941583"><ele>51.0</ele><time>2026-04-12T08:56:59.031Z</time></trkpt><trkpt lat="40.9218933" lon="14.294115"><ele>51.0</ele><time>2026-04-12T08:57:01.031Z</time></trkpt><trkpt lat="40.9217967" lon="14.294075"><ele>51.0</ele><time>2026-04-12T08:57:03.031Z</time></trkpt><trkpt lat="40.9217017" lon="14.29403"><ele>51.0</ele><time>2026-04-12T08:57:05.031Z</time></trkpt><trkpt lat="40.9216083" lon="14.29399"><ele>51.199999999999996</ele><time>2026-04-12T08:57:07.031Z</time></trkpt><trkpt lat="40.92152" lon="14.2939583"><ele>51.4</ele><time>2026-04-12T08:57:09.03Z</time></trkpt><trkpt lat="40.9214333" lon="14.2939233"><ele>51.6</ele><time>2026-04-12T08:57:11.031Z</time></trkpt><trkpt lat="40.9213467" lon="14.29389"><ele>51.8</ele><time>2026-04-12T08:57:13.03Z</time></trkpt><trkpt lat="40.9212583" lon="14.2938483"><ele>52.0</ele><time>2026-04-12T08:57:15.031Z</time></trkpt><trkpt lat="40.92117" lon="14.2938167"><ele>52.0</ele><time>2026-04-12T08:57:17.032Z</time></trkpt><trkpt lat="40.9210783" lon="14.2937783"><ele>52.0</ele><time>2026-04-12T08:57:19.032Z</time></trkpt><trkpt lat="40.9209917" lon="14.2937233"><ele>52.0</ele><time>2026-04-12T08:57:21.032Z</time></trkpt><trkpt lat="40.9209067" lon="14.2936667"><ele>52.0</ele><time>2026-04-12T08:57:23.031Z</time></trkpt><trkpt lat="40.920815" lon="14.2936083"><ele>52.0</ele><time>2026-04-12T08:57:25.031Z</time></trkpt><trkpt lat="40.9207317" lon="14.293535"><ele>52.2</ele><time>2026-04-12T08:57:27.031Z</time></trkpt><trkpt lat="40.9206533" lon="14.293465"><ele>52.400000000000006</ele><time>2026-04-12T08:57:29.031Z</time></trkpt><trkpt lat="40.9205783" lon="14.2933983"><ele>52.599999999999994</ele><time>2026-04-12T08:57:31.031Z</time></trkpt><trkpt lat="40.9205017" lon="14.2933317"><ele>52.8</ele><time>2026-04-12T08:57:33.03Z</time></trkpt><trkpt lat="40.9204217" lon="14.2932683"><ele>53.0</ele><time>2026-04-12T08:57:35.031Z</time></trkpt><trkpt lat="40.92034" lon="14.2932017"><ele>53.0</ele><time>2026-04-12T08:57:37.03Z</time></trkpt><trkpt lat="40.920265" lon="14.2931117"><ele>53.0</ele><time>2026-04-12T08:57:39.03Z</time></trkpt><trkpt lat="40.9202" lon="14.2930167"><ele>53.0</ele><time>2026-04-12T08:57:41.031Z</time></trkpt><trkpt lat="40.9201183" lon="14.2929383"><ele>53.0</ele><time>2026-04-12T08:57:43.032Z</time></trkpt><trkpt lat="40.92004" lon="14.2928517"><ele>53.0</ele><time>2026-04-12T08:57:45.031Z</time></trkpt><trkpt lat="40.9199733" lon="14.292755"><ele>53.0</ele><time>2026-04-12T08:57:47.03Z</time></trkpt><trkpt lat="40.9199033" lon="14.292665"><ele>53.0</ele><time>2026-04-12T08:57:49.031Z</time></trkpt><trkpt lat="40.91983" lon="14.29258"><ele>53.0</ele><time>2026-04-12T08:57:51.032Z</time></trkpt><trkpt lat="40.9197517" lon="14.2924983"><ele>53.0</ele><time>2026-04-12T08:57:53.03Z</time></trkpt><trkpt lat="40.9196667" lon="14.2924283"><ele>53.0</ele><time>2026-04-12T08:57:55.031Z</time></trkpt><trkpt lat="40.9195717" lon="14.2923783"><ele>53.0</ele><time>2026-04-12T08:57:57.031Z</time></trkpt><trkpt lat="40.9194783" lon="14.2923383"><ele>53.0</ele><time>2026-04-12T08:57:59.031Z</time></trkpt><trkpt lat="40.9193833" lon="14.2923083"><ele>53.0</ele><time>2026-04-12T08:58:01.031Z</time></trkpt><trkpt lat="40.9192917" lon="14.29227"><ele>53.0</ele><time>2026-04-12T08:58:03.03Z</time></trkpt><trkpt lat="40.9191983" lon="14.292235"><ele>53.0</ele><time>2026-04-12T08:58:05.032Z</time></trkpt><trkpt lat="40.9191067" lon="14.2921983"><ele>53.4</ele><time>2026-04-12T08:58:07.032Z</time></trkpt><trkpt lat="40.9190117" lon="14.2921633"><ele>53.8</ele><time>2026-04-12T08:58:09.031Z</time></trkpt><trkpt lat="40.91891" lon="14.2921333"><ele>54.2</ele><time>2026-04-12T08:58:11.031Z</time></trkpt><trkpt lat="40.9188133" lon="14.29209"><ele>54.6</ele><time>2026-04-12T08:58:13.031Z</time></trkpt><trkpt lat="40.918715" lon="14.29205"><ele>55.0</ele><time>2026-04-12T08:58:15.031Z</time></trkpt><trkpt lat="40.918615" lon="14.2920083"><ele>55.0</ele><time>2026-04-12T08:58:17.03Z</time></trkpt><trkpt lat="40.9185133" lon="14.291965"><ele>55.0</ele><time>2026-04-12T08:58:19.03Z</time></trkpt><trkpt lat="40.9184217" lon="14.29193"><ele>55.0</ele><time>2026-04-12T08:58:21.031Z</time></trkpt><trkpt lat="40.9183283" lon="14.29189"><ele>55.0</ele><time>2026-04-12T08:58:23.03Z</time></trkpt><trkpt lat="40.9182367" lon="14.2918433"><ele>55.0</ele><time>2026-04-12T08:58:25.031Z</time></trkpt><trkpt lat="40.91814" lon="14.2918117"><ele>55.0</ele><time>2026-04-12T08:58:27.03Z</time></trkpt><trkpt lat="40.9180417" lon="14.2917667"><ele>55.0</ele><time>2026-04-12T08:58:29.031Z</time></trkpt><trkpt lat="40.9179383" lon="14.2917217"><ele>55.0</ele><time>2026-04-12T08:58:31.03Z</time></trkpt><trkpt lat="40.9178367" lon="14.2916617"><ele>55.0</ele><time>2026-04-12T08:58:33.031Z</time></trkpt><trkpt lat="40.9177417" lon="14.2915967"><ele>55.0</ele><time>2026-04-12T08:58:35.031Z</time></trkpt><trkpt lat="40.91765" lon="14.29153"><ele>55.4</ele><time>2026-04-12T08:58:37.031Z</time></trkpt><trkpt lat="40.9175583" lon="14.2914617"><ele>55.8</ele><time>2026-04-12T08:58:39.031Z</time></trkpt><trkpt lat="40.9174667" lon="14.2914"><ele>56.2</ele><time>2026-04-12T08:58:41.031Z</time></trkpt><trkpt lat="40.9173783" lon="14.29133"><ele>56.6</ele><time>2026-04-12T08:58:43.031Z</time></trkpt><trkpt lat="40.917285" lon="14.291265"><ele>57.0</ele><time>2026-04-12T08:58:45.031Z</time></trkpt><trkpt lat="40.917195" lon="14.291215"><ele>57.0</ele><time>2026-04-12T08:58:47.031Z</time></trkpt><trkpt lat="40.9171033" lon="14.2911667"><ele>57.0</ele><time>2026-04-12T08:58:49.031Z</time></trkpt><trkpt lat="40.9170133" lon="14.291105"><ele>57.0</ele><time>2026-04-12T08:58:51.032Z</time></trkpt><trkpt lat="40.916915" lon="14.29104"><ele>57.0</ele><time>2026-04-12T08:58:53.032Z</time></trkpt><trkpt lat="40.9168183" lon="14.290985"><ele>57.0</ele><time>2026-04-12T08:58:55.031Z</time></trkpt><trkpt lat="40.9167133" lon="14.2909267"><ele>57.0</ele><time>2026-04-12T08:58:57.031Z</time></trkpt><trkpt lat="40.916615" lon="14.2908667"><ele>57.0</ele><time>2026-04-12T08:58:59.03Z</time></trkpt><trkpt lat="40.91652" lon="14.2908067"><ele>57.0</ele><time>2026-04-12T08:59:01.031Z</time></trkpt><trkpt lat="40.9164167" lon="14.2907517"><ele>57.0</ele><time>2026-04-12T08:59:03.03Z</time></trkpt><trkpt lat="40.9163133" lon="14.29069"><ele>57.0</ele><time>2026-04-12T08:59:05.031Z</time></trkpt><trkpt lat="40.9162167" lon="14.2906233"><ele>57.2</ele><time>2026-04-12T08:59:07.031Z</time></trkpt><trkpt lat="40.916115" lon="14.2905733"><ele>57.400000000000006</ele><time>2026-04-12T08:59:09.031Z</time></trkpt><trkpt lat="40.9160083" lon="14.2905383"><ele>57.599999999999994</ele><time>2026-04-12T08:59:11.031Z</time></trkpt><trkpt lat="40.9159017" lon="14.29051"><ele>57.8</ele><time>2026-04-12T08:59:13.031Z</time></trkpt><trkpt lat="40.9158" lon="14.2904917"><ele>58.0</ele><time>2026-04-12T08:59:15.031Z</time></trkpt><trkpt lat="40.9156883" lon="14.290475"><ele>58.2</ele><time>2026-04-12T08:59:17.031Z</time></trkpt><trkpt lat="40.915585" lon="14.2904733"><ele>58.4</ele><time>2026-04-12T08:59:19.031Z</time></trkpt><trkpt lat="40.9154717" lon="14.2904733"><ele>58.60000000000001</ele><time>2026-04-12T08:59:21.031Z</time></trkpt><trkpt lat="40.9153583" lon="14.2904733"><ele>58.800000000000004</ele><time>2026-04-12T08:59:23.031Z</time></trkpt><trkpt lat="40.91526" lon="14.290485"><ele>59.0</ele><time>2026-04-12T08:59:25.031Z</time></trkpt><trkpt lat="40.915155" lon="14.29049"><ele>59.25</ele><time>2026-04-12T08:59:27.031Z</time></trkpt><trkpt lat="40.9150367" lon="14.2904983"><ele>59.5</ele><time>2026-04-12T08:59:29.032Z</time></trkpt><trkpt lat="40.914925" lon="14.2905083"><ele>59.75</ele><time>2026-04-12T08:59:31.031Z</time></trkpt><trkpt lat="40.91481" lon="14.2905217"><ele>60.0</ele><time>2026-04-12T08:59:33.03Z</time></trkpt><trkpt lat="40.914695" lon="14.290535"><ele>60.0</ele><time>2026-04-12T08:59:35.031Z</time></trkpt><trkpt lat="40.9145817" lon="14.29054"><ele>60.0</ele><time>2026-04-12T08:59:37.031Z</time></trkpt><trkpt lat="40.9144683" lon="14.2905483"><ele>60.0</ele><time>2026-04-12T08:59:39.032Z</time></trkpt><trkpt lat="40.9143517" lon="14.2905467"><ele>60.0</ele><time>2026-04-12T08:59:41.032Z</time></trkpt><trkpt lat="40.9142433" lon="14.2905433"><ele>60.5</ele><time>2026-04-12T08:59:43.03Z</time></trkpt><trkpt lat="40.9141283" lon="14.2905233"><ele>61.0</ele><time>2026-04-12T08:59:45.031Z</time></trkpt><trkpt lat="40.9140133" lon="14.2905017"><ele>61.5</ele><time>2026-04-12T08:59:47.031Z</time></trkpt><trkpt lat="40.913905" lon="14.2904767"><ele>62.0</ele><time>2026-04-12T08:59:49.031Z</time></trkpt><trkpt lat="40.913795" lon="14.2904433"><ele>62.0</ele><time>2026-04-12T08:59:51.031Z</time></trkpt><trkpt lat="40.9136867" lon="14.2904033"><ele>62.0</ele><time>2026-04-12T08:59:53.03Z</time></trkpt><trkpt lat="40.9135783" lon="14.2903617"><ele>62.0</ele><time>2026-04-12T08:59:55.031Z</time></trkpt><trkpt lat="40.913465" lon="14.2903183"><ele>62.0</ele><time>2026-04-12T08:59:57.031Z</time></trkpt><trkpt lat="40.9133583" lon="14.290265"><ele>62.25</ele><time>2026-04-12T08:59:59.031Z</time></trkpt><trkpt lat="40.9132533" lon="14.2901983"><ele>62.5</ele><time>2026-04-12T09:00:01.03Z</time></trkpt><trkpt lat="40.9131417" lon="14.2901367"><ele>62.75</ele><time>2026-04-12T09:00:03.03Z</time></trkpt><trkpt lat="40.9130317" lon="14.29008"><ele>63.0</ele><time>2026-04-12T09:00:05.031Z</time></trkpt><trkpt lat="40.9129317" lon="14.29001"><ele>63.0</ele><time>2026-04-12T09:00:07.031Z</time></trkpt><trkpt lat="40.912835" lon="14.2899383"><ele>63.0</ele><time>2026-04-12T09:00:09.031Z</time></trkpt><trkpt lat="40.9127383" lon="14.2898633"><ele>63.0</ele><time>2026-04-12T09:00:11.031Z</time></trkpt><trkpt lat="40.912635" lon="14.2897967"><ele>63.0</ele><time>2026-04-12T09:00:13.031Z</time></trkpt><trkpt lat="40.9125367" lon="14.28972"><ele>63.0</ele><time>2026-04-12T09:00:15.03Z</time></trkpt><trkpt lat="40.91244" lon="14.2896383"><ele>63.0</ele><time>2026-04-12T09:00:17.03Z</time></trkpt><trkpt lat="40.9123367" lon="14.28956"><ele>63.0</ele><time>2026-04-12T09:00:19.031Z</time></trkpt><trkpt lat="40.9122317" lon="14.289485"><ele>63.0</ele><time>2026-04-12T09:00:21.031Z</time></trkpt><trkpt lat="40.9121333" lon="14.2893917"><ele>63.0</ele><time>2026-04-12T09:00:23.031Z</time></trkpt><trkpt lat="40.912035" lon="14.2893183"><ele>63.0</ele><time>2026-04-12T09:00:25.031Z</time></trkpt><trkpt lat="40.9119483" lon="14.2892467"><ele>63.0</ele><time>2026-04-12T09:00:27.031Z</time></trkpt><trkpt lat="40.9118667" lon="14.289175"><ele>63.0</ele><time>2026-04-12T09:00:29.032Z</time></trkpt><trkpt lat="40.91178" lon="14.2891067"><ele>63.0</ele><time>2026-04-12T09:00:31.032Z</time></trkpt><trkpt lat="40.9116967" lon="14.28904"><ele>63.0</ele><time>2026-04-12T09:00:33.03Z</time></trkpt><trkpt lat="40.9116267" lon="14.2889817"><ele>63.0</ele><time>2026-04-12T09:00:35.031Z</time></trkpt><trkpt lat="40.911555" lon="14.288925"><ele>63.0</ele><time>2026-04-12T09:00:37.033Z</time></trkpt><trkpt lat="40.9114833" lon="14.2888633"><ele>63.0</ele><time>2026-04-12T09:00:39.031Z</time></trkpt><trkpt lat="40.9114083" lon="14.2888033"><ele>63.0</ele><time>2026-04-12T09:00:41.031Z</time></trkpt><trkpt lat="40.9113317" lon="14.2887417"><ele>63.0</ele><time>2026-04-12T09:00:43.032Z</time></trkpt><trkpt lat="40.91125" lon="14.2886733"><ele>63.0</ele><time>2026-04-12T09:00:45.031Z</time></trkpt><trkpt lat="40.9111683" lon="14.2886067"><ele>63.0</ele><time>2026-04-12T09:00:47.032Z</time></trkpt><trkpt lat="40.9110867" lon="14.28854"><ele>63.0</ele><time>2026-04-12T09:00:49.031Z</time></trkpt><trkpt lat="40.911005" lon="14.2884733"><ele>63.0</ele><time>2026-04-12T09:00:51.032Z</time></trkpt><trkpt lat="40.910925" lon="14.2884"><ele>63.0</ele><time>2026-04-12T09:00:53.031Z</time></trkpt><trkpt lat="40.910845" lon="14.2883283"><ele>63.0</ele><time>2026-04-12T09:00:55.032Z</time></trkpt><trkpt lat="40.91077" lon="14.28826"><ele>63.0</ele><time>2026-04-12T09:00:57.03Z</time></trkpt><trkpt lat="40.9106883" lon="14.2881867"><ele>63.0</ele><time>2026-04-12T09:00:59.032Z</time></trkpt><trkpt lat="40.9106067" lon="14.28812"><ele>63.0</ele><time>2026-04-12T09:01:01.032Z</time></trkpt><trkpt lat="40.910535" lon="14.2880517"><ele>63.0</ele><time>2026-04-12T09:01:03.032Z</time></trkpt><trkpt lat="40.9104667" lon="14.287985"><ele>63.0</ele><time>2026-04-12T09:01:05.031Z</time></trkpt><trkpt lat="40.910395" lon="14.2879267"><ele>63.0</ele><time>2026-04-12T09:01:07.031Z</time></trkpt><trkpt lat="40.9103367" lon="14.2878617"><ele>63.0</ele><time>2026-04-12T09:01:09.03Z</time></trkpt><trkpt lat="40.9102783" lon="14.2878117"><ele>63.0</ele><time>2026-04-12T09:01:11.032Z</time></trkpt><trkpt lat="40.9102267" lon="14.2877617"><ele>63.0</ele><time>2026-04-12T09:01:13.032Z</time></trkpt><trkpt lat="40.9101683" lon="14.287705"><ele>63.0</ele><time>2026-04-12T09:01:15.032Z</time></trkpt><trkpt lat="40.9101" lon="14.2876567"><ele>63.0</ele><time>2026-04-12T09:01:17.031Z</time></trkpt><trkpt lat="40.9100217" lon="14.2876117"><ele>63.833333333333336</ele><time>2026-04-12T09:01:19.031Z</time></trkpt><trkpt lat="40.909945" lon="14.2875517"><ele>64.66666666666667</ele><time>2026-04-12T09:01:21.031Z</time></trkpt><trkpt lat="40.90988" lon="14.2874783"><ele>65.5</ele><time>2026-04-12T09:01:23.031Z</time></trkpt><trkpt lat="40.90981" lon="14.28742"><ele>66.33333333333334</ele><time>2026-04-12T09:01:25.031Z</time></trkpt><trkpt lat="40.909735" lon="14.2873633"><ele>67.16666666666667</ele><time>2026-04-12T09:01:27.031Z</time></trkpt><trkpt lat="40.9096633" lon="14.2873017"><ele>68.0</ele><time>2026-04-12T09:01:29.032Z</time></trkpt><trkpt lat="40.9095867" lon="14.2872433"><ele>68.2</ele><time>2026-04-12T09:01:31.031Z</time></trkpt><trkpt lat="40.90951" lon="14.2871833"><ele>68.4</ele><time>2026-04-12T09:01:33.032Z</time></trkpt><trkpt lat="40.9094333" lon="14.2871333"><ele>68.60000000000001</ele><time>2026-04-12T09:01:35.031Z</time></trkpt><trkpt lat="40.909355" lon="14.287075"><ele>68.8</ele><time>2026-04-12T09:01:37.031Z</time></trkpt><trkpt lat="40.90927" lon="14.2870133"><ele>69.0</ele><time>2026-04-12T09:01:39.03Z</time></trkpt><trkpt lat="40.9091883" lon="14.2869533"><ele>69.16666666666667</ele><time>2026-04-12T09:01:41.032Z</time></trkpt><trkpt lat="40.9091167" lon="14.2868983"><ele>69.33333333333333</ele><time>2026-04-12T09:01:43.032Z</time></trkpt><trkpt lat="40.90904" lon="14.2868417"><ele>69.5</ele><time>2026-04-12T09:01:45.03Z</time></trkpt><trkpt lat="40.9089617" lon="14.2867833"><ele>69.66666666666666</ele><time>2026-04-12T09:01:47.031Z</time></trkpt><trkpt lat="40.9088917" lon="14.2867283"><ele>69.83333333333333</ele><time>2026-04-12T09:01:49.032Z</time></trkpt><trkpt lat="40.9088183" lon="14.28667"><ele>70.0</ele><time>2026-04-12T09:01:51.032Z</time></trkpt><trkpt lat="40.9087467" lon="14.28662"><ele>70.0</ele><time>2026-04-12T09:01:53.03Z</time></trkpt><trkpt lat="40.9086883" lon="14.2865767"><ele>70.0</ele><time>2026-04-12T09:01:55.032Z</time></trkpt><trkpt lat="40.9086283" lon="14.286515"><ele>70.0</ele><time>2026-04-12T09:01:57.032Z</time></trkpt><trkpt lat="40.9085633" lon="14.2864483"><ele>70.0</ele><time>2026-04-12T09:01:59.032Z</time></trkpt><trkpt lat="40.9084883" lon="14.2863817"><ele>70.0</ele><time>2026-04-12T09:02:01.032Z</time></trkpt><trkpt lat="40.9084167" lon="14.2863167"><ele>70.0</ele><time>2026-04-12T09:02:03.031Z</time></trkpt><trkpt lat="40.9083483" lon="14.2862633"><ele>69.83333333333333</ele><time>2026-04-12T09:02:05.031Z</time></trkpt><trkpt lat="40.9082817" lon="14.2862133"><ele>69.66666666666666</ele><time>2026-04-12T09:02:07.031Z</time></trkpt><trkpt lat="40.9082183" lon="14.2861717"><ele>69.5</ele><time>2026-04-12T09:02:09.032Z</time></trkpt><trkpt lat="40.90815" lon="14.2861117"><ele>69.33333333333333</ele><time>2026-04-12T09:02:11.032Z</time></trkpt><trkpt lat="40.908075" lon="14.2860467"><ele>69.16666666666667</ele><time>2026-04-12T09:02:13.031Z</time></trkpt><trkpt lat="40.9080017" lon="14.2859817"><ele>69.0</ele><time>2026-04-12T09:02:15.032Z</time></trkpt><trkpt lat="40.907935" lon="14.28591"><ele>69.0</ele><time>2026-04-12T09:02:17.032Z</time></trkpt><trkpt lat="40.9078633" lon="14.2858433"><ele>69.0</ele><time>2026-04-12T09:02:19.03Z</time></trkpt><trkpt lat="40.9077917" lon="14.2857883"><ele>69.0</ele><time>2026-04-12T09:02:21.032Z</time></trkpt><trkpt lat="40.907725" lon="14.2857333"><ele>69.0</ele><time>2026-04-12T09:02:23.031Z</time></trkpt><trkpt lat="40.9076583" lon="14.28567"><ele>69.0</ele><time>2026-04-12T09:02:25.032Z</time></trkpt><trkpt lat="40.9075867" lon="14.28561"><ele>69.0</ele><time>2026-04-12T09:02:27.032Z</time></trkpt><trkpt lat="40.9075183" lon="14.2855467"><ele>69.83333333333333</ele><time>2026-04-12T09:02:29.031Z</time></trkpt><trkpt lat="40.907445" lon="14.2854883"><ele>70.66666666666667</ele><time>2026-04-12T09:02:31.031Z</time></trkpt><trkpt lat="40.9073733" lon="14.2854317"><ele>71.5</ele><time>2026-04-12T09:02:33.031Z</time></trkpt><trkpt lat="40.9072967" lon="14.2853783"><ele>72.33333333333334</ele><time>2026-04-12T09:02:35.032Z</time></trkpt><trkpt lat="40.907225" lon="14.2853183"><ele>73.16666666666667</ele><time>2026-04-12T09:02:37.031Z</time></trkpt><trkpt lat="40.9071517" lon="14.2852417"><ele>74.0</ele><time>2026-04-12T09:02:39.033Z</time></trkpt><trkpt lat="40.9070717" lon="14.2851733"><ele>74.0</ele><time>2026-04-12T09:02:41.033Z</time></trkpt><trkpt lat="40.9069933" lon="14.28511"><ele>74.0</ele><time>2026-04-12T09:02:43.032Z</time></trkpt><trkpt lat="40.9069133" lon="14.2850367"><ele>74.0</ele><time>2026-04-12T09:02:45.032Z</time></trkpt><trkpt lat="40.9068317" lon="14.2849817"><ele>74.0</ele><time>2026-04-12T09:02:47.032Z</time></trkpt><trkpt lat="40.90676" lon="14.2849267"><ele>74.0</ele><time>2026-04-12T09:02:49.032Z</time></trkpt><trkpt lat="40.9066917" lon="14.2848917"><ele>74.0</ele><time>2026-04-12T09:02:51.032Z</time></trkpt><trkpt lat="40.9066283" lon="14.284865"><ele>74.66666666666667</ele><time>2026-04-12T09:02:53.032Z</time></trkpt><trkpt lat="40.90656" lon="14.2848267"><ele>75.33333333333334</ele><time>2026-04-12T09:02:55.031Z</time></trkpt><trkpt lat="40.9064817" lon="14.2847967"><ele>76.0</ele><time>2026-04-12T09:02:57.031Z</time></trkpt><trkpt lat="40.9064017" lon="14.2847683"><ele>76.66666666666667</ele><time>2026-04-12T09:02:59.032Z</time></trkpt><trkpt lat="40.9063133" lon="14.2847317"><ele>77.33333333333333</ele><time>2026-04-12T09:03:01.031Z</time></trkpt><trkpt lat="40.9062183" lon="14.284715"><ele>78.0</ele><time>2026-04-12T09:03:03.032Z</time></trkpt><trkpt lat="40.90613" lon="14.2846967"><ele>78.2</ele><time>2026-04-12T09:03:05.032Z</time></trkpt><trkpt lat="40.9060283" lon="14.28471"><ele>78.4</ele><time>2026-04-12T09:03:07.032Z</time></trkpt><trkpt lat="40.9059283" lon="14.284715"><ele>78.60000000000001</ele><time>2026-04-12T09:03:09.033Z</time></trkpt><trkpt lat="40.9058317" lon="14.2847233"><ele>78.8</ele><time>2026-04-12T09:03:11.032Z</time></trkpt><trkpt lat="40.90573" lon="14.28474"><ele>79.0</ele><time>2026-04-12T09:03:13.032Z</time></trkpt><trkpt lat="40.9056333" lon="14.2847567"><ele>79.0</ele><time>2026-04-12T09:03:15.033Z</time></trkpt><trkpt lat="40.905535" lon="14.2847717"><ele>79.0</ele><time>2026-04-12T09:03:17.032Z</time></trkpt><trkpt lat="40.90543" lon="14.2847983"><ele>79.0</ele><time>2026-04-12T09:03:19.032Z</time></trkpt><trkpt lat="40.9053217" lon="14.284825"><ele>79.0</ele><time>2026-04-12T09:03:21.032Z</time></trkpt><trkpt lat="40.9052067" lon="14.2848517"><ele>79.0</ele><time>2026-04-12T09:03:23.033Z</time></trkpt><trkpt lat="40.9050983" lon="14.2848717"><ele>79.0</ele><time>2026-04-12T09:03:25.033Z</time></trkpt><trkpt lat="40.9049867" lon="14.2849"><ele>79.0</ele><time>2026-04-12T09:03:27.032Z</time></trkpt><trkpt lat="40.90487" lon="14.2849283"><ele>79.0</ele><time>2026-04-12T09:03:29.031Z</time></trkpt><trkpt lat="40.904755" lon="14.284945"><ele>79.0</ele><time>2026-04-12T09:03:31.032Z</time></trkpt><trkpt lat="40.9046483" lon="14.28498"><ele>79.0</ele><time>2026-04-12T09:03:33.032Z</time></trkpt><trkpt lat="40.9045383" lon="14.2850067"><ele>79.0</ele><time>2026-04-12T09:03:35.031Z</time></trkpt><trkpt lat="40.9044267" lon="14.285035"><ele>79.0</ele><time>2026-04-12T09:03:37.031Z</time></trkpt><trkpt lat="40.9043233" lon="14.2850617"><ele>79.0</ele><time>2026-04-12T09:03:39.032Z</time></trkpt><trkpt lat="40.904215" lon="14.2850917"><ele>79.0</ele><time>2026-04-12T09:03:41.032Z</time></trkpt><trkpt lat="40.9041017" lon="14.2851183"><ele>79.2</ele><time>2026-04-12T09:03:43.031Z</time></trkpt><trkpt lat="40.9039933" lon="14.2851383"><ele>79.4</ele><time>2026-04-12T09:03:45.037Z</time></trkpt><trkpt lat="40.9038933" lon="14.2851617"><ele>79.6</ele><time>2026-04-12T09:03:47.031Z</time></trkpt><trkpt lat="40.90379" lon="14.2851783"><ele>79.8</ele><time>2026-04-12T09:03:49.032Z</time></trkpt><trkpt lat="40.90368" lon="14.285205"><ele>80.0</ele><time>2026-04-12T09:03:51.031Z</time></trkpt><trkpt lat="40.9035717" lon="14.2852433"><ele>80.0</ele><time>2026-04-12T09:03:53.032Z</time></trkpt><trkpt lat="40.9034617" lon="14.2852783"><ele>80.0</ele><time>2026-04-12T09:03:55.032Z</time></trkpt><trkpt lat="40.9033533" lon="14.2853117"><ele>80.0</ele><time>2026-04-12T09:03:57.032Z</time></trkpt><trkpt lat="40.9032467" lon="14.2853417"><ele>80.0</ele><time>2026-04-12T09:03:59.032Z</time></trkpt><trkpt lat="40.90314" lon="14.285375"><ele>80.0</ele><time>2026-04-12T09:04:01.032Z</time></trkpt><trkpt lat="40.9030383" lon="14.2854017"><ele>80.8</ele><time>2026-04-12T09:04:03.031Z</time></trkpt><trkpt lat="40.9029317" lon="14.2854383"><ele>81.6</ele><time>2026-04-12T09:04:05.033Z</time></trkpt><trkpt lat="40.9028233" lon="14.2854717"><ele>82.4</ele><time>2026-04-12T09:04:07.032Z</time></trkpt><trkpt lat="40.9027133" lon="14.2855033"><ele>83.2</ele><time>2026-04-12T09:04:09.031Z</time></trkpt><trkpt lat="40.9026183" lon="14.285525"><ele>84.0</ele><time>2026-04-12T09:04:11.032Z</time></trkpt><trkpt lat="40.902525" lon="14.2855467"><ele>84.4</ele><time>2026-04-12T09:04:13.033Z</time></trkpt><trkpt lat="40.9024233" lon="14.2855667"><ele>84.80000000000001</ele><time>2026-04-12T09:04:15.032Z</time></trkpt><trkpt lat="40.9023217" lon="14.2855933"><ele>85.19999999999999</ele><time>2026-04-12T09:04:17.033Z</time></trkpt><trkpt lat="40.902215" lon="14.28562"><ele>85.6</ele><time>2026-04-12T09:04:19.034Z</time></trkpt><trkpt lat="40.9021117" lon="14.2856417"><ele>86.0</ele><time>2026-04-12T09:04:21.031Z</time></trkpt><trkpt lat="40.9019933" lon="14.2856917"><ele>86.0</ele><time>2026-04-12T09:04:23.032Z</time></trkpt><trkpt lat="40.9018733" lon="14.2857333"><ele>86.0</ele><time>2026-04-12T09:04:25.032Z</time></trkpt><trkpt lat="40.9017483" lon="14.28576"><ele>86.0</ele><time>2026-04-12T09:04:27.032Z</time></trkpt><trkpt lat="40.9016283" lon="14.2857883"><ele>86.0</ele><time>2026-04-12T09:04:29.032Z</time></trkpt><trkpt lat="40.9015067" lon="14.285835"><ele>85.8</ele><time>2026-04-12T09:04:31.032Z</time></trkpt><trkpt lat="40.9014433" lon="14.2858617"><ele>85.6</ele><time>2026-04-12T09:04:32.031Z</time></trkpt><trkpt lat="40.9013283" lon="14.2858833"><ele>85.4</ele><time>2026-04-12T09:04:34.032Z</time></trkpt><trkpt lat="40.901215" lon="14.2858983"><ele>85.2</ele><time>2026-04-12T09:04:36.032Z</time></trkpt><trkpt lat="40.9011517" lon="14.28592"><ele>85.0</ele><time>2026-04-12T09:04:37.031Z</time></trkpt><trkpt lat="40.9010283" lon="14.28596"><ele>85.0</ele><time>2026-04-12T09:04:39.032Z</time></trkpt><trkpt lat="40.900965" lon="14.28597"><ele>85.0</ele><time>2026-04-12T09:04:40.031Z</time></trkpt><trkpt lat="40.900855" lon="14.285985"><ele>85.0</ele><time>2026-04-12T09:04:42.032Z</time></trkpt><trkpt lat="40.90075" lon="14.28601"><ele>85.0</ele><time>2026-04-12T09:04:44.032Z</time></trkpt><trkpt lat="40.900635" lon="14.2860283"><ele>85.0</ele><time>2026-04-12T09:04:46.031Z</time></trkpt><trkpt lat="40.9005233" lon="14.2860333"><ele>85.25</ele><time>2026-04-12T09:04:48.033Z</time></trkpt><trkpt lat="40.9004067" lon="14.2860333"><ele>85.5</ele><time>2026-04-12T09:04:50.032Z</time></trkpt><trkpt lat="40.9002933" lon="14.2860133"><ele>85.75</ele><time>2026-04-12T09:04:52.031Z</time></trkpt><trkpt lat="40.9001833" lon="14.28598"><ele>86.0</ele><time>2026-04-12T09:04:54.032Z</time></trkpt><trkpt lat="40.9000783" lon="14.285945"><ele>85.5</ele><time>2026-04-12T09:04:56.032Z</time></trkpt><trkpt lat="40.8999817" lon="14.28589"><ele>85.0</ele><time>2026-04-12T09:04:58.032Z</time></trkpt><trkpt lat="40.8998833" lon="14.2858117"><ele>84.5</ele><time>2026-04-12T09:05:00.032Z</time></trkpt><trkpt lat="40.8997733" lon="14.2857617"><ele>84.0</ele><time>2026-04-12T09:05:02.032Z</time></trkpt><trkpt lat="40.8996567" lon="14.28572"><ele>84.0</ele><time>2026-04-12T09:05:04.03Z</time></trkpt><trkpt lat="40.8995483" lon="14.2856867"><ele>84.0</ele><time>2026-04-12T09:05:06.031Z</time></trkpt><trkpt lat="40.8994567" lon="14.2856533"><ele>84.0</ele><time>2026-04-12T09:05:08.032Z</time></trkpt><trkpt lat="40.8993767" lon="14.2856333"><ele>84.0</ele><time>2026-04-12T09:05:13.031Z</time></trkpt><trkpt lat="40.8993" lon="14.2855883"><ele>84.0</ele><time>2026-04-12T09:05:17.032Z</time></trkpt><trkpt lat="40.8992333" lon="14.2855367"><ele>84.0</ele><time>2026-04-12T09:05:19.031Z</time></trkpt><trkpt lat="40.8991633" lon="14.2854867"><ele>83.83333333333333</ele><time>2026-04-12T09:05:21.031Z</time></trkpt><trkpt lat="40.8990983" lon="14.2854233"><ele>83.66666666666667</ele><time>2026-04-12T09:05:23.031Z</time></trkpt><trkpt lat="40.8990183" lon="14.28537"><ele>83.5</ele><time>2026-04-12T09:05:25.032Z</time></trkpt><trkpt lat="40.8989567" lon="14.2852867"><ele>83.33333333333334</ele><time>2026-04-12T09:05:27.033Z</time></trkpt><trkpt lat="40.8988717" lon="14.2852233"><ele>83.16666666666667</ele><time>2026-04-12T09:05:29.033Z</time></trkpt><trkpt lat="40.8987867" lon="14.28518"><ele>83.0</ele><time>2026-04-12T09:05:31.033Z</time></trkpt><trkpt lat="40.8987083" lon="14.2851283"><ele>83.0</ele><time>2026-04-12T09:05:33.031Z</time></trkpt><trkpt lat="40.89864" lon="14.2850683"><ele>83.0</ele><time>2026-04-12T09:05:35.032Z</time></trkpt><trkpt lat="40.8985683" lon="14.285"><ele>83.0</ele><time>2026-04-12T09:05:37.032Z</time></trkpt><trkpt lat="40.8985133" lon="14.2849117"><ele>83.0</ele><time>2026-04-12T09:05:39.032Z</time></trkpt><trkpt lat="40.8984617" lon="14.284815"><ele>83.0</ele><time>2026-04-12T09:05:41.032Z</time></trkpt><trkpt lat="40.89841" lon="14.2847117"><ele>83.0</ele><time>2026-04-12T09:05:43.033Z</time></trkpt><trkpt lat="40.8983367" lon="14.2846317"><ele>82.0</ele><time>2026-04-12T09:05:45.033Z</time></trkpt><trkpt lat="40.89826" lon="14.2845467"><ele>81.0</ele><time>2026-04-12T09:05:47.032Z</time></trkpt><trkpt lat="40.898185" lon="14.2844667"><ele>80.0</ele><time>2026-04-12T09:05:49.034Z</time></trkpt><trkpt lat="40.898115" lon="14.2843733"><ele>79.0</ele><time>2026-04-12T09:05:51.034Z</time></trkpt><trkpt lat="40.8980333" lon="14.284295"><ele>78.0</ele><time>2026-04-12T09:05:53.033Z</time></trkpt><trkpt lat="40.8979417" lon="14.2842183"><ele>78.0</ele><time>2026-04-12T09:05:55.032Z</time></trkpt><trkpt lat="40.89786" lon="14.2841233"><ele>78.0</ele><time>2026-04-12T09:05:57.031Z</time></trkpt><trkpt lat="40.8977733" lon="14.2840417"><ele>78.0</ele><time>2026-04-12T09:05:59.032Z</time></trkpt><trkpt lat="40.8976833" lon="14.2839633"><ele>78.0</ele><time>2026-04-12T09:06:01.031Z</time></trkpt><trkpt lat="40.8975933" lon="14.2838767"><ele>78.0</ele><time>2026-04-12T09:06:03.032Z</time></trkpt><trkpt lat="40.89751" lon="14.28379"><ele>78.6</ele><time>2026-04-12T09:06:05.031Z</time></trkpt><trkpt lat="40.897425" lon="14.2837"><ele>79.19999999999999</ele><time>2026-04-12T09:06:07.032Z</time></trkpt><trkpt lat="40.8973383" lon="14.2836183"><ele>79.8</ele><time>2026-04-12T09:06:09.031Z</time></trkpt><trkpt lat="40.8972517" lon="14.2835317"><ele>80.39999999999999</ele><time>2026-04-12T09:06:11.031Z</time></trkpt><trkpt lat="40.8971683" lon="14.2834467"><ele>81.0</ele><time>2026-04-12T09:06:13.032Z</time></trkpt><trkpt lat="40.8970833" lon="14.283355"><ele>81.0</ele><time>2026-04-12T09:06:15.032Z</time></trkpt><trkpt lat="40.8969967" lon="14.2832717"><ele>81.0</ele><time>2026-04-12T09:06:17.032Z</time></trkpt><trkpt lat="40.896905" lon="14.2831867"><ele>81.0</ele><time>2026-04-12T09:06:19.032Z</time></trkpt><trkpt lat="40.896815" lon="14.2831083"><ele>81.0</ele><time>2026-04-12T09:06:21.031Z</time></trkpt><trkpt lat="40.8967333" lon="14.2830267"><ele>81.0</ele><time>2026-04-12T09:06:23.032Z</time></trkpt><trkpt lat="40.8966567" lon="14.2829333"><ele>81.0</ele><time>2026-04-12T09:06:25.032Z</time></trkpt><trkpt lat="40.8965817" lon="14.28284"><ele>81.0</ele><time>2026-04-12T09:06:27.032Z</time></trkpt><trkpt lat="40.8965" lon="14.2827517"><ele>81.0</ele><time>2026-04-12T09:06:29.032Z</time></trkpt><trkpt lat="40.896415" lon="14.2826717"><ele>81.0</ele><time>2026-04-12T09:06:31.032Z</time></trkpt><trkpt lat="40.8963267" lon="14.282585"><ele>81.0</ele><time>2026-04-12T09:06:33.031Z</time></trkpt><trkpt lat="40.8962417" lon="14.2824967"><ele>81.0</ele><time>2026-04-12T09:06:35.032Z</time></trkpt><trkpt lat="40.8961567" lon="14.2824133"><ele>81.0</ele><time>2026-04-12T09:06:37.033Z</time></trkpt><trkpt lat="40.896075" lon="14.2823367"><ele>81.0</ele><time>2026-04-12T09:06:39.032Z</time></trkpt><trkpt lat="40.8959867" lon="14.28226"><ele>81.0</ele><time>2026-04-12T09:06:41.031Z</time></trkpt><trkpt lat="40.895905" lon="14.2821967"><ele>81.0</ele><time>2026-04-12T09:06:43.032Z</time></trkpt><trkpt lat="40.8958183" lon="14.282115"><ele>80.8</ele><time>2026-04-12T09:06:45.032Z</time></trkpt><trkpt lat="40.8957283" lon="14.282045"><ele>80.6</ele><time>2026-04-12T09:06:47.032Z</time></trkpt><trkpt lat="40.8956333" lon="14.2819733"><ele>80.4</ele><time>2026-04-12T09:06:49.032Z</time></trkpt><trkpt lat="40.8955417" lon="14.2818883"><ele>80.2</ele><time>2026-04-12T09:06:51.031Z</time></trkpt><trkpt lat="40.8954517" lon="14.2818"><ele>80.0</ele><time>2026-04-12T09:06:53.032Z</time></trkpt><trkpt lat="40.8953633" lon="14.2817133"><ele>80.0</ele><time>2026-04-12T09:06:55.032Z</time></trkpt><trkpt lat="40.895275" lon="14.2816217"><ele>80.0</ele><time>2026-04-12T09:06:57.032Z</time></trkpt><trkpt lat="40.8951817" lon="14.2815383"><ele>80.0</ele><time>2026-04-12T09:06:59.033Z</time></trkpt><trkpt lat="40.89509" lon="14.28146"><ele>80.0</ele><time>2026-04-12T09:07:01.032Z</time></trkpt><trkpt lat="40.8949967" lon="14.28138"><ele>80.0</ele><time>2026-04-12T09:07:03.033Z</time></trkpt><trkpt lat="40.8949067" lon="14.2813117"><ele>80.8</ele><time>2026-04-12T09:07:05.033Z</time></trkpt><trkpt lat="40.8948333" lon="14.2812483"><ele>81.6</ele><time>2026-04-12T09:07:07.032Z</time></trkpt><trkpt lat="40.8947567" lon="14.2811867"><ele>82.4</ele><time>2026-04-12T09:07:09.031Z</time></trkpt><trkpt lat="40.8946767" lon="14.28112"><ele>83.2</ele><time>2026-04-12T09:07:11.032Z</time></trkpt><trkpt lat="40.8945917" lon="14.28105"><ele>84.0</ele><time>2026-04-12T09:07:13.032Z</time></trkpt><trkpt lat="40.894505" lon="14.2809817"><ele>84.0</ele><time>2026-04-12T09:07:15.033Z</time></trkpt><trkpt lat="40.8944217" lon="14.2809067"><ele>84.0</ele><time>2026-04-12T09:07:17.032Z</time></trkpt><trkpt lat="40.8943333" lon="14.280835"><ele>84.0</ele><time>2026-04-12T09:07:19.032Z</time></trkpt><trkpt lat="40.8942417" lon="14.2807683"><ele>84.0</ele><time>2026-04-12T09:07:21.032Z</time></trkpt><trkpt lat="40.89415" lon="14.280705"><ele>84.0</ele><time>2026-04-12T09:07:23.032Z</time></trkpt><trkpt lat="40.894055" lon="14.2806367"><ele>84.6</ele><time>2026-04-12T09:07:25.032Z</time></trkpt><trkpt lat="40.8939617" lon="14.280565"><ele>85.2</ele><time>2026-04-12T09:07:27.031Z</time></trkpt><trkpt lat="40.8938667" lon="14.2805"><ele>85.8</ele><time>2026-04-12T09:07:29.033Z</time></trkpt><trkpt lat="40.8937733" lon="14.2804283"><ele>86.39999999999999</ele><time>2026-04-12T09:07:31.032Z</time></trkpt><trkpt lat="40.8936817" lon="14.28036"><ele>87.0</ele><time>2026-04-12T09:07:33.032Z</time></trkpt><trkpt lat="40.8935883" lon="14.2802917"><ele>87.0</ele><time>2026-04-12T09:07:35.032Z</time></trkpt><trkpt lat="40.893495" lon="14.2802233"><ele>87.0</ele><time>2026-04-12T09:07:37.032Z</time></trkpt><trkpt lat="40.8934" lon="14.28017"><ele>87.0</ele><time>2026-04-12T09:07:39.031Z</time></trkpt><trkpt lat="40.893315" lon="14.2801133"><ele>87.0</ele><time>2026-04-12T09:07:41.032Z</time></trkpt><trkpt lat="40.8932283" lon="14.28006"><ele>87.0</ele><time>2026-04-12T09:07:43.032Z</time></trkpt><trkpt lat="40.8931583" lon="14.280015"><ele>87.0</ele><time>2026-04-12T09:07:45.032Z</time></trkpt><trkpt lat="40.8930983" lon="14.2799683"><ele>87.0</ele><time>2026-04-12T09:07:47.032Z</time></trkpt><trkpt lat="40.893015" lon="14.2799133"><ele>87.0</ele><time>2026-04-12T09:07:50.032Z</time></trkpt><trkpt lat="40.89296" lon="14.2798633"><ele>87.0</ele><time>2026-04-12T09:07:52.032Z</time></trkpt><trkpt lat="40.892895" lon="14.27981"><ele>87.0</ele><time>2026-04-12T09:07:54.032Z</time></trkpt><trkpt lat="40.892825" lon="14.27975"><ele>87.0</ele><time>2026-04-12T09:07:56.034Z</time></trkpt><trkpt lat="40.8927467" lon="14.2797"><ele>87.0</ele><time>2026-04-12T09:07:58.034Z</time></trkpt><trkpt lat="40.892665" lon="14.2796333"><ele>87.0</ele><time>2026-04-12T09:08:00.034Z</time></trkpt><trkpt lat="40.892585" lon="14.2795783"><ele>87.0</ele><time>2026-04-12T09:08:02.031Z</time></trkpt><trkpt lat="40.892515" lon="14.279515"><ele>87.0</ele><time>2026-04-12T09:08:04.032Z</time></trkpt><trkpt lat="40.8924317" lon="14.2794567"><ele>87.0</ele><time>2026-04-12T09:08:06.032Z</time></trkpt><trkpt lat="40.8923583" lon="14.27941"><ele>87.0</ele><time>2026-04-12T09:08:08.032Z</time></trkpt><trkpt lat="40.8922783" lon="14.27936"><ele>87.6</ele><time>2026-04-12T09:08:10.032Z</time></trkpt><trkpt lat="40.892195" lon="14.2793083"><ele>88.19999999999999</ele><time>2026-04-12T09:08:12.033Z</time></trkpt><trkpt lat="40.89211" lon="14.2792633"><ele>88.8</ele><time>2026-04-12T09:08:14.033Z</time></trkpt><trkpt lat="40.8920183" lon="14.27923"><ele>89.4</ele><time>2026-04-12T09:08:16.032Z</time></trkpt><trkpt lat="40.8919117" lon="14.2792167"><ele>90.0</ele><time>2026-04-12T09:08:18.033Z</time></trkpt><trkpt lat="40.891815" lon="14.2792733"><ele>90.0</ele><time>2026-04-12T09:08:20.034Z</time></trkpt><trkpt lat="40.8917433" lon="14.2793483"><ele>90.0</ele><time>2026-04-12T09:08:22.031Z</time></trkpt><trkpt lat="40.891665" lon="14.2794217"><ele>90.0</ele><time>2026-04-12T09:08:24.032Z</time></trkpt><trkpt lat="40.8915883" lon="14.2795033"><ele>90.0</ele><time>2026-04-12T09:08:26.033Z</time></trkpt><trkpt lat="40.8915183" lon="14.2795817"><ele>90.0</ele><time>2026-04-12T09:08:28.031Z</time></trkpt><trkpt lat="40.8914333" lon="14.279675"><ele>90.0</ele><time>2026-04-12T09:08:30.033Z</time></trkpt><trkpt lat="40.8913583" lon="14.2797617"><ele>90.0</ele><time>2026-04-12T09:08:32.032Z</time></trkpt><trkpt lat="40.891285" lon="14.27984"><ele>90.0</ele><time>2026-04-12T09:08:34.032Z</time></trkpt><trkpt lat="40.8912117" lon="14.2799217"><ele>90.0</ele><time>2026-04-12T09:08:36.033Z</time></trkpt><trkpt lat="40.8911617" lon="14.2799767"><ele>90.0</ele><time>2026-04-12T09:08:38.032Z</time></trkpt><trkpt lat="40.89111" lon="14.2800267"><ele>90.0</ele><time>2026-04-12T09:08:40.033Z</time></trkpt><trkpt lat="40.8910433" lon="14.2800767"><ele>89.4</ele><time>2026-04-12T09:08:42.033Z</time></trkpt><trkpt lat="40.89097" lon="14.2801417"><ele>88.8</ele><time>2026-04-12T09:08:44.032Z</time></trkpt><trkpt lat="40.8908933" lon="14.2802217"><ele>88.19999999999999</ele><time>2026-04-12T09:08:46.032Z</time></trkpt><trkpt lat="40.89081" lon="14.2803083"><ele>87.6</ele><time>2026-04-12T09:08:48.032Z</time></trkpt><trkpt lat="40.89074" lon="14.280405"><ele>87.0</ele><time>2026-04-12T09:08:50.033Z</time></trkpt><trkpt lat="40.8906567" lon="14.28049"><ele>86.8</ele><time>2026-04-12T09:08:52.031Z</time></trkpt><trkpt lat="40.8905733" lon="14.2805717"><ele>86.6</ele><time>2026-04-12T09:08:54.033Z</time></trkpt><trkpt lat="40.8904817" lon="14.2806483"><ele>86.39999999999999</ele><time>2026-04-12T09:08:56.031Z</time></trkpt><trkpt lat="40.8903917" lon="14.280725"><ele>86.19999999999999</ele><time>2026-04-12T09:08:58.032Z</time></trkpt><trkpt lat="40.8903017" lon="14.2807933"><ele>86.0</ele><time>2026-04-12T09:09:00.033Z</time></trkpt><trkpt lat="40.890215" lon="14.280865"><ele>85.8</ele><time>2026-04-12T09:09:02.033Z</time></trkpt><trkpt lat="40.89017" lon="14.2809583"><ele>85.6</ele><time>2026-04-12T09:09:04.032Z</time></trkpt><trkpt lat="40.89018" lon="14.2810683"><ele>85.4</ele><time>2026-04-12T09:09:06.035Z</time></trkpt><trkpt lat="40.8902317" lon="14.2811633"><ele>85.2</ele><time>2026-04-12T09:09:08.032Z</time></trkpt><trkpt lat="40.8903183" lon="14.2812633"><ele>85.0</ele><time>2026-04-12T09:09:10.031Z</time></trkpt><trkpt lat="40.8904033" lon="14.28135"><ele>85.2</ele><time>2026-04-12T09:09:12.032Z</time></trkpt><trkpt lat="40.8905033" lon="14.2814383"><ele>85.4</ele><time>2026-04-12T09:09:14.033Z</time></trkpt><trkpt lat="40.890595" lon="14.281535"><ele>85.6</ele><time>2026-04-12T09:09:16.032Z</time></trkpt><trkpt lat="40.8906733" lon="14.2816433"><ele>85.8</ele><time>2026-04-12T09:09:18.033Z</time></trkpt><trkpt lat="40.8907333" lon="14.281745"><ele>86.0</ele><time>2026-04-12T09:09:20.032Z</time></trkpt><trkpt lat="40.89079" lon="14.2818417"><ele>86.0</ele><time>2026-04-12T09:09:22.03Z</time></trkpt><trkpt lat="40.89085" lon="14.2819383"><ele>86.0</ele><time>2026-04-12T09:09:24.032Z</time></trkpt><trkpt lat="40.8909067" lon="14.2820283"><ele>86.0</ele><time>2026-04-12T09:09:26.033Z</time></trkpt><trkpt lat="40.8909583" lon="14.2821383"><ele>86.0</ele><time>2026-04-12T09:09:28.032Z</time></trkpt><trkpt lat="40.8910033" lon="14.2822483"><ele>86.0</ele><time>2026-04-12T09:09:30.033Z</time></trkpt><trkpt lat="40.8910433" lon="14.2823567"><ele>86.16666666666667</ele><time>2026-04-12T09:09:32.033Z</time></trkpt><trkpt lat="40.8911017" lon="14.2824583"><ele>86.33333333333334</ele><time>2026-04-12T09:09:34.031Z</time></trkpt><trkpt lat="40.8911783" lon="14.2825533"><ele>86.5</ele><time>2026-04-12T09:09:36.033Z</time></trkpt><trkpt lat="40.8912433" lon="14.2826367"><ele>86.66666666666667</ele><time>2026-04-12T09:09:38.033Z</time></trkpt><trkpt lat="40.8912817" lon="14.2827233"><ele>86.83333333333333</ele><time>2026-04-12T09:09:40.032Z</time></trkpt><trkpt lat="40.89125" lon="14.28282"><ele>87.0</ele><time>2026-04-12T09:09:43.032Z</time></trkpt><trkpt lat="40.8912017" lon="14.2828883"><ele>87.0</ele><time>2026-04-12T09:09:46.033Z</time></trkpt><trkpt lat="40.891155" lon="14.2829733"><ele>87.0</ele><time>2026-04-12T09:09:50.033Z</time></trkpt><trkpt lat="40.891185" lon="14.2830483"><ele>87.0</ele><time>2026-04-12T09:09:53.033Z</time></trkpt><trkpt lat="40.8912417" lon="14.2830933"><ele>87.0</ele><time>2026-04-12T09:09:55.032Z</time></trkpt><trkpt lat="40.8913217" lon="14.28314"><ele>87.0</ele><time>2026-04-12T09:09:57.031Z</time></trkpt><trkpt lat="40.8914067" lon="14.2831867"><ele>87.0</ele><time>2026-04-12T09:09:59.031Z</time></trkpt><trkpt lat="40.8914933" lon="14.28324"><ele>86.6</ele><time>2026-04-12T09:10:01.032Z</time></trkpt><trkpt lat="40.8915817" lon="14.283295"><ele>86.19999999999999</ele><time>2026-04-12T09:10:03.033Z</time></trkpt><trkpt lat="40.8916767" lon="14.2833417"><ele>85.8</ele><time>2026-04-12T09:10:05.033Z</time></trkpt><trkpt lat="40.8917667" lon="14.2834"><ele>85.4</ele><time>2026-04-12T09:10:07.033Z</time></trkpt><trkpt lat="40.8918517" lon="14.28346"><ele>85.0</ele><time>2026-04-12T09:10:09.032Z</time></trkpt><trkpt lat="40.8919333" lon="14.2835367"><ele>85.0</ele><time>2026-04-12T09:10:11.032Z</time></trkpt><trkpt lat="40.8920133" lon="14.283615"><ele>85.0</ele><time>2026-04-12T09:10:13.031Z</time></trkpt><trkpt lat="40.892085" lon="14.2836967"><ele>85.0</ele><time>2026-04-12T09:10:15.032Z</time></trkpt><trkpt lat="40.8921517" lon="14.28378"><ele>85.0</ele><time>2026-04-12T09:10:17.032Z</time></trkpt><trkpt lat="40.8922217" lon="14.2838683"><ele>85.0</ele><time>2026-04-12T09:10:19.032Z</time></trkpt><trkpt lat="40.8923" lon="14.2839533"><ele>85.2</ele><time>2026-04-12T09:10:21.032Z</time></trkpt><trkpt lat="40.8923867" lon="14.28403"><ele>85.4</ele><time>2026-04-12T09:10:23.032Z</time></trkpt><trkpt lat="40.8924633" lon="14.2841133"><ele>85.6</ele><time>2026-04-12T09:10:25.032Z</time></trkpt><trkpt lat="40.892535" lon="14.2841967"><ele>85.8</ele><time>2026-04-12T09:10:27.031Z</time></trkpt><trkpt lat="40.8926117" lon="14.284285"><ele>86.0</ele><time>2026-04-12T09:10:29.032Z</time></trkpt><trkpt lat="40.8926833" lon="14.2843833"><ele>86.0</ele><time>2026-04-12T09:10:31.032Z</time></trkpt><trkpt lat="40.8927467" lon="14.28448"><ele>86.0</ele><time>2026-04-12T09:10:33.031Z</time></trkpt><trkpt lat="40.8928217" lon="14.2845733"><ele>86.0</ele><time>2026-04-12T09:10:35.032Z</time></trkpt><trkpt lat="40.892885" lon="14.284665"><ele>86.0</ele><time>2026-04-12T09:10:37.03Z</time></trkpt><trkpt lat="40.8929433" lon="14.2847633"><ele>86.0</ele><time>2026-04-12T09:10:39.032Z</time></trkpt><trkpt lat="40.8929983" lon="14.284855"><ele>85.8</ele><time>2026-04-12T09:10:41.032Z</time></trkpt><trkpt lat="40.8930517" lon="14.284955"><ele>85.6</ele><time>2026-04-12T09:10:43.03Z</time></trkpt><trkpt lat="40.893095" lon="14.2850717"><ele>85.4</ele><time>2026-04-12T09:10:45.03Z</time></trkpt><trkpt lat="40.893135" lon="14.2851983"><ele>85.2</ele><time>2026-04-12T09:10:47.032Z</time></trkpt><trkpt lat="40.8931767" lon="14.2853033"><ele>85.0</ele><time>2026-04-12T09:10:49.032Z</time></trkpt><trkpt lat="40.8932233" lon="14.2854"><ele>85.0</ele><time>2026-04-12T09:10:51.032Z</time></trkpt><trkpt lat="40.8932683" lon="14.2855033"><ele>85.0</ele><time>2026-04-12T09:10:53.031Z</time></trkpt><trkpt lat="40.8933083" lon="14.2855967"><ele>85.0</ele><time>2026-04-12T09:10:55.032Z</time></trkpt><trkpt lat="40.89335" lon="14.2857017"><ele>85.0</ele><time>2026-04-12T09:10:57.032Z</time></trkpt><trkpt lat="40.8933683" lon="14.2858017"><ele>85.0</ele><time>2026-04-12T09:10:59.032Z</time></trkpt><trkpt lat="40.893365" lon="14.285905"><ele>85.0</ele><time>2026-04-12T09:11:01.032Z</time></trkpt><trkpt lat="40.8933933" lon="14.286"><ele>84.33333333333333</ele><time>2026-04-12T09:11:03.032Z</time></trkpt><trkpt lat="40.8934367" lon="14.286085"><ele>83.66666666666666</ele><time>2026-04-12T09:11:05.033Z</time></trkpt><trkpt lat="40.8934683" lon="14.2861967"><ele>83.0</ele><time>2026-04-12T09:11:07.033Z</time></trkpt><trkpt lat="40.8935183" lon="14.2863033"><ele>82.33333333333333</ele><time>2026-04-12T09:11:09.032Z</time></trkpt><trkpt lat="40.8935433" lon="14.28642"><ele>81.66666666666667</ele><time>2026-04-12T09:11:11.032Z</time></trkpt><trkpt lat="40.8935683" lon="14.2865383"><ele>81.0</ele><time>2026-04-12T09:11:13.032Z</time></trkpt><trkpt lat="40.8935983" lon="14.2866467"><ele>80.83333333333333</ele><time>2026-04-12T09:11:15.032Z</time></trkpt><trkpt lat="40.8936233" lon="14.2867717"><ele>80.66666666666667</ele><time>2026-04-12T09:11:17.032Z</time></trkpt><trkpt lat="40.893655" lon="14.2868883"><ele>80.5</ele><time>2026-04-12T09:11:19.032Z</time></trkpt><trkpt lat="40.893685" lon="14.287"><ele>80.33333333333334</ele><time>2026-04-12T09:11:21.032Z</time></trkpt><trkpt lat="40.893715" lon="14.2871033"><ele>80.16666666666667</ele><time>2026-04-12T09:11:23.032Z</time></trkpt><trkpt lat="40.8937383" lon="14.28721"><ele>80.0</ele><time>2026-04-12T09:11:25.032Z</time></trkpt><trkpt lat="40.8937683" lon="14.2873033"><ele>80.0</ele><time>2026-04-12T09:11:27.032Z</time></trkpt><trkpt lat="40.8937967" lon="14.2873967"><ele>80.0</ele><time>2026-04-12T09:11:29.032Z</time></trkpt><trkpt lat="40.8938267" lon="14.2874867"><ele>80.0</ele><time>2026-04-12T09:11:31.032Z</time></trkpt><trkpt lat="40.893865" lon="14.287575"><ele>80.0</ele><time>2026-04-12T09:11:33.032Z</time></trkpt><trkpt lat="40.8938917" lon="14.2876617"><ele>80.0</ele><time>2026-04-12T09:11:35.032Z</time></trkpt><trkpt lat="40.8939233" lon="14.2877383"><ele>80.0</ele><time>2026-04-12T09:11:37.032Z</time></trkpt><trkpt lat="40.8939883" lon="14.2877483"><ele>80.0</ele><time>2026-04-12T09:11:56.031Z</time></trkpt><trkpt lat="40.8939886" lon="14.2878328"><ele>80.0</ele><time>2026-04-12T09:12:28.797Z</time></trkpt><trkpt lat="40.8937443" lon="14.287829"><ele>80.0</ele><time>2026-04-12T09:12:37.229Z</time></trkpt></trkseg></trk></gpx>